<?xml version="1.0" encoding="UTF-8" standalone="no" ?>
<gpx xmlns="http://www.topografix.com/GPX/1/1" xmlns:xsi="http://www.w3.org/2001/XMLSchema-instance" xsi:schemaLocation="http://www.topografix.com/GPX/1/1 http://www.topografix.com/GPX/1/1/gpx.xsd" version="1.1" creator="VisuGPX - https://www.visugpx.com">
  <metadata>
    <name>2021-03-07 Bregille Chaudanne Quais</name>
  </metadata>
  <trk>
    <name><![CDATA[2021-03-07 Bregille Chaudanne Quais_1]]></name>
    <trkseg>
      <trkpt lat="47.24681" lon="6.0251">
        <ele>271.8</ele>
        <time>2021-03-07T08:32:38Z</time>
      </trkpt>
      <trkpt lat="47.24681" lon="6.0251">
        <ele>274</ele>
        <time>2021-03-07T08:32:39Z</time>
      </trkpt>
      <trkpt lat="47.24681" lon="6.02511">
        <ele>276</ele>
        <time>2021-03-07T08:32:40Z</time>
      </trkpt>
      <trkpt lat="47.24681" lon="6.02511">
        <ele>277.4</ele>
        <time>2021-03-07T08:32:44Z</time>
      </trkpt>
      <trkpt lat="47.24685" lon="6.02511">
        <ele>277</ele>
        <time>2021-03-07T08:33:24Z</time>
      </trkpt>
      <trkpt lat="47.24689" lon="6.02505">
        <ele>277.4</ele>
        <time>2021-03-07T08:34:01Z</time>
      </trkpt>
      <trkpt lat="47.2469" lon="6.02504">
        <ele>277.6</ele>
        <time>2021-03-07T08:34:02Z</time>
      </trkpt>
      <trkpt lat="47.24694" lon="6.025">
        <ele>277.8</ele>
        <time>2021-03-07T08:34:05Z</time>
      </trkpt>
      <trkpt lat="47.24696" lon="6.02499">
        <ele>278</ele>
        <time>2021-03-07T08:34:06Z</time>
      </trkpt>
      <trkpt lat="47.24697" lon="6.02499">
        <ele>278.2</ele>
        <time>2021-03-07T08:34:07Z</time>
      </trkpt>
      <trkpt lat="47.247" lon="6.02497">
        <ele>278.4</ele>
        <time>2021-03-07T08:34:09Z</time>
      </trkpt>
      <trkpt lat="47.24701" lon="6.02495">
        <ele>278.6</ele>
        <time>2021-03-07T08:34:10Z</time>
      </trkpt>
      <trkpt lat="47.24702" lon="6.02495">
        <ele>278.8</ele>
        <time>2021-03-07T08:34:11Z</time>
      </trkpt>
      <trkpt lat="47.24703" lon="6.02494">
        <ele>279</ele>
        <time>2021-03-07T08:34:12Z</time>
      </trkpt>
      <trkpt lat="47.24704" lon="6.02492">
        <ele>279.2</ele>
        <time>2021-03-07T08:34:13Z</time>
      </trkpt>
      <trkpt lat="47.24704" lon="6.02491">
        <ele>279.2</ele>
        <time>2021-03-07T08:34:14Z</time>
      </trkpt>
      <trkpt lat="47.24705" lon="6.0249">
        <ele>279.4</ele>
        <time>2021-03-07T08:34:15Z</time>
      </trkpt>
      <trkpt lat="47.24705" lon="6.02489">
        <ele>279.6</ele>
        <time>2021-03-07T08:34:16Z</time>
      </trkpt>
      <trkpt lat="47.24706" lon="6.02489">
        <ele>279.8</ele>
        <time>2021-03-07T08:34:17Z</time>
      </trkpt>
      <trkpt lat="47.24706" lon="6.0249">
        <ele>279.8</ele>
        <time>2021-03-07T08:34:18Z</time>
      </trkpt>
      <trkpt lat="47.24707" lon="6.0249">
        <ele>279.8</ele>
        <time>2021-03-07T08:34:20Z</time>
      </trkpt>
      <trkpt lat="47.24711" lon="6.0249">
        <ele>279.6</ele>
        <time>2021-03-07T08:35:02Z</time>
      </trkpt>
      <trkpt lat="47.24712" lon="6.02492">
        <ele>279.8</ele>
        <time>2021-03-07T08:35:15Z</time>
      </trkpt>
      <trkpt lat="47.24715" lon="6.02498">
        <ele>279.8</ele>
        <time>2021-03-07T08:35:17Z</time>
      </trkpt>
      <trkpt lat="47.24716" lon="6.025">
        <ele>279.8</ele>
        <time>2021-03-07T08:35:18Z</time>
      </trkpt>
      <trkpt lat="47.24718" lon="6.02503">
        <ele>279.8</ele>
        <time>2021-03-07T08:35:19Z</time>
      </trkpt>
      <trkpt lat="47.24721" lon="6.02508">
        <ele>280</ele>
        <time>2021-03-07T08:35:21Z</time>
      </trkpt>
      <trkpt lat="47.24727" lon="6.02516">
        <ele>280.2</ele>
        <time>2021-03-07T08:35:24Z</time>
      </trkpt>
      <trkpt lat="47.24735" lon="6.0253">
        <ele>280.2</ele>
        <time>2021-03-07T08:35:28Z</time>
      </trkpt>
      <trkpt lat="47.2474" lon="6.02536">
        <ele>280.2</ele>
        <time>2021-03-07T08:35:30Z</time>
      </trkpt>
      <trkpt lat="47.24745" lon="6.02535">
        <ele>280</ele>
        <time>2021-03-07T08:35:32Z</time>
      </trkpt>
      <trkpt lat="47.2475" lon="6.02531">
        <ele>280</ele>
        <time>2021-03-07T08:35:33Z</time>
      </trkpt>
      <trkpt lat="47.24771" lon="6.0251">
        <ele>280</ele>
        <time>2021-03-07T08:35:40Z</time>
      </trkpt>
      <trkpt lat="47.24778" lon="6.02504">
        <ele>280</ele>
        <time>2021-03-07T08:35:42Z</time>
      </trkpt>
      <trkpt lat="47.24783" lon="6.02504">
        <ele>280.2</ele>
        <time>2021-03-07T08:35:44Z</time>
      </trkpt>
      <trkpt lat="47.24785" lon="6.02506">
        <ele>280.4</ele>
        <time>2021-03-07T08:35:45Z</time>
      </trkpt>
      <trkpt lat="47.24786" lon="6.02509">
        <ele>280.4</ele>
        <time>2021-03-07T08:35:46Z</time>
      </trkpt>
      <trkpt lat="47.24788" lon="6.02512">
        <ele>280.6</ele>
        <time>2021-03-07T08:35:47Z</time>
      </trkpt>
      <trkpt lat="47.24789" lon="6.02517">
        <ele>280.6</ele>
        <time>2021-03-07T08:35:48Z</time>
      </trkpt>
      <trkpt lat="47.24791" lon="6.02521">
        <ele>280.6</ele>
        <time>2021-03-07T08:35:49Z</time>
      </trkpt>
      <trkpt lat="47.24799" lon="6.02543">
        <ele>280.6</ele>
        <time>2021-03-07T08:35:53Z</time>
      </trkpt>
      <trkpt lat="47.24814" lon="6.0259">
        <ele>279.6</ele>
        <time>2021-03-07T08:36:00Z</time>
      </trkpt>
      <trkpt lat="47.24817" lon="6.02599">
        <ele>279.6</ele>
        <time>2021-03-07T08:36:01Z</time>
      </trkpt>
      <trkpt lat="47.2482" lon="6.02611">
        <ele>279.4</ele>
        <time>2021-03-07T08:36:03Z</time>
      </trkpt>
      <trkpt lat="47.24827" lon="6.02637">
        <ele>279</ele>
        <time>2021-03-07T08:36:07Z</time>
      </trkpt>
      <trkpt lat="47.24828" lon="6.02644">
        <ele>279</ele>
        <time>2021-03-07T08:36:08Z</time>
      </trkpt>
      <trkpt lat="47.2483" lon="6.0265">
        <ele>279</ele>
        <time>2021-03-07T08:36:09Z</time>
      </trkpt>
      <trkpt lat="47.24831" lon="6.02657">
        <ele>279</ele>
        <time>2021-03-07T08:36:10Z</time>
      </trkpt>
      <trkpt lat="47.24833" lon="6.02663">
        <ele>279</ele>
        <time>2021-03-07T08:36:11Z</time>
      </trkpt>
      <trkpt lat="47.24834" lon="6.02667">
        <ele>279</ele>
        <time>2021-03-07T08:36:12Z</time>
      </trkpt>
      <trkpt lat="47.24835" lon="6.02673">
        <ele>279.2</ele>
        <time>2021-03-07T08:36:13Z</time>
      </trkpt>
      <trkpt lat="47.24836" lon="6.02679">
        <ele>279.2</ele>
        <time>2021-03-07T08:36:14Z</time>
      </trkpt>
      <trkpt lat="47.24839" lon="6.02689">
        <ele>279.4</ele>
        <time>2021-03-07T08:36:16Z</time>
      </trkpt>
      <trkpt lat="47.24839" lon="6.02693">
        <ele>279.6</ele>
        <time>2021-03-07T08:36:17Z</time>
      </trkpt>
      <trkpt lat="47.2484" lon="6.02698">
        <ele>279.6</ele>
        <time>2021-03-07T08:36:18Z</time>
      </trkpt>
      <trkpt lat="47.24841" lon="6.02703">
        <ele>279.6</ele>
        <time>2021-03-07T08:36:19Z</time>
      </trkpt>
      <trkpt lat="47.2484" lon="6.02706">
        <ele>279.6</ele>
        <time>2021-03-07T08:36:20Z</time>
      </trkpt>
      <trkpt lat="47.24838" lon="6.0271">
        <ele>279.6</ele>
        <time>2021-03-07T08:36:21Z</time>
      </trkpt>
      <trkpt lat="47.24835" lon="6.02711">
        <ele>279.6</ele>
        <time>2021-03-07T08:36:22Z</time>
      </trkpt>
      <trkpt lat="47.24831" lon="6.02712">
        <ele>279.6</ele>
        <time>2021-03-07T08:36:23Z</time>
      </trkpt>
      <trkpt lat="47.24817" lon="6.02715">
        <ele>279.6</ele>
        <time>2021-03-07T08:36:26Z</time>
      </trkpt>
      <trkpt lat="47.2479" lon="6.02722">
        <ele>278.6</ele>
        <time>2021-03-07T08:36:31Z</time>
      </trkpt>
      <trkpt lat="47.24785" lon="6.02723">
        <ele>278.4</ele>
        <time>2021-03-07T08:36:32Z</time>
      </trkpt>
      <trkpt lat="47.24777" lon="6.02727">
        <ele>278</ele>
        <time>2021-03-07T08:36:33Z</time>
      </trkpt>
      <trkpt lat="47.24771" lon="6.02738">
        <ele>277.4</ele>
        <time>2021-03-07T08:36:35Z</time>
      </trkpt>
      <trkpt lat="47.2477" lon="6.02742">
        <ele>277</ele>
        <time>2021-03-07T08:36:36Z</time>
      </trkpt>
      <trkpt lat="47.24771" lon="6.02747">
        <ele>276.8</ele>
        <time>2021-03-07T08:36:37Z</time>
      </trkpt>
      <trkpt lat="47.24774" lon="6.0275">
        <ele>276.6</ele>
        <time>2021-03-07T08:36:38Z</time>
      </trkpt>
      <trkpt lat="47.24779" lon="6.02754">
        <ele>276.4</ele>
        <time>2021-03-07T08:36:39Z</time>
      </trkpt>
      <trkpt lat="47.24782" lon="6.02757">
        <ele>276.2</ele>
        <time>2021-03-07T08:36:40Z</time>
      </trkpt>
      <trkpt lat="47.24785" lon="6.02759">
        <ele>276</ele>
        <time>2021-03-07T08:36:41Z</time>
      </trkpt>
      <trkpt lat="47.24789" lon="6.02762">
        <ele>276</ele>
        <time>2021-03-07T08:36:42Z</time>
      </trkpt>
      <trkpt lat="47.24792" lon="6.02763">
        <ele>276</ele>
        <time>2021-03-07T08:36:43Z</time>
      </trkpt>
      <trkpt lat="47.24795" lon="6.02767">
        <ele>276</ele>
        <time>2021-03-07T08:36:44Z</time>
      </trkpt>
      <trkpt lat="47.24801" lon="6.02771">
        <ele>276</ele>
        <time>2021-03-07T08:36:45Z</time>
      </trkpt>
      <trkpt lat="47.24805" lon="6.02775">
        <ele>276.2</ele>
        <time>2021-03-07T08:36:46Z</time>
      </trkpt>
      <trkpt lat="47.24822" lon="6.02786">
        <ele>276.6</ele>
        <time>2021-03-07T08:36:49Z</time>
      </trkpt>
      <trkpt lat="47.24826" lon="6.02789">
        <ele>276.6</ele>
        <time>2021-03-07T08:36:50Z</time>
      </trkpt>
      <trkpt lat="47.24834" lon="6.02795">
        <ele>277</ele>
        <time>2021-03-07T08:36:52Z</time>
      </trkpt>
      <trkpt lat="47.24839" lon="6.02797">
        <ele>277.2</ele>
        <time>2021-03-07T08:36:53Z</time>
      </trkpt>
      <trkpt lat="47.24844" lon="6.02799">
        <ele>277.4</ele>
        <time>2021-03-07T08:36:54Z</time>
      </trkpt>
      <trkpt lat="47.24851" lon="6.02804">
        <ele>277.8</ele>
        <time>2021-03-07T08:36:56Z</time>
      </trkpt>
      <trkpt lat="47.24865" lon="6.02811">
        <ele>278.6</ele>
        <time>2021-03-07T08:37:00Z</time>
      </trkpt>
      <trkpt lat="47.24869" lon="6.02813">
        <ele>278.6</ele>
        <time>2021-03-07T08:37:01Z</time>
      </trkpt>
      <trkpt lat="47.24891" lon="6.02831">
        <ele>279.4</ele>
        <time>2021-03-07T08:37:06Z</time>
      </trkpt>
      <trkpt lat="47.24893" lon="6.0284">
        <ele>279.4</ele>
        <time>2021-03-07T08:37:07Z</time>
      </trkpt>
      <trkpt lat="47.24894" lon="6.02847">
        <ele>279.6</ele>
        <time>2021-03-07T08:37:08Z</time>
      </trkpt>
      <trkpt lat="47.24893" lon="6.02852">
        <ele>279.6</ele>
        <time>2021-03-07T08:37:09Z</time>
      </trkpt>
      <trkpt lat="47.2489" lon="6.02868">
        <ele>279.6</ele>
        <time>2021-03-07T08:37:11Z</time>
      </trkpt>
      <trkpt lat="47.24887" lon="6.02875">
        <ele>279.6</ele>
        <time>2021-03-07T08:37:12Z</time>
      </trkpt>
      <trkpt lat="47.24883" lon="6.0288">
        <ele>279.6</ele>
        <time>2021-03-07T08:37:13Z</time>
      </trkpt>
      <trkpt lat="47.24879" lon="6.02884">
        <ele>279.6</ele>
        <time>2021-03-07T08:37:14Z</time>
      </trkpt>
      <trkpt lat="47.24873" lon="6.02888">
        <ele>279.4</ele>
        <time>2021-03-07T08:37:15Z</time>
      </trkpt>
      <trkpt lat="47.24866" lon="6.0289">
        <ele>279</ele>
        <time>2021-03-07T08:37:16Z</time>
      </trkpt>
      <trkpt lat="47.24859" lon="6.02893">
        <ele>278.8</ele>
        <time>2021-03-07T08:37:17Z</time>
      </trkpt>
      <trkpt lat="47.24854" lon="6.02896">
        <ele>278.4</ele>
        <time>2021-03-07T08:37:18Z</time>
      </trkpt>
      <trkpt lat="47.24847" lon="6.02898">
        <ele>278</ele>
        <time>2021-03-07T08:37:19Z</time>
      </trkpt>
      <trkpt lat="47.24832" lon="6.02904">
        <ele>277.6</ele>
        <time>2021-03-07T08:37:21Z</time>
      </trkpt>
      <trkpt lat="47.24826" lon="6.02906">
        <ele>277.4</ele>
        <time>2021-03-07T08:37:22Z</time>
      </trkpt>
      <trkpt lat="47.24815" lon="6.0291">
        <ele>276.4</ele>
        <time>2021-03-07T08:37:24Z</time>
      </trkpt>
      <trkpt lat="47.24812" lon="6.02911">
        <ele>276</ele>
        <time>2021-03-07T08:37:25Z</time>
      </trkpt>
      <trkpt lat="47.2481" lon="6.02913">
        <ele>275.2</ele>
        <time>2021-03-07T08:37:26Z</time>
      </trkpt>
      <trkpt lat="47.2481" lon="6.02916">
        <ele>275.2</ele>
        <time>2021-03-07T08:37:27Z</time>
      </trkpt>
      <trkpt lat="47.2481" lon="6.02918">
        <ele>274.6</ele>
        <time>2021-03-07T08:37:28Z</time>
      </trkpt>
      <trkpt lat="47.24811" lon="6.0292">
        <ele>274.4</ele>
        <time>2021-03-07T08:37:29Z</time>
      </trkpt>
      <trkpt lat="47.24812" lon="6.02922">
        <ele>274</ele>
        <time>2021-03-07T08:37:30Z</time>
      </trkpt>
      <trkpt lat="47.24812" lon="6.02924">
        <ele>273.8</ele>
        <time>2021-03-07T08:37:31Z</time>
      </trkpt>
      <trkpt lat="47.24813" lon="6.02928">
        <ele>273.4</ele>
        <time>2021-03-07T08:37:32Z</time>
      </trkpt>
      <trkpt lat="47.2482" lon="6.02947">
        <ele>273.2</ele>
        <time>2021-03-07T08:37:36Z</time>
      </trkpt>
      <trkpt lat="47.24827" lon="6.02965">
        <ele>273.2</ele>
        <time>2021-03-07T08:37:40Z</time>
      </trkpt>
      <trkpt lat="47.2483" lon="6.02969">
        <ele>273.2</ele>
        <time>2021-03-07T08:37:41Z</time>
      </trkpt>
      <trkpt lat="47.24832" lon="6.02973">
        <ele>273.2</ele>
        <time>2021-03-07T08:37:42Z</time>
      </trkpt>
      <trkpt lat="47.24845" lon="6.02999">
        <ele>273.6</ele>
        <time>2021-03-07T08:37:47Z</time>
      </trkpt>
      <trkpt lat="47.24861" lon="6.03031">
        <ele>273.8</ele>
        <time>2021-03-07T08:37:53Z</time>
      </trkpt>
      <trkpt lat="47.24872" lon="6.03054">
        <ele>273.8</ele>
        <time>2021-03-07T08:37:58Z</time>
      </trkpt>
      <trkpt lat="47.24874" lon="6.03059">
        <ele>273.8</ele>
        <time>2021-03-07T08:37:59Z</time>
      </trkpt>
      <trkpt lat="47.24877" lon="6.03064">
        <ele>274</ele>
        <time>2021-03-07T08:38:00Z</time>
      </trkpt>
      <trkpt lat="47.24878" lon="6.03069">
        <ele>274</ele>
        <time>2021-03-07T08:38:01Z</time>
      </trkpt>
      <trkpt lat="47.24883" lon="6.03079">
        <ele>274</ele>
        <time>2021-03-07T08:38:03Z</time>
      </trkpt>
      <trkpt lat="47.24885" lon="6.03082">
        <ele>274</ele>
        <time>2021-03-07T08:38:04Z</time>
      </trkpt>
      <trkpt lat="47.24885" lon="6.03084">
        <ele>274.2</ele>
        <time>2021-03-07T08:38:05Z</time>
      </trkpt>
      <trkpt lat="47.24885" lon="6.03085">
        <ele>274.2</ele>
        <time>2021-03-07T08:38:06Z</time>
      </trkpt>
      <trkpt lat="47.24886" lon="6.03088">
        <ele>274.2</ele>
        <time>2021-03-07T08:38:07Z</time>
      </trkpt>
      <trkpt lat="47.24887" lon="6.0309">
        <ele>274.4</ele>
        <time>2021-03-07T08:38:08Z</time>
      </trkpt>
      <trkpt lat="47.24889" lon="6.03093">
        <ele>274.4</ele>
        <time>2021-03-07T08:38:09Z</time>
      </trkpt>
      <trkpt lat="47.24897" lon="6.03114">
        <ele>274.4</ele>
        <time>2021-03-07T08:38:15Z</time>
      </trkpt>
      <trkpt lat="47.24897" lon="6.03118">
        <ele>274.6</ele>
        <time>2021-03-07T08:38:16Z</time>
      </trkpt>
      <trkpt lat="47.24895" lon="6.03126">
        <ele>274.8</ele>
        <time>2021-03-07T08:38:18Z</time>
      </trkpt>
      <trkpt lat="47.24896" lon="6.03129">
        <ele>274.8</ele>
        <time>2021-03-07T08:38:19Z</time>
      </trkpt>
      <trkpt lat="47.24897" lon="6.03132">
        <ele>274.8</ele>
        <time>2021-03-07T08:38:20Z</time>
      </trkpt>
      <trkpt lat="47.24899" lon="6.03134">
        <ele>274.8</ele>
        <time>2021-03-07T08:38:21Z</time>
      </trkpt>
      <trkpt lat="47.24901" lon="6.03137">
        <ele>274.8</ele>
        <time>2021-03-07T08:38:22Z</time>
      </trkpt>
      <trkpt lat="47.24909" lon="6.03149">
        <ele>275.2</ele>
        <time>2021-03-07T08:38:25Z</time>
      </trkpt>
      <trkpt lat="47.24911" lon="6.03154">
        <ele>275.2</ele>
        <time>2021-03-07T08:38:26Z</time>
      </trkpt>
      <trkpt lat="47.2492" lon="6.03169">
        <ele>275.2</ele>
        <time>2021-03-07T08:38:29Z</time>
      </trkpt>
      <trkpt lat="47.24927" lon="6.03179">
        <ele>275.4</ele>
        <time>2021-03-07T08:38:31Z</time>
      </trkpt>
      <trkpt lat="47.24929" lon="6.03184">
        <ele>275.6</ele>
        <time>2021-03-07T08:38:32Z</time>
      </trkpt>
      <trkpt lat="47.2494" lon="6.03202">
        <ele>276</ele>
        <time>2021-03-07T08:38:36Z</time>
      </trkpt>
      <trkpt lat="47.24943" lon="6.03206">
        <ele>276.2</ele>
        <time>2021-03-07T08:38:37Z</time>
      </trkpt>
      <trkpt lat="47.2495" lon="6.03219">
        <ele>276.6</ele>
        <time>2021-03-07T08:38:40Z</time>
      </trkpt>
      <trkpt lat="47.24953" lon="6.03223">
        <ele>276.6</ele>
        <time>2021-03-07T08:38:41Z</time>
      </trkpt>
      <trkpt lat="47.24955" lon="6.03227">
        <ele>276.8</ele>
        <time>2021-03-07T08:38:42Z</time>
      </trkpt>
      <trkpt lat="47.24958" lon="6.03231">
        <ele>276.8</ele>
        <time>2021-03-07T08:38:43Z</time>
      </trkpt>
      <trkpt lat="47.24962" lon="6.03235">
        <ele>276.8</ele>
        <time>2021-03-07T08:38:44Z</time>
      </trkpt>
      <trkpt lat="47.24964" lon="6.03239">
        <ele>277</ele>
        <time>2021-03-07T08:38:45Z</time>
      </trkpt>
      <trkpt lat="47.24967" lon="6.03242">
        <ele>277</ele>
        <time>2021-03-07T08:38:46Z</time>
      </trkpt>
      <trkpt lat="47.24969" lon="6.03246">
        <ele>277</ele>
        <time>2021-03-07T08:38:47Z</time>
      </trkpt>
      <trkpt lat="47.24975" lon="6.03255">
        <ele>277.4</ele>
        <time>2021-03-07T08:38:49Z</time>
      </trkpt>
      <trkpt lat="47.24978" lon="6.03259">
        <ele>277.4</ele>
        <time>2021-03-07T08:38:50Z</time>
      </trkpt>
      <trkpt lat="47.24989" lon="6.03275">
        <ele>277.8</ele>
        <time>2021-03-07T08:38:54Z</time>
      </trkpt>
      <trkpt lat="47.24992" lon="6.03279">
        <ele>277.8</ele>
        <time>2021-03-07T08:38:55Z</time>
      </trkpt>
      <trkpt lat="47.24997" lon="6.03287">
        <ele>278.2</ele>
        <time>2021-03-07T08:38:57Z</time>
      </trkpt>
      <trkpt lat="47.25" lon="6.03291">
        <ele>278.2</ele>
        <time>2021-03-07T08:38:58Z</time>
      </trkpt>
      <trkpt lat="47.25003" lon="6.03297">
        <ele>278.2</ele>
        <time>2021-03-07T08:38:59Z</time>
      </trkpt>
      <trkpt lat="47.2501" lon="6.03308">
        <ele>278.6</ele>
        <time>2021-03-07T08:39:02Z</time>
      </trkpt>
      <trkpt lat="47.25014" lon="6.03312">
        <ele>278.6</ele>
        <time>2021-03-07T08:39:03Z</time>
      </trkpt>
      <trkpt lat="47.25015" lon="6.03315">
        <ele>278.8</ele>
        <time>2021-03-07T08:39:04Z</time>
      </trkpt>
      <trkpt lat="47.25017" lon="6.03318">
        <ele>278.8</ele>
        <time>2021-03-07T08:39:05Z</time>
      </trkpt>
      <trkpt lat="47.25018" lon="6.03321">
        <ele>278.8</ele>
        <time>2021-03-07T08:39:06Z</time>
      </trkpt>
      <trkpt lat="47.25022" lon="6.03329">
        <ele>279</ele>
        <time>2021-03-07T08:39:08Z</time>
      </trkpt>
      <trkpt lat="47.25024" lon="6.03331">
        <ele>279</ele>
        <time>2021-03-07T08:39:09Z</time>
      </trkpt>
      <trkpt lat="47.25027" lon="6.03335">
        <ele>279.2</ele>
        <time>2021-03-07T08:39:10Z</time>
      </trkpt>
      <trkpt lat="47.25029" lon="6.03338">
        <ele>279.4</ele>
        <time>2021-03-07T08:39:11Z</time>
      </trkpt>
      <trkpt lat="47.25032" lon="6.03341">
        <ele>279.4</ele>
        <time>2021-03-07T08:39:12Z</time>
      </trkpt>
      <trkpt lat="47.25034" lon="6.03344">
        <ele>279.6</ele>
        <time>2021-03-07T08:39:13Z</time>
      </trkpt>
      <trkpt lat="47.25037" lon="6.03348">
        <ele>279.6</ele>
        <time>2021-03-07T08:39:14Z</time>
      </trkpt>
      <trkpt lat="47.25038" lon="6.03351">
        <ele>279.8</ele>
        <time>2021-03-07T08:39:15Z</time>
      </trkpt>
      <trkpt lat="47.2504" lon="6.03355">
        <ele>279.8</ele>
        <time>2021-03-07T08:39:16Z</time>
      </trkpt>
      <trkpt lat="47.25045" lon="6.03362">
        <ele>280</ele>
        <time>2021-03-07T08:39:18Z</time>
      </trkpt>
      <trkpt lat="47.25049" lon="6.0337">
        <ele>280.2</ele>
        <time>2021-03-07T08:39:20Z</time>
      </trkpt>
      <trkpt lat="47.25065" lon="6.03392">
        <ele>281</ele>
        <time>2021-03-07T08:39:26Z</time>
      </trkpt>
      <trkpt lat="47.25067" lon="6.03396">
        <ele>281.2</ele>
        <time>2021-03-07T08:39:27Z</time>
      </trkpt>
      <trkpt lat="47.25069" lon="6.03401">
        <ele>281.4</ele>
        <time>2021-03-07T08:39:28Z</time>
      </trkpt>
      <trkpt lat="47.25071" lon="6.03405">
        <ele>281.4</ele>
        <time>2021-03-07T08:39:29Z</time>
      </trkpt>
      <trkpt lat="47.25073" lon="6.03409">
        <ele>281.8</ele>
        <time>2021-03-07T08:39:30Z</time>
      </trkpt>
      <trkpt lat="47.25075" lon="6.03412">
        <ele>282</ele>
        <time>2021-03-07T08:39:31Z</time>
      </trkpt>
      <trkpt lat="47.25078" lon="6.03416">
        <ele>282.2</ele>
        <time>2021-03-07T08:39:32Z</time>
      </trkpt>
      <trkpt lat="47.25081" lon="6.0342">
        <ele>282.2</ele>
        <time>2021-03-07T08:39:33Z</time>
      </trkpt>
      <trkpt lat="47.25084" lon="6.03423">
        <ele>282.4</ele>
        <time>2021-03-07T08:39:34Z</time>
      </trkpt>
      <trkpt lat="47.25087" lon="6.03427">
        <ele>282.4</ele>
        <time>2021-03-07T08:39:35Z</time>
      </trkpt>
      <trkpt lat="47.25089" lon="6.03431">
        <ele>282.6</ele>
        <time>2021-03-07T08:39:36Z</time>
      </trkpt>
      <trkpt lat="47.25091" lon="6.03433">
        <ele>282.8</ele>
        <time>2021-03-07T08:39:37Z</time>
      </trkpt>
      <trkpt lat="47.25094" lon="6.03437">
        <ele>283</ele>
        <time>2021-03-07T08:39:38Z</time>
      </trkpt>
      <trkpt lat="47.25096" lon="6.0344">
        <ele>283</ele>
        <time>2021-03-07T08:39:39Z</time>
      </trkpt>
      <trkpt lat="47.25098" lon="6.03443">
        <ele>283.4</ele>
        <time>2021-03-07T08:39:40Z</time>
      </trkpt>
      <trkpt lat="47.251" lon="6.03446">
        <ele>283.4</ele>
        <time>2021-03-07T08:39:41Z</time>
      </trkpt>
      <trkpt lat="47.25102" lon="6.0345">
        <ele>283.8</ele>
        <time>2021-03-07T08:39:42Z</time>
      </trkpt>
      <trkpt lat="47.25104" lon="6.03452">
        <ele>284</ele>
        <time>2021-03-07T08:39:43Z</time>
      </trkpt>
      <trkpt lat="47.25106" lon="6.03455">
        <ele>284</ele>
        <time>2021-03-07T08:39:44Z</time>
      </trkpt>
      <trkpt lat="47.25109" lon="6.03459">
        <ele>284.2</ele>
        <time>2021-03-07T08:39:45Z</time>
      </trkpt>
      <trkpt lat="47.25111" lon="6.03462">
        <ele>284.4</ele>
        <time>2021-03-07T08:39:46Z</time>
      </trkpt>
      <trkpt lat="47.25113" lon="6.03465">
        <ele>284.6</ele>
        <time>2021-03-07T08:39:47Z</time>
      </trkpt>
      <trkpt lat="47.25116" lon="6.03468">
        <ele>284.8</ele>
        <time>2021-03-07T08:39:48Z</time>
      </trkpt>
      <trkpt lat="47.25118" lon="6.03471">
        <ele>285</ele>
        <time>2021-03-07T08:39:49Z</time>
      </trkpt>
      <trkpt lat="47.2512" lon="6.03474">
        <ele>285</ele>
        <time>2021-03-07T08:39:50Z</time>
      </trkpt>
      <trkpt lat="47.25122" lon="6.03477">
        <ele>285.2</ele>
        <time>2021-03-07T08:39:51Z</time>
      </trkpt>
      <trkpt lat="47.25124" lon="6.0348">
        <ele>285.4</ele>
        <time>2021-03-07T08:39:52Z</time>
      </trkpt>
      <trkpt lat="47.25126" lon="6.03483">
        <ele>285.6</ele>
        <time>2021-03-07T08:39:53Z</time>
      </trkpt>
      <trkpt lat="47.25129" lon="6.03485">
        <ele>285.8</ele>
        <time>2021-03-07T08:39:54Z</time>
      </trkpt>
      <trkpt lat="47.25131" lon="6.03488">
        <ele>286</ele>
        <time>2021-03-07T08:39:55Z</time>
      </trkpt>
      <trkpt lat="47.25133" lon="6.03492">
        <ele>286.4</ele>
        <time>2021-03-07T08:39:56Z</time>
      </trkpt>
      <trkpt lat="47.25136" lon="6.03495">
        <ele>286.4</ele>
        <time>2021-03-07T08:39:57Z</time>
      </trkpt>
      <trkpt lat="47.25138" lon="6.03498">
        <ele>286.6</ele>
        <time>2021-03-07T08:39:58Z</time>
      </trkpt>
      <trkpt lat="47.2514" lon="6.035">
        <ele>286.8</ele>
        <time>2021-03-07T08:39:59Z</time>
      </trkpt>
      <trkpt lat="47.25142" lon="6.03503">
        <ele>287</ele>
        <time>2021-03-07T08:40:00Z</time>
      </trkpt>
      <trkpt lat="47.25144" lon="6.03506">
        <ele>287</ele>
        <time>2021-03-07T08:40:01Z</time>
      </trkpt>
      <trkpt lat="47.25147" lon="6.03509">
        <ele>287.2</ele>
        <time>2021-03-07T08:40:02Z</time>
      </trkpt>
      <trkpt lat="47.25148" lon="6.03512">
        <ele>287.2</ele>
        <time>2021-03-07T08:40:03Z</time>
      </trkpt>
      <trkpt lat="47.2515" lon="6.03514">
        <ele>287.4</ele>
        <time>2021-03-07T08:40:04Z</time>
      </trkpt>
      <trkpt lat="47.25152" lon="6.03517">
        <ele>287.6</ele>
        <time>2021-03-07T08:40:05Z</time>
      </trkpt>
      <trkpt lat="47.25154" lon="6.0352">
        <ele>288</ele>
        <time>2021-03-07T08:40:06Z</time>
      </trkpt>
      <trkpt lat="47.25155" lon="6.03523">
        <ele>287.8</ele>
        <time>2021-03-07T08:40:07Z</time>
      </trkpt>
      <trkpt lat="47.25158" lon="6.03526">
        <ele>288.4</ele>
        <time>2021-03-07T08:40:08Z</time>
      </trkpt>
      <trkpt lat="47.2516" lon="6.03528">
        <ele>288.4</ele>
        <time>2021-03-07T08:40:09Z</time>
      </trkpt>
      <trkpt lat="47.25162" lon="6.03531">
        <ele>288.6</ele>
        <time>2021-03-07T08:40:10Z</time>
      </trkpt>
      <trkpt lat="47.25164" lon="6.03534">
        <ele>288.8</ele>
        <time>2021-03-07T08:40:11Z</time>
      </trkpt>
      <trkpt lat="47.25165" lon="6.03537">
        <ele>288.8</ele>
        <time>2021-03-07T08:40:12Z</time>
      </trkpt>
      <trkpt lat="47.25167" lon="6.0354">
        <ele>289</ele>
        <time>2021-03-07T08:40:13Z</time>
      </trkpt>
      <trkpt lat="47.2517" lon="6.03542">
        <ele>289.2</ele>
        <time>2021-03-07T08:40:14Z</time>
      </trkpt>
      <trkpt lat="47.25172" lon="6.03545">
        <ele>289.2</ele>
        <time>2021-03-07T08:40:15Z</time>
      </trkpt>
      <trkpt lat="47.25173" lon="6.03548">
        <ele>289.4</ele>
        <time>2021-03-07T08:40:16Z</time>
      </trkpt>
      <trkpt lat="47.25175" lon="6.03551">
        <ele>289.4</ele>
        <time>2021-03-07T08:40:17Z</time>
      </trkpt>
      <trkpt lat="47.25178" lon="6.03553">
        <ele>289.6</ele>
        <time>2021-03-07T08:40:18Z</time>
      </trkpt>
      <trkpt lat="47.2518" lon="6.03556">
        <ele>289.6</ele>
        <time>2021-03-07T08:40:19Z</time>
      </trkpt>
      <trkpt lat="47.25182" lon="6.0356">
        <ele>289.8</ele>
        <time>2021-03-07T08:40:20Z</time>
      </trkpt>
      <trkpt lat="47.25184" lon="6.03563">
        <ele>290</ele>
        <time>2021-03-07T08:40:21Z</time>
      </trkpt>
      <trkpt lat="47.25187" lon="6.03566">
        <ele>290</ele>
        <time>2021-03-07T08:40:22Z</time>
      </trkpt>
      <trkpt lat="47.25189" lon="6.03568">
        <ele>290.2</ele>
        <time>2021-03-07T08:40:23Z</time>
      </trkpt>
      <trkpt lat="47.25191" lon="6.03571">
        <ele>290.2</ele>
        <time>2021-03-07T08:40:24Z</time>
      </trkpt>
      <trkpt lat="47.25193" lon="6.03574">
        <ele>290.4</ele>
        <time>2021-03-07T08:40:25Z</time>
      </trkpt>
      <trkpt lat="47.25196" lon="6.03577">
        <ele>290.6</ele>
        <time>2021-03-07T08:40:26Z</time>
      </trkpt>
      <trkpt lat="47.25198" lon="6.0358">
        <ele>290.6</ele>
        <time>2021-03-07T08:40:27Z</time>
      </trkpt>
      <trkpt lat="47.252" lon="6.03583">
        <ele>290.6</ele>
        <time>2021-03-07T08:40:28Z</time>
      </trkpt>
      <trkpt lat="47.25203" lon="6.03586">
        <ele>290.8</ele>
        <time>2021-03-07T08:40:29Z</time>
      </trkpt>
      <trkpt lat="47.25205" lon="6.03589">
        <ele>291</ele>
        <time>2021-03-07T08:40:30Z</time>
      </trkpt>
      <trkpt lat="47.25207" lon="6.03593">
        <ele>291</ele>
        <time>2021-03-07T08:40:31Z</time>
      </trkpt>
      <trkpt lat="47.25209" lon="6.03596">
        <ele>291.2</ele>
        <time>2021-03-07T08:40:32Z</time>
      </trkpt>
      <trkpt lat="47.25211" lon="6.03599">
        <ele>291.2</ele>
        <time>2021-03-07T08:40:33Z</time>
      </trkpt>
      <trkpt lat="47.25213" lon="6.03602">
        <ele>291.4</ele>
        <time>2021-03-07T08:40:34Z</time>
      </trkpt>
      <trkpt lat="47.25215" lon="6.03605">
        <ele>291.6</ele>
        <time>2021-03-07T08:40:35Z</time>
      </trkpt>
      <trkpt lat="47.25217" lon="6.03608">
        <ele>291.8</ele>
        <time>2021-03-07T08:40:36Z</time>
      </trkpt>
      <trkpt lat="47.25219" lon="6.03611">
        <ele>291.8</ele>
        <time>2021-03-07T08:40:37Z</time>
      </trkpt>
      <trkpt lat="47.25221" lon="6.03613">
        <ele>292</ele>
        <time>2021-03-07T08:40:38Z</time>
      </trkpt>
      <trkpt lat="47.25223" lon="6.03616">
        <ele>292.2</ele>
        <time>2021-03-07T08:40:39Z</time>
      </trkpt>
      <trkpt lat="47.25225" lon="6.03619">
        <ele>292.4</ele>
        <time>2021-03-07T08:40:40Z</time>
      </trkpt>
      <trkpt lat="47.25227" lon="6.03621">
        <ele>292.6</ele>
        <time>2021-03-07T08:40:41Z</time>
      </trkpt>
      <trkpt lat="47.25229" lon="6.03625">
        <ele>292.6</ele>
        <time>2021-03-07T08:40:42Z</time>
      </trkpt>
      <trkpt lat="47.25231" lon="6.03627">
        <ele>292.6</ele>
        <time>2021-03-07T08:40:43Z</time>
      </trkpt>
      <trkpt lat="47.25233" lon="6.0363">
        <ele>292.8</ele>
        <time>2021-03-07T08:40:44Z</time>
      </trkpt>
      <trkpt lat="47.25235" lon="6.03633">
        <ele>292.8</ele>
        <time>2021-03-07T08:40:45Z</time>
      </trkpt>
      <trkpt lat="47.25238" lon="6.03636">
        <ele>293</ele>
        <time>2021-03-07T08:40:46Z</time>
      </trkpt>
      <trkpt lat="47.25241" lon="6.03638">
        <ele>293</ele>
        <time>2021-03-07T08:40:47Z</time>
      </trkpt>
      <trkpt lat="47.25244" lon="6.03642">
        <ele>293.2</ele>
        <time>2021-03-07T08:40:48Z</time>
      </trkpt>
      <trkpt lat="47.25246" lon="6.03645">
        <ele>293.2</ele>
        <time>2021-03-07T08:40:49Z</time>
      </trkpt>
      <trkpt lat="47.25248" lon="6.03647">
        <ele>293.4</ele>
        <time>2021-03-07T08:40:50Z</time>
      </trkpt>
      <trkpt lat="47.25251" lon="6.03651">
        <ele>293.4</ele>
        <time>2021-03-07T08:40:51Z</time>
      </trkpt>
      <trkpt lat="47.25253" lon="6.03654">
        <ele>293.6</ele>
        <time>2021-03-07T08:40:52Z</time>
      </trkpt>
      <trkpt lat="47.25255" lon="6.03657">
        <ele>293.6</ele>
        <time>2021-03-07T08:40:53Z</time>
      </trkpt>
      <trkpt lat="47.25258" lon="6.0366">
        <ele>293.8</ele>
        <time>2021-03-07T08:40:54Z</time>
      </trkpt>
      <trkpt lat="47.25261" lon="6.03662">
        <ele>294</ele>
        <time>2021-03-07T08:40:55Z</time>
      </trkpt>
      <trkpt lat="47.25263" lon="6.03665">
        <ele>294.2</ele>
        <time>2021-03-07T08:40:56Z</time>
      </trkpt>
      <trkpt lat="47.25266" lon="6.03668">
        <ele>294.2</ele>
        <time>2021-03-07T08:40:57Z</time>
      </trkpt>
      <trkpt lat="47.25268" lon="6.03671">
        <ele>294.4</ele>
        <time>2021-03-07T08:40:58Z</time>
      </trkpt>
      <trkpt lat="47.2527" lon="6.03673">
        <ele>294.4</ele>
        <time>2021-03-07T08:40:59Z</time>
      </trkpt>
      <trkpt lat="47.25272" lon="6.03676">
        <ele>294.6</ele>
        <time>2021-03-07T08:41:00Z</time>
      </trkpt>
      <trkpt lat="47.25274" lon="6.03679">
        <ele>294.8</ele>
        <time>2021-03-07T08:41:01Z</time>
      </trkpt>
      <trkpt lat="47.25277" lon="6.03682">
        <ele>294.8</ele>
        <time>2021-03-07T08:41:02Z</time>
      </trkpt>
      <trkpt lat="47.25279" lon="6.03686">
        <ele>294.8</ele>
        <time>2021-03-07T08:41:03Z</time>
      </trkpt>
      <trkpt lat="47.25281" lon="6.03689">
        <ele>295</ele>
        <time>2021-03-07T08:41:04Z</time>
      </trkpt>
      <trkpt lat="47.25284" lon="6.03692">
        <ele>295.2</ele>
        <time>2021-03-07T08:41:05Z</time>
      </trkpt>
      <trkpt lat="47.25287" lon="6.03696">
        <ele>295.2</ele>
        <time>2021-03-07T08:41:06Z</time>
      </trkpt>
      <trkpt lat="47.25289" lon="6.03699">
        <ele>295.4</ele>
        <time>2021-03-07T08:41:07Z</time>
      </trkpt>
      <trkpt lat="47.25291" lon="6.03702">
        <ele>295.4</ele>
        <time>2021-03-07T08:41:08Z</time>
      </trkpt>
      <trkpt lat="47.25292" lon="6.03705">
        <ele>295.4</ele>
        <time>2021-03-07T08:41:09Z</time>
      </trkpt>
      <trkpt lat="47.25294" lon="6.03709">
        <ele>295.6</ele>
        <time>2021-03-07T08:41:10Z</time>
      </trkpt>
      <trkpt lat="47.25296" lon="6.03712">
        <ele>295.6</ele>
        <time>2021-03-07T08:41:11Z</time>
      </trkpt>
      <trkpt lat="47.25298" lon="6.03716">
        <ele>295.6</ele>
        <time>2021-03-07T08:41:12Z</time>
      </trkpt>
      <trkpt lat="47.25301" lon="6.03718">
        <ele>295.6</ele>
        <time>2021-03-07T08:41:13Z</time>
      </trkpt>
      <trkpt lat="47.25303" lon="6.03722">
        <ele>295.8</ele>
        <time>2021-03-07T08:41:14Z</time>
      </trkpt>
      <trkpt lat="47.25306" lon="6.03725">
        <ele>295.8</ele>
        <time>2021-03-07T08:41:15Z</time>
      </trkpt>
      <trkpt lat="47.25308" lon="6.03728">
        <ele>296</ele>
        <time>2021-03-07T08:41:16Z</time>
      </trkpt>
      <trkpt lat="47.2531" lon="6.03731">
        <ele>296.2</ele>
        <time>2021-03-07T08:41:17Z</time>
      </trkpt>
      <trkpt lat="47.25313" lon="6.03735">
        <ele>296.4</ele>
        <time>2021-03-07T08:41:18Z</time>
      </trkpt>
      <trkpt lat="47.25315" lon="6.03738">
        <ele>296.4</ele>
        <time>2021-03-07T08:41:19Z</time>
      </trkpt>
      <trkpt lat="47.25336" lon="6.03766">
        <ele>297</ele>
        <time>2021-03-07T08:41:28Z</time>
      </trkpt>
      <trkpt lat="47.2535" lon="6.03784">
        <ele>297.4</ele>
        <time>2021-03-07T08:41:34Z</time>
      </trkpt>
      <trkpt lat="47.25352" lon="6.03786">
        <ele>297.6</ele>
        <time>2021-03-07T08:41:35Z</time>
      </trkpt>
      <trkpt lat="47.25354" lon="6.03789">
        <ele>297.6</ele>
        <time>2021-03-07T08:41:36Z</time>
      </trkpt>
      <trkpt lat="47.25355" lon="6.03792">
        <ele>297.8</ele>
        <time>2021-03-07T08:41:37Z</time>
      </trkpt>
      <trkpt lat="47.25368" lon="6.03811">
        <ele>298.2</ele>
        <time>2021-03-07T08:41:43Z</time>
      </trkpt>
      <trkpt lat="47.25374" lon="6.0382">
        <ele>298.8</ele>
        <time>2021-03-07T08:41:46Z</time>
      </trkpt>
      <trkpt lat="47.25385" lon="6.03835">
        <ele>299.4</ele>
        <time>2021-03-07T08:41:51Z</time>
      </trkpt>
      <trkpt lat="47.25393" lon="6.03844">
        <ele>299.8</ele>
        <time>2021-03-07T08:41:54Z</time>
      </trkpt>
      <trkpt lat="47.254" lon="6.03853">
        <ele>300</ele>
        <time>2021-03-07T08:41:57Z</time>
      </trkpt>
      <trkpt lat="47.25402" lon="6.03857">
        <ele>300.2</ele>
        <time>2021-03-07T08:41:58Z</time>
      </trkpt>
      <trkpt lat="47.25405" lon="6.0386">
        <ele>300.2</ele>
        <time>2021-03-07T08:41:59Z</time>
      </trkpt>
      <trkpt lat="47.25408" lon="6.03864">
        <ele>300.4</ele>
        <time>2021-03-07T08:42:00Z</time>
      </trkpt>
      <trkpt lat="47.2541" lon="6.03867">
        <ele>300.6</ele>
        <time>2021-03-07T08:42:01Z</time>
      </trkpt>
      <trkpt lat="47.25412" lon="6.0387">
        <ele>300.6</ele>
        <time>2021-03-07T08:42:02Z</time>
      </trkpt>
      <trkpt lat="47.25415" lon="6.03873">
        <ele>300.6</ele>
        <time>2021-03-07T08:42:03Z</time>
      </trkpt>
      <trkpt lat="47.25418" lon="6.03876">
        <ele>300.8</ele>
        <time>2021-03-07T08:42:04Z</time>
      </trkpt>
      <trkpt lat="47.2542" lon="6.03879">
        <ele>301</ele>
        <time>2021-03-07T08:42:05Z</time>
      </trkpt>
      <trkpt lat="47.25422" lon="6.03882">
        <ele>301</ele>
        <time>2021-03-07T08:42:06Z</time>
      </trkpt>
      <trkpt lat="47.25425" lon="6.03885">
        <ele>301.2</ele>
        <time>2021-03-07T08:42:07Z</time>
      </trkpt>
      <trkpt lat="47.25427" lon="6.03888">
        <ele>301.2</ele>
        <time>2021-03-07T08:42:08Z</time>
      </trkpt>
      <trkpt lat="47.2543" lon="6.03891">
        <ele>301.4</ele>
        <time>2021-03-07T08:42:09Z</time>
      </trkpt>
      <trkpt lat="47.25432" lon="6.03895">
        <ele>301.4</ele>
        <time>2021-03-07T08:42:10Z</time>
      </trkpt>
      <trkpt lat="47.25435" lon="6.03898">
        <ele>301.6</ele>
        <time>2021-03-07T08:42:11Z</time>
      </trkpt>
      <trkpt lat="47.25437" lon="6.03902">
        <ele>301.8</ele>
        <time>2021-03-07T08:42:12Z</time>
      </trkpt>
      <trkpt lat="47.2544" lon="6.03905">
        <ele>302</ele>
        <time>2021-03-07T08:42:13Z</time>
      </trkpt>
      <trkpt lat="47.25442" lon="6.03907">
        <ele>302.4</ele>
        <time>2021-03-07T08:42:14Z</time>
      </trkpt>
      <trkpt lat="47.25444" lon="6.0391">
        <ele>302.4</ele>
        <time>2021-03-07T08:42:15Z</time>
      </trkpt>
      <trkpt lat="47.25447" lon="6.03913">
        <ele>302.6</ele>
        <time>2021-03-07T08:42:16Z</time>
      </trkpt>
      <trkpt lat="47.25449" lon="6.03916">
        <ele>302.8</ele>
        <time>2021-03-07T08:42:17Z</time>
      </trkpt>
      <trkpt lat="47.25452" lon="6.03919">
        <ele>303</ele>
        <time>2021-03-07T08:42:18Z</time>
      </trkpt>
      <trkpt lat="47.25454" lon="6.03923">
        <ele>303</ele>
        <time>2021-03-07T08:42:19Z</time>
      </trkpt>
      <trkpt lat="47.25455" lon="6.03926">
        <ele>303.2</ele>
        <time>2021-03-07T08:42:20Z</time>
      </trkpt>
      <trkpt lat="47.25457" lon="6.03929">
        <ele>303.2</ele>
        <time>2021-03-07T08:42:21Z</time>
      </trkpt>
      <trkpt lat="47.25459" lon="6.03933">
        <ele>303.4</ele>
        <time>2021-03-07T08:42:22Z</time>
      </trkpt>
      <trkpt lat="47.25461" lon="6.03936">
        <ele>303.6</ele>
        <time>2021-03-07T08:42:23Z</time>
      </trkpt>
      <trkpt lat="47.25463" lon="6.0394">
        <ele>303.8</ele>
        <time>2021-03-07T08:42:24Z</time>
      </trkpt>
      <trkpt lat="47.25465" lon="6.03943">
        <ele>303.8</ele>
        <time>2021-03-07T08:42:25Z</time>
      </trkpt>
      <trkpt lat="47.25467" lon="6.03946">
        <ele>303.8</ele>
        <time>2021-03-07T08:42:26Z</time>
      </trkpt>
      <trkpt lat="47.2547" lon="6.03949">
        <ele>304</ele>
        <time>2021-03-07T08:42:27Z</time>
      </trkpt>
      <trkpt lat="47.25473" lon="6.03953">
        <ele>304</ele>
        <time>2021-03-07T08:42:28Z</time>
      </trkpt>
      <trkpt lat="47.25475" lon="6.03956">
        <ele>304</ele>
        <time>2021-03-07T08:42:29Z</time>
      </trkpt>
      <trkpt lat="47.25478" lon="6.03959">
        <ele>304</ele>
        <time>2021-03-07T08:42:30Z</time>
      </trkpt>
      <trkpt lat="47.2548" lon="6.03962">
        <ele>304.2</ele>
        <time>2021-03-07T08:42:31Z</time>
      </trkpt>
      <trkpt lat="47.25483" lon="6.03964">
        <ele>304.2</ele>
        <time>2021-03-07T08:42:32Z</time>
      </trkpt>
      <trkpt lat="47.25485" lon="6.03967">
        <ele>304.4</ele>
        <time>2021-03-07T08:42:33Z</time>
      </trkpt>
      <trkpt lat="47.25487" lon="6.03969">
        <ele>304.4</ele>
        <time>2021-03-07T08:42:34Z</time>
      </trkpt>
      <trkpt lat="47.25489" lon="6.03971">
        <ele>304.6</ele>
        <time>2021-03-07T08:42:35Z</time>
      </trkpt>
      <trkpt lat="47.2549" lon="6.03973">
        <ele>304.6</ele>
        <time>2021-03-07T08:42:36Z</time>
      </trkpt>
      <trkpt lat="47.25491" lon="6.03976">
        <ele>304.8</ele>
        <time>2021-03-07T08:42:37Z</time>
      </trkpt>
      <trkpt lat="47.25494" lon="6.03979">
        <ele>305</ele>
        <time>2021-03-07T08:42:38Z</time>
      </trkpt>
      <trkpt lat="47.25496" lon="6.03982">
        <ele>305.2</ele>
        <time>2021-03-07T08:42:39Z</time>
      </trkpt>
      <trkpt lat="47.25498" lon="6.03986">
        <ele>305.2</ele>
        <time>2021-03-07T08:42:40Z</time>
      </trkpt>
      <trkpt lat="47.255" lon="6.03989">
        <ele>305.4</ele>
        <time>2021-03-07T08:42:41Z</time>
      </trkpt>
      <trkpt lat="47.25503" lon="6.03992">
        <ele>305.6</ele>
        <time>2021-03-07T08:42:42Z</time>
      </trkpt>
      <trkpt lat="47.25506" lon="6.03995">
        <ele>305.6</ele>
        <time>2021-03-07T08:42:43Z</time>
      </trkpt>
      <trkpt lat="47.25509" lon="6.03999">
        <ele>305.6</ele>
        <time>2021-03-07T08:42:44Z</time>
      </trkpt>
      <trkpt lat="47.25512" lon="6.04002">
        <ele>305.8</ele>
        <time>2021-03-07T08:42:45Z</time>
      </trkpt>
      <trkpt lat="47.25515" lon="6.04004">
        <ele>306</ele>
        <time>2021-03-07T08:42:46Z</time>
      </trkpt>
      <trkpt lat="47.25517" lon="6.04008">
        <ele>306</ele>
        <time>2021-03-07T08:42:47Z</time>
      </trkpt>
      <trkpt lat="47.25519" lon="6.04011">
        <ele>306.2</ele>
        <time>2021-03-07T08:42:48Z</time>
      </trkpt>
      <trkpt lat="47.25521" lon="6.04015">
        <ele>306.2</ele>
        <time>2021-03-07T08:42:49Z</time>
      </trkpt>
      <trkpt lat="47.25523" lon="6.04019">
        <ele>306.4</ele>
        <time>2021-03-07T08:42:50Z</time>
      </trkpt>
      <trkpt lat="47.25525" lon="6.04022">
        <ele>306.4</ele>
        <time>2021-03-07T08:42:51Z</time>
      </trkpt>
      <trkpt lat="47.25528" lon="6.04024">
        <ele>306.6</ele>
        <time>2021-03-07T08:42:52Z</time>
      </trkpt>
      <trkpt lat="47.25531" lon="6.04027">
        <ele>306.6</ele>
        <time>2021-03-07T08:42:53Z</time>
      </trkpt>
      <trkpt lat="47.25533" lon="6.0403">
        <ele>306.8</ele>
        <time>2021-03-07T08:42:54Z</time>
      </trkpt>
      <trkpt lat="47.25535" lon="6.04033">
        <ele>306.8</ele>
        <time>2021-03-07T08:42:55Z</time>
      </trkpt>
      <trkpt lat="47.25537" lon="6.04036">
        <ele>307</ele>
        <time>2021-03-07T08:42:56Z</time>
      </trkpt>
      <trkpt lat="47.25539" lon="6.04039">
        <ele>307.2</ele>
        <time>2021-03-07T08:42:57Z</time>
      </trkpt>
      <trkpt lat="47.25541" lon="6.04043">
        <ele>307.2</ele>
        <time>2021-03-07T08:42:58Z</time>
      </trkpt>
      <trkpt lat="47.25543" lon="6.04045">
        <ele>307.4</ele>
        <time>2021-03-07T08:42:59Z</time>
      </trkpt>
      <trkpt lat="47.25546" lon="6.04049">
        <ele>307.4</ele>
        <time>2021-03-07T08:43:00Z</time>
      </trkpt>
      <trkpt lat="47.25548" lon="6.04052">
        <ele>307.6</ele>
        <time>2021-03-07T08:43:01Z</time>
      </trkpt>
      <trkpt lat="47.25551" lon="6.04055">
        <ele>307.6</ele>
        <time>2021-03-07T08:43:02Z</time>
      </trkpt>
      <trkpt lat="47.25553" lon="6.04058">
        <ele>307.8</ele>
        <time>2021-03-07T08:43:03Z</time>
      </trkpt>
      <trkpt lat="47.25556" lon="6.04061">
        <ele>307.8</ele>
        <time>2021-03-07T08:43:04Z</time>
      </trkpt>
      <trkpt lat="47.25558" lon="6.04065">
        <ele>308</ele>
        <time>2021-03-07T08:43:05Z</time>
      </trkpt>
      <trkpt lat="47.25561" lon="6.04068">
        <ele>308.2</ele>
        <time>2021-03-07T08:43:06Z</time>
      </trkpt>
      <trkpt lat="47.25563" lon="6.04072">
        <ele>308.2</ele>
        <time>2021-03-07T08:43:07Z</time>
      </trkpt>
      <trkpt lat="47.25566" lon="6.04075">
        <ele>308.2</ele>
        <time>2021-03-07T08:43:08Z</time>
      </trkpt>
      <trkpt lat="47.25568" lon="6.04079">
        <ele>308.2</ele>
        <time>2021-03-07T08:43:09Z</time>
      </trkpt>
      <trkpt lat="47.2557" lon="6.04082">
        <ele>308.2</ele>
        <time>2021-03-07T08:43:10Z</time>
      </trkpt>
      <trkpt lat="47.25572" lon="6.04086">
        <ele>308.4</ele>
        <time>2021-03-07T08:43:11Z</time>
      </trkpt>
      <trkpt lat="47.25575" lon="6.0409">
        <ele>308.6</ele>
        <time>2021-03-07T08:43:12Z</time>
      </trkpt>
      <trkpt lat="47.25578" lon="6.04093">
        <ele>308.6</ele>
        <time>2021-03-07T08:43:13Z</time>
      </trkpt>
      <trkpt lat="47.2558" lon="6.04097">
        <ele>309</ele>
        <time>2021-03-07T08:43:14Z</time>
      </trkpt>
      <trkpt lat="47.25583" lon="6.041">
        <ele>309</ele>
        <time>2021-03-07T08:43:15Z</time>
      </trkpt>
      <trkpt lat="47.25585" lon="6.04102">
        <ele>309</ele>
        <time>2021-03-07T08:43:16Z</time>
      </trkpt>
      <trkpt lat="47.25588" lon="6.04106">
        <ele>309.2</ele>
        <time>2021-03-07T08:43:17Z</time>
      </trkpt>
      <trkpt lat="47.2559" lon="6.04109">
        <ele>309.4</ele>
        <time>2021-03-07T08:43:18Z</time>
      </trkpt>
      <trkpt lat="47.25595" lon="6.04117">
        <ele>309.6</ele>
        <time>2021-03-07T08:43:20Z</time>
      </trkpt>
      <trkpt lat="47.256" lon="6.04124">
        <ele>309.6</ele>
        <time>2021-03-07T08:43:22Z</time>
      </trkpt>
      <trkpt lat="47.25616" lon="6.04145">
        <ele>310.2</ele>
        <time>2021-03-07T08:43:28Z</time>
      </trkpt>
      <trkpt lat="47.25622" lon="6.04156">
        <ele>310.6</ele>
        <time>2021-03-07T08:43:31Z</time>
      </trkpt>
      <trkpt lat="47.25627" lon="6.04163">
        <ele>310.8</ele>
        <time>2021-03-07T08:43:33Z</time>
      </trkpt>
      <trkpt lat="47.25629" lon="6.04167">
        <ele>310.8</ele>
        <time>2021-03-07T08:43:34Z</time>
      </trkpt>
      <trkpt lat="47.25631" lon="6.0417">
        <ele>310.8</ele>
        <time>2021-03-07T08:43:35Z</time>
      </trkpt>
      <trkpt lat="47.25633" lon="6.04173">
        <ele>310.8</ele>
        <time>2021-03-07T08:43:36Z</time>
      </trkpt>
      <trkpt lat="47.25637" lon="6.0418">
        <ele>311</ele>
        <time>2021-03-07T08:43:38Z</time>
      </trkpt>
      <trkpt lat="47.25639" lon="6.04184">
        <ele>311</ele>
        <time>2021-03-07T08:43:39Z</time>
      </trkpt>
      <trkpt lat="47.25649" lon="6.04197">
        <ele>311.2</ele>
        <time>2021-03-07T08:43:43Z</time>
      </trkpt>
      <trkpt lat="47.25651" lon="6.04201">
        <ele>311.6</ele>
        <time>2021-03-07T08:43:44Z</time>
      </trkpt>
      <trkpt lat="47.25657" lon="6.04208">
        <ele>311.8</ele>
        <time>2021-03-07T08:43:46Z</time>
      </trkpt>
      <trkpt lat="47.25677" lon="6.04235">
        <ele>312.2</ele>
        <time>2021-03-07T08:43:54Z</time>
      </trkpt>
      <trkpt lat="47.25683" lon="6.04242">
        <ele>312.2</ele>
        <time>2021-03-07T08:43:56Z</time>
      </trkpt>
      <trkpt lat="47.2571" lon="6.0428">
        <ele>312.6</ele>
        <time>2021-03-07T08:44:06Z</time>
      </trkpt>
      <trkpt lat="47.2573" lon="6.04305">
        <ele>312.8</ele>
        <time>2021-03-07T08:44:13Z</time>
      </trkpt>
      <trkpt lat="47.25733" lon="6.04308">
        <ele>312.8</ele>
        <time>2021-03-07T08:44:14Z</time>
      </trkpt>
      <trkpt lat="47.25736" lon="6.04311">
        <ele>312.8</ele>
        <time>2021-03-07T08:44:15Z</time>
      </trkpt>
      <trkpt lat="47.25738" lon="6.04314">
        <ele>312.8</ele>
        <time>2021-03-07T08:44:16Z</time>
      </trkpt>
      <trkpt lat="47.2574" lon="6.04318">
        <ele>312.8</ele>
        <time>2021-03-07T08:44:17Z</time>
      </trkpt>
      <trkpt lat="47.25743" lon="6.04321">
        <ele>312.8</ele>
        <time>2021-03-07T08:44:18Z</time>
      </trkpt>
      <trkpt lat="47.25745" lon="6.04325">
        <ele>313</ele>
        <time>2021-03-07T08:44:19Z</time>
      </trkpt>
      <trkpt lat="47.25748" lon="6.04328">
        <ele>313</ele>
        <time>2021-03-07T08:44:20Z</time>
      </trkpt>
      <trkpt lat="47.2575" lon="6.04332">
        <ele>313</ele>
        <time>2021-03-07T08:44:21Z</time>
      </trkpt>
      <trkpt lat="47.25752" lon="6.04336">
        <ele>313</ele>
        <time>2021-03-07T08:44:22Z</time>
      </trkpt>
      <trkpt lat="47.25763" lon="6.04351">
        <ele>313.2</ele>
        <time>2021-03-07T08:44:26Z</time>
      </trkpt>
      <trkpt lat="47.25779" lon="6.04374">
        <ele>313.6</ele>
        <time>2021-03-07T08:44:33Z</time>
      </trkpt>
      <trkpt lat="47.25781" lon="6.04378">
        <ele>313.6</ele>
        <time>2021-03-07T08:44:34Z</time>
      </trkpt>
      <trkpt lat="47.25784" lon="6.04381">
        <ele>313.6</ele>
        <time>2021-03-07T08:44:35Z</time>
      </trkpt>
      <trkpt lat="47.25791" lon="6.04392">
        <ele>313.6</ele>
        <time>2021-03-07T08:44:38Z</time>
      </trkpt>
      <trkpt lat="47.25794" lon="6.04396">
        <ele>313.6</ele>
        <time>2021-03-07T08:44:39Z</time>
      </trkpt>
      <trkpt lat="47.25807" lon="6.04413">
        <ele>313.8</ele>
        <time>2021-03-07T08:44:44Z</time>
      </trkpt>
      <trkpt lat="47.25821" lon="6.04435">
        <ele>314.2</ele>
        <time>2021-03-07T08:44:50Z</time>
      </trkpt>
      <trkpt lat="47.25843" lon="6.04465">
        <ele>315</ele>
        <time>2021-03-07T08:44:58Z</time>
      </trkpt>
      <trkpt lat="47.25854" lon="6.04481">
        <ele>315.4</ele>
        <time>2021-03-07T08:45:02Z</time>
      </trkpt>
      <trkpt lat="47.25865" lon="6.04496">
        <ele>315.8</ele>
        <time>2021-03-07T08:45:06Z</time>
      </trkpt>
      <trkpt lat="47.25867" lon="6.04499">
        <ele>315.8</ele>
        <time>2021-03-07T08:45:07Z</time>
      </trkpt>
      <trkpt lat="47.25869" lon="6.04502">
        <ele>315.8</ele>
        <time>2021-03-07T08:45:08Z</time>
      </trkpt>
      <trkpt lat="47.25871" lon="6.04504">
        <ele>316</ele>
        <time>2021-03-07T08:45:09Z</time>
      </trkpt>
      <trkpt lat="47.25873" lon="6.04506">
        <ele>316</ele>
        <time>2021-03-07T08:45:10Z</time>
      </trkpt>
      <trkpt lat="47.25874" lon="6.04508">
        <ele>316</ele>
        <time>2021-03-07T08:45:11Z</time>
      </trkpt>
      <trkpt lat="47.25883" lon="6.0452">
        <ele>316.4</ele>
        <time>2021-03-07T08:45:15Z</time>
      </trkpt>
      <trkpt lat="47.25885" lon="6.04523">
        <ele>316.6</ele>
        <time>2021-03-07T08:45:16Z</time>
      </trkpt>
      <trkpt lat="47.25905" lon="6.04549">
        <ele>317.6</ele>
        <time>2021-03-07T08:45:24Z</time>
      </trkpt>
      <trkpt lat="47.2591" lon="6.04556">
        <ele>317.8</ele>
        <time>2021-03-07T08:45:26Z</time>
      </trkpt>
      <trkpt lat="47.25915" lon="6.04562">
        <ele>318.2</ele>
        <time>2021-03-07T08:45:28Z</time>
      </trkpt>
      <trkpt lat="47.2592" lon="6.04567">
        <ele>318.4</ele>
        <time>2021-03-07T08:45:30Z</time>
      </trkpt>
      <trkpt lat="47.25924" lon="6.04573">
        <ele>318.6</ele>
        <time>2021-03-07T08:45:32Z</time>
      </trkpt>
      <trkpt lat="47.25926" lon="6.04576">
        <ele>318.8</ele>
        <time>2021-03-07T08:45:33Z</time>
      </trkpt>
      <trkpt lat="47.25928" lon="6.04579">
        <ele>318.8</ele>
        <time>2021-03-07T08:45:34Z</time>
      </trkpt>
      <trkpt lat="47.2593" lon="6.04582">
        <ele>319</ele>
        <time>2021-03-07T08:45:35Z</time>
      </trkpt>
      <trkpt lat="47.25933" lon="6.04586">
        <ele>319</ele>
        <time>2021-03-07T08:45:36Z</time>
      </trkpt>
      <trkpt lat="47.25934" lon="6.04588">
        <ele>319.2</ele>
        <time>2021-03-07T08:45:37Z</time>
      </trkpt>
      <trkpt lat="47.25937" lon="6.04592">
        <ele>319.2</ele>
        <time>2021-03-07T08:45:38Z</time>
      </trkpt>
      <trkpt lat="47.25939" lon="6.04595">
        <ele>319.4</ele>
        <time>2021-03-07T08:45:39Z</time>
      </trkpt>
      <trkpt lat="47.25941" lon="6.04598">
        <ele>319.4</ele>
        <time>2021-03-07T08:45:40Z</time>
      </trkpt>
      <trkpt lat="47.25943" lon="6.04601">
        <ele>319.4</ele>
        <time>2021-03-07T08:45:41Z</time>
      </trkpt>
      <trkpt lat="47.25945" lon="6.04604">
        <ele>319.4</ele>
        <time>2021-03-07T08:45:42Z</time>
      </trkpt>
      <trkpt lat="47.25947" lon="6.04607">
        <ele>319.6</ele>
        <time>2021-03-07T08:45:43Z</time>
      </trkpt>
      <trkpt lat="47.25949" lon="6.04611">
        <ele>319.8</ele>
        <time>2021-03-07T08:45:44Z</time>
      </trkpt>
      <trkpt lat="47.25952" lon="6.04615">
        <ele>320</ele>
        <time>2021-03-07T08:45:45Z</time>
      </trkpt>
      <trkpt lat="47.25954" lon="6.04618">
        <ele>320</ele>
        <time>2021-03-07T08:45:46Z</time>
      </trkpt>
      <trkpt lat="47.25957" lon="6.04621">
        <ele>320.2</ele>
        <time>2021-03-07T08:45:47Z</time>
      </trkpt>
      <trkpt lat="47.25959" lon="6.04624">
        <ele>320.4</ele>
        <time>2021-03-07T08:45:48Z</time>
      </trkpt>
      <trkpt lat="47.25962" lon="6.04627">
        <ele>320.4</ele>
        <time>2021-03-07T08:45:49Z</time>
      </trkpt>
      <trkpt lat="47.25964" lon="6.04631">
        <ele>320.6</ele>
        <time>2021-03-07T08:45:50Z</time>
      </trkpt>
      <trkpt lat="47.25967" lon="6.04634">
        <ele>320.6</ele>
        <time>2021-03-07T08:45:51Z</time>
      </trkpt>
      <trkpt lat="47.25969" lon="6.04638">
        <ele>320.8</ele>
        <time>2021-03-07T08:45:52Z</time>
      </trkpt>
      <trkpt lat="47.25971" lon="6.04641">
        <ele>320.8</ele>
        <time>2021-03-07T08:45:53Z</time>
      </trkpt>
      <trkpt lat="47.25974" lon="6.04644">
        <ele>320.8</ele>
        <time>2021-03-07T08:45:54Z</time>
      </trkpt>
      <trkpt lat="47.25976" lon="6.04648">
        <ele>321</ele>
        <time>2021-03-07T08:45:55Z</time>
      </trkpt>
      <trkpt lat="47.25979" lon="6.04651">
        <ele>321.2</ele>
        <time>2021-03-07T08:45:56Z</time>
      </trkpt>
      <trkpt lat="47.25981" lon="6.04654">
        <ele>321.2</ele>
        <time>2021-03-07T08:45:57Z</time>
      </trkpt>
      <trkpt lat="47.25984" lon="6.04657">
        <ele>321.2</ele>
        <time>2021-03-07T08:45:58Z</time>
      </trkpt>
      <trkpt lat="47.25986" lon="6.0466">
        <ele>321.4</ele>
        <time>2021-03-07T08:45:59Z</time>
      </trkpt>
      <trkpt lat="47.25989" lon="6.04664">
        <ele>321.4</ele>
        <time>2021-03-07T08:46:00Z</time>
      </trkpt>
      <trkpt lat="47.25992" lon="6.04668">
        <ele>321.6</ele>
        <time>2021-03-07T08:46:01Z</time>
      </trkpt>
      <trkpt lat="47.25994" lon="6.04671">
        <ele>321.6</ele>
        <time>2021-03-07T08:46:02Z</time>
      </trkpt>
      <trkpt lat="47.25997" lon="6.04674">
        <ele>321.6</ele>
        <time>2021-03-07T08:46:03Z</time>
      </trkpt>
      <trkpt lat="47.25999" lon="6.04677">
        <ele>321.8</ele>
        <time>2021-03-07T08:46:04Z</time>
      </trkpt>
      <trkpt lat="47.26002" lon="6.04681">
        <ele>321.8</ele>
        <time>2021-03-07T08:46:05Z</time>
      </trkpt>
      <trkpt lat="47.26016" lon="6.04702">
        <ele>322.2</ele>
        <time>2021-03-07T08:46:11Z</time>
      </trkpt>
      <trkpt lat="47.26021" lon="6.04708">
        <ele>322.4</ele>
        <time>2021-03-07T08:46:13Z</time>
      </trkpt>
      <trkpt lat="47.26031" lon="6.04721">
        <ele>322.8</ele>
        <time>2021-03-07T08:46:17Z</time>
      </trkpt>
      <trkpt lat="47.26033" lon="6.04725">
        <ele>323</ele>
        <time>2021-03-07T08:46:18Z</time>
      </trkpt>
      <trkpt lat="47.26035" lon="6.04728">
        <ele>323</ele>
        <time>2021-03-07T08:46:19Z</time>
      </trkpt>
      <trkpt lat="47.26038" lon="6.04731">
        <ele>323</ele>
        <time>2021-03-07T08:46:20Z</time>
      </trkpt>
      <trkpt lat="47.2604" lon="6.04734">
        <ele>323.2</ele>
        <time>2021-03-07T08:46:21Z</time>
      </trkpt>
      <trkpt lat="47.26043" lon="6.04737">
        <ele>323.4</ele>
        <time>2021-03-07T08:46:22Z</time>
      </trkpt>
      <trkpt lat="47.26068" lon="6.04773">
        <ele>324.4</ele>
        <time>2021-03-07T08:46:33Z</time>
      </trkpt>
      <trkpt lat="47.26071" lon="6.04777">
        <ele>324.6</ele>
        <time>2021-03-07T08:46:34Z</time>
      </trkpt>
      <trkpt lat="47.26078" lon="6.04786">
        <ele>325</ele>
        <time>2021-03-07T08:46:37Z</time>
      </trkpt>
      <trkpt lat="47.26089" lon="6.04802">
        <ele>325.2</ele>
        <time>2021-03-07T08:46:42Z</time>
      </trkpt>
      <trkpt lat="47.26094" lon="6.04809">
        <ele>325.4</ele>
        <time>2021-03-07T08:46:44Z</time>
      </trkpt>
      <trkpt lat="47.26096" lon="6.04812">
        <ele>325.4</ele>
        <time>2021-03-07T08:46:45Z</time>
      </trkpt>
      <trkpt lat="47.26111" lon="6.04836">
        <ele>326</ele>
        <time>2021-03-07T08:46:52Z</time>
      </trkpt>
      <trkpt lat="47.26132" lon="6.04866">
        <ele>326.4</ele>
        <time>2021-03-07T08:47:01Z</time>
      </trkpt>
      <trkpt lat="47.26139" lon="6.04876">
        <ele>326.8</ele>
        <time>2021-03-07T08:47:04Z</time>
      </trkpt>
      <trkpt lat="47.26147" lon="6.04895">
        <ele>327</ele>
        <time>2021-03-07T08:47:09Z</time>
      </trkpt>
      <trkpt lat="47.26147" lon="6.049">
        <ele>327</ele>
        <time>2021-03-07T08:47:10Z</time>
      </trkpt>
      <trkpt lat="47.26148" lon="6.04906">
        <ele>327</ele>
        <time>2021-03-07T08:47:11Z</time>
      </trkpt>
      <trkpt lat="47.2615" lon="6.04909">
        <ele>327.2</ele>
        <time>2021-03-07T08:47:12Z</time>
      </trkpt>
      <trkpt lat="47.26174" lon="6.04927">
        <ele>327.6</ele>
        <time>2021-03-07T08:47:20Z</time>
      </trkpt>
      <trkpt lat="47.26176" lon="6.0493">
        <ele>327.8</ele>
        <time>2021-03-07T08:47:21Z</time>
      </trkpt>
      <trkpt lat="47.26188" lon="6.04953">
        <ele>328.4</ele>
        <time>2021-03-07T08:47:27Z</time>
      </trkpt>
      <trkpt lat="47.26189" lon="6.04957">
        <ele>328.6</ele>
        <time>2021-03-07T08:47:28Z</time>
      </trkpt>
      <trkpt lat="47.26188" lon="6.04962">
        <ele>328.6</ele>
        <time>2021-03-07T08:47:29Z</time>
      </trkpt>
      <trkpt lat="47.26187" lon="6.04966">
        <ele>328.8</ele>
        <time>2021-03-07T08:47:30Z</time>
      </trkpt>
      <trkpt lat="47.26183" lon="6.04974">
        <ele>328.8</ele>
        <time>2021-03-07T08:47:32Z</time>
      </trkpt>
      <trkpt lat="47.2618" lon="6.04976">
        <ele>328.8</ele>
        <time>2021-03-07T08:47:33Z</time>
      </trkpt>
      <trkpt lat="47.26178" lon="6.04979">
        <ele>328.8</ele>
        <time>2021-03-07T08:47:34Z</time>
      </trkpt>
      <trkpt lat="47.26175" lon="6.04982">
        <ele>328.8</ele>
        <time>2021-03-07T08:47:35Z</time>
      </trkpt>
      <trkpt lat="47.26172" lon="6.04984">
        <ele>328.8</ele>
        <time>2021-03-07T08:47:36Z</time>
      </trkpt>
      <trkpt lat="47.2617" lon="6.04987">
        <ele>329</ele>
        <time>2021-03-07T08:47:37Z</time>
      </trkpt>
      <trkpt lat="47.26166" lon="6.04993">
        <ele>329.2</ele>
        <time>2021-03-07T08:47:39Z</time>
      </trkpt>
      <trkpt lat="47.26162" lon="6.05">
        <ele>329.4</ele>
        <time>2021-03-07T08:47:41Z</time>
      </trkpt>
      <trkpt lat="47.26159" lon="6.05003">
        <ele>329.4</ele>
        <time>2021-03-07T08:47:42Z</time>
      </trkpt>
      <trkpt lat="47.26157" lon="6.05006">
        <ele>329.6</ele>
        <time>2021-03-07T08:47:43Z</time>
      </trkpt>
      <trkpt lat="47.26155" lon="6.0501">
        <ele>329.6</ele>
        <time>2021-03-07T08:47:44Z</time>
      </trkpt>
      <trkpt lat="47.26154" lon="6.05013">
        <ele>329.6</ele>
        <time>2021-03-07T08:47:45Z</time>
      </trkpt>
      <trkpt lat="47.26152" lon="6.05017">
        <ele>329.6</ele>
        <time>2021-03-07T08:47:46Z</time>
      </trkpt>
      <trkpt lat="47.26146" lon="6.05027">
        <ele>330</ele>
        <time>2021-03-07T08:47:49Z</time>
      </trkpt>
      <trkpt lat="47.26136" lon="6.05045">
        <ele>330.8</ele>
        <time>2021-03-07T08:47:54Z</time>
      </trkpt>
      <trkpt lat="47.26133" lon="6.05052">
        <ele>331.2</ele>
        <time>2021-03-07T08:47:56Z</time>
      </trkpt>
      <trkpt lat="47.26124" lon="6.05068">
        <ele>331.6</ele>
        <time>2021-03-07T08:48:00Z</time>
      </trkpt>
      <trkpt lat="47.26122" lon="6.05072">
        <ele>331.6</ele>
        <time>2021-03-07T08:48:01Z</time>
      </trkpt>
      <trkpt lat="47.2612" lon="6.05076">
        <ele>331.6</ele>
        <time>2021-03-07T08:48:02Z</time>
      </trkpt>
      <trkpt lat="47.26118" lon="6.0508">
        <ele>331.8</ele>
        <time>2021-03-07T08:48:03Z</time>
      </trkpt>
      <trkpt lat="47.26116" lon="6.05084">
        <ele>331.8</ele>
        <time>2021-03-07T08:48:04Z</time>
      </trkpt>
      <trkpt lat="47.26114" lon="6.05089">
        <ele>331.8</ele>
        <time>2021-03-07T08:48:05Z</time>
      </trkpt>
      <trkpt lat="47.26112" lon="6.05093">
        <ele>332</ele>
        <time>2021-03-07T08:48:06Z</time>
      </trkpt>
      <trkpt lat="47.2611" lon="6.05096">
        <ele>332</ele>
        <time>2021-03-07T08:48:07Z</time>
      </trkpt>
      <trkpt lat="47.26108" lon="6.051">
        <ele>332</ele>
        <time>2021-03-07T08:48:08Z</time>
      </trkpt>
      <trkpt lat="47.26106" lon="6.05104">
        <ele>332.2</ele>
        <time>2021-03-07T08:48:09Z</time>
      </trkpt>
      <trkpt lat="47.26104" lon="6.05108">
        <ele>332.2</ele>
        <time>2021-03-07T08:48:10Z</time>
      </trkpt>
      <trkpt lat="47.26102" lon="6.05111">
        <ele>332.2</ele>
        <time>2021-03-07T08:48:11Z</time>
      </trkpt>
      <trkpt lat="47.261" lon="6.05114">
        <ele>332.4</ele>
        <time>2021-03-07T08:48:12Z</time>
      </trkpt>
      <trkpt lat="47.26097" lon="6.05116">
        <ele>332.6</ele>
        <time>2021-03-07T08:48:13Z</time>
      </trkpt>
      <trkpt lat="47.26095" lon="6.05119">
        <ele>332.6</ele>
        <time>2021-03-07T08:48:14Z</time>
      </trkpt>
      <trkpt lat="47.26092" lon="6.0512">
        <ele>332.8</ele>
        <time>2021-03-07T08:48:15Z</time>
      </trkpt>
      <trkpt lat="47.2609" lon="6.05121">
        <ele>332.8</ele>
        <time>2021-03-07T08:48:16Z</time>
      </trkpt>
      <trkpt lat="47.26087" lon="6.05122">
        <ele>333</ele>
        <time>2021-03-07T08:48:17Z</time>
      </trkpt>
      <trkpt lat="47.26084" lon="6.05122">
        <ele>333</ele>
        <time>2021-03-07T08:48:18Z</time>
      </trkpt>
      <trkpt lat="47.26082" lon="6.05122">
        <ele>333.2</ele>
        <time>2021-03-07T08:48:19Z</time>
      </trkpt>
      <trkpt lat="47.26079" lon="6.05122">
        <ele>333.2</ele>
        <time>2021-03-07T08:48:20Z</time>
      </trkpt>
      <trkpt lat="47.26076" lon="6.05122">
        <ele>333.6</ele>
        <time>2021-03-07T08:48:21Z</time>
      </trkpt>
      <trkpt lat="47.26067" lon="6.05121">
        <ele>334</ele>
        <time>2021-03-07T08:48:24Z</time>
      </trkpt>
      <trkpt lat="47.26065" lon="6.0512">
        <ele>334.2</ele>
        <time>2021-03-07T08:48:25Z</time>
      </trkpt>
      <trkpt lat="47.26062" lon="6.0512">
        <ele>334.4</ele>
        <time>2021-03-07T08:48:26Z</time>
      </trkpt>
      <trkpt lat="47.26059" lon="6.0512">
        <ele>334.4</ele>
        <time>2021-03-07T08:48:27Z</time>
      </trkpt>
      <trkpt lat="47.26056" lon="6.0512">
        <ele>334.8</ele>
        <time>2021-03-07T08:48:28Z</time>
      </trkpt>
      <trkpt lat="47.26053" lon="6.0512">
        <ele>334.8</ele>
        <time>2021-03-07T08:48:29Z</time>
      </trkpt>
      <trkpt lat="47.26051" lon="6.0512">
        <ele>335</ele>
        <time>2021-03-07T08:48:30Z</time>
      </trkpt>
      <trkpt lat="47.26048" lon="6.0512">
        <ele>335</ele>
        <time>2021-03-07T08:48:31Z</time>
      </trkpt>
      <trkpt lat="47.26045" lon="6.0512">
        <ele>335.2</ele>
        <time>2021-03-07T08:48:32Z</time>
      </trkpt>
      <trkpt lat="47.26043" lon="6.05121">
        <ele>335.2</ele>
        <time>2021-03-07T08:48:33Z</time>
      </trkpt>
      <trkpt lat="47.2604" lon="6.05122">
        <ele>335.6</ele>
        <time>2021-03-07T08:48:34Z</time>
      </trkpt>
      <trkpt lat="47.26038" lon="6.05123">
        <ele>335.6</ele>
        <time>2021-03-07T08:48:35Z</time>
      </trkpt>
      <trkpt lat="47.26035" lon="6.05125">
        <ele>335.8</ele>
        <time>2021-03-07T08:48:36Z</time>
      </trkpt>
      <trkpt lat="47.26033" lon="6.05127">
        <ele>335.8</ele>
        <time>2021-03-07T08:48:37Z</time>
      </trkpt>
      <trkpt lat="47.26031" lon="6.0513">
        <ele>336.2</ele>
        <time>2021-03-07T08:48:38Z</time>
      </trkpt>
      <trkpt lat="47.26029" lon="6.05133">
        <ele>336.2</ele>
        <time>2021-03-07T08:48:39Z</time>
      </trkpt>
      <trkpt lat="47.26027" lon="6.05136">
        <ele>336.6</ele>
        <time>2021-03-07T08:48:40Z</time>
      </trkpt>
      <trkpt lat="47.26026" lon="6.05139">
        <ele>337</ele>
        <time>2021-03-07T08:48:41Z</time>
      </trkpt>
      <trkpt lat="47.26025" lon="6.05142">
        <ele>337.2</ele>
        <time>2021-03-07T08:48:42Z</time>
      </trkpt>
      <trkpt lat="47.26025" lon="6.05146">
        <ele>337.4</ele>
        <time>2021-03-07T08:48:43Z</time>
      </trkpt>
      <trkpt lat="47.26025" lon="6.05149">
        <ele>337.6</ele>
        <time>2021-03-07T08:48:44Z</time>
      </trkpt>
      <trkpt lat="47.26026" lon="6.05153">
        <ele>338</ele>
        <time>2021-03-07T08:48:45Z</time>
      </trkpt>
      <trkpt lat="47.26027" lon="6.05156">
        <ele>338.2</ele>
        <time>2021-03-07T08:48:46Z</time>
      </trkpt>
      <trkpt lat="47.26028" lon="6.05158">
        <ele>338.4</ele>
        <time>2021-03-07T08:48:47Z</time>
      </trkpt>
      <trkpt lat="47.26029" lon="6.05161">
        <ele>338.6</ele>
        <time>2021-03-07T08:48:48Z</time>
      </trkpt>
      <trkpt lat="47.2603" lon="6.05163">
        <ele>338.8</ele>
        <time>2021-03-07T08:48:49Z</time>
      </trkpt>
      <trkpt lat="47.26032" lon="6.05166">
        <ele>339</ele>
        <time>2021-03-07T08:48:50Z</time>
      </trkpt>
      <trkpt lat="47.26034" lon="6.05168">
        <ele>339.2</ele>
        <time>2021-03-07T08:48:51Z</time>
      </trkpt>
      <trkpt lat="47.26036" lon="6.05169">
        <ele>339.2</ele>
        <time>2021-03-07T08:48:52Z</time>
      </trkpt>
      <trkpt lat="47.26038" lon="6.05171">
        <ele>339.6</ele>
        <time>2021-03-07T08:48:53Z</time>
      </trkpt>
      <trkpt lat="47.26041" lon="6.05171">
        <ele>339.6</ele>
        <time>2021-03-07T08:48:54Z</time>
      </trkpt>
      <trkpt lat="47.26043" lon="6.05172">
        <ele>339.8</ele>
        <time>2021-03-07T08:48:55Z</time>
      </trkpt>
      <trkpt lat="47.26046" lon="6.05172">
        <ele>340.2</ele>
        <time>2021-03-07T08:48:56Z</time>
      </trkpt>
      <trkpt lat="47.26048" lon="6.05173">
        <ele>340.2</ele>
        <time>2021-03-07T08:48:57Z</time>
      </trkpt>
      <trkpt lat="47.26051" lon="6.05173">
        <ele>340.4</ele>
        <time>2021-03-07T08:48:58Z</time>
      </trkpt>
      <trkpt lat="47.26053" lon="6.05174">
        <ele>340.6</ele>
        <time>2021-03-07T08:48:59Z</time>
      </trkpt>
      <trkpt lat="47.26056" lon="6.05174">
        <ele>340.8</ele>
        <time>2021-03-07T08:49:00Z</time>
      </trkpt>
      <trkpt lat="47.26058" lon="6.05174">
        <ele>340.8</ele>
        <time>2021-03-07T08:49:01Z</time>
      </trkpt>
      <trkpt lat="47.2606" lon="6.05174">
        <ele>341</ele>
        <time>2021-03-07T08:49:02Z</time>
      </trkpt>
      <trkpt lat="47.26063" lon="6.05175">
        <ele>341</ele>
        <time>2021-03-07T08:49:03Z</time>
      </trkpt>
      <trkpt lat="47.26065" lon="6.05176">
        <ele>341.4</ele>
        <time>2021-03-07T08:49:04Z</time>
      </trkpt>
      <trkpt lat="47.26068" lon="6.05177">
        <ele>341.6</ele>
        <time>2021-03-07T08:49:05Z</time>
      </trkpt>
      <trkpt lat="47.2607" lon="6.05178">
        <ele>341.8</ele>
        <time>2021-03-07T08:49:06Z</time>
      </trkpt>
      <trkpt lat="47.26072" lon="6.0518">
        <ele>342</ele>
        <time>2021-03-07T08:49:07Z</time>
      </trkpt>
      <trkpt lat="47.26074" lon="6.05181">
        <ele>342.4</ele>
        <time>2021-03-07T08:49:08Z</time>
      </trkpt>
      <trkpt lat="47.26074" lon="6.05184">
        <ele>342.4</ele>
        <time>2021-03-07T08:49:09Z</time>
      </trkpt>
      <trkpt lat="47.26075" lon="6.05186">
        <ele>342.6</ele>
        <time>2021-03-07T08:49:10Z</time>
      </trkpt>
      <trkpt lat="47.26076" lon="6.05189">
        <ele>342.6</ele>
        <time>2021-03-07T08:49:11Z</time>
      </trkpt>
      <trkpt lat="47.26077" lon="6.05192">
        <ele>342.8</ele>
        <time>2021-03-07T08:49:12Z</time>
      </trkpt>
      <trkpt lat="47.26077" lon="6.05195">
        <ele>343.4</ele>
        <time>2021-03-07T08:49:13Z</time>
      </trkpt>
      <trkpt lat="47.26077" lon="6.05198">
        <ele>343.4</ele>
        <time>2021-03-07T08:49:14Z</time>
      </trkpt>
      <trkpt lat="47.26076" lon="6.05201">
        <ele>343.8</ele>
        <time>2021-03-07T08:49:15Z</time>
      </trkpt>
      <trkpt lat="47.26076" lon="6.05203">
        <ele>344</ele>
        <time>2021-03-07T08:49:16Z</time>
      </trkpt>
      <trkpt lat="47.26075" lon="6.05206">
        <ele>344.2</ele>
        <time>2021-03-07T08:49:17Z</time>
      </trkpt>
      <trkpt lat="47.26073" lon="6.05208">
        <ele>344.2</ele>
        <time>2021-03-07T08:49:18Z</time>
      </trkpt>
      <trkpt lat="47.26072" lon="6.05211">
        <ele>344.4</ele>
        <time>2021-03-07T08:49:19Z</time>
      </trkpt>
      <trkpt lat="47.2607" lon="6.05212">
        <ele>344.6</ele>
        <time>2021-03-07T08:49:20Z</time>
      </trkpt>
      <trkpt lat="47.26069" lon="6.05213">
        <ele>344.8</ele>
        <time>2021-03-07T08:49:21Z</time>
      </trkpt>
      <trkpt lat="47.26066" lon="6.05214">
        <ele>345</ele>
        <time>2021-03-07T08:49:22Z</time>
      </trkpt>
      <trkpt lat="47.26064" lon="6.05214">
        <ele>345.2</ele>
        <time>2021-03-07T08:49:23Z</time>
      </trkpt>
      <trkpt lat="47.26062" lon="6.05214">
        <ele>345.4</ele>
        <time>2021-03-07T08:49:24Z</time>
      </trkpt>
      <trkpt lat="47.2606" lon="6.05213">
        <ele>345.6</ele>
        <time>2021-03-07T08:49:25Z</time>
      </trkpt>
      <trkpt lat="47.26057" lon="6.05213">
        <ele>345.8</ele>
        <time>2021-03-07T08:49:26Z</time>
      </trkpt>
      <trkpt lat="47.26055" lon="6.05212">
        <ele>346</ele>
        <time>2021-03-07T08:49:27Z</time>
      </trkpt>
      <trkpt lat="47.26053" lon="6.05211">
        <ele>346.2</ele>
        <time>2021-03-07T08:49:28Z</time>
      </trkpt>
      <trkpt lat="47.26051" lon="6.05211">
        <ele>346.4</ele>
        <time>2021-03-07T08:49:29Z</time>
      </trkpt>
      <trkpt lat="47.26049" lon="6.0521">
        <ele>346.6</ele>
        <time>2021-03-07T08:49:30Z</time>
      </trkpt>
      <trkpt lat="47.26047" lon="6.05209">
        <ele>346.8</ele>
        <time>2021-03-07T08:49:31Z</time>
      </trkpt>
      <trkpt lat="47.26045" lon="6.05209">
        <ele>346.8</ele>
        <time>2021-03-07T08:49:32Z</time>
      </trkpt>
      <trkpt lat="47.26043" lon="6.05208">
        <ele>346.8</ele>
        <time>2021-03-07T08:49:33Z</time>
      </trkpt>
      <trkpt lat="47.26041" lon="6.05207">
        <ele>347</ele>
        <time>2021-03-07T08:49:34Z</time>
      </trkpt>
      <trkpt lat="47.26039" lon="6.05207">
        <ele>347.2</ele>
        <time>2021-03-07T08:49:35Z</time>
      </trkpt>
      <trkpt lat="47.26037" lon="6.05206">
        <ele>347.4</ele>
        <time>2021-03-07T08:49:36Z</time>
      </trkpt>
      <trkpt lat="47.26035" lon="6.05206">
        <ele>347.6</ele>
        <time>2021-03-07T08:49:37Z</time>
      </trkpt>
      <trkpt lat="47.26033" lon="6.05205">
        <ele>347.8</ele>
        <time>2021-03-07T08:49:38Z</time>
      </trkpt>
      <trkpt lat="47.26032" lon="6.05204">
        <ele>347.8</ele>
        <time>2021-03-07T08:49:39Z</time>
      </trkpt>
      <trkpt lat="47.26029" lon="6.05203">
        <ele>348</ele>
        <time>2021-03-07T08:49:40Z</time>
      </trkpt>
      <trkpt lat="47.26027" lon="6.05202">
        <ele>348.2</ele>
        <time>2021-03-07T08:49:41Z</time>
      </trkpt>
      <trkpt lat="47.26025" lon="6.05202">
        <ele>348.4</ele>
        <time>2021-03-07T08:49:42Z</time>
      </trkpt>
      <trkpt lat="47.26023" lon="6.05201">
        <ele>348.4</ele>
        <time>2021-03-07T08:49:43Z</time>
      </trkpt>
      <trkpt lat="47.26021" lon="6.052">
        <ele>348.8</ele>
        <time>2021-03-07T08:49:44Z</time>
      </trkpt>
      <trkpt lat="47.26019" lon="6.052">
        <ele>348.8</ele>
        <time>2021-03-07T08:49:45Z</time>
      </trkpt>
      <trkpt lat="47.26016" lon="6.052">
        <ele>349</ele>
        <time>2021-03-07T08:49:46Z</time>
      </trkpt>
      <trkpt lat="47.26014" lon="6.052">
        <ele>349</ele>
        <time>2021-03-07T08:49:47Z</time>
      </trkpt>
      <trkpt lat="47.26012" lon="6.05199">
        <ele>349.2</ele>
        <time>2021-03-07T08:49:48Z</time>
      </trkpt>
      <trkpt lat="47.2601" lon="6.05199">
        <ele>349.4</ele>
        <time>2021-03-07T08:49:49Z</time>
      </trkpt>
      <trkpt lat="47.26008" lon="6.05199">
        <ele>349.6</ele>
        <time>2021-03-07T08:49:50Z</time>
      </trkpt>
      <trkpt lat="47.26006" lon="6.052">
        <ele>349.8</ele>
        <time>2021-03-07T08:49:51Z</time>
      </trkpt>
      <trkpt lat="47.26005" lon="6.052">
        <ele>350</ele>
        <time>2021-03-07T08:49:52Z</time>
      </trkpt>
      <trkpt lat="47.26003" lon="6.052">
        <ele>350</ele>
        <time>2021-03-07T08:49:53Z</time>
      </trkpt>
      <trkpt lat="47.26" lon="6.052">
        <ele>350</ele>
        <time>2021-03-07T08:49:54Z</time>
      </trkpt>
      <trkpt lat="47.25998" lon="6.052">
        <ele>350.4</ele>
        <time>2021-03-07T08:49:55Z</time>
      </trkpt>
      <trkpt lat="47.25996" lon="6.05201">
        <ele>350.4</ele>
        <time>2021-03-07T08:49:56Z</time>
      </trkpt>
      <trkpt lat="47.25994" lon="6.05201">
        <ele>350.6</ele>
        <time>2021-03-07T08:49:57Z</time>
      </trkpt>
      <trkpt lat="47.25992" lon="6.05202">
        <ele>350.6</ele>
        <time>2021-03-07T08:49:58Z</time>
      </trkpt>
      <trkpt lat="47.25989" lon="6.05203">
        <ele>350.8</ele>
        <time>2021-03-07T08:49:59Z</time>
      </trkpt>
      <trkpt lat="47.25988" lon="6.05204">
        <ele>350.8</ele>
        <time>2021-03-07T08:50:00Z</time>
      </trkpt>
      <trkpt lat="47.25986" lon="6.05204">
        <ele>351.2</ele>
        <time>2021-03-07T08:50:01Z</time>
      </trkpt>
      <trkpt lat="47.25984" lon="6.05205">
        <ele>351.2</ele>
        <time>2021-03-07T08:50:02Z</time>
      </trkpt>
      <trkpt lat="47.25982" lon="6.05205">
        <ele>351.4</ele>
        <time>2021-03-07T08:50:03Z</time>
      </trkpt>
      <trkpt lat="47.2598" lon="6.05206">
        <ele>351.6</ele>
        <time>2021-03-07T08:50:04Z</time>
      </trkpt>
      <trkpt lat="47.25978" lon="6.05206">
        <ele>351.6</ele>
        <time>2021-03-07T08:50:05Z</time>
      </trkpt>
      <trkpt lat="47.25977" lon="6.05207">
        <ele>351.8</ele>
        <time>2021-03-07T08:50:06Z</time>
      </trkpt>
      <trkpt lat="47.25975" lon="6.05207">
        <ele>352</ele>
        <time>2021-03-07T08:50:07Z</time>
      </trkpt>
      <trkpt lat="47.25973" lon="6.05208">
        <ele>352.2</ele>
        <time>2021-03-07T08:50:08Z</time>
      </trkpt>
      <trkpt lat="47.25971" lon="6.05208">
        <ele>352.2</ele>
        <time>2021-03-07T08:50:09Z</time>
      </trkpt>
      <trkpt lat="47.25969" lon="6.05209">
        <ele>352.6</ele>
        <time>2021-03-07T08:50:10Z</time>
      </trkpt>
      <trkpt lat="47.25968" lon="6.05209">
        <ele>352.6</ele>
        <time>2021-03-07T08:50:11Z</time>
      </trkpt>
      <trkpt lat="47.25966" lon="6.0521">
        <ele>353</ele>
        <time>2021-03-07T08:50:12Z</time>
      </trkpt>
      <trkpt lat="47.25964" lon="6.05211">
        <ele>353</ele>
        <time>2021-03-07T08:50:13Z</time>
      </trkpt>
      <trkpt lat="47.25961" lon="6.05211">
        <ele>353.2</ele>
        <time>2021-03-07T08:50:14Z</time>
      </trkpt>
      <trkpt lat="47.2596" lon="6.05212">
        <ele>353.4</ele>
        <time>2021-03-07T08:50:15Z</time>
      </trkpt>
      <trkpt lat="47.25958" lon="6.05212">
        <ele>353.6</ele>
        <time>2021-03-07T08:50:16Z</time>
      </trkpt>
      <trkpt lat="47.25956" lon="6.05213">
        <ele>353.6</ele>
        <time>2021-03-07T08:50:17Z</time>
      </trkpt>
      <trkpt lat="47.25953" lon="6.05213">
        <ele>354</ele>
        <time>2021-03-07T08:50:18Z</time>
      </trkpt>
      <trkpt lat="47.25951" lon="6.05214">
        <ele>354.4</ele>
        <time>2021-03-07T08:50:19Z</time>
      </trkpt>
      <trkpt lat="47.25949" lon="6.05215">
        <ele>354.4</ele>
        <time>2021-03-07T08:50:20Z</time>
      </trkpt>
      <trkpt lat="47.25947" lon="6.05215">
        <ele>354.6</ele>
        <time>2021-03-07T08:50:21Z</time>
      </trkpt>
      <trkpt lat="47.25945" lon="6.05216">
        <ele>354.6</ele>
        <time>2021-03-07T08:50:22Z</time>
      </trkpt>
      <trkpt lat="47.25943" lon="6.05217">
        <ele>354.8</ele>
        <time>2021-03-07T08:50:23Z</time>
      </trkpt>
      <trkpt lat="47.25941" lon="6.05218">
        <ele>354.8</ele>
        <time>2021-03-07T08:50:24Z</time>
      </trkpt>
      <trkpt lat="47.25939" lon="6.05219">
        <ele>355</ele>
        <time>2021-03-07T08:50:25Z</time>
      </trkpt>
      <trkpt lat="47.25937" lon="6.0522">
        <ele>355.2</ele>
        <time>2021-03-07T08:50:26Z</time>
      </trkpt>
      <trkpt lat="47.25935" lon="6.05221">
        <ele>355.6</ele>
        <time>2021-03-07T08:50:27Z</time>
      </trkpt>
      <trkpt lat="47.25933" lon="6.05221">
        <ele>355.6</ele>
        <time>2021-03-07T08:50:28Z</time>
      </trkpt>
      <trkpt lat="47.25932" lon="6.05222">
        <ele>355.8</ele>
        <time>2021-03-07T08:50:29Z</time>
      </trkpt>
      <trkpt lat="47.2593" lon="6.05223">
        <ele>356</ele>
        <time>2021-03-07T08:50:30Z</time>
      </trkpt>
      <trkpt lat="47.25928" lon="6.05224">
        <ele>356</ele>
        <time>2021-03-07T08:50:31Z</time>
      </trkpt>
      <trkpt lat="47.25926" lon="6.05225">
        <ele>356.2</ele>
        <time>2021-03-07T08:50:32Z</time>
      </trkpt>
      <trkpt lat="47.25925" lon="6.05226">
        <ele>356.2</ele>
        <time>2021-03-07T08:50:33Z</time>
      </trkpt>
      <trkpt lat="47.25923" lon="6.05228">
        <ele>356.4</ele>
        <time>2021-03-07T08:50:34Z</time>
      </trkpt>
      <trkpt lat="47.25921" lon="6.05229">
        <ele>356.4</ele>
        <time>2021-03-07T08:50:35Z</time>
      </trkpt>
      <trkpt lat="47.25919" lon="6.05231">
        <ele>356.6</ele>
        <time>2021-03-07T08:50:36Z</time>
      </trkpt>
      <trkpt lat="47.25917" lon="6.05232">
        <ele>356.6</ele>
        <time>2021-03-07T08:50:37Z</time>
      </trkpt>
      <trkpt lat="47.25915" lon="6.05234">
        <ele>356.8</ele>
        <time>2021-03-07T08:50:38Z</time>
      </trkpt>
      <trkpt lat="47.25914" lon="6.05235">
        <ele>356.8</ele>
        <time>2021-03-07T08:50:39Z</time>
      </trkpt>
      <trkpt lat="47.25912" lon="6.05237">
        <ele>357</ele>
        <time>2021-03-07T08:50:40Z</time>
      </trkpt>
      <trkpt lat="47.2591" lon="6.05239">
        <ele>357.2</ele>
        <time>2021-03-07T08:50:41Z</time>
      </trkpt>
      <trkpt lat="47.25909" lon="6.0524">
        <ele>357.2</ele>
        <time>2021-03-07T08:50:42Z</time>
      </trkpt>
      <trkpt lat="47.25908" lon="6.05242">
        <ele>357.4</ele>
        <time>2021-03-07T08:50:43Z</time>
      </trkpt>
      <trkpt lat="47.25907" lon="6.05244">
        <ele>357.4</ele>
        <time>2021-03-07T08:50:44Z</time>
      </trkpt>
      <trkpt lat="47.25906" lon="6.05246">
        <ele>357.6</ele>
        <time>2021-03-07T08:50:45Z</time>
      </trkpt>
      <trkpt lat="47.25904" lon="6.05248">
        <ele>358</ele>
        <time>2021-03-07T08:50:46Z</time>
      </trkpt>
      <trkpt lat="47.25903" lon="6.05251">
        <ele>358.2</ele>
        <time>2021-03-07T08:50:47Z</time>
      </trkpt>
      <trkpt lat="47.25902" lon="6.05253">
        <ele>358.4</ele>
        <time>2021-03-07T08:50:48Z</time>
      </trkpt>
      <trkpt lat="47.25901" lon="6.05256">
        <ele>358.6</ele>
        <time>2021-03-07T08:50:49Z</time>
      </trkpt>
      <trkpt lat="47.25899" lon="6.05259">
        <ele>358.8</ele>
        <time>2021-03-07T08:50:50Z</time>
      </trkpt>
      <trkpt lat="47.25898" lon="6.05261">
        <ele>359</ele>
        <time>2021-03-07T08:50:51Z</time>
      </trkpt>
      <trkpt lat="47.25897" lon="6.05264">
        <ele>359</ele>
        <time>2021-03-07T08:50:52Z</time>
      </trkpt>
      <trkpt lat="47.25896" lon="6.05266">
        <ele>359.2</ele>
        <time>2021-03-07T08:50:53Z</time>
      </trkpt>
      <trkpt lat="47.25895" lon="6.05268">
        <ele>359.4</ele>
        <time>2021-03-07T08:50:54Z</time>
      </trkpt>
      <trkpt lat="47.25894" lon="6.05271">
        <ele>359.6</ele>
        <time>2021-03-07T08:50:55Z</time>
      </trkpt>
      <trkpt lat="47.25892" lon="6.05273">
        <ele>359.8</ele>
        <time>2021-03-07T08:50:56Z</time>
      </trkpt>
      <trkpt lat="47.25891" lon="6.05276">
        <ele>360</ele>
        <time>2021-03-07T08:50:57Z</time>
      </trkpt>
      <trkpt lat="47.2589" lon="6.05279">
        <ele>360.2</ele>
        <time>2021-03-07T08:50:58Z</time>
      </trkpt>
      <trkpt lat="47.25889" lon="6.05282">
        <ele>360.4</ele>
        <time>2021-03-07T08:50:59Z</time>
      </trkpt>
      <trkpt lat="47.25888" lon="6.05284">
        <ele>360.6</ele>
        <time>2021-03-07T08:51:00Z</time>
      </trkpt>
      <trkpt lat="47.25887" lon="6.05287">
        <ele>360.8</ele>
        <time>2021-03-07T08:51:01Z</time>
      </trkpt>
      <trkpt lat="47.25886" lon="6.0529">
        <ele>360.8</ele>
        <time>2021-03-07T08:51:02Z</time>
      </trkpt>
      <trkpt lat="47.25884" lon="6.05293">
        <ele>361</ele>
        <time>2021-03-07T08:51:03Z</time>
      </trkpt>
      <trkpt lat="47.25883" lon="6.05296">
        <ele>361.2</ele>
        <time>2021-03-07T08:51:04Z</time>
      </trkpt>
      <trkpt lat="47.25882" lon="6.05298">
        <ele>361.4</ele>
        <time>2021-03-07T08:51:05Z</time>
      </trkpt>
      <trkpt lat="47.25881" lon="6.05301">
        <ele>361.4</ele>
        <time>2021-03-07T08:51:06Z</time>
      </trkpt>
      <trkpt lat="47.2588" lon="6.05303">
        <ele>361.4</ele>
        <time>2021-03-07T08:51:07Z</time>
      </trkpt>
      <trkpt lat="47.25879" lon="6.05306">
        <ele>361.6</ele>
        <time>2021-03-07T08:51:08Z</time>
      </trkpt>
      <trkpt lat="47.25879" lon="6.05309">
        <ele>361.8</ele>
        <time>2021-03-07T08:51:09Z</time>
      </trkpt>
      <trkpt lat="47.25878" lon="6.05312">
        <ele>362</ele>
        <time>2021-03-07T08:51:10Z</time>
      </trkpt>
      <trkpt lat="47.25877" lon="6.05315">
        <ele>362</ele>
        <time>2021-03-07T08:51:11Z</time>
      </trkpt>
      <trkpt lat="47.25877" lon="6.05318">
        <ele>362.4</ele>
        <time>2021-03-07T08:51:12Z</time>
      </trkpt>
      <trkpt lat="47.25876" lon="6.05321">
        <ele>362.4</ele>
        <time>2021-03-07T08:51:13Z</time>
      </trkpt>
      <trkpt lat="47.25875" lon="6.05325">
        <ele>362.6</ele>
        <time>2021-03-07T08:51:14Z</time>
      </trkpt>
      <trkpt lat="47.25875" lon="6.05329">
        <ele>362.8</ele>
        <time>2021-03-07T08:51:15Z</time>
      </trkpt>
      <trkpt lat="47.25874" lon="6.05332">
        <ele>362.8</ele>
        <time>2021-03-07T08:51:16Z</time>
      </trkpt>
      <trkpt lat="47.25873" lon="6.05336">
        <ele>363</ele>
        <time>2021-03-07T08:51:17Z</time>
      </trkpt>
      <trkpt lat="47.25873" lon="6.0534">
        <ele>363.2</ele>
        <time>2021-03-07T08:51:18Z</time>
      </trkpt>
      <trkpt lat="47.25872" lon="6.05343">
        <ele>363.2</ele>
        <time>2021-03-07T08:51:19Z</time>
      </trkpt>
      <trkpt lat="47.25872" lon="6.05347">
        <ele>363.4</ele>
        <time>2021-03-07T08:51:20Z</time>
      </trkpt>
      <trkpt lat="47.25871" lon="6.0535">
        <ele>363.6</ele>
        <time>2021-03-07T08:51:21Z</time>
      </trkpt>
      <trkpt lat="47.2587" lon="6.05354">
        <ele>363.8</ele>
        <time>2021-03-07T08:51:22Z</time>
      </trkpt>
      <trkpt lat="47.25869" lon="6.05357">
        <ele>363.8</ele>
        <time>2021-03-07T08:51:23Z</time>
      </trkpt>
      <trkpt lat="47.25869" lon="6.05361">
        <ele>364</ele>
        <time>2021-03-07T08:51:24Z</time>
      </trkpt>
      <trkpt lat="47.25868" lon="6.05365">
        <ele>364.2</ele>
        <time>2021-03-07T08:51:25Z</time>
      </trkpt>
      <trkpt lat="47.25868" lon="6.05369">
        <ele>364.2</ele>
        <time>2021-03-07T08:51:26Z</time>
      </trkpt>
      <trkpt lat="47.25867" lon="6.05373">
        <ele>364.4</ele>
        <time>2021-03-07T08:51:27Z</time>
      </trkpt>
      <trkpt lat="47.25867" lon="6.05377">
        <ele>364.4</ele>
        <time>2021-03-07T08:51:28Z</time>
      </trkpt>
      <trkpt lat="47.25866" lon="6.05381">
        <ele>364.6</ele>
        <time>2021-03-07T08:51:29Z</time>
      </trkpt>
      <trkpt lat="47.25866" lon="6.05384">
        <ele>364.6</ele>
        <time>2021-03-07T08:51:30Z</time>
      </trkpt>
      <trkpt lat="47.25865" lon="6.05388">
        <ele>364.6</ele>
        <time>2021-03-07T08:51:31Z</time>
      </trkpt>
      <trkpt lat="47.25864" lon="6.05392">
        <ele>364.6</ele>
        <time>2021-03-07T08:51:32Z</time>
      </trkpt>
      <trkpt lat="47.25863" lon="6.05396">
        <ele>364.8</ele>
        <time>2021-03-07T08:51:33Z</time>
      </trkpt>
      <trkpt lat="47.25863" lon="6.05401">
        <ele>364.8</ele>
        <time>2021-03-07T08:51:34Z</time>
      </trkpt>
      <trkpt lat="47.25862" lon="6.05405">
        <ele>364.8</ele>
        <time>2021-03-07T08:51:35Z</time>
      </trkpt>
      <trkpt lat="47.25861" lon="6.0541">
        <ele>364.8</ele>
        <time>2021-03-07T08:51:36Z</time>
      </trkpt>
      <trkpt lat="47.2586" lon="6.05414">
        <ele>365</ele>
        <time>2021-03-07T08:51:37Z</time>
      </trkpt>
      <trkpt lat="47.25859" lon="6.05419">
        <ele>365</ele>
        <time>2021-03-07T08:51:38Z</time>
      </trkpt>
      <trkpt lat="47.25858" lon="6.05424">
        <ele>365</ele>
        <time>2021-03-07T08:51:39Z</time>
      </trkpt>
      <trkpt lat="47.25856" lon="6.05429">
        <ele>365</ele>
        <time>2021-03-07T08:51:40Z</time>
      </trkpt>
      <trkpt lat="47.25855" lon="6.05434">
        <ele>365</ele>
        <time>2021-03-07T08:51:41Z</time>
      </trkpt>
      <trkpt lat="47.25849" lon="6.05452">
        <ele>365</ele>
        <time>2021-03-07T08:51:45Z</time>
      </trkpt>
      <trkpt lat="47.25843" lon="6.05478">
        <ele>364.8</ele>
        <time>2021-03-07T08:51:50Z</time>
      </trkpt>
      <trkpt lat="47.25842" lon="6.05492">
        <ele>364.8</ele>
        <time>2021-03-07T08:51:53Z</time>
      </trkpt>
      <trkpt lat="47.25843" lon="6.05497">
        <ele>364.6</ele>
        <time>2021-03-07T08:51:54Z</time>
      </trkpt>
      <trkpt lat="47.25844" lon="6.05501">
        <ele>364.6</ele>
        <time>2021-03-07T08:51:55Z</time>
      </trkpt>
      <trkpt lat="47.25845" lon="6.05504">
        <ele>364.6</ele>
        <time>2021-03-07T08:51:56Z</time>
      </trkpt>
      <trkpt lat="47.25846" lon="6.05507">
        <ele>364.6</ele>
        <time>2021-03-07T08:51:57Z</time>
      </trkpt>
      <trkpt lat="47.25847" lon="6.05509">
        <ele>364.4</ele>
        <time>2021-03-07T08:51:58Z</time>
      </trkpt>
      <trkpt lat="47.25848" lon="6.05511">
        <ele>364.4</ele>
        <time>2021-03-07T08:51:59Z</time>
      </trkpt>
      <trkpt lat="47.2585" lon="6.05514">
        <ele>364.4</ele>
        <time>2021-03-07T08:52:00Z</time>
      </trkpt>
      <trkpt lat="47.25851" lon="6.05516">
        <ele>364.4</ele>
        <time>2021-03-07T08:52:01Z</time>
      </trkpt>
      <trkpt lat="47.25858" lon="6.05522">
        <ele>364.4</ele>
        <time>2021-03-07T08:52:04Z</time>
      </trkpt>
      <trkpt lat="47.25859" lon="6.05525">
        <ele>364.6</ele>
        <time>2021-03-07T08:52:05Z</time>
      </trkpt>
      <trkpt lat="47.25859" lon="6.05526">
        <ele>364.6</ele>
        <time>2021-03-07T08:52:06Z</time>
      </trkpt>
      <trkpt lat="47.25859" lon="6.05528">
        <ele>364.6</ele>
        <time>2021-03-07T08:52:07Z</time>
      </trkpt>
      <trkpt lat="47.25858" lon="6.0553">
        <ele>364.6</ele>
        <time>2021-03-07T08:52:08Z</time>
      </trkpt>
      <trkpt lat="47.25857" lon="6.05533">
        <ele>364.6</ele>
        <time>2021-03-07T08:52:09Z</time>
      </trkpt>
      <trkpt lat="47.25856" lon="6.05534">
        <ele>364.6</ele>
        <time>2021-03-07T08:52:10Z</time>
      </trkpt>
      <trkpt lat="47.25852" lon="6.05537">
        <ele>364.6</ele>
        <time>2021-03-07T08:52:12Z</time>
      </trkpt>
      <trkpt lat="47.2585" lon="6.05538">
        <ele>364.6</ele>
        <time>2021-03-07T08:52:13Z</time>
      </trkpt>
      <trkpt lat="47.25849" lon="6.05539">
        <ele>364.6</ele>
        <time>2021-03-07T08:52:14Z</time>
      </trkpt>
      <trkpt lat="47.25848" lon="6.05542">
        <ele>364.6</ele>
        <time>2021-03-07T08:52:15Z</time>
      </trkpt>
      <trkpt lat="47.25847" lon="6.05544">
        <ele>364.4</ele>
        <time>2021-03-07T08:52:16Z</time>
      </trkpt>
      <trkpt lat="47.25847" lon="6.05549">
        <ele>364.4</ele>
        <time>2021-03-07T08:52:17Z</time>
      </trkpt>
      <trkpt lat="47.25842" lon="6.05566">
        <ele>363.8</ele>
        <time>2021-03-07T08:52:22Z</time>
      </trkpt>
      <trkpt lat="47.25841" lon="6.0557">
        <ele>363.6</ele>
        <time>2021-03-07T08:52:23Z</time>
      </trkpt>
      <trkpt lat="47.25834" lon="6.05586">
        <ele>363.4</ele>
        <time>2021-03-07T08:52:28Z</time>
      </trkpt>
      <trkpt lat="47.25832" lon="6.05591">
        <ele>363.2</ele>
        <time>2021-03-07T08:52:29Z</time>
      </trkpt>
      <trkpt lat="47.25832" lon="6.05595">
        <ele>363</ele>
        <time>2021-03-07T08:52:30Z</time>
      </trkpt>
      <trkpt lat="47.25827" lon="6.05604">
        <ele>363</ele>
        <time>2021-03-07T08:52:31Z</time>
      </trkpt>
      <trkpt lat="47.25823" lon="6.05617">
        <ele>362.8</ele>
        <time>2021-03-07T08:52:33Z</time>
      </trkpt>
      <trkpt lat="47.25807" lon="6.05633">
        <ele>362.4</ele>
        <time>2021-03-07T08:52:37Z</time>
      </trkpt>
      <trkpt lat="47.25804" lon="6.05639">
        <ele>362.4</ele>
        <time>2021-03-07T08:52:38Z</time>
      </trkpt>
      <trkpt lat="47.25801" lon="6.05644">
        <ele>362.2</ele>
        <time>2021-03-07T08:52:39Z</time>
      </trkpt>
      <trkpt lat="47.25797" lon="6.05649">
        <ele>362.2</ele>
        <time>2021-03-07T08:52:40Z</time>
      </trkpt>
      <trkpt lat="47.25792" lon="6.05654">
        <ele>362</ele>
        <time>2021-03-07T08:52:41Z</time>
      </trkpt>
      <trkpt lat="47.25788" lon="6.05657">
        <ele>361.8</ele>
        <time>2021-03-07T08:52:42Z</time>
      </trkpt>
      <trkpt lat="47.25786" lon="6.0566">
        <ele>361.6</ele>
        <time>2021-03-07T08:52:43Z</time>
      </trkpt>
      <trkpt lat="47.25784" lon="6.05663">
        <ele>361.6</ele>
        <time>2021-03-07T08:52:44Z</time>
      </trkpt>
      <trkpt lat="47.25781" lon="6.05667">
        <ele>361.4</ele>
        <time>2021-03-07T08:52:45Z</time>
      </trkpt>
      <trkpt lat="47.25779" lon="6.05671">
        <ele>361</ele>
        <time>2021-03-07T08:52:46Z</time>
      </trkpt>
      <trkpt lat="47.2577" lon="6.05683">
        <ele>360.8</ele>
        <time>2021-03-07T08:52:49Z</time>
      </trkpt>
      <trkpt lat="47.25769" lon="6.05685">
        <ele>360.8</ele>
        <time>2021-03-07T08:52:50Z</time>
      </trkpt>
      <trkpt lat="47.25768" lon="6.05686">
        <ele>360.6</ele>
        <time>2021-03-07T08:52:51Z</time>
      </trkpt>
      <trkpt lat="47.25766" lon="6.05688">
        <ele>360.6</ele>
        <time>2021-03-07T08:52:52Z</time>
      </trkpt>
      <trkpt lat="47.25752" lon="6.057">
        <ele>360.2</ele>
        <time>2021-03-07T08:52:56Z</time>
      </trkpt>
      <trkpt lat="47.25742" lon="6.05714">
        <ele>360</ele>
        <time>2021-03-07T08:52:59Z</time>
      </trkpt>
      <trkpt lat="47.25736" lon="6.05719">
        <ele>359.6</ele>
        <time>2021-03-07T08:53:00Z</time>
      </trkpt>
      <trkpt lat="47.25732" lon="6.05722">
        <ele>359.4</ele>
        <time>2021-03-07T08:53:01Z</time>
      </trkpt>
      <trkpt lat="47.2573" lon="6.05725">
        <ele>359.2</ele>
        <time>2021-03-07T08:53:02Z</time>
      </trkpt>
      <trkpt lat="47.25727" lon="6.05728">
        <ele>359</ele>
        <time>2021-03-07T08:53:03Z</time>
      </trkpt>
      <trkpt lat="47.25724" lon="6.05734">
        <ele>359</ele>
        <time>2021-03-07T08:53:04Z</time>
      </trkpt>
      <trkpt lat="47.25721" lon="6.0574">
        <ele>358.8</ele>
        <time>2021-03-07T08:53:05Z</time>
      </trkpt>
      <trkpt lat="47.25717" lon="6.05755">
        <ele>358.4</ele>
        <time>2021-03-07T08:53:07Z</time>
      </trkpt>
      <trkpt lat="47.25713" lon="6.05766">
        <ele>358.2</ele>
        <time>2021-03-07T08:53:08Z</time>
      </trkpt>
      <trkpt lat="47.25706" lon="6.05796">
        <ele>357.6</ele>
        <time>2021-03-07T08:53:11Z</time>
      </trkpt>
      <trkpt lat="47.25704" lon="6.05806">
        <ele>357.6</ele>
        <time>2021-03-07T08:53:12Z</time>
      </trkpt>
      <trkpt lat="47.25702" lon="6.05814">
        <ele>356.8</ele>
        <time>2021-03-07T08:53:13Z</time>
      </trkpt>
      <trkpt lat="47.25699" lon="6.05823">
        <ele>356.6</ele>
        <time>2021-03-07T08:53:14Z</time>
      </trkpt>
      <trkpt lat="47.25694" lon="6.05833">
        <ele>356</ele>
        <time>2021-03-07T08:53:15Z</time>
      </trkpt>
      <trkpt lat="47.25691" lon="6.05841">
        <ele>355.6</ele>
        <time>2021-03-07T08:53:16Z</time>
      </trkpt>
      <trkpt lat="47.25689" lon="6.05847">
        <ele>354.6</ele>
        <time>2021-03-07T08:53:17Z</time>
      </trkpt>
      <trkpt lat="47.25687" lon="6.05852">
        <ele>353.8</ele>
        <time>2021-03-07T08:53:18Z</time>
      </trkpt>
      <trkpt lat="47.25688" lon="6.05856">
        <ele>353.4</ele>
        <time>2021-03-07T08:53:19Z</time>
      </trkpt>
      <trkpt lat="47.25691" lon="6.05861">
        <ele>353</ele>
        <time>2021-03-07T08:53:20Z</time>
      </trkpt>
      <trkpt lat="47.25694" lon="6.05868">
        <ele>352.4</ele>
        <time>2021-03-07T08:53:21Z</time>
      </trkpt>
      <trkpt lat="47.25698" lon="6.05874">
        <ele>351.6</ele>
        <time>2021-03-07T08:53:22Z</time>
      </trkpt>
      <trkpt lat="47.25701" lon="6.0588">
        <ele>351.2</ele>
        <time>2021-03-07T08:53:23Z</time>
      </trkpt>
      <trkpt lat="47.25703" lon="6.05885">
        <ele>351</ele>
        <time>2021-03-07T08:53:24Z</time>
      </trkpt>
      <trkpt lat="47.25703" lon="6.0589">
        <ele>350.6</ele>
        <time>2021-03-07T08:53:25Z</time>
      </trkpt>
      <trkpt lat="47.25704" lon="6.05891">
        <ele>350.4</ele>
        <time>2021-03-07T08:53:26Z</time>
      </trkpt>
      <trkpt lat="47.25704" lon="6.05894">
        <ele>350.2</ele>
        <time>2021-03-07T08:53:27Z</time>
      </trkpt>
      <trkpt lat="47.25703" lon="6.05896">
        <ele>350</ele>
        <time>2021-03-07T08:53:28Z</time>
      </trkpt>
      <trkpt lat="47.25704" lon="6.059">
        <ele>349.8</ele>
        <time>2021-03-07T08:53:29Z</time>
      </trkpt>
      <trkpt lat="47.25702" lon="6.05903">
        <ele>348.8</ele>
        <time>2021-03-07T08:53:30Z</time>
      </trkpt>
      <trkpt lat="47.257" lon="6.05906">
        <ele>348.6</ele>
        <time>2021-03-07T08:53:31Z</time>
      </trkpt>
      <trkpt lat="47.25697" lon="6.0591">
        <ele>347.8</ele>
        <time>2021-03-07T08:53:33Z</time>
      </trkpt>
      <trkpt lat="47.25695" lon="6.05912">
        <ele>347.6</ele>
        <time>2021-03-07T08:53:34Z</time>
      </trkpt>
      <trkpt lat="47.25693" lon="6.05915">
        <ele>347.4</ele>
        <time>2021-03-07T08:53:35Z</time>
      </trkpt>
      <trkpt lat="47.25691" lon="6.05917">
        <ele>347.4</ele>
        <time>2021-03-07T08:53:36Z</time>
      </trkpt>
      <trkpt lat="47.2569" lon="6.0592">
        <ele>347.2</ele>
        <time>2021-03-07T08:53:37Z</time>
      </trkpt>
      <trkpt lat="47.25675" lon="6.05933">
        <ele>347.2</ele>
        <time>2021-03-07T08:53:42Z</time>
      </trkpt>
      <trkpt lat="47.25674" lon="6.05936">
        <ele>347.2</ele>
        <time>2021-03-07T08:53:43Z</time>
      </trkpt>
      <trkpt lat="47.25672" lon="6.05939">
        <ele>347.2</ele>
        <time>2021-03-07T08:53:44Z</time>
      </trkpt>
      <trkpt lat="47.25672" lon="6.05943">
        <ele>347.4</ele>
        <time>2021-03-07T08:53:45Z</time>
      </trkpt>
      <trkpt lat="47.25673" lon="6.05946">
        <ele>347.4</ele>
        <time>2021-03-07T08:53:46Z</time>
      </trkpt>
      <trkpt lat="47.25672" lon="6.05951">
        <ele>347.4</ele>
        <time>2021-03-07T08:53:47Z</time>
      </trkpt>
      <trkpt lat="47.25673" lon="6.05956">
        <ele>347.2</ele>
        <time>2021-03-07T08:53:48Z</time>
      </trkpt>
      <trkpt lat="47.25673" lon="6.05961">
        <ele>347.4</ele>
        <time>2021-03-07T08:53:49Z</time>
      </trkpt>
      <trkpt lat="47.25672" lon="6.05966">
        <ele>347.4</ele>
        <time>2021-03-07T08:53:50Z</time>
      </trkpt>
      <trkpt lat="47.25667" lon="6.05977">
        <ele>347.6</ele>
        <time>2021-03-07T08:53:52Z</time>
      </trkpt>
      <trkpt lat="47.25665" lon="6.05981">
        <ele>347.6</ele>
        <time>2021-03-07T08:53:53Z</time>
      </trkpt>
      <trkpt lat="47.25664" lon="6.05986">
        <ele>347.4</ele>
        <time>2021-03-07T08:53:54Z</time>
      </trkpt>
      <trkpt lat="47.25655" lon="6.06001">
        <ele>347.2</ele>
        <time>2021-03-07T08:53:57Z</time>
      </trkpt>
      <trkpt lat="47.25655" lon="6.06004">
        <ele>347.2</ele>
        <time>2021-03-07T08:53:58Z</time>
      </trkpt>
      <trkpt lat="47.25654" lon="6.06007">
        <ele>347.2</ele>
        <time>2021-03-07T08:53:59Z</time>
      </trkpt>
      <trkpt lat="47.25651" lon="6.06014">
        <ele>347.2</ele>
        <time>2021-03-07T08:54:00Z</time>
      </trkpt>
      <trkpt lat="47.25648" lon="6.06024">
        <ele>347</ele>
        <time>2021-03-07T08:54:02Z</time>
      </trkpt>
      <trkpt lat="47.2565" lon="6.06032">
        <ele>347</ele>
        <time>2021-03-07T08:54:03Z</time>
      </trkpt>
      <trkpt lat="47.25649" lon="6.06039">
        <ele>346.8</ele>
        <time>2021-03-07T08:54:04Z</time>
      </trkpt>
      <trkpt lat="47.25648" lon="6.06044">
        <ele>346.8</ele>
        <time>2021-03-07T08:54:05Z</time>
      </trkpt>
      <trkpt lat="47.25647" lon="6.0605">
        <ele>346.8</ele>
        <time>2021-03-07T08:54:06Z</time>
      </trkpt>
      <trkpt lat="47.25648" lon="6.06053">
        <ele>346.6</ele>
        <time>2021-03-07T08:54:07Z</time>
      </trkpt>
      <trkpt lat="47.25647" lon="6.06057">
        <ele>346.6</ele>
        <time>2021-03-07T08:54:08Z</time>
      </trkpt>
      <trkpt lat="47.25643" lon="6.06065">
        <ele>346.4</ele>
        <time>2021-03-07T08:54:10Z</time>
      </trkpt>
      <trkpt lat="47.25639" lon="6.06067">
        <ele>346.4</ele>
        <time>2021-03-07T08:54:11Z</time>
      </trkpt>
      <trkpt lat="47.25636" lon="6.0607">
        <ele>346.4</ele>
        <time>2021-03-07T08:54:12Z</time>
      </trkpt>
      <trkpt lat="47.25634" lon="6.06072">
        <ele>346.4</ele>
        <time>2021-03-07T08:54:13Z</time>
      </trkpt>
      <trkpt lat="47.25633" lon="6.06074">
        <ele>346.4</ele>
        <time>2021-03-07T08:54:14Z</time>
      </trkpt>
      <trkpt lat="47.25632" lon="6.06076">
        <ele>346.4</ele>
        <time>2021-03-07T08:54:15Z</time>
      </trkpt>
      <trkpt lat="47.25625" lon="6.06082">
        <ele>346.8</ele>
        <time>2021-03-07T08:54:17Z</time>
      </trkpt>
      <trkpt lat="47.25622" lon="6.06087">
        <ele>346.8</ele>
        <time>2021-03-07T08:54:18Z</time>
      </trkpt>
      <trkpt lat="47.25618" lon="6.06093">
        <ele>346.8</ele>
        <time>2021-03-07T08:54:19Z</time>
      </trkpt>
      <trkpt lat="47.25611" lon="6.06107">
        <ele>347</ele>
        <time>2021-03-07T08:54:22Z</time>
      </trkpt>
      <trkpt lat="47.25611" lon="6.06111">
        <ele>347.2</ele>
        <time>2021-03-07T08:54:23Z</time>
      </trkpt>
      <trkpt lat="47.25611" lon="6.06113">
        <ele>347.4</ele>
        <time>2021-03-07T08:54:24Z</time>
      </trkpt>
      <trkpt lat="47.25611" lon="6.06115">
        <ele>347.4</ele>
        <time>2021-03-07T08:54:25Z</time>
      </trkpt>
      <trkpt lat="47.25612" lon="6.06118">
        <ele>347.8</ele>
        <time>2021-03-07T08:54:26Z</time>
      </trkpt>
      <trkpt lat="47.2561" lon="6.0612">
        <ele>347.8</ele>
        <time>2021-03-07T08:54:27Z</time>
      </trkpt>
      <trkpt lat="47.25607" lon="6.06123">
        <ele>348</ele>
        <time>2021-03-07T08:54:28Z</time>
      </trkpt>
      <trkpt lat="47.25606" lon="6.06126">
        <ele>348.2</ele>
        <time>2021-03-07T08:54:29Z</time>
      </trkpt>
      <trkpt lat="47.25603" lon="6.06129">
        <ele>348.6</ele>
        <time>2021-03-07T08:54:31Z</time>
      </trkpt>
      <trkpt lat="47.25602" lon="6.06132">
        <ele>348.6</ele>
        <time>2021-03-07T08:54:32Z</time>
      </trkpt>
      <trkpt lat="47.25601" lon="6.06134">
        <ele>348.8</ele>
        <time>2021-03-07T08:54:33Z</time>
      </trkpt>
      <trkpt lat="47.25601" lon="6.06136">
        <ele>349</ele>
        <time>2021-03-07T08:54:34Z</time>
      </trkpt>
      <trkpt lat="47.25601" lon="6.06138">
        <ele>349</ele>
        <time>2021-03-07T08:54:35Z</time>
      </trkpt>
      <trkpt lat="47.256" lon="6.06141">
        <ele>349.4</ele>
        <time>2021-03-07T08:54:36Z</time>
      </trkpt>
      <trkpt lat="47.25597" lon="6.06145">
        <ele>349.4</ele>
        <time>2021-03-07T08:54:37Z</time>
      </trkpt>
      <trkpt lat="47.25594" lon="6.06148">
        <ele>349.4</ele>
        <time>2021-03-07T08:54:38Z</time>
      </trkpt>
      <trkpt lat="47.25591" lon="6.06154">
        <ele>349.6</ele>
        <time>2021-03-07T08:54:39Z</time>
      </trkpt>
      <trkpt lat="47.25589" lon="6.0616">
        <ele>349.6</ele>
        <time>2021-03-07T08:54:40Z</time>
      </trkpt>
      <trkpt lat="47.25586" lon="6.06162">
        <ele>349.8</ele>
        <time>2021-03-07T08:54:41Z</time>
      </trkpt>
      <trkpt lat="47.25584" lon="6.06164">
        <ele>349.8</ele>
        <time>2021-03-07T08:54:42Z</time>
      </trkpt>
      <trkpt lat="47.25583" lon="6.06165">
        <ele>349.8</ele>
        <time>2021-03-07T08:54:43Z</time>
      </trkpt>
      <trkpt lat="47.2558" lon="6.06168">
        <ele>350</ele>
        <time>2021-03-07T08:54:44Z</time>
      </trkpt>
      <trkpt lat="47.25579" lon="6.0617">
        <ele>350</ele>
        <time>2021-03-07T08:54:45Z</time>
      </trkpt>
      <trkpt lat="47.25576" lon="6.06173">
        <ele>350.2</ele>
        <time>2021-03-07T08:54:46Z</time>
      </trkpt>
      <trkpt lat="47.25575" lon="6.06177">
        <ele>350.4</ele>
        <time>2021-03-07T08:54:47Z</time>
      </trkpt>
      <trkpt lat="47.25572" lon="6.06181">
        <ele>350.6</ele>
        <time>2021-03-07T08:54:48Z</time>
      </trkpt>
      <trkpt lat="47.25571" lon="6.06184">
        <ele>350.8</ele>
        <time>2021-03-07T08:54:49Z</time>
      </trkpt>
      <trkpt lat="47.25569" lon="6.06188">
        <ele>350.8</ele>
        <time>2021-03-07T08:54:50Z</time>
      </trkpt>
      <trkpt lat="47.25567" lon="6.06191">
        <ele>351</ele>
        <time>2021-03-07T08:54:51Z</time>
      </trkpt>
      <trkpt lat="47.25566" lon="6.06192">
        <ele>351</ele>
        <time>2021-03-07T08:54:52Z</time>
      </trkpt>
      <trkpt lat="47.25564" lon="6.06193">
        <ele>351.2</ele>
        <time>2021-03-07T08:54:53Z</time>
      </trkpt>
      <trkpt lat="47.25561" lon="6.06196">
        <ele>351.2</ele>
        <time>2021-03-07T08:54:54Z</time>
      </trkpt>
      <trkpt lat="47.25562" lon="6.06199">
        <ele>351.2</ele>
        <time>2021-03-07T08:54:55Z</time>
      </trkpt>
      <trkpt lat="47.2556" lon="6.06201">
        <ele>351.4</ele>
        <time>2021-03-07T08:54:56Z</time>
      </trkpt>
      <trkpt lat="47.25559" lon="6.06203">
        <ele>351.6</ele>
        <time>2021-03-07T08:54:57Z</time>
      </trkpt>
      <trkpt lat="47.25556" lon="6.06205">
        <ele>351.8</ele>
        <time>2021-03-07T08:54:58Z</time>
      </trkpt>
      <trkpt lat="47.25552" lon="6.0621">
        <ele>352</ele>
        <time>2021-03-07T08:54:59Z</time>
      </trkpt>
      <trkpt lat="47.25552" lon="6.06212">
        <ele>352.2</ele>
        <time>2021-03-07T08:55:00Z</time>
      </trkpt>
      <trkpt lat="47.25552" lon="6.06214">
        <ele>352.2</ele>
        <time>2021-03-07T08:55:01Z</time>
      </trkpt>
      <trkpt lat="47.25553" lon="6.06216">
        <ele>352.6</ele>
        <time>2021-03-07T08:55:02Z</time>
      </trkpt>
      <trkpt lat="47.25552" lon="6.06219">
        <ele>352.6</ele>
        <time>2021-03-07T08:55:03Z</time>
      </trkpt>
      <trkpt lat="47.2555" lon="6.06222">
        <ele>352.8</ele>
        <time>2021-03-07T08:55:04Z</time>
      </trkpt>
      <trkpt lat="47.25549" lon="6.06224">
        <ele>352.8</ele>
        <time>2021-03-07T08:55:05Z</time>
      </trkpt>
      <trkpt lat="47.25547" lon="6.06226">
        <ele>353</ele>
        <time>2021-03-07T08:55:06Z</time>
      </trkpt>
      <trkpt lat="47.25546" lon="6.06228">
        <ele>353</ele>
        <time>2021-03-07T08:55:07Z</time>
      </trkpt>
      <trkpt lat="47.25544" lon="6.06231">
        <ele>353</ele>
        <time>2021-03-07T08:55:08Z</time>
      </trkpt>
      <trkpt lat="47.25545" lon="6.06233">
        <ele>353</ele>
        <time>2021-03-07T08:55:09Z</time>
      </trkpt>
      <trkpt lat="47.25541" lon="6.06236">
        <ele>353.2</ele>
        <time>2021-03-07T08:55:10Z</time>
      </trkpt>
      <trkpt lat="47.25539" lon="6.06238">
        <ele>353.2</ele>
        <time>2021-03-07T08:55:11Z</time>
      </trkpt>
      <trkpt lat="47.25535" lon="6.06242">
        <ele>353.6</ele>
        <time>2021-03-07T08:55:12Z</time>
      </trkpt>
      <trkpt lat="47.25533" lon="6.06246">
        <ele>353.6</ele>
        <time>2021-03-07T08:55:13Z</time>
      </trkpt>
      <trkpt lat="47.25532" lon="6.06251">
        <ele>353.8</ele>
        <time>2021-03-07T08:55:14Z</time>
      </trkpt>
      <trkpt lat="47.2553" lon="6.06255">
        <ele>353.8</ele>
        <time>2021-03-07T08:55:15Z</time>
      </trkpt>
      <trkpt lat="47.25528" lon="6.06257">
        <ele>353.8</ele>
        <time>2021-03-07T08:55:16Z</time>
      </trkpt>
      <trkpt lat="47.25526" lon="6.06258">
        <ele>354</ele>
        <time>2021-03-07T08:55:17Z</time>
      </trkpt>
      <trkpt lat="47.25524" lon="6.06259">
        <ele>354</ele>
        <time>2021-03-07T08:55:18Z</time>
      </trkpt>
      <trkpt lat="47.25522" lon="6.0626">
        <ele>354</ele>
        <time>2021-03-07T08:55:19Z</time>
      </trkpt>
      <trkpt lat="47.2552" lon="6.06263">
        <ele>354</ele>
        <time>2021-03-07T08:55:20Z</time>
      </trkpt>
      <trkpt lat="47.25519" lon="6.06266">
        <ele>354.2</ele>
        <time>2021-03-07T08:55:21Z</time>
      </trkpt>
      <trkpt lat="47.25517" lon="6.06271">
        <ele>354.2</ele>
        <time>2021-03-07T08:55:22Z</time>
      </trkpt>
      <trkpt lat="47.25517" lon="6.06273">
        <ele>354.2</ele>
        <time>2021-03-07T08:55:23Z</time>
      </trkpt>
      <trkpt lat="47.25515" lon="6.06274">
        <ele>354.2</ele>
        <time>2021-03-07T08:55:24Z</time>
      </trkpt>
      <trkpt lat="47.25514" lon="6.06277">
        <ele>354.4</ele>
        <time>2021-03-07T08:55:25Z</time>
      </trkpt>
      <trkpt lat="47.25513" lon="6.06279">
        <ele>354.4</ele>
        <time>2021-03-07T08:55:26Z</time>
      </trkpt>
      <trkpt lat="47.25512" lon="6.06281">
        <ele>354.4</ele>
        <time>2021-03-07T08:55:27Z</time>
      </trkpt>
      <trkpt lat="47.2551" lon="6.06283">
        <ele>354.6</ele>
        <time>2021-03-07T08:55:28Z</time>
      </trkpt>
      <trkpt lat="47.25508" lon="6.06285">
        <ele>354.6</ele>
        <time>2021-03-07T08:55:29Z</time>
      </trkpt>
      <trkpt lat="47.25503" lon="6.06298">
        <ele>354.6</ele>
        <time>2021-03-07T08:55:33Z</time>
      </trkpt>
      <trkpt lat="47.25501" lon="6.06302">
        <ele>354.6</ele>
        <time>2021-03-07T08:55:34Z</time>
      </trkpt>
      <trkpt lat="47.255" lon="6.06306">
        <ele>354.6</ele>
        <time>2021-03-07T08:55:35Z</time>
      </trkpt>
      <trkpt lat="47.25496" lon="6.06309">
        <ele>354.6</ele>
        <time>2021-03-07T08:55:36Z</time>
      </trkpt>
      <trkpt lat="47.25493" lon="6.06313">
        <ele>354.6</ele>
        <time>2021-03-07T08:55:37Z</time>
      </trkpt>
      <trkpt lat="47.25486" lon="6.06324">
        <ele>354.6</ele>
        <time>2021-03-07T08:55:40Z</time>
      </trkpt>
      <trkpt lat="47.25467" lon="6.06344">
        <ele>354.8</ele>
        <time>2021-03-07T08:55:46Z</time>
      </trkpt>
      <trkpt lat="47.2546" lon="6.06355">
        <ele>354.8</ele>
        <time>2021-03-07T08:55:49Z</time>
      </trkpt>
      <trkpt lat="47.25458" lon="6.0636">
        <ele>354.8</ele>
        <time>2021-03-07T08:55:50Z</time>
      </trkpt>
      <trkpt lat="47.25456" lon="6.06364">
        <ele>354.8</ele>
        <time>2021-03-07T08:55:51Z</time>
      </trkpt>
      <trkpt lat="47.25453" lon="6.06368">
        <ele>354.8</ele>
        <time>2021-03-07T08:55:52Z</time>
      </trkpt>
      <trkpt lat="47.25439" lon="6.06384">
        <ele>354.8</ele>
        <time>2021-03-07T08:55:58Z</time>
      </trkpt>
      <trkpt lat="47.25434" lon="6.06389">
        <ele>354.8</ele>
        <time>2021-03-07T08:56:00Z</time>
      </trkpt>
      <trkpt lat="47.25432" lon="6.06391">
        <ele>354.8</ele>
        <time>2021-03-07T08:56:01Z</time>
      </trkpt>
      <trkpt lat="47.25423" lon="6.06403">
        <ele>355</ele>
        <time>2021-03-07T08:56:05Z</time>
      </trkpt>
      <trkpt lat="47.25421" lon="6.06406">
        <ele>355.2</ele>
        <time>2021-03-07T08:56:06Z</time>
      </trkpt>
      <trkpt lat="47.25419" lon="6.06408">
        <ele>355.2</ele>
        <time>2021-03-07T08:56:07Z</time>
      </trkpt>
      <trkpt lat="47.25416" lon="6.0641">
        <ele>355.4</ele>
        <time>2021-03-07T08:56:08Z</time>
      </trkpt>
      <trkpt lat="47.25414" lon="6.06412">
        <ele>355.4</ele>
        <time>2021-03-07T08:56:09Z</time>
      </trkpt>
      <trkpt lat="47.25407" lon="6.0642">
        <ele>355.4</ele>
        <time>2021-03-07T08:56:12Z</time>
      </trkpt>
      <trkpt lat="47.25395" lon="6.06435">
        <ele>356</ele>
        <time>2021-03-07T08:56:17Z</time>
      </trkpt>
      <trkpt lat="47.25385" lon="6.06446">
        <ele>356.2</ele>
        <time>2021-03-07T08:56:21Z</time>
      </trkpt>
      <trkpt lat="47.25378" lon="6.06451">
        <ele>356.4</ele>
        <time>2021-03-07T08:56:24Z</time>
      </trkpt>
      <trkpt lat="47.25375" lon="6.06452">
        <ele>356.4</ele>
        <time>2021-03-07T08:56:25Z</time>
      </trkpt>
      <trkpt lat="47.25373" lon="6.06454">
        <ele>356.4</ele>
        <time>2021-03-07T08:56:26Z</time>
      </trkpt>
      <trkpt lat="47.2537" lon="6.06455">
        <ele>356.4</ele>
        <time>2021-03-07T08:56:27Z</time>
      </trkpt>
      <trkpt lat="47.25368" lon="6.06457">
        <ele>356.4</ele>
        <time>2021-03-07T08:56:28Z</time>
      </trkpt>
      <trkpt lat="47.25365" lon="6.06459">
        <ele>356.6</ele>
        <time>2021-03-07T08:56:29Z</time>
      </trkpt>
      <trkpt lat="47.25363" lon="6.0646">
        <ele>356.6</ele>
        <time>2021-03-07T08:56:30Z</time>
      </trkpt>
      <trkpt lat="47.25361" lon="6.06461">
        <ele>356.8</ele>
        <time>2021-03-07T08:56:31Z</time>
      </trkpt>
      <trkpt lat="47.25359" lon="6.06462">
        <ele>356.8</ele>
        <time>2021-03-07T08:56:32Z</time>
      </trkpt>
      <trkpt lat="47.25357" lon="6.06462">
        <ele>357</ele>
        <time>2021-03-07T08:56:33Z</time>
      </trkpt>
      <trkpt lat="47.25355" lon="6.06462">
        <ele>357</ele>
        <time>2021-03-07T08:56:34Z</time>
      </trkpt>
      <trkpt lat="47.25353" lon="6.06461">
        <ele>357.2</ele>
        <time>2021-03-07T08:56:35Z</time>
      </trkpt>
      <trkpt lat="47.25351" lon="6.06459">
        <ele>357.2</ele>
        <time>2021-03-07T08:56:36Z</time>
      </trkpt>
      <trkpt lat="47.2535" lon="6.06457">
        <ele>357.4</ele>
        <time>2021-03-07T08:56:37Z</time>
      </trkpt>
      <trkpt lat="47.25348" lon="6.06454">
        <ele>357.4</ele>
        <time>2021-03-07T08:56:38Z</time>
      </trkpt>
      <trkpt lat="47.25347" lon="6.06451">
        <ele>357.4</ele>
        <time>2021-03-07T08:56:39Z</time>
      </trkpt>
      <trkpt lat="47.25346" lon="6.06447">
        <ele>357.4</ele>
        <time>2021-03-07T08:56:40Z</time>
      </trkpt>
      <trkpt lat="47.25339" lon="6.06434">
        <ele>357.8</ele>
        <time>2021-03-07T08:56:44Z</time>
      </trkpt>
      <trkpt lat="47.2533" lon="6.06425">
        <ele>358.2</ele>
        <time>2021-03-07T08:56:48Z</time>
      </trkpt>
      <trkpt lat="47.25327" lon="6.06424">
        <ele>358.2</ele>
        <time>2021-03-07T08:56:49Z</time>
      </trkpt>
      <trkpt lat="47.25324" lon="6.06424">
        <ele>358.4</ele>
        <time>2021-03-07T08:56:50Z</time>
      </trkpt>
      <trkpt lat="47.25321" lon="6.06425">
        <ele>358.4</ele>
        <time>2021-03-07T08:56:51Z</time>
      </trkpt>
      <trkpt lat="47.25319" lon="6.06426">
        <ele>358.8</ele>
        <time>2021-03-07T08:56:52Z</time>
      </trkpt>
      <trkpt lat="47.25318" lon="6.06428">
        <ele>359</ele>
        <time>2021-03-07T08:56:53Z</time>
      </trkpt>
      <trkpt lat="47.25316" lon="6.0643">
        <ele>359</ele>
        <time>2021-03-07T08:56:54Z</time>
      </trkpt>
      <trkpt lat="47.25314" lon="6.06432">
        <ele>359.2</ele>
        <time>2021-03-07T08:56:55Z</time>
      </trkpt>
      <trkpt lat="47.25309" lon="6.06441">
        <ele>359.6</ele>
        <time>2021-03-07T08:56:58Z</time>
      </trkpt>
      <trkpt lat="47.25308" lon="6.06444">
        <ele>359.8</ele>
        <time>2021-03-07T08:56:59Z</time>
      </trkpt>
      <trkpt lat="47.25306" lon="6.06445">
        <ele>360</ele>
        <time>2021-03-07T08:57:00Z</time>
      </trkpt>
      <trkpt lat="47.25304" lon="6.06448">
        <ele>360</ele>
        <time>2021-03-07T08:57:01Z</time>
      </trkpt>
      <trkpt lat="47.25302" lon="6.0645">
        <ele>360</ele>
        <time>2021-03-07T08:57:02Z</time>
      </trkpt>
      <trkpt lat="47.25301" lon="6.06452">
        <ele>360.4</ele>
        <time>2021-03-07T08:57:03Z</time>
      </trkpt>
      <trkpt lat="47.25299" lon="6.06454">
        <ele>360.4</ele>
        <time>2021-03-07T08:57:04Z</time>
      </trkpt>
      <trkpt lat="47.25297" lon="6.06456">
        <ele>361</ele>
        <time>2021-03-07T08:57:05Z</time>
      </trkpt>
      <trkpt lat="47.25296" lon="6.06458">
        <ele>361.2</ele>
        <time>2021-03-07T08:57:06Z</time>
      </trkpt>
      <trkpt lat="47.25294" lon="6.06459">
        <ele>361.4</ele>
        <time>2021-03-07T08:57:07Z</time>
      </trkpt>
      <trkpt lat="47.25292" lon="6.06461">
        <ele>361.6</ele>
        <time>2021-03-07T08:57:08Z</time>
      </trkpt>
      <trkpt lat="47.25291" lon="6.06463">
        <ele>361.8</ele>
        <time>2021-03-07T08:57:09Z</time>
      </trkpt>
      <trkpt lat="47.25289" lon="6.06465">
        <ele>362.2</ele>
        <time>2021-03-07T08:57:10Z</time>
      </trkpt>
      <trkpt lat="47.25288" lon="6.06467">
        <ele>362.2</ele>
        <time>2021-03-07T08:57:11Z</time>
      </trkpt>
      <trkpt lat="47.25286" lon="6.06469">
        <ele>362.6</ele>
        <time>2021-03-07T08:57:12Z</time>
      </trkpt>
      <trkpt lat="47.25284" lon="6.0647">
        <ele>362.8</ele>
        <time>2021-03-07T08:57:13Z</time>
      </trkpt>
      <trkpt lat="47.25282" lon="6.06472">
        <ele>363</ele>
        <time>2021-03-07T08:57:14Z</time>
      </trkpt>
      <trkpt lat="47.25281" lon="6.06474">
        <ele>363.2</ele>
        <time>2021-03-07T08:57:15Z</time>
      </trkpt>
      <trkpt lat="47.25278" lon="6.06475">
        <ele>363.6</ele>
        <time>2021-03-07T08:57:16Z</time>
      </trkpt>
      <trkpt lat="47.25276" lon="6.06476">
        <ele>363.8</ele>
        <time>2021-03-07T08:57:17Z</time>
      </trkpt>
      <trkpt lat="47.25274" lon="6.06478">
        <ele>364.2</ele>
        <time>2021-03-07T08:57:18Z</time>
      </trkpt>
      <trkpt lat="47.25271" lon="6.0648">
        <ele>364.2</ele>
        <time>2021-03-07T08:57:19Z</time>
      </trkpt>
      <trkpt lat="47.25269" lon="6.06481">
        <ele>364.4</ele>
        <time>2021-03-07T08:57:20Z</time>
      </trkpt>
      <trkpt lat="47.25266" lon="6.06482">
        <ele>364.6</ele>
        <time>2021-03-07T08:57:21Z</time>
      </trkpt>
      <trkpt lat="47.25264" lon="6.06482">
        <ele>364.8</ele>
        <time>2021-03-07T08:57:22Z</time>
      </trkpt>
      <trkpt lat="47.25261" lon="6.06482">
        <ele>365</ele>
        <time>2021-03-07T08:57:23Z</time>
      </trkpt>
      <trkpt lat="47.25259" lon="6.06483">
        <ele>365.4</ele>
        <time>2021-03-07T08:57:24Z</time>
      </trkpt>
      <trkpt lat="47.25257" lon="6.06483">
        <ele>365.4</ele>
        <time>2021-03-07T08:57:25Z</time>
      </trkpt>
      <trkpt lat="47.25254" lon="6.06483">
        <ele>365.8</ele>
        <time>2021-03-07T08:57:26Z</time>
      </trkpt>
      <trkpt lat="47.25252" lon="6.06482">
        <ele>365.8</ele>
        <time>2021-03-07T08:57:27Z</time>
      </trkpt>
      <trkpt lat="47.2525" lon="6.06482">
        <ele>366.2</ele>
        <time>2021-03-07T08:57:28Z</time>
      </trkpt>
      <trkpt lat="47.25248" lon="6.06481">
        <ele>366.4</ele>
        <time>2021-03-07T08:57:29Z</time>
      </trkpt>
      <trkpt lat="47.25246" lon="6.06479">
        <ele>366.4</ele>
        <time>2021-03-07T08:57:30Z</time>
      </trkpt>
      <trkpt lat="47.25243" lon="6.06478">
        <ele>366.6</ele>
        <time>2021-03-07T08:57:31Z</time>
      </trkpt>
      <trkpt lat="47.25241" lon="6.06476">
        <ele>366.8</ele>
        <time>2021-03-07T08:57:32Z</time>
      </trkpt>
      <trkpt lat="47.25239" lon="6.06475">
        <ele>367</ele>
        <time>2021-03-07T08:57:33Z</time>
      </trkpt>
      <trkpt lat="47.25237" lon="6.06474">
        <ele>367</ele>
        <time>2021-03-07T08:57:34Z</time>
      </trkpt>
      <trkpt lat="47.25235" lon="6.06473">
        <ele>367.4</ele>
        <time>2021-03-07T08:57:35Z</time>
      </trkpt>
      <trkpt lat="47.25232" lon="6.06471">
        <ele>367.4</ele>
        <time>2021-03-07T08:57:36Z</time>
      </trkpt>
      <trkpt lat="47.2523" lon="6.0647">
        <ele>367.8</ele>
        <time>2021-03-07T08:57:37Z</time>
      </trkpt>
      <trkpt lat="47.25228" lon="6.06468">
        <ele>367.8</ele>
        <time>2021-03-07T08:57:38Z</time>
      </trkpt>
      <trkpt lat="47.25225" lon="6.06467">
        <ele>368.2</ele>
        <time>2021-03-07T08:57:39Z</time>
      </trkpt>
      <trkpt lat="47.25223" lon="6.06465">
        <ele>368.2</ele>
        <time>2021-03-07T08:57:40Z</time>
      </trkpt>
      <trkpt lat="47.25221" lon="6.06464">
        <ele>368.4</ele>
        <time>2021-03-07T08:57:41Z</time>
      </trkpt>
      <trkpt lat="47.25219" lon="6.06462">
        <ele>368.6</ele>
        <time>2021-03-07T08:57:42Z</time>
      </trkpt>
      <trkpt lat="47.25217" lon="6.06461">
        <ele>369</ele>
        <time>2021-03-07T08:57:43Z</time>
      </trkpt>
      <trkpt lat="47.25215" lon="6.0646">
        <ele>369</ele>
        <time>2021-03-07T08:57:44Z</time>
      </trkpt>
      <trkpt lat="47.25213" lon="6.06458">
        <ele>369.2</ele>
        <time>2021-03-07T08:57:45Z</time>
      </trkpt>
      <trkpt lat="47.2521" lon="6.06457">
        <ele>369.4</ele>
        <time>2021-03-07T08:57:46Z</time>
      </trkpt>
      <trkpt lat="47.25208" lon="6.06456">
        <ele>369.6</ele>
        <time>2021-03-07T08:57:47Z</time>
      </trkpt>
      <trkpt lat="47.25206" lon="6.06455">
        <ele>369.8</ele>
        <time>2021-03-07T08:57:48Z</time>
      </trkpt>
      <trkpt lat="47.25203" lon="6.06454">
        <ele>370</ele>
        <time>2021-03-07T08:57:49Z</time>
      </trkpt>
      <trkpt lat="47.25201" lon="6.06452">
        <ele>370</ele>
        <time>2021-03-07T08:57:50Z</time>
      </trkpt>
      <trkpt lat="47.25198" lon="6.06451">
        <ele>370.2</ele>
        <time>2021-03-07T08:57:51Z</time>
      </trkpt>
      <trkpt lat="47.25196" lon="6.0645">
        <ele>370.2</ele>
        <time>2021-03-07T08:57:52Z</time>
      </trkpt>
      <trkpt lat="47.25193" lon="6.06449">
        <ele>370.4</ele>
        <time>2021-03-07T08:57:53Z</time>
      </trkpt>
      <trkpt lat="47.25191" lon="6.06447">
        <ele>370.4</ele>
        <time>2021-03-07T08:57:54Z</time>
      </trkpt>
      <trkpt lat="47.25188" lon="6.06446">
        <ele>370.6</ele>
        <time>2021-03-07T08:57:55Z</time>
      </trkpt>
      <trkpt lat="47.25186" lon="6.06446">
        <ele>370.8</ele>
        <time>2021-03-07T08:57:56Z</time>
      </trkpt>
      <trkpt lat="47.25183" lon="6.06445">
        <ele>370.8</ele>
        <time>2021-03-07T08:57:57Z</time>
      </trkpt>
      <trkpt lat="47.25181" lon="6.06444">
        <ele>371</ele>
        <time>2021-03-07T08:57:58Z</time>
      </trkpt>
      <trkpt lat="47.25178" lon="6.06443">
        <ele>371</ele>
        <time>2021-03-07T08:57:59Z</time>
      </trkpt>
      <trkpt lat="47.25176" lon="6.06442">
        <ele>371.2</ele>
        <time>2021-03-07T08:58:00Z</time>
      </trkpt>
      <trkpt lat="47.25173" lon="6.06441">
        <ele>371.2</ele>
        <time>2021-03-07T08:58:01Z</time>
      </trkpt>
      <trkpt lat="47.2517" lon="6.0644">
        <ele>371.4</ele>
        <time>2021-03-07T08:58:02Z</time>
      </trkpt>
      <trkpt lat="47.25166" lon="6.06439">
        <ele>371.4</ele>
        <time>2021-03-07T08:58:03Z</time>
      </trkpt>
      <trkpt lat="47.25163" lon="6.06438">
        <ele>371.4</ele>
        <time>2021-03-07T08:58:04Z</time>
      </trkpt>
      <trkpt lat="47.25159" lon="6.06438">
        <ele>371.6</ele>
        <time>2021-03-07T08:58:05Z</time>
      </trkpt>
      <trkpt lat="47.25156" lon="6.06437">
        <ele>371.6</ele>
        <time>2021-03-07T08:58:06Z</time>
      </trkpt>
      <trkpt lat="47.25153" lon="6.06436">
        <ele>371.6</ele>
        <time>2021-03-07T08:58:07Z</time>
      </trkpt>
      <trkpt lat="47.2515" lon="6.06435">
        <ele>371.4</ele>
        <time>2021-03-07T08:58:08Z</time>
      </trkpt>
      <trkpt lat="47.25147" lon="6.06434">
        <ele>371.6</ele>
        <time>2021-03-07T08:58:09Z</time>
      </trkpt>
      <trkpt lat="47.25144" lon="6.06433">
        <ele>371.4</ele>
        <time>2021-03-07T08:58:10Z</time>
      </trkpt>
      <trkpt lat="47.25141" lon="6.06432">
        <ele>371.4</ele>
        <time>2021-03-07T08:58:11Z</time>
      </trkpt>
      <trkpt lat="47.25138" lon="6.0643">
        <ele>371.4</ele>
        <time>2021-03-07T08:58:12Z</time>
      </trkpt>
      <trkpt lat="47.25136" lon="6.06429">
        <ele>371.4</ele>
        <time>2021-03-07T08:58:13Z</time>
      </trkpt>
      <trkpt lat="47.2513" lon="6.06426">
        <ele>371.2</ele>
        <time>2021-03-07T08:58:15Z</time>
      </trkpt>
      <trkpt lat="47.25127" lon="6.06425">
        <ele>371.2</ele>
        <time>2021-03-07T08:58:16Z</time>
      </trkpt>
      <trkpt lat="47.25125" lon="6.06424">
        <ele>371.2</ele>
        <time>2021-03-07T08:58:17Z</time>
      </trkpt>
      <trkpt lat="47.25122" lon="6.06422">
        <ele>371</ele>
        <time>2021-03-07T08:58:18Z</time>
      </trkpt>
      <trkpt lat="47.25119" lon="6.06421">
        <ele>371</ele>
        <time>2021-03-07T08:58:19Z</time>
      </trkpt>
      <trkpt lat="47.25117" lon="6.0642">
        <ele>370.8</ele>
        <time>2021-03-07T08:58:20Z</time>
      </trkpt>
      <trkpt lat="47.25114" lon="6.06418">
        <ele>370.8</ele>
        <time>2021-03-07T08:58:21Z</time>
      </trkpt>
      <trkpt lat="47.25112" lon="6.06417">
        <ele>370.8</ele>
        <time>2021-03-07T08:58:22Z</time>
      </trkpt>
      <trkpt lat="47.25109" lon="6.06415">
        <ele>370.8</ele>
        <time>2021-03-07T08:58:23Z</time>
      </trkpt>
      <trkpt lat="47.25107" lon="6.06414">
        <ele>370.6</ele>
        <time>2021-03-07T08:58:24Z</time>
      </trkpt>
      <trkpt lat="47.25104" lon="6.06413">
        <ele>370.6</ele>
        <time>2021-03-07T08:58:25Z</time>
      </trkpt>
      <trkpt lat="47.25101" lon="6.06412">
        <ele>370.6</ele>
        <time>2021-03-07T08:58:26Z</time>
      </trkpt>
      <trkpt lat="47.25086" lon="6.064">
        <ele>369.8</ele>
        <time>2021-03-07T08:58:32Z</time>
      </trkpt>
      <trkpt lat="47.25082" lon="6.06396">
        <ele>369.4</ele>
        <time>2021-03-07T08:58:34Z</time>
      </trkpt>
      <trkpt lat="47.25081" lon="6.06394">
        <ele>369</ele>
        <time>2021-03-07T08:58:35Z</time>
      </trkpt>
      <trkpt lat="47.25079" lon="6.06392">
        <ele>369</ele>
        <time>2021-03-07T08:58:36Z</time>
      </trkpt>
      <trkpt lat="47.25078" lon="6.06391">
        <ele>368.8</ele>
        <time>2021-03-07T08:58:37Z</time>
      </trkpt>
      <trkpt lat="47.25077" lon="6.06389">
        <ele>368.8</ele>
        <time>2021-03-07T08:58:38Z</time>
      </trkpt>
      <trkpt lat="47.25076" lon="6.06387">
        <ele>368.6</ele>
        <time>2021-03-07T08:58:39Z</time>
      </trkpt>
      <trkpt lat="47.25076" lon="6.06385">
        <ele>368.6</ele>
        <time>2021-03-07T08:58:40Z</time>
      </trkpt>
      <trkpt lat="47.25075" lon="6.06384">
        <ele>368.6</ele>
        <time>2021-03-07T08:58:41Z</time>
      </trkpt>
      <trkpt lat="47.25075" lon="6.06384">
        <ele>368.4</ele>
        <time>2021-03-07T08:58:44Z</time>
      </trkpt>
      <trkpt lat="47.25075" lon="6.06384">
        <ele>368.4</ele>
        <time>2021-03-07T08:58:58Z</time>
      </trkpt>
      <trkpt lat="47.25075" lon="6.06384">
        <ele>368.6</ele>
        <time>2021-03-07T08:59:16Z</time>
      </trkpt>
      <trkpt lat="47.25071" lon="6.0638">
        <ele>368.4</ele>
        <time>2021-03-07T08:59:19Z</time>
      </trkpt>
      <trkpt lat="47.2507" lon="6.06378">
        <ele>368.4</ele>
        <time>2021-03-07T08:59:20Z</time>
      </trkpt>
      <trkpt lat="47.25069" lon="6.06377">
        <ele>368.4</ele>
        <time>2021-03-07T08:59:21Z</time>
      </trkpt>
      <trkpt lat="47.25069" lon="6.06375">
        <ele>368.4</ele>
        <time>2021-03-07T08:59:22Z</time>
      </trkpt>
      <trkpt lat="47.25069" lon="6.06374">
        <ele>368.4</ele>
        <time>2021-03-07T08:59:23Z</time>
      </trkpt>
      <trkpt lat="47.25068" lon="6.06372">
        <ele>368.4</ele>
        <time>2021-03-07T08:59:24Z</time>
      </trkpt>
      <trkpt lat="47.25067" lon="6.0637">
        <ele>368.6</ele>
        <time>2021-03-07T08:59:25Z</time>
      </trkpt>
      <trkpt lat="47.25066" lon="6.06366">
        <ele>368.6</ele>
        <time>2021-03-07T08:59:27Z</time>
      </trkpt>
      <trkpt lat="47.25065" lon="6.06365">
        <ele>368.6</ele>
        <time>2021-03-07T08:59:28Z</time>
      </trkpt>
      <trkpt lat="47.25064" lon="6.06363">
        <ele>368.6</ele>
        <time>2021-03-07T08:59:30Z</time>
      </trkpt>
      <trkpt lat="47.25055" lon="6.06349">
        <ele>368.6</ele>
        <time>2021-03-07T08:59:36Z</time>
      </trkpt>
      <trkpt lat="47.25048" lon="6.06336">
        <ele>368.6</ele>
        <time>2021-03-07T08:59:41Z</time>
      </trkpt>
      <trkpt lat="47.25036" lon="6.0631">
        <ele>368.2</ele>
        <time>2021-03-07T08:59:49Z</time>
      </trkpt>
      <trkpt lat="47.25019" lon="6.06295">
        <ele>368</ele>
        <time>2021-03-07T08:59:54Z</time>
      </trkpt>
      <trkpt lat="47.25015" lon="6.06292">
        <ele>368</ele>
        <time>2021-03-07T08:59:55Z</time>
      </trkpt>
      <trkpt lat="47.25006" lon="6.06285">
        <ele>367.8</ele>
        <time>2021-03-07T08:59:57Z</time>
      </trkpt>
      <trkpt lat="47.24998" lon="6.06276">
        <ele>367.6</ele>
        <time>2021-03-07T08:59:59Z</time>
      </trkpt>
      <trkpt lat="47.24995" lon="6.06272">
        <ele>367.6</ele>
        <time>2021-03-07T09:00:00Z</time>
      </trkpt>
      <trkpt lat="47.24986" lon="6.06262">
        <ele>367</ele>
        <time>2021-03-07T09:00:02Z</time>
      </trkpt>
      <trkpt lat="47.24982" lon="6.06257">
        <ele>367</ele>
        <time>2021-03-07T09:00:03Z</time>
      </trkpt>
      <trkpt lat="47.24979" lon="6.06254">
        <ele>366.8</ele>
        <time>2021-03-07T09:00:04Z</time>
      </trkpt>
      <trkpt lat="47.24974" lon="6.0625">
        <ele>366.8</ele>
        <time>2021-03-07T09:00:05Z</time>
      </trkpt>
      <trkpt lat="47.24957" lon="6.06234">
        <ele>366</ele>
        <time>2021-03-07T09:00:09Z</time>
      </trkpt>
      <trkpt lat="47.24953" lon="6.06231">
        <ele>365.8</ele>
        <time>2021-03-07T09:00:10Z</time>
      </trkpt>
      <trkpt lat="47.24948" lon="6.06227">
        <ele>365.8</ele>
        <time>2021-03-07T09:00:11Z</time>
      </trkpt>
      <trkpt lat="47.24945" lon="6.06223">
        <ele>365.6</ele>
        <time>2021-03-07T09:00:12Z</time>
      </trkpt>
      <trkpt lat="47.24939" lon="6.06216">
        <ele>365.6</ele>
        <time>2021-03-07T09:00:14Z</time>
      </trkpt>
      <trkpt lat="47.24936" lon="6.06213">
        <ele>365.6</ele>
        <time>2021-03-07T09:00:15Z</time>
      </trkpt>
      <trkpt lat="47.24932" lon="6.06209">
        <ele>365.6</ele>
        <time>2021-03-07T09:00:16Z</time>
      </trkpt>
      <trkpt lat="47.24929" lon="6.06205">
        <ele>365.6</ele>
        <time>2021-03-07T09:00:17Z</time>
      </trkpt>
      <trkpt lat="47.24927" lon="6.06202">
        <ele>365.6</ele>
        <time>2021-03-07T09:00:18Z</time>
      </trkpt>
      <trkpt lat="47.24922" lon="6.06197">
        <ele>365.6</ele>
        <time>2021-03-07T09:00:20Z</time>
      </trkpt>
      <trkpt lat="47.24918" lon="6.06195">
        <ele>365.8</ele>
        <time>2021-03-07T09:00:21Z</time>
      </trkpt>
      <trkpt lat="47.24914" lon="6.06195">
        <ele>366</ele>
        <time>2021-03-07T09:00:22Z</time>
      </trkpt>
      <trkpt lat="47.24911" lon="6.06195">
        <ele>366</ele>
        <time>2021-03-07T09:00:23Z</time>
      </trkpt>
      <trkpt lat="47.24909" lon="6.06196">
        <ele>366.2</ele>
        <time>2021-03-07T09:00:24Z</time>
      </trkpt>
      <trkpt lat="47.24906" lon="6.06198">
        <ele>366.2</ele>
        <time>2021-03-07T09:00:25Z</time>
      </trkpt>
      <trkpt lat="47.24904" lon="6.06199">
        <ele>366.4</ele>
        <time>2021-03-07T09:00:26Z</time>
      </trkpt>
      <trkpt lat="47.24902" lon="6.06201">
        <ele>366.6</ele>
        <time>2021-03-07T09:00:27Z</time>
      </trkpt>
      <trkpt lat="47.249" lon="6.06203">
        <ele>366.8</ele>
        <time>2021-03-07T09:00:28Z</time>
      </trkpt>
      <trkpt lat="47.24898" lon="6.06204">
        <ele>367</ele>
        <time>2021-03-07T09:00:29Z</time>
      </trkpt>
      <trkpt lat="47.24896" lon="6.06205">
        <ele>367.2</ele>
        <time>2021-03-07T09:00:30Z</time>
      </trkpt>
      <trkpt lat="47.24893" lon="6.06207">
        <ele>367.6</ele>
        <time>2021-03-07T09:00:31Z</time>
      </trkpt>
      <trkpt lat="47.24891" lon="6.06207">
        <ele>368</ele>
        <time>2021-03-07T09:00:32Z</time>
      </trkpt>
      <trkpt lat="47.24888" lon="6.06209">
        <ele>368.2</ele>
        <time>2021-03-07T09:00:33Z</time>
      </trkpt>
      <trkpt lat="47.24887" lon="6.0621">
        <ele>368.6</ele>
        <time>2021-03-07T09:00:34Z</time>
      </trkpt>
      <trkpt lat="47.24885" lon="6.0621">
        <ele>368.6</ele>
        <time>2021-03-07T09:00:35Z</time>
      </trkpt>
      <trkpt lat="47.24882" lon="6.06211">
        <ele>369</ele>
        <time>2021-03-07T09:00:36Z</time>
      </trkpt>
      <trkpt lat="47.2488" lon="6.06212">
        <ele>369.2</ele>
        <time>2021-03-07T09:00:37Z</time>
      </trkpt>
      <trkpt lat="47.24878" lon="6.06213">
        <ele>369.4</ele>
        <time>2021-03-07T09:00:38Z</time>
      </trkpt>
      <trkpt lat="47.24876" lon="6.06214">
        <ele>369.6</ele>
        <time>2021-03-07T09:00:39Z</time>
      </trkpt>
      <trkpt lat="47.24874" lon="6.06215">
        <ele>370</ele>
        <time>2021-03-07T09:00:40Z</time>
      </trkpt>
      <trkpt lat="47.24871" lon="6.06216">
        <ele>370.2</ele>
        <time>2021-03-07T09:00:41Z</time>
      </trkpt>
      <trkpt lat="47.24869" lon="6.06218">
        <ele>371</ele>
        <time>2021-03-07T09:00:42Z</time>
      </trkpt>
      <trkpt lat="47.24868" lon="6.06218">
        <ele>371.2</ele>
        <time>2021-03-07T09:00:43Z</time>
      </trkpt>
      <trkpt lat="47.24866" lon="6.06219">
        <ele>371.4</ele>
        <time>2021-03-07T09:00:44Z</time>
      </trkpt>
      <trkpt lat="47.24863" lon="6.06219">
        <ele>371.8</ele>
        <time>2021-03-07T09:00:45Z</time>
      </trkpt>
      <trkpt lat="47.24862" lon="6.06221">
        <ele>372</ele>
        <time>2021-03-07T09:00:46Z</time>
      </trkpt>
      <trkpt lat="47.2486" lon="6.06222">
        <ele>372.4</ele>
        <time>2021-03-07T09:00:47Z</time>
      </trkpt>
      <trkpt lat="47.24859" lon="6.06224">
        <ele>372.6</ele>
        <time>2021-03-07T09:00:48Z</time>
      </trkpt>
      <trkpt lat="47.24858" lon="6.06225">
        <ele>372.8</ele>
        <time>2021-03-07T09:00:49Z</time>
      </trkpt>
      <trkpt lat="47.24856" lon="6.06226">
        <ele>373</ele>
        <time>2021-03-07T09:00:50Z</time>
      </trkpt>
      <trkpt lat="47.24854" lon="6.06227">
        <ele>373.2</ele>
        <time>2021-03-07T09:00:51Z</time>
      </trkpt>
      <trkpt lat="47.24852" lon="6.06228">
        <ele>373.4</ele>
        <time>2021-03-07T09:00:52Z</time>
      </trkpt>
      <trkpt lat="47.2485" lon="6.06228">
        <ele>373.6</ele>
        <time>2021-03-07T09:00:53Z</time>
      </trkpt>
      <trkpt lat="47.24849" lon="6.06229">
        <ele>373.8</ele>
        <time>2021-03-07T09:00:54Z</time>
      </trkpt>
      <trkpt lat="47.24847" lon="6.0623">
        <ele>374</ele>
        <time>2021-03-07T09:00:55Z</time>
      </trkpt>
      <trkpt lat="47.24845" lon="6.06231">
        <ele>374.2</ele>
        <time>2021-03-07T09:00:56Z</time>
      </trkpt>
      <trkpt lat="47.24843" lon="6.06232">
        <ele>374.6</ele>
        <time>2021-03-07T09:00:57Z</time>
      </trkpt>
      <trkpt lat="47.24841" lon="6.06233">
        <ele>374.8</ele>
        <time>2021-03-07T09:00:58Z</time>
      </trkpt>
      <trkpt lat="47.2484" lon="6.06234">
        <ele>375</ele>
        <time>2021-03-07T09:00:59Z</time>
      </trkpt>
      <trkpt lat="47.24837" lon="6.06235">
        <ele>375.4</ele>
        <time>2021-03-07T09:01:00Z</time>
      </trkpt>
      <trkpt lat="47.24836" lon="6.06235">
        <ele>375.4</ele>
        <time>2021-03-07T09:01:01Z</time>
      </trkpt>
      <trkpt lat="47.24834" lon="6.06236">
        <ele>376</ele>
        <time>2021-03-07T09:01:02Z</time>
      </trkpt>
      <trkpt lat="47.24832" lon="6.06237">
        <ele>376.2</ele>
        <time>2021-03-07T09:01:03Z</time>
      </trkpt>
      <trkpt lat="47.2483" lon="6.06238">
        <ele>376.4</ele>
        <time>2021-03-07T09:01:04Z</time>
      </trkpt>
      <trkpt lat="47.24828" lon="6.06239">
        <ele>376.6</ele>
        <time>2021-03-07T09:01:05Z</time>
      </trkpt>
      <trkpt lat="47.24826" lon="6.0624">
        <ele>376.8</ele>
        <time>2021-03-07T09:01:06Z</time>
      </trkpt>
      <trkpt lat="47.24824" lon="6.06241">
        <ele>377</ele>
        <time>2021-03-07T09:01:07Z</time>
      </trkpt>
      <trkpt lat="47.24823" lon="6.06241">
        <ele>377.4</ele>
        <time>2021-03-07T09:01:08Z</time>
      </trkpt>
      <trkpt lat="47.24821" lon="6.06242">
        <ele>377.6</ele>
        <time>2021-03-07T09:01:09Z</time>
      </trkpt>
      <trkpt lat="47.24819" lon="6.06243">
        <ele>377.8</ele>
        <time>2021-03-07T09:01:10Z</time>
      </trkpt>
      <trkpt lat="47.24817" lon="6.06243">
        <ele>378</ele>
        <time>2021-03-07T09:01:11Z</time>
      </trkpt>
      <trkpt lat="47.24815" lon="6.06243">
        <ele>378.2</ele>
        <time>2021-03-07T09:01:12Z</time>
      </trkpt>
      <trkpt lat="47.24814" lon="6.06242">
        <ele>378.4</ele>
        <time>2021-03-07T09:01:13Z</time>
      </trkpt>
      <trkpt lat="47.24813" lon="6.06242">
        <ele>378.8</ele>
        <time>2021-03-07T09:01:14Z</time>
      </trkpt>
      <trkpt lat="47.24811" lon="6.06241">
        <ele>379.2</ele>
        <time>2021-03-07T09:01:15Z</time>
      </trkpt>
      <trkpt lat="47.24809" lon="6.0624">
        <ele>379.4</ele>
        <time>2021-03-07T09:01:16Z</time>
      </trkpt>
      <trkpt lat="47.24807" lon="6.06239">
        <ele>379.6</ele>
        <time>2021-03-07T09:01:17Z</time>
      </trkpt>
      <trkpt lat="47.24806" lon="6.06238">
        <ele>379.8</ele>
        <time>2021-03-07T09:01:18Z</time>
      </trkpt>
      <trkpt lat="47.24804" lon="6.06237">
        <ele>380.2</ele>
        <time>2021-03-07T09:01:19Z</time>
      </trkpt>
      <trkpt lat="47.24802" lon="6.06236">
        <ele>380.4</ele>
        <time>2021-03-07T09:01:20Z</time>
      </trkpt>
      <trkpt lat="47.24801" lon="6.06235">
        <ele>380.8</ele>
        <time>2021-03-07T09:01:21Z</time>
      </trkpt>
      <trkpt lat="47.24799" lon="6.06235">
        <ele>381</ele>
        <time>2021-03-07T09:01:22Z</time>
      </trkpt>
      <trkpt lat="47.24798" lon="6.06234">
        <ele>381.2</ele>
        <time>2021-03-07T09:01:23Z</time>
      </trkpt>
      <trkpt lat="47.24797" lon="6.06233">
        <ele>381.2</ele>
        <time>2021-03-07T09:01:24Z</time>
      </trkpt>
      <trkpt lat="47.24795" lon="6.06232">
        <ele>381.6</ele>
        <time>2021-03-07T09:01:25Z</time>
      </trkpt>
      <trkpt lat="47.24794" lon="6.06231">
        <ele>381.6</ele>
        <time>2021-03-07T09:01:26Z</time>
      </trkpt>
      <trkpt lat="47.24792" lon="6.0623">
        <ele>382</ele>
        <time>2021-03-07T09:01:27Z</time>
      </trkpt>
      <trkpt lat="47.24791" lon="6.0623">
        <ele>382.2</ele>
        <time>2021-03-07T09:01:28Z</time>
      </trkpt>
      <trkpt lat="47.24789" lon="6.06229">
        <ele>382.2</ele>
        <time>2021-03-07T09:01:29Z</time>
      </trkpt>
      <trkpt lat="47.24787" lon="6.06229">
        <ele>382.6</ele>
        <time>2021-03-07T09:01:30Z</time>
      </trkpt>
      <trkpt lat="47.24785" lon="6.06228">
        <ele>382.6</ele>
        <time>2021-03-07T09:01:31Z</time>
      </trkpt>
      <trkpt lat="47.24784" lon="6.06227">
        <ele>382.8</ele>
        <time>2021-03-07T09:01:32Z</time>
      </trkpt>
      <trkpt lat="47.24783" lon="6.06226">
        <ele>383</ele>
        <time>2021-03-07T09:01:33Z</time>
      </trkpt>
      <trkpt lat="47.24782" lon="6.06225">
        <ele>383.2</ele>
        <time>2021-03-07T09:01:34Z</time>
      </trkpt>
      <trkpt lat="47.2478" lon="6.06224">
        <ele>383.4</ele>
        <time>2021-03-07T09:01:35Z</time>
      </trkpt>
      <trkpt lat="47.24779" lon="6.06224">
        <ele>383.6</ele>
        <time>2021-03-07T09:01:36Z</time>
      </trkpt>
      <trkpt lat="47.24777" lon="6.06223">
        <ele>383.6</ele>
        <time>2021-03-07T09:01:37Z</time>
      </trkpt>
      <trkpt lat="47.24775" lon="6.06222">
        <ele>384</ele>
        <time>2021-03-07T09:01:38Z</time>
      </trkpt>
      <trkpt lat="47.24773" lon="6.06221">
        <ele>384.2</ele>
        <time>2021-03-07T09:01:39Z</time>
      </trkpt>
      <trkpt lat="47.24772" lon="6.06221">
        <ele>384.4</ele>
        <time>2021-03-07T09:01:40Z</time>
      </trkpt>
      <trkpt lat="47.2477" lon="6.0622">
        <ele>384.6</ele>
        <time>2021-03-07T09:01:41Z</time>
      </trkpt>
      <trkpt lat="47.24769" lon="6.06219">
        <ele>384.8</ele>
        <time>2021-03-07T09:01:42Z</time>
      </trkpt>
      <trkpt lat="47.24767" lon="6.06219">
        <ele>385</ele>
        <time>2021-03-07T09:01:43Z</time>
      </trkpt>
      <trkpt lat="47.24766" lon="6.06219">
        <ele>385.2</ele>
        <time>2021-03-07T09:01:44Z</time>
      </trkpt>
      <trkpt lat="47.24764" lon="6.06219">
        <ele>385.4</ele>
        <time>2021-03-07T09:01:45Z</time>
      </trkpt>
      <trkpt lat="47.24764" lon="6.06219">
        <ele>385.4</ele>
        <time>2021-03-07T09:01:46Z</time>
      </trkpt>
      <trkpt lat="47.24762" lon="6.0622">
        <ele>385.8</ele>
        <time>2021-03-07T09:01:47Z</time>
      </trkpt>
      <trkpt lat="47.2476" lon="6.0622">
        <ele>385.8</ele>
        <time>2021-03-07T09:01:48Z</time>
      </trkpt>
      <trkpt lat="47.24759" lon="6.06221">
        <ele>386.2</ele>
        <time>2021-03-07T09:01:49Z</time>
      </trkpt>
      <trkpt lat="47.24757" lon="6.06221">
        <ele>386.4</ele>
        <time>2021-03-07T09:01:50Z</time>
      </trkpt>
      <trkpt lat="47.24756" lon="6.06221">
        <ele>386.4</ele>
        <time>2021-03-07T09:01:51Z</time>
      </trkpt>
      <trkpt lat="47.24754" lon="6.06221">
        <ele>386.6</ele>
        <time>2021-03-07T09:01:52Z</time>
      </trkpt>
      <trkpt lat="47.24753" lon="6.06222">
        <ele>386.6</ele>
        <time>2021-03-07T09:01:53Z</time>
      </trkpt>
      <trkpt lat="47.24751" lon="6.06222">
        <ele>386.8</ele>
        <time>2021-03-07T09:01:54Z</time>
      </trkpt>
      <trkpt lat="47.24749" lon="6.06222">
        <ele>386.8</ele>
        <time>2021-03-07T09:01:55Z</time>
      </trkpt>
      <trkpt lat="47.24748" lon="6.06222">
        <ele>386.8</ele>
        <time>2021-03-07T09:01:56Z</time>
      </trkpt>
      <trkpt lat="47.24747" lon="6.06222">
        <ele>387</ele>
        <time>2021-03-07T09:01:57Z</time>
      </trkpt>
      <trkpt lat="47.24745" lon="6.06221">
        <ele>387</ele>
        <time>2021-03-07T09:01:58Z</time>
      </trkpt>
      <trkpt lat="47.24745" lon="6.06221">
        <ele>387</ele>
        <time>2021-03-07T09:01:59Z</time>
      </trkpt>
      <trkpt lat="47.24745" lon="6.06221">
        <ele>387.2</ele>
        <time>2021-03-07T09:02:02Z</time>
      </trkpt>
      <trkpt lat="47.24744" lon="6.06221">
        <ele>387.2</ele>
        <time>2021-03-07T09:02:08Z</time>
      </trkpt>
      <trkpt lat="47.24744" lon="6.06221">
        <ele>387.2</ele>
        <time>2021-03-07T09:02:27Z</time>
      </trkpt>
      <trkpt lat="47.24744" lon="6.06221">
        <ele>380.8</ele>
        <time>2021-03-07T09:02:40Z</time>
      </trkpt>
      <trkpt lat="47.24744" lon="6.06221">
        <ele>387.2</ele>
        <time>2021-03-07T09:03:08Z</time>
      </trkpt>
      <trkpt lat="47.24744" lon="6.06221">
        <ele>387.2</ele>
        <time>2021-03-07T09:03:34Z</time>
      </trkpt>
      <trkpt lat="47.24744" lon="6.06221">
        <ele>387.4</ele>
        <time>2021-03-07T09:03:58Z</time>
      </trkpt>
      <trkpt lat="47.24744" lon="6.06221">
        <ele>387.2</ele>
        <time>2021-03-07T09:04:23Z</time>
      </trkpt>
      <trkpt lat="47.24744" lon="6.06221">
        <ele>387</ele>
        <time>2021-03-07T09:04:45Z</time>
      </trkpt>
      <trkpt lat="47.24744" lon="6.06221">
        <ele>387</ele>
        <time>2021-03-07T09:04:46Z</time>
      </trkpt>
      <trkpt lat="47.24744" lon="6.06221">
        <ele>387.2</ele>
        <time>2021-03-07T09:05:10Z</time>
      </trkpt>
      <trkpt lat="47.2474" lon="6.0622">
        <ele>387.6</ele>
        <time>2021-03-07T09:05:35Z</time>
      </trkpt>
      <trkpt lat="47.24739" lon="6.06219">
        <ele>387.6</ele>
        <time>2021-03-07T09:05:37Z</time>
      </trkpt>
      <trkpt lat="47.24739" lon="6.06219">
        <ele>387.6</ele>
        <time>2021-03-07T09:05:42Z</time>
      </trkpt>
      <trkpt lat="47.24739" lon="6.06218">
        <ele>387.6</ele>
        <time>2021-03-07T09:05:44Z</time>
      </trkpt>
      <trkpt lat="47.2474" lon="6.06216">
        <ele>387.6</ele>
        <time>2021-03-07T09:05:45Z</time>
      </trkpt>
      <trkpt lat="47.24741" lon="6.0621">
        <ele>387.6</ele>
        <time>2021-03-07T09:05:47Z</time>
      </trkpt>
      <trkpt lat="47.24742" lon="6.06208">
        <ele>387.6</ele>
        <time>2021-03-07T09:05:48Z</time>
      </trkpt>
      <trkpt lat="47.24743" lon="6.06206">
        <ele>387.6</ele>
        <time>2021-03-07T09:05:49Z</time>
      </trkpt>
      <trkpt lat="47.24743" lon="6.06204">
        <ele>387.6</ele>
        <time>2021-03-07T09:05:50Z</time>
      </trkpt>
      <trkpt lat="47.24742" lon="6.06202">
        <ele>387.6</ele>
        <time>2021-03-07T09:05:51Z</time>
      </trkpt>
      <trkpt lat="47.2474" lon="6.06201">
        <ele>387.6</ele>
        <time>2021-03-07T09:05:52Z</time>
      </trkpt>
      <trkpt lat="47.24731" lon="6.06195">
        <ele>388.4</ele>
        <time>2021-03-07T09:05:58Z</time>
      </trkpt>
      <trkpt lat="47.2473" lon="6.06194">
        <ele>388.8</ele>
        <time>2021-03-07T09:05:59Z</time>
      </trkpt>
      <trkpt lat="47.24729" lon="6.06192">
        <ele>389.2</ele>
        <time>2021-03-07T09:06:00Z</time>
      </trkpt>
      <trkpt lat="47.24727" lon="6.06191">
        <ele>389.4</ele>
        <time>2021-03-07T09:06:01Z</time>
      </trkpt>
      <trkpt lat="47.24724" lon="6.06188">
        <ele>390</ele>
        <time>2021-03-07T09:06:03Z</time>
      </trkpt>
      <trkpt lat="47.24723" lon="6.06187">
        <ele>390.2</ele>
        <time>2021-03-07T09:06:04Z</time>
      </trkpt>
      <trkpt lat="47.24722" lon="6.06185">
        <ele>390.4</ele>
        <time>2021-03-07T09:06:05Z</time>
      </trkpt>
      <trkpt lat="47.24721" lon="6.06184">
        <ele>390.4</ele>
        <time>2021-03-07T09:06:06Z</time>
      </trkpt>
      <trkpt lat="47.2472" lon="6.06182">
        <ele>390.6</ele>
        <time>2021-03-07T09:06:07Z</time>
      </trkpt>
      <trkpt lat="47.24718" lon="6.06179">
        <ele>390.8</ele>
        <time>2021-03-07T09:06:09Z</time>
      </trkpt>
      <trkpt lat="47.24717" lon="6.06177">
        <ele>391</ele>
        <time>2021-03-07T09:06:10Z</time>
      </trkpt>
      <trkpt lat="47.24717" lon="6.06175">
        <ele>391</ele>
        <time>2021-03-07T09:06:11Z</time>
      </trkpt>
      <trkpt lat="47.24716" lon="6.06174">
        <ele>391.2</ele>
        <time>2021-03-07T09:06:12Z</time>
      </trkpt>
      <trkpt lat="47.24716" lon="6.06172">
        <ele>391.2</ele>
        <time>2021-03-07T09:06:13Z</time>
      </trkpt>
      <trkpt lat="47.24714" lon="6.0617">
        <ele>391.4</ele>
        <time>2021-03-07T09:06:14Z</time>
      </trkpt>
      <trkpt lat="47.24713" lon="6.06168">
        <ele>391.8</ele>
        <time>2021-03-07T09:06:15Z</time>
      </trkpt>
      <trkpt lat="47.24714" lon="6.06167">
        <ele>392.2</ele>
        <time>2021-03-07T09:06:16Z</time>
      </trkpt>
      <trkpt lat="47.24714" lon="6.06165">
        <ele>392.4</ele>
        <time>2021-03-07T09:06:17Z</time>
      </trkpt>
      <trkpt lat="47.24713" lon="6.06162">
        <ele>392.6</ele>
        <time>2021-03-07T09:06:18Z</time>
      </trkpt>
      <trkpt lat="47.24713" lon="6.0616">
        <ele>392.8</ele>
        <time>2021-03-07T09:06:19Z</time>
      </trkpt>
      <trkpt lat="47.24712" lon="6.06158">
        <ele>392.8</ele>
        <time>2021-03-07T09:06:20Z</time>
      </trkpt>
      <trkpt lat="47.24712" lon="6.06158">
        <ele>393.2</ele>
        <time>2021-03-07T09:06:21Z</time>
      </trkpt>
      <trkpt lat="47.24712" lon="6.06158">
        <ele>393.4</ele>
        <time>2021-03-07T09:06:22Z</time>
      </trkpt>
      <trkpt lat="47.24712" lon="6.06157">
        <ele>393.8</ele>
        <time>2021-03-07T09:06:23Z</time>
      </trkpt>
      <trkpt lat="47.24712" lon="6.06157">
        <ele>393.8</ele>
        <time>2021-03-07T09:06:24Z</time>
      </trkpt>
      <trkpt lat="47.24711" lon="6.06155">
        <ele>394.2</ele>
        <time>2021-03-07T09:06:25Z</time>
      </trkpt>
      <trkpt lat="47.2471" lon="6.06154">
        <ele>394.2</ele>
        <time>2021-03-07T09:06:26Z</time>
      </trkpt>
      <trkpt lat="47.24708" lon="6.06151">
        <ele>394.4</ele>
        <time>2021-03-07T09:06:27Z</time>
      </trkpt>
      <trkpt lat="47.24708" lon="6.0615">
        <ele>394.6</ele>
        <time>2021-03-07T09:06:28Z</time>
      </trkpt>
      <trkpt lat="47.24706" lon="6.06148">
        <ele>394.6</ele>
        <time>2021-03-07T09:06:29Z</time>
      </trkpt>
      <trkpt lat="47.24705" lon="6.06147">
        <ele>394.8</ele>
        <time>2021-03-07T09:06:30Z</time>
      </trkpt>
      <trkpt lat="47.24704" lon="6.06145">
        <ele>394.8</ele>
        <time>2021-03-07T09:06:31Z</time>
      </trkpt>
      <trkpt lat="47.24703" lon="6.06144">
        <ele>394.8</ele>
        <time>2021-03-07T09:06:32Z</time>
      </trkpt>
      <trkpt lat="47.24702" lon="6.06142">
        <ele>394.8</ele>
        <time>2021-03-07T09:06:33Z</time>
      </trkpt>
      <trkpt lat="47.247" lon="6.0614">
        <ele>395</ele>
        <time>2021-03-07T09:06:34Z</time>
      </trkpt>
      <trkpt lat="47.24698" lon="6.06137">
        <ele>395.2</ele>
        <time>2021-03-07T09:06:35Z</time>
      </trkpt>
      <trkpt lat="47.24697" lon="6.06135">
        <ele>395.6</ele>
        <time>2021-03-07T09:06:36Z</time>
      </trkpt>
      <trkpt lat="47.24695" lon="6.06134">
        <ele>395.6</ele>
        <time>2021-03-07T09:06:37Z</time>
      </trkpt>
      <trkpt lat="47.24693" lon="6.06132">
        <ele>396</ele>
        <time>2021-03-07T09:06:38Z</time>
      </trkpt>
      <trkpt lat="47.24691" lon="6.06131">
        <ele>396.2</ele>
        <time>2021-03-07T09:06:39Z</time>
      </trkpt>
      <trkpt lat="47.2469" lon="6.06131">
        <ele>396.6</ele>
        <time>2021-03-07T09:06:40Z</time>
      </trkpt>
      <trkpt lat="47.24688" lon="6.0613">
        <ele>396.8</ele>
        <time>2021-03-07T09:06:41Z</time>
      </trkpt>
      <trkpt lat="47.24687" lon="6.06129">
        <ele>396.8</ele>
        <time>2021-03-07T09:06:42Z</time>
      </trkpt>
      <trkpt lat="47.24685" lon="6.06127">
        <ele>397</ele>
        <time>2021-03-07T09:06:43Z</time>
      </trkpt>
      <trkpt lat="47.24684" lon="6.06126">
        <ele>397.2</ele>
        <time>2021-03-07T09:06:44Z</time>
      </trkpt>
      <trkpt lat="47.24682" lon="6.06125">
        <ele>397.6</ele>
        <time>2021-03-07T09:06:45Z</time>
      </trkpt>
      <trkpt lat="47.24681" lon="6.06124">
        <ele>397.6</ele>
        <time>2021-03-07T09:06:46Z</time>
      </trkpt>
      <trkpt lat="47.24679" lon="6.06123">
        <ele>397.8</ele>
        <time>2021-03-07T09:06:47Z</time>
      </trkpt>
      <trkpt lat="47.24677" lon="6.06122">
        <ele>398</ele>
        <time>2021-03-07T09:06:48Z</time>
      </trkpt>
      <trkpt lat="47.24676" lon="6.06121">
        <ele>398</ele>
        <time>2021-03-07T09:06:49Z</time>
      </trkpt>
      <trkpt lat="47.24675" lon="6.0612">
        <ele>398</ele>
        <time>2021-03-07T09:06:50Z</time>
      </trkpt>
      <trkpt lat="47.24675" lon="6.06119">
        <ele>398.2</ele>
        <time>2021-03-07T09:06:51Z</time>
      </trkpt>
      <trkpt lat="47.24673" lon="6.06116">
        <ele>398.4</ele>
        <time>2021-03-07T09:06:52Z</time>
      </trkpt>
      <trkpt lat="47.24672" lon="6.06114">
        <ele>398.6</ele>
        <time>2021-03-07T09:06:53Z</time>
      </trkpt>
      <trkpt lat="47.2467" lon="6.06112">
        <ele>398.8</ele>
        <time>2021-03-07T09:06:54Z</time>
      </trkpt>
      <trkpt lat="47.24669" lon="6.0611">
        <ele>398.8</ele>
        <time>2021-03-07T09:06:55Z</time>
      </trkpt>
      <trkpt lat="47.24668" lon="6.06109">
        <ele>399</ele>
        <time>2021-03-07T09:06:56Z</time>
      </trkpt>
      <trkpt lat="47.24667" lon="6.06107">
        <ele>399.2</ele>
        <time>2021-03-07T09:06:57Z</time>
      </trkpt>
      <trkpt lat="47.24665" lon="6.06106">
        <ele>399.2</ele>
        <time>2021-03-07T09:06:58Z</time>
      </trkpt>
      <trkpt lat="47.24663" lon="6.06104">
        <ele>399.2</ele>
        <time>2021-03-07T09:06:59Z</time>
      </trkpt>
      <trkpt lat="47.24661" lon="6.06103">
        <ele>399.4</ele>
        <time>2021-03-07T09:07:00Z</time>
      </trkpt>
      <trkpt lat="47.24659" lon="6.06102">
        <ele>399.6</ele>
        <time>2021-03-07T09:07:01Z</time>
      </trkpt>
      <trkpt lat="47.24658" lon="6.06102">
        <ele>399.8</ele>
        <time>2021-03-07T09:07:02Z</time>
      </trkpt>
      <trkpt lat="47.24656" lon="6.06101">
        <ele>400</ele>
        <time>2021-03-07T09:07:03Z</time>
      </trkpt>
      <trkpt lat="47.24654" lon="6.061">
        <ele>400.2</ele>
        <time>2021-03-07T09:07:04Z</time>
      </trkpt>
      <trkpt lat="47.24652" lon="6.06098">
        <ele>400.2</ele>
        <time>2021-03-07T09:07:05Z</time>
      </trkpt>
      <trkpt lat="47.2465" lon="6.06097">
        <ele>400.2</ele>
        <time>2021-03-07T09:07:06Z</time>
      </trkpt>
      <trkpt lat="47.24649" lon="6.06096">
        <ele>400.2</ele>
        <time>2021-03-07T09:07:07Z</time>
      </trkpt>
      <trkpt lat="47.24648" lon="6.06095">
        <ele>400.4</ele>
        <time>2021-03-07T09:07:08Z</time>
      </trkpt>
      <trkpt lat="47.24647" lon="6.06093">
        <ele>400.6</ele>
        <time>2021-03-07T09:07:09Z</time>
      </trkpt>
      <trkpt lat="47.24646" lon="6.06092">
        <ele>400.6</ele>
        <time>2021-03-07T09:07:10Z</time>
      </trkpt>
      <trkpt lat="47.24645" lon="6.0609">
        <ele>400.8</ele>
        <time>2021-03-07T09:07:11Z</time>
      </trkpt>
      <trkpt lat="47.24643" lon="6.06089">
        <ele>400.8</ele>
        <time>2021-03-07T09:07:12Z</time>
      </trkpt>
      <trkpt lat="47.24642" lon="6.06087">
        <ele>401</ele>
        <time>2021-03-07T09:07:13Z</time>
      </trkpt>
      <trkpt lat="47.24641" lon="6.06085">
        <ele>401</ele>
        <time>2021-03-07T09:07:14Z</time>
      </trkpt>
      <trkpt lat="47.2464" lon="6.06083">
        <ele>401.2</ele>
        <time>2021-03-07T09:07:15Z</time>
      </trkpt>
      <trkpt lat="47.24639" lon="6.06081">
        <ele>401.2</ele>
        <time>2021-03-07T09:07:16Z</time>
      </trkpt>
      <trkpt lat="47.24637" lon="6.06079">
        <ele>401.2</ele>
        <time>2021-03-07T09:07:17Z</time>
      </trkpt>
      <trkpt lat="47.24636" lon="6.06077">
        <ele>401.2</ele>
        <time>2021-03-07T09:07:18Z</time>
      </trkpt>
      <trkpt lat="47.24634" lon="6.06075">
        <ele>401.2</ele>
        <time>2021-03-07T09:07:19Z</time>
      </trkpt>
      <trkpt lat="47.24632" lon="6.06073">
        <ele>401.2</ele>
        <time>2021-03-07T09:07:20Z</time>
      </trkpt>
      <trkpt lat="47.24631" lon="6.06071">
        <ele>401.2</ele>
        <time>2021-03-07T09:07:21Z</time>
      </trkpt>
      <trkpt lat="47.24629" lon="6.0607">
        <ele>401.2</ele>
        <time>2021-03-07T09:07:22Z</time>
      </trkpt>
      <trkpt lat="47.24628" lon="6.06069">
        <ele>401.2</ele>
        <time>2021-03-07T09:07:23Z</time>
      </trkpt>
      <trkpt lat="47.24626" lon="6.06067">
        <ele>401.4</ele>
        <time>2021-03-07T09:07:24Z</time>
      </trkpt>
      <trkpt lat="47.24625" lon="6.06066">
        <ele>401.4</ele>
        <time>2021-03-07T09:07:25Z</time>
      </trkpt>
      <trkpt lat="47.2462" lon="6.06063">
        <ele>401.6</ele>
        <time>2021-03-07T09:07:28Z</time>
      </trkpt>
      <trkpt lat="47.24618" lon="6.06061">
        <ele>401.6</ele>
        <time>2021-03-07T09:07:29Z</time>
      </trkpt>
      <trkpt lat="47.24617" lon="6.06059">
        <ele>401.6</ele>
        <time>2021-03-07T09:07:30Z</time>
      </trkpt>
      <trkpt lat="47.24616" lon="6.06056">
        <ele>401.6</ele>
        <time>2021-03-07T09:07:31Z</time>
      </trkpt>
      <trkpt lat="47.24616" lon="6.06054">
        <ele>401.6</ele>
        <time>2021-03-07T09:07:32Z</time>
      </trkpt>
      <trkpt lat="47.24615" lon="6.06052">
        <ele>401.6</ele>
        <time>2021-03-07T09:07:33Z</time>
      </trkpt>
      <trkpt lat="47.24614" lon="6.0605">
        <ele>401.6</ele>
        <time>2021-03-07T09:07:34Z</time>
      </trkpt>
      <trkpt lat="47.24612" lon="6.06047">
        <ele>401.6</ele>
        <time>2021-03-07T09:07:35Z</time>
      </trkpt>
      <trkpt lat="47.2461" lon="6.06045">
        <ele>401.6</ele>
        <time>2021-03-07T09:07:36Z</time>
      </trkpt>
      <trkpt lat="47.24608" lon="6.06042">
        <ele>401.6</ele>
        <time>2021-03-07T09:07:37Z</time>
      </trkpt>
      <trkpt lat="47.24599" lon="6.06035">
        <ele>401.4</ele>
        <time>2021-03-07T09:07:43Z</time>
      </trkpt>
      <trkpt lat="47.24587" lon="6.06019">
        <ele>401.6</ele>
        <time>2021-03-07T09:07:51Z</time>
      </trkpt>
      <trkpt lat="47.24586" lon="6.06018">
        <ele>401.6</ele>
        <time>2021-03-07T09:07:52Z</time>
      </trkpt>
      <trkpt lat="47.24585" lon="6.06016">
        <ele>401.6</ele>
        <time>2021-03-07T09:07:54Z</time>
      </trkpt>
      <trkpt lat="47.24585" lon="6.06016">
        <ele>401.4</ele>
        <time>2021-03-07T09:07:57Z</time>
      </trkpt>
      <trkpt lat="47.24585" lon="6.06016">
        <ele>401.2</ele>
        <time>2021-03-07T09:08:06Z</time>
      </trkpt>
      <trkpt lat="47.24582" lon="6.06013">
        <ele>401</ele>
        <time>2021-03-07T09:08:19Z</time>
      </trkpt>
      <trkpt lat="47.24582" lon="6.06013">
        <ele>401</ele>
        <time>2021-03-07T09:08:21Z</time>
      </trkpt>
      <trkpt lat="47.24582" lon="6.06012">
        <ele>401</ele>
        <time>2021-03-07T09:08:22Z</time>
      </trkpt>
      <trkpt lat="47.24577" lon="6.06006">
        <ele>401</ele>
        <time>2021-03-07T09:08:25Z</time>
      </trkpt>
      <trkpt lat="47.24564" lon="6.05995">
        <ele>401.4</ele>
        <time>2021-03-07T09:08:31Z</time>
      </trkpt>
      <trkpt lat="47.24562" lon="6.05994">
        <ele>401.4</ele>
        <time>2021-03-07T09:08:32Z</time>
      </trkpt>
      <trkpt lat="47.24561" lon="6.05993">
        <ele>401.4</ele>
        <time>2021-03-07T09:08:33Z</time>
      </trkpt>
      <trkpt lat="47.2456" lon="6.05991">
        <ele>401.6</ele>
        <time>2021-03-07T09:08:34Z</time>
      </trkpt>
      <trkpt lat="47.24558" lon="6.05987">
        <ele>401.6</ele>
        <time>2021-03-07T09:08:36Z</time>
      </trkpt>
      <trkpt lat="47.24557" lon="6.05986">
        <ele>401.6</ele>
        <time>2021-03-07T09:08:37Z</time>
      </trkpt>
      <trkpt lat="47.24555" lon="6.05984">
        <ele>401.6</ele>
        <time>2021-03-07T09:08:38Z</time>
      </trkpt>
      <trkpt lat="47.24554" lon="6.05982">
        <ele>401.8</ele>
        <time>2021-03-07T09:08:39Z</time>
      </trkpt>
      <trkpt lat="47.24552" lon="6.05981">
        <ele>401.8</ele>
        <time>2021-03-07T09:08:40Z</time>
      </trkpt>
      <trkpt lat="47.2455" lon="6.0598">
        <ele>401.8</ele>
        <time>2021-03-07T09:08:41Z</time>
      </trkpt>
      <trkpt lat="47.24548" lon="6.05979">
        <ele>401.8</ele>
        <time>2021-03-07T09:08:42Z</time>
      </trkpt>
      <trkpt lat="47.24546" lon="6.05978">
        <ele>401.8</ele>
        <time>2021-03-07T09:08:43Z</time>
      </trkpt>
      <trkpt lat="47.24546" lon="6.05978">
        <ele>401.8</ele>
        <time>2021-03-07T09:08:44Z</time>
      </trkpt>
      <trkpt lat="47.24543" lon="6.05975">
        <ele>401.8</ele>
        <time>2021-03-07T09:08:48Z</time>
      </trkpt>
      <trkpt lat="47.24541" lon="6.05974">
        <ele>402</ele>
        <time>2021-03-07T09:08:49Z</time>
      </trkpt>
      <trkpt lat="47.24539" lon="6.05973">
        <ele>402</ele>
        <time>2021-03-07T09:08:51Z</time>
      </trkpt>
      <trkpt lat="47.24537" lon="6.05971">
        <ele>402</ele>
        <time>2021-03-07T09:08:52Z</time>
      </trkpt>
      <trkpt lat="47.24532" lon="6.05969">
        <ele>402</ele>
        <time>2021-03-07T09:08:54Z</time>
      </trkpt>
      <trkpt lat="47.2453" lon="6.05968">
        <ele>402.2</ele>
        <time>2021-03-07T09:08:55Z</time>
      </trkpt>
      <trkpt lat="47.24529" lon="6.05968">
        <ele>402.2</ele>
        <time>2021-03-07T09:08:56Z</time>
      </trkpt>
      <trkpt lat="47.24528" lon="6.05967">
        <ele>402.2</ele>
        <time>2021-03-07T09:08:57Z</time>
      </trkpt>
      <trkpt lat="47.24527" lon="6.05967">
        <ele>402.2</ele>
        <time>2021-03-07T09:08:58Z</time>
      </trkpt>
      <trkpt lat="47.24527" lon="6.05966">
        <ele>402.2</ele>
        <time>2021-03-07T09:09:01Z</time>
      </trkpt>
      <trkpt lat="47.24524" lon="6.05962">
        <ele>402.2</ele>
        <time>2021-03-07T09:09:05Z</time>
      </trkpt>
      <trkpt lat="47.24521" lon="6.05958">
        <ele>402.2</ele>
        <time>2021-03-07T09:09:07Z</time>
      </trkpt>
      <trkpt lat="47.24517" lon="6.05955">
        <ele>402.2</ele>
        <time>2021-03-07T09:09:09Z</time>
      </trkpt>
      <trkpt lat="47.24516" lon="6.05954">
        <ele>402.2</ele>
        <time>2021-03-07T09:09:10Z</time>
      </trkpt>
      <trkpt lat="47.2451" lon="6.0595">
        <ele>402</ele>
        <time>2021-03-07T09:09:13Z</time>
      </trkpt>
      <trkpt lat="47.24508" lon="6.05949">
        <ele>402</ele>
        <time>2021-03-07T09:09:14Z</time>
      </trkpt>
      <trkpt lat="47.24508" lon="6.05948">
        <ele>402.2</ele>
        <time>2021-03-07T09:09:15Z</time>
      </trkpt>
      <trkpt lat="47.24506" lon="6.05947">
        <ele>402.4</ele>
        <time>2021-03-07T09:09:16Z</time>
      </trkpt>
      <trkpt lat="47.24505" lon="6.05945">
        <ele>402.4</ele>
        <time>2021-03-07T09:09:17Z</time>
      </trkpt>
      <trkpt lat="47.24504" lon="6.05944">
        <ele>402.6</ele>
        <time>2021-03-07T09:09:18Z</time>
      </trkpt>
      <trkpt lat="47.24501" lon="6.05943">
        <ele>402.8</ele>
        <time>2021-03-07T09:09:20Z</time>
      </trkpt>
      <trkpt lat="47.24499" lon="6.05943">
        <ele>402.8</ele>
        <time>2021-03-07T09:09:21Z</time>
      </trkpt>
      <trkpt lat="47.24498" lon="6.05942">
        <ele>403</ele>
        <time>2021-03-07T09:09:22Z</time>
      </trkpt>
      <trkpt lat="47.24495" lon="6.05941">
        <ele>403.2</ele>
        <time>2021-03-07T09:09:24Z</time>
      </trkpt>
      <trkpt lat="47.24494" lon="6.05941">
        <ele>403.4</ele>
        <time>2021-03-07T09:09:25Z</time>
      </trkpt>
      <trkpt lat="47.24493" lon="6.0594">
        <ele>403.4</ele>
        <time>2021-03-07T09:09:26Z</time>
      </trkpt>
      <trkpt lat="47.24492" lon="6.05939">
        <ele>403.4</ele>
        <time>2021-03-07T09:09:27Z</time>
      </trkpt>
      <trkpt lat="47.24491" lon="6.05939">
        <ele>403.4</ele>
        <time>2021-03-07T09:09:28Z</time>
      </trkpt>
      <trkpt lat="47.2449" lon="6.05938">
        <ele>403.6</ele>
        <time>2021-03-07T09:09:29Z</time>
      </trkpt>
      <trkpt lat="47.24489" lon="6.05937">
        <ele>403.8</ele>
        <time>2021-03-07T09:09:30Z</time>
      </trkpt>
      <trkpt lat="47.24489" lon="6.05937">
        <ele>404</ele>
        <time>2021-03-07T09:09:31Z</time>
      </trkpt>
      <trkpt lat="47.24489" lon="6.05937">
        <ele>404</ele>
        <time>2021-03-07T09:09:32Z</time>
      </trkpt>
      <trkpt lat="47.24488" lon="6.05936">
        <ele>404.2</ele>
        <time>2021-03-07T09:09:33Z</time>
      </trkpt>
      <trkpt lat="47.24488" lon="6.05936">
        <ele>404.2</ele>
        <time>2021-03-07T09:09:34Z</time>
      </trkpt>
      <trkpt lat="47.24485" lon="6.05935">
        <ele>404.4</ele>
        <time>2021-03-07T09:09:36Z</time>
      </trkpt>
      <trkpt lat="47.24484" lon="6.05934">
        <ele>404.6</ele>
        <time>2021-03-07T09:09:37Z</time>
      </trkpt>
      <trkpt lat="47.24484" lon="6.05934">
        <ele>404.6</ele>
        <time>2021-03-07T09:09:38Z</time>
      </trkpt>
      <trkpt lat="47.24484" lon="6.05934">
        <ele>404.8</ele>
        <time>2021-03-07T09:09:39Z</time>
      </trkpt>
      <trkpt lat="47.24481" lon="6.05932">
        <ele>404.8</ele>
        <time>2021-03-07T09:09:43Z</time>
      </trkpt>
      <trkpt lat="47.24481" lon="6.05931">
        <ele>404.8</ele>
        <time>2021-03-07T09:09:44Z</time>
      </trkpt>
      <trkpt lat="47.2448" lon="6.0593">
        <ele>404.8</ele>
        <time>2021-03-07T09:09:45Z</time>
      </trkpt>
      <trkpt lat="47.24479" lon="6.05929">
        <ele>405</ele>
        <time>2021-03-07T09:09:46Z</time>
      </trkpt>
      <trkpt lat="47.24477" lon="6.05928">
        <ele>405</ele>
        <time>2021-03-07T09:09:47Z</time>
      </trkpt>
      <trkpt lat="47.24476" lon="6.05926">
        <ele>405</ele>
        <time>2021-03-07T09:09:48Z</time>
      </trkpt>
      <trkpt lat="47.24474" lon="6.05923">
        <ele>405.4</ele>
        <time>2021-03-07T09:09:50Z</time>
      </trkpt>
      <trkpt lat="47.2447" lon="6.0592">
        <ele>405.6</ele>
        <time>2021-03-07T09:09:52Z</time>
      </trkpt>
      <trkpt lat="47.24466" lon="6.05917">
        <ele>405.8</ele>
        <time>2021-03-07T09:09:54Z</time>
      </trkpt>
      <trkpt lat="47.24464" lon="6.05915">
        <ele>405.8</ele>
        <time>2021-03-07T09:09:55Z</time>
      </trkpt>
      <trkpt lat="47.24463" lon="6.05913">
        <ele>406</ele>
        <time>2021-03-07T09:09:56Z</time>
      </trkpt>
      <trkpt lat="47.24461" lon="6.05912">
        <ele>406</ele>
        <time>2021-03-07T09:09:57Z</time>
      </trkpt>
      <trkpt lat="47.2446" lon="6.0591">
        <ele>406.2</ele>
        <time>2021-03-07T09:09:58Z</time>
      </trkpt>
      <trkpt lat="47.24459" lon="6.05909">
        <ele>406.2</ele>
        <time>2021-03-07T09:09:59Z</time>
      </trkpt>
      <trkpt lat="47.24458" lon="6.05908">
        <ele>406.2</ele>
        <time>2021-03-07T09:10:00Z</time>
      </trkpt>
      <trkpt lat="47.24456" lon="6.05904">
        <ele>406.4</ele>
        <time>2021-03-07T09:10:02Z</time>
      </trkpt>
      <trkpt lat="47.24449" lon="6.05894">
        <ele>406.8</ele>
        <time>2021-03-07T09:10:08Z</time>
      </trkpt>
      <trkpt lat="47.24448" lon="6.05893">
        <ele>406.8</ele>
        <time>2021-03-07T09:10:09Z</time>
      </trkpt>
      <trkpt lat="47.24446" lon="6.05893">
        <ele>406.8</ele>
        <time>2021-03-07T09:10:10Z</time>
      </trkpt>
      <trkpt lat="47.24441" lon="6.05889">
        <ele>407.2</ele>
        <time>2021-03-07T09:10:15Z</time>
      </trkpt>
      <trkpt lat="47.2444" lon="6.05888">
        <ele>407.4</ele>
        <time>2021-03-07T09:10:16Z</time>
      </trkpt>
      <trkpt lat="47.24439" lon="6.05887">
        <ele>407.6</ele>
        <time>2021-03-07T09:10:17Z</time>
      </trkpt>
      <trkpt lat="47.24439" lon="6.05887">
        <ele>407.8</ele>
        <time>2021-03-07T09:10:18Z</time>
      </trkpt>
      <trkpt lat="47.24439" lon="6.05887">
        <ele>408</ele>
        <time>2021-03-07T09:10:19Z</time>
      </trkpt>
      <trkpt lat="47.24437" lon="6.05886">
        <ele>408</ele>
        <time>2021-03-07T09:10:20Z</time>
      </trkpt>
      <trkpt lat="47.24436" lon="6.05886">
        <ele>408.2</ele>
        <time>2021-03-07T09:10:21Z</time>
      </trkpt>
      <trkpt lat="47.24435" lon="6.05885">
        <ele>408.4</ele>
        <time>2021-03-07T09:10:22Z</time>
      </trkpt>
      <trkpt lat="47.24434" lon="6.05884">
        <ele>408.6</ele>
        <time>2021-03-07T09:10:23Z</time>
      </trkpt>
      <trkpt lat="47.24429" lon="6.05881">
        <ele>409.2</ele>
        <time>2021-03-07T09:10:27Z</time>
      </trkpt>
      <trkpt lat="47.24428" lon="6.0588">
        <ele>409.2</ele>
        <time>2021-03-07T09:10:28Z</time>
      </trkpt>
      <trkpt lat="47.24426" lon="6.05879">
        <ele>409.6</ele>
        <time>2021-03-07T09:10:29Z</time>
      </trkpt>
      <trkpt lat="47.24425" lon="6.05878">
        <ele>409.8</ele>
        <time>2021-03-07T09:10:30Z</time>
      </trkpt>
      <trkpt lat="47.24423" lon="6.05876">
        <ele>409.8</ele>
        <time>2021-03-07T09:10:31Z</time>
      </trkpt>
      <trkpt lat="47.24423" lon="6.05876">
        <ele>410</ele>
        <time>2021-03-07T09:10:32Z</time>
      </trkpt>
      <trkpt lat="47.24421" lon="6.05875">
        <ele>410</ele>
        <time>2021-03-07T09:10:33Z</time>
      </trkpt>
      <trkpt lat="47.2442" lon="6.05874">
        <ele>410.2</ele>
        <time>2021-03-07T09:10:34Z</time>
      </trkpt>
      <trkpt lat="47.24419" lon="6.05873">
        <ele>410.4</ele>
        <time>2021-03-07T09:10:35Z</time>
      </trkpt>
      <trkpt lat="47.24418" lon="6.05872">
        <ele>410.6</ele>
        <time>2021-03-07T09:10:36Z</time>
      </trkpt>
      <trkpt lat="47.24417" lon="6.05871">
        <ele>410.8</ele>
        <time>2021-03-07T09:10:37Z</time>
      </trkpt>
      <trkpt lat="47.24416" lon="6.0587">
        <ele>410.8</ele>
        <time>2021-03-07T09:10:38Z</time>
      </trkpt>
      <trkpt lat="47.24415" lon="6.05869">
        <ele>410.8</ele>
        <time>2021-03-07T09:10:39Z</time>
      </trkpt>
      <trkpt lat="47.24414" lon="6.05868">
        <ele>411</ele>
        <time>2021-03-07T09:10:40Z</time>
      </trkpt>
      <trkpt lat="47.24414" lon="6.05868">
        <ele>411.2</ele>
        <time>2021-03-07T09:10:41Z</time>
      </trkpt>
      <trkpt lat="47.24413" lon="6.05867">
        <ele>411.4</ele>
        <time>2021-03-07T09:10:42Z</time>
      </trkpt>
      <trkpt lat="47.24412" lon="6.05866">
        <ele>411.6</ele>
        <time>2021-03-07T09:10:43Z</time>
      </trkpt>
      <trkpt lat="47.24411" lon="6.05865">
        <ele>411.6</ele>
        <time>2021-03-07T09:10:44Z</time>
      </trkpt>
      <trkpt lat="47.2441" lon="6.05864">
        <ele>412</ele>
        <time>2021-03-07T09:10:45Z</time>
      </trkpt>
      <trkpt lat="47.24408" lon="6.05862">
        <ele>412.2</ele>
        <time>2021-03-07T09:10:46Z</time>
      </trkpt>
      <trkpt lat="47.24407" lon="6.05861">
        <ele>412.4</ele>
        <time>2021-03-07T09:10:47Z</time>
      </trkpt>
      <trkpt lat="47.24406" lon="6.0586">
        <ele>412.6</ele>
        <time>2021-03-07T09:10:48Z</time>
      </trkpt>
      <trkpt lat="47.24405" lon="6.05859">
        <ele>412.8</ele>
        <time>2021-03-07T09:10:49Z</time>
      </trkpt>
      <trkpt lat="47.24403" lon="6.05858">
        <ele>412.8</ele>
        <time>2021-03-07T09:10:50Z</time>
      </trkpt>
      <trkpt lat="47.24402" lon="6.05858">
        <ele>413.2</ele>
        <time>2021-03-07T09:10:51Z</time>
      </trkpt>
      <trkpt lat="47.244" lon="6.05856">
        <ele>413.2</ele>
        <time>2021-03-07T09:10:52Z</time>
      </trkpt>
      <trkpt lat="47.24398" lon="6.05855">
        <ele>413.4</ele>
        <time>2021-03-07T09:10:53Z</time>
      </trkpt>
      <trkpt lat="47.24397" lon="6.05854">
        <ele>413.6</ele>
        <time>2021-03-07T09:10:54Z</time>
      </trkpt>
      <trkpt lat="47.24395" lon="6.05854">
        <ele>413.8</ele>
        <time>2021-03-07T09:10:55Z</time>
      </trkpt>
      <trkpt lat="47.24394" lon="6.05853">
        <ele>413.8</ele>
        <time>2021-03-07T09:10:56Z</time>
      </trkpt>
      <trkpt lat="47.24392" lon="6.05852">
        <ele>414</ele>
        <time>2021-03-07T09:10:57Z</time>
      </trkpt>
      <trkpt lat="47.24391" lon="6.05852">
        <ele>414</ele>
        <time>2021-03-07T09:10:58Z</time>
      </trkpt>
      <trkpt lat="47.24389" lon="6.05852">
        <ele>414.2</ele>
        <time>2021-03-07T09:10:59Z</time>
      </trkpt>
      <trkpt lat="47.24387" lon="6.05851">
        <ele>414.4</ele>
        <time>2021-03-07T09:11:00Z</time>
      </trkpt>
      <trkpt lat="47.24386" lon="6.0585">
        <ele>414.4</ele>
        <time>2021-03-07T09:11:01Z</time>
      </trkpt>
      <trkpt lat="47.24384" lon="6.05848">
        <ele>414.6</ele>
        <time>2021-03-07T09:11:02Z</time>
      </trkpt>
      <trkpt lat="47.24382" lon="6.05846">
        <ele>414.8</ele>
        <time>2021-03-07T09:11:03Z</time>
      </trkpt>
      <trkpt lat="47.24381" lon="6.05845">
        <ele>415</ele>
        <time>2021-03-07T09:11:04Z</time>
      </trkpt>
      <trkpt lat="47.24381" lon="6.05844">
        <ele>415.2</ele>
        <time>2021-03-07T09:11:05Z</time>
      </trkpt>
      <trkpt lat="47.2438" lon="6.05843">
        <ele>415.4</ele>
        <time>2021-03-07T09:11:06Z</time>
      </trkpt>
      <trkpt lat="47.2438" lon="6.05842">
        <ele>415.6</ele>
        <time>2021-03-07T09:11:07Z</time>
      </trkpt>
      <trkpt lat="47.24379" lon="6.05841">
        <ele>415.6</ele>
        <time>2021-03-07T09:11:08Z</time>
      </trkpt>
      <trkpt lat="47.24379" lon="6.05838">
        <ele>415.8</ele>
        <time>2021-03-07T09:11:09Z</time>
      </trkpt>
      <trkpt lat="47.24379" lon="6.05838">
        <ele>416</ele>
        <time>2021-03-07T09:11:10Z</time>
      </trkpt>
      <trkpt lat="47.24378" lon="6.05836">
        <ele>416</ele>
        <time>2021-03-07T09:11:11Z</time>
      </trkpt>
      <trkpt lat="47.24375" lon="6.05832">
        <ele>416</ele>
        <time>2021-03-07T09:11:12Z</time>
      </trkpt>
      <trkpt lat="47.24374" lon="6.0583">
        <ele>416</ele>
        <time>2021-03-07T09:11:13Z</time>
      </trkpt>
      <trkpt lat="47.24372" lon="6.05827">
        <ele>416</ele>
        <time>2021-03-07T09:11:14Z</time>
      </trkpt>
      <trkpt lat="47.2437" lon="6.05826">
        <ele>416.2</ele>
        <time>2021-03-07T09:11:15Z</time>
      </trkpt>
      <trkpt lat="47.24368" lon="6.05825">
        <ele>416.2</ele>
        <time>2021-03-07T09:11:16Z</time>
      </trkpt>
      <trkpt lat="47.24366" lon="6.05823">
        <ele>416.4</ele>
        <time>2021-03-07T09:11:17Z</time>
      </trkpt>
      <trkpt lat="47.24365" lon="6.05822">
        <ele>416.4</ele>
        <time>2021-03-07T09:11:18Z</time>
      </trkpt>
      <trkpt lat="47.24364" lon="6.05821">
        <ele>416.4</ele>
        <time>2021-03-07T09:11:19Z</time>
      </trkpt>
      <trkpt lat="47.24363" lon="6.05821">
        <ele>416.6</ele>
        <time>2021-03-07T09:11:20Z</time>
      </trkpt>
      <trkpt lat="47.24363" lon="6.0582">
        <ele>416.6</ele>
        <time>2021-03-07T09:11:21Z</time>
      </trkpt>
      <trkpt lat="47.24361" lon="6.05818">
        <ele>416.6</ele>
        <time>2021-03-07T09:11:22Z</time>
      </trkpt>
      <trkpt lat="47.24361" lon="6.05817">
        <ele>416.8</ele>
        <time>2021-03-07T09:11:23Z</time>
      </trkpt>
      <trkpt lat="47.2436" lon="6.05817">
        <ele>417</ele>
        <time>2021-03-07T09:11:24Z</time>
      </trkpt>
      <trkpt lat="47.24358" lon="6.05816">
        <ele>417</ele>
        <time>2021-03-07T09:11:25Z</time>
      </trkpt>
      <trkpt lat="47.24358" lon="6.05815">
        <ele>417.2</ele>
        <time>2021-03-07T09:11:26Z</time>
      </trkpt>
      <trkpt lat="47.24358" lon="6.05815">
        <ele>417.6</ele>
        <time>2021-03-07T09:11:30Z</time>
      </trkpt>
      <trkpt lat="47.24357" lon="6.05814">
        <ele>418</ele>
        <time>2021-03-07T09:11:34Z</time>
      </trkpt>
      <trkpt lat="47.24355" lon="6.05812">
        <ele>418</ele>
        <time>2021-03-07T09:11:35Z</time>
      </trkpt>
      <trkpt lat="47.24353" lon="6.05811">
        <ele>418</ele>
        <time>2021-03-07T09:11:36Z</time>
      </trkpt>
      <trkpt lat="47.24351" lon="6.0581">
        <ele>418</ele>
        <time>2021-03-07T09:11:37Z</time>
      </trkpt>
      <trkpt lat="47.24349" lon="6.05807">
        <ele>418</ele>
        <time>2021-03-07T09:11:38Z</time>
      </trkpt>
      <trkpt lat="47.24346" lon="6.05805">
        <ele>418</ele>
        <time>2021-03-07T09:11:40Z</time>
      </trkpt>
      <trkpt lat="47.24345" lon="6.05803">
        <ele>418</ele>
        <time>2021-03-07T09:11:42Z</time>
      </trkpt>
      <trkpt lat="47.24343" lon="6.05801">
        <ele>418.2</ele>
        <time>2021-03-07T09:11:44Z</time>
      </trkpt>
      <trkpt lat="47.2434" lon="6.05799">
        <ele>418.4</ele>
        <time>2021-03-07T09:11:47Z</time>
      </trkpt>
      <trkpt lat="47.24332" lon="6.05795">
        <ele>419</ele>
        <time>2021-03-07T09:11:53Z</time>
      </trkpt>
      <trkpt lat="47.24323" lon="6.05788">
        <ele>419.6</ele>
        <time>2021-03-07T09:11:59Z</time>
      </trkpt>
      <trkpt lat="47.24321" lon="6.05786">
        <ele>420</ele>
        <time>2021-03-07T09:12:01Z</time>
      </trkpt>
      <trkpt lat="47.24319" lon="6.05785">
        <ele>420</ele>
        <time>2021-03-07T09:12:02Z</time>
      </trkpt>
      <trkpt lat="47.24317" lon="6.05784">
        <ele>420.4</ele>
        <time>2021-03-07T09:12:04Z</time>
      </trkpt>
      <trkpt lat="47.24315" lon="6.05783">
        <ele>420.6</ele>
        <time>2021-03-07T09:12:06Z</time>
      </trkpt>
      <trkpt lat="47.24313" lon="6.05782">
        <ele>420.6</ele>
        <time>2021-03-07T09:12:07Z</time>
      </trkpt>
      <trkpt lat="47.24312" lon="6.05781">
        <ele>420.8</ele>
        <time>2021-03-07T09:12:08Z</time>
      </trkpt>
      <trkpt lat="47.2431" lon="6.05781">
        <ele>420.8</ele>
        <time>2021-03-07T09:12:09Z</time>
      </trkpt>
      <trkpt lat="47.24307" lon="6.05779">
        <ele>421</ele>
        <time>2021-03-07T09:12:11Z</time>
      </trkpt>
      <trkpt lat="47.24303" lon="6.05776">
        <ele>421.2</ele>
        <time>2021-03-07T09:12:14Z</time>
      </trkpt>
      <trkpt lat="47.24301" lon="6.05775">
        <ele>421.2</ele>
        <time>2021-03-07T09:12:15Z</time>
      </trkpt>
      <trkpt lat="47.24298" lon="6.05772">
        <ele>421.6</ele>
        <time>2021-03-07T09:12:17Z</time>
      </trkpt>
      <trkpt lat="47.24295" lon="6.05769">
        <ele>421.8</ele>
        <time>2021-03-07T09:12:19Z</time>
      </trkpt>
      <trkpt lat="47.24289" lon="6.05764">
        <ele>422</ele>
        <time>2021-03-07T09:12:22Z</time>
      </trkpt>
      <trkpt lat="47.24281" lon="6.05758">
        <ele>422.6</ele>
        <time>2021-03-07T09:12:27Z</time>
      </trkpt>
      <trkpt lat="47.24279" lon="6.05756">
        <ele>422.6</ele>
        <time>2021-03-07T09:12:28Z</time>
      </trkpt>
      <trkpt lat="47.24278" lon="6.05755">
        <ele>422.8</ele>
        <time>2021-03-07T09:12:29Z</time>
      </trkpt>
      <trkpt lat="47.24274" lon="6.05753">
        <ele>422.8</ele>
        <time>2021-03-07T09:12:31Z</time>
      </trkpt>
      <trkpt lat="47.24273" lon="6.05751">
        <ele>422.8</ele>
        <time>2021-03-07T09:12:32Z</time>
      </trkpt>
      <trkpt lat="47.2427" lon="6.0575">
        <ele>423</ele>
        <time>2021-03-07T09:12:33Z</time>
      </trkpt>
      <trkpt lat="47.24262" lon="6.05744">
        <ele>423.2</ele>
        <time>2021-03-07T09:12:37Z</time>
      </trkpt>
      <trkpt lat="47.24256" lon="6.05741">
        <ele>423.4</ele>
        <time>2021-03-07T09:12:41Z</time>
      </trkpt>
      <trkpt lat="47.24254" lon="6.05741">
        <ele>423.6</ele>
        <time>2021-03-07T09:12:42Z</time>
      </trkpt>
      <trkpt lat="47.24253" lon="6.0574">
        <ele>423.6</ele>
        <time>2021-03-07T09:12:43Z</time>
      </trkpt>
      <trkpt lat="47.24252" lon="6.05739">
        <ele>423.6</ele>
        <time>2021-03-07T09:12:44Z</time>
      </trkpt>
      <trkpt lat="47.2425" lon="6.05737">
        <ele>423.8</ele>
        <time>2021-03-07T09:12:45Z</time>
      </trkpt>
      <trkpt lat="47.24249" lon="6.05736">
        <ele>424</ele>
        <time>2021-03-07T09:12:46Z</time>
      </trkpt>
      <trkpt lat="47.24248" lon="6.05734">
        <ele>424.2</ele>
        <time>2021-03-07T09:12:47Z</time>
      </trkpt>
      <trkpt lat="47.24247" lon="6.05733">
        <ele>424.4</ele>
        <time>2021-03-07T09:12:48Z</time>
      </trkpt>
      <trkpt lat="47.24241" lon="6.05723">
        <ele>425</ele>
        <time>2021-03-07T09:12:53Z</time>
      </trkpt>
      <trkpt lat="47.24238" lon="6.05716">
        <ele>425.2</ele>
        <time>2021-03-07T09:12:56Z</time>
      </trkpt>
      <trkpt lat="47.24234" lon="6.05707">
        <ele>425.6</ele>
        <time>2021-03-07T09:13:01Z</time>
      </trkpt>
      <trkpt lat="47.24233" lon="6.05705">
        <ele>425.8</ele>
        <time>2021-03-07T09:13:02Z</time>
      </trkpt>
      <trkpt lat="47.24232" lon="6.05703">
        <ele>425.8</ele>
        <time>2021-03-07T09:13:03Z</time>
      </trkpt>
      <trkpt lat="47.24231" lon="6.05701">
        <ele>425.8</ele>
        <time>2021-03-07T09:13:04Z</time>
      </trkpt>
      <trkpt lat="47.24231" lon="6.05699">
        <ele>425.8</ele>
        <time>2021-03-07T09:13:05Z</time>
      </trkpt>
      <trkpt lat="47.2423" lon="6.05697">
        <ele>425.8</ele>
        <time>2021-03-07T09:13:06Z</time>
      </trkpt>
      <trkpt lat="47.2423" lon="6.05696">
        <ele>425.8</ele>
        <time>2021-03-07T09:13:07Z</time>
      </trkpt>
      <trkpt lat="47.2423" lon="6.05695">
        <ele>425.8</ele>
        <time>2021-03-07T09:13:08Z</time>
      </trkpt>
      <trkpt lat="47.2423" lon="6.05693">
        <ele>425.8</ele>
        <time>2021-03-07T09:13:09Z</time>
      </trkpt>
      <trkpt lat="47.2423" lon="6.05692">
        <ele>425.8</ele>
        <time>2021-03-07T09:13:10Z</time>
      </trkpt>
      <trkpt lat="47.24229" lon="6.05691">
        <ele>425.8</ele>
        <time>2021-03-07T09:13:11Z</time>
      </trkpt>
      <trkpt lat="47.24229" lon="6.0569">
        <ele>426</ele>
        <time>2021-03-07T09:13:12Z</time>
      </trkpt>
      <trkpt lat="47.24228" lon="6.05688">
        <ele>426</ele>
        <time>2021-03-07T09:13:13Z</time>
      </trkpt>
      <trkpt lat="47.24227" lon="6.05686">
        <ele>426</ele>
        <time>2021-03-07T09:13:14Z</time>
      </trkpt>
      <trkpt lat="47.24224" lon="6.05678">
        <ele>426.2</ele>
        <time>2021-03-07T09:13:17Z</time>
      </trkpt>
      <trkpt lat="47.24223" lon="6.05675">
        <ele>426.2</ele>
        <time>2021-03-07T09:13:18Z</time>
      </trkpt>
      <trkpt lat="47.24217" lon="6.05662">
        <ele>426.6</ele>
        <time>2021-03-07T09:13:23Z</time>
      </trkpt>
      <trkpt lat="47.24216" lon="6.0566">
        <ele>426.6</ele>
        <time>2021-03-07T09:13:24Z</time>
      </trkpt>
      <trkpt lat="47.24209" lon="6.05645">
        <ele>426.8</ele>
        <time>2021-03-07T09:13:29Z</time>
      </trkpt>
      <trkpt lat="47.24197" lon="6.05622">
        <ele>426.8</ele>
        <time>2021-03-07T09:13:36Z</time>
      </trkpt>
      <trkpt lat="47.24195" lon="6.05618">
        <ele>426.8</ele>
        <time>2021-03-07T09:13:37Z</time>
      </trkpt>
      <trkpt lat="47.24191" lon="6.05608">
        <ele>427</ele>
        <time>2021-03-07T09:13:40Z</time>
      </trkpt>
      <trkpt lat="47.24189" lon="6.05606">
        <ele>427</ele>
        <time>2021-03-07T09:13:41Z</time>
      </trkpt>
      <trkpt lat="47.24186" lon="6.056">
        <ele>427</ele>
        <time>2021-03-07T09:13:43Z</time>
      </trkpt>
      <trkpt lat="47.24184" lon="6.05597">
        <ele>427</ele>
        <time>2021-03-07T09:13:44Z</time>
      </trkpt>
      <trkpt lat="47.24182" lon="6.05593">
        <ele>427</ele>
        <time>2021-03-07T09:13:45Z</time>
      </trkpt>
      <trkpt lat="47.24178" lon="6.05586">
        <ele>427.2</ele>
        <time>2021-03-07T09:13:48Z</time>
      </trkpt>
      <trkpt lat="47.24178" lon="6.05583">
        <ele>427.2</ele>
        <time>2021-03-07T09:13:49Z</time>
      </trkpt>
      <trkpt lat="47.24175" lon="6.05579">
        <ele>427.2</ele>
        <time>2021-03-07T09:13:50Z</time>
      </trkpt>
      <trkpt lat="47.24175" lon="6.05578">
        <ele>427.2</ele>
        <time>2021-03-07T09:13:51Z</time>
      </trkpt>
      <trkpt lat="47.24174" lon="6.05576">
        <ele>427.2</ele>
        <time>2021-03-07T09:13:52Z</time>
      </trkpt>
      <trkpt lat="47.24173" lon="6.05574">
        <ele>427.2</ele>
        <time>2021-03-07T09:13:53Z</time>
      </trkpt>
      <trkpt lat="47.24169" lon="6.05564">
        <ele>427.2</ele>
        <time>2021-03-07T09:13:57Z</time>
      </trkpt>
      <trkpt lat="47.24168" lon="6.05562">
        <ele>427.2</ele>
        <time>2021-03-07T09:13:58Z</time>
      </trkpt>
      <trkpt lat="47.24167" lon="6.0556">
        <ele>427.2</ele>
        <time>2021-03-07T09:13:59Z</time>
      </trkpt>
      <trkpt lat="47.24162" lon="6.05548">
        <ele>427.4</ele>
        <time>2021-03-07T09:14:03Z</time>
      </trkpt>
      <trkpt lat="47.24161" lon="6.05545">
        <ele>427.4</ele>
        <time>2021-03-07T09:14:04Z</time>
      </trkpt>
      <trkpt lat="47.2415" lon="6.05522">
        <ele>427.6</ele>
        <time>2021-03-07T09:14:11Z</time>
      </trkpt>
      <trkpt lat="47.24148" lon="6.05516">
        <ele>427.6</ele>
        <time>2021-03-07T09:14:13Z</time>
      </trkpt>
      <trkpt lat="47.2414" lon="6.05499">
        <ele>427.6</ele>
        <time>2021-03-07T09:14:18Z</time>
      </trkpt>
      <trkpt lat="47.24136" lon="6.05489">
        <ele>427.6</ele>
        <time>2021-03-07T09:14:21Z</time>
      </trkpt>
      <trkpt lat="47.24135" lon="6.05487">
        <ele>427.6</ele>
        <time>2021-03-07T09:14:22Z</time>
      </trkpt>
      <trkpt lat="47.24135" lon="6.05484">
        <ele>427.6</ele>
        <time>2021-03-07T09:14:23Z</time>
      </trkpt>
      <trkpt lat="47.24133" lon="6.0548">
        <ele>427.6</ele>
        <time>2021-03-07T09:14:24Z</time>
      </trkpt>
      <trkpt lat="47.24132" lon="6.05476">
        <ele>427.6</ele>
        <time>2021-03-07T09:14:25Z</time>
      </trkpt>
      <trkpt lat="47.2413" lon="6.05472">
        <ele>427.6</ele>
        <time>2021-03-07T09:14:26Z</time>
      </trkpt>
      <trkpt lat="47.24127" lon="6.05468">
        <ele>427.6</ele>
        <time>2021-03-07T09:14:27Z</time>
      </trkpt>
      <trkpt lat="47.24125" lon="6.05463">
        <ele>427.6</ele>
        <time>2021-03-07T09:14:28Z</time>
      </trkpt>
      <trkpt lat="47.2412" lon="6.05455">
        <ele>427.6</ele>
        <time>2021-03-07T09:14:30Z</time>
      </trkpt>
      <trkpt lat="47.24115" lon="6.05444">
        <ele>427.8</ele>
        <time>2021-03-07T09:14:33Z</time>
      </trkpt>
      <trkpt lat="47.24113" lon="6.0544">
        <ele>427.8</ele>
        <time>2021-03-07T09:14:34Z</time>
      </trkpt>
      <trkpt lat="47.24111" lon="6.05436">
        <ele>428</ele>
        <time>2021-03-07T09:14:35Z</time>
      </trkpt>
      <trkpt lat="47.2411" lon="6.05432">
        <ele>428</ele>
        <time>2021-03-07T09:14:36Z</time>
      </trkpt>
      <trkpt lat="47.24104" lon="6.05419">
        <ele>428</ele>
        <time>2021-03-07T09:14:39Z</time>
      </trkpt>
      <trkpt lat="47.24102" lon="6.05416">
        <ele>428.2</ele>
        <time>2021-03-07T09:14:40Z</time>
      </trkpt>
      <trkpt lat="47.24101" lon="6.05412">
        <ele>428.2</ele>
        <time>2021-03-07T09:14:41Z</time>
      </trkpt>
      <trkpt lat="47.24099" lon="6.05408">
        <ele>428.2</ele>
        <time>2021-03-07T09:14:42Z</time>
      </trkpt>
      <trkpt lat="47.24097" lon="6.05403">
        <ele>428.2</ele>
        <time>2021-03-07T09:14:43Z</time>
      </trkpt>
      <trkpt lat="47.24095" lon="6.05399">
        <ele>428.2</ele>
        <time>2021-03-07T09:14:44Z</time>
      </trkpt>
      <trkpt lat="47.24092" lon="6.05395">
        <ele>428.2</ele>
        <time>2021-03-07T09:14:45Z</time>
      </trkpt>
      <trkpt lat="47.24091" lon="6.05391">
        <ele>428.2</ele>
        <time>2021-03-07T09:14:46Z</time>
      </trkpt>
      <trkpt lat="47.24089" lon="6.05387">
        <ele>428.2</ele>
        <time>2021-03-07T09:14:47Z</time>
      </trkpt>
      <trkpt lat="47.24087" lon="6.05383">
        <ele>428.4</ele>
        <time>2021-03-07T09:14:48Z</time>
      </trkpt>
      <trkpt lat="47.24085" lon="6.05379">
        <ele>428.4</ele>
        <time>2021-03-07T09:14:49Z</time>
      </trkpt>
      <trkpt lat="47.24082" lon="6.05375">
        <ele>428.6</ele>
        <time>2021-03-07T09:14:50Z</time>
      </trkpt>
      <trkpt lat="47.24081" lon="6.05368">
        <ele>428.6</ele>
        <time>2021-03-07T09:14:52Z</time>
      </trkpt>
      <trkpt lat="47.24073" lon="6.05352">
        <ele>428.6</ele>
        <time>2021-03-07T09:14:57Z</time>
      </trkpt>
      <trkpt lat="47.24072" lon="6.05349">
        <ele>428.6</ele>
        <time>2021-03-07T09:14:58Z</time>
      </trkpt>
      <trkpt lat="47.24062" lon="6.05327">
        <ele>428.4</ele>
        <time>2021-03-07T09:15:04Z</time>
      </trkpt>
      <trkpt lat="47.24053" lon="6.05309">
        <ele>428.2</ele>
        <time>2021-03-07T09:15:09Z</time>
      </trkpt>
      <trkpt lat="47.24038" lon="6.0528">
        <ele>427.8</ele>
        <time>2021-03-07T09:15:16Z</time>
      </trkpt>
      <trkpt lat="47.24026" lon="6.05254">
        <ele>427.6</ele>
        <time>2021-03-07T09:15:21Z</time>
      </trkpt>
      <trkpt lat="47.24017" lon="6.05234">
        <ele>427.6</ele>
        <time>2021-03-07T09:15:25Z</time>
      </trkpt>
      <trkpt lat="47.24014" lon="6.05228">
        <ele>427.6</ele>
        <time>2021-03-07T09:15:26Z</time>
      </trkpt>
      <trkpt lat="47.23996" lon="6.05188">
        <ele>427.4</ele>
        <time>2021-03-07T09:15:33Z</time>
      </trkpt>
      <trkpt lat="47.23983" lon="6.05163">
        <ele>427.2</ele>
        <time>2021-03-07T09:15:37Z</time>
      </trkpt>
      <trkpt lat="47.2398" lon="6.05155">
        <ele>427.2</ele>
        <time>2021-03-07T09:15:39Z</time>
      </trkpt>
      <trkpt lat="47.23979" lon="6.0515">
        <ele>427.2</ele>
        <time>2021-03-07T09:15:40Z</time>
      </trkpt>
      <trkpt lat="47.23977" lon="6.05145">
        <ele>427.4</ele>
        <time>2021-03-07T09:15:41Z</time>
      </trkpt>
      <trkpt lat="47.23973" lon="6.0514">
        <ele>427.4</ele>
        <time>2021-03-07T09:15:42Z</time>
      </trkpt>
      <trkpt lat="47.23972" lon="6.05136">
        <ele>427.4</ele>
        <time>2021-03-07T09:15:43Z</time>
      </trkpt>
      <trkpt lat="47.2397" lon="6.05133">
        <ele>427.2</ele>
        <time>2021-03-07T09:15:44Z</time>
      </trkpt>
      <trkpt lat="47.23959" lon="6.0511">
        <ele>427.4</ele>
        <time>2021-03-07T09:15:50Z</time>
      </trkpt>
      <trkpt lat="47.23957" lon="6.05107">
        <ele>427.4</ele>
        <time>2021-03-07T09:15:51Z</time>
      </trkpt>
      <trkpt lat="47.23956" lon="6.05104">
        <ele>427.4</ele>
        <time>2021-03-07T09:15:52Z</time>
      </trkpt>
      <trkpt lat="47.2395" lon="6.05093">
        <ele>427.4</ele>
        <time>2021-03-07T09:15:55Z</time>
      </trkpt>
      <trkpt lat="47.23943" lon="6.05079">
        <ele>427.4</ele>
        <time>2021-03-07T09:15:58Z</time>
      </trkpt>
      <trkpt lat="47.23941" lon="6.05074">
        <ele>427.4</ele>
        <time>2021-03-07T09:15:59Z</time>
      </trkpt>
      <trkpt lat="47.23939" lon="6.05069">
        <ele>427.4</ele>
        <time>2021-03-07T09:16:00Z</time>
      </trkpt>
      <trkpt lat="47.23937" lon="6.05065">
        <ele>427.4</ele>
        <time>2021-03-07T09:16:01Z</time>
      </trkpt>
      <trkpt lat="47.23927" lon="6.05047">
        <ele>427.4</ele>
        <time>2021-03-07T09:16:05Z</time>
      </trkpt>
      <trkpt lat="47.23921" lon="6.05037">
        <ele>427.6</ele>
        <time>2021-03-07T09:16:07Z</time>
      </trkpt>
      <trkpt lat="47.23909" lon="6.05007">
        <ele>427.6</ele>
        <time>2021-03-07T09:16:13Z</time>
      </trkpt>
      <trkpt lat="47.23908" lon="6.05003">
        <ele>427.6</ele>
        <time>2021-03-07T09:16:14Z</time>
      </trkpt>
      <trkpt lat="47.23902" lon="6.04993">
        <ele>427.8</ele>
        <time>2021-03-07T09:16:16Z</time>
      </trkpt>
      <trkpt lat="47.239" lon="6.04987">
        <ele>427.8</ele>
        <time>2021-03-07T09:16:17Z</time>
      </trkpt>
      <trkpt lat="47.23898" lon="6.04984">
        <ele>427.8</ele>
        <time>2021-03-07T09:16:18Z</time>
      </trkpt>
      <trkpt lat="47.23896" lon="6.0498">
        <ele>428</ele>
        <time>2021-03-07T09:16:19Z</time>
      </trkpt>
      <trkpt lat="47.23894" lon="6.04976">
        <ele>428</ele>
        <time>2021-03-07T09:16:20Z</time>
      </trkpt>
      <trkpt lat="47.23893" lon="6.04972">
        <ele>428</ele>
        <time>2021-03-07T09:16:21Z</time>
      </trkpt>
      <trkpt lat="47.23892" lon="6.04969">
        <ele>428</ele>
        <time>2021-03-07T09:16:22Z</time>
      </trkpt>
      <trkpt lat="47.23891" lon="6.04966">
        <ele>428.2</ele>
        <time>2021-03-07T09:16:23Z</time>
      </trkpt>
      <trkpt lat="47.23889" lon="6.04961">
        <ele>428.2</ele>
        <time>2021-03-07T09:16:24Z</time>
      </trkpt>
      <trkpt lat="47.23873" lon="6.04926">
        <ele>428.8</ele>
        <time>2021-03-07T09:16:32Z</time>
      </trkpt>
      <trkpt lat="47.23865" lon="6.04911">
        <ele>429.2</ele>
        <time>2021-03-07T09:16:36Z</time>
      </trkpt>
      <trkpt lat="47.23863" lon="6.04907">
        <ele>429.4</ele>
        <time>2021-03-07T09:16:37Z</time>
      </trkpt>
      <trkpt lat="47.23858" lon="6.04898">
        <ele>429.6</ele>
        <time>2021-03-07T09:16:39Z</time>
      </trkpt>
      <trkpt lat="47.23856" lon="6.04893">
        <ele>429.6</ele>
        <time>2021-03-07T09:16:40Z</time>
      </trkpt>
      <trkpt lat="47.23849" lon="6.04879">
        <ele>430.4</ele>
        <time>2021-03-07T09:16:43Z</time>
      </trkpt>
      <trkpt lat="47.23849" lon="6.04875">
        <ele>430.8</ele>
        <time>2021-03-07T09:16:44Z</time>
      </trkpt>
      <trkpt lat="47.23847" lon="6.04861">
        <ele>431.2</ele>
        <time>2021-03-07T09:16:47Z</time>
      </trkpt>
      <trkpt lat="47.23846" lon="6.04857">
        <ele>431.2</ele>
        <time>2021-03-07T09:16:48Z</time>
      </trkpt>
      <trkpt lat="47.23845" lon="6.04852">
        <ele>431.4</ele>
        <time>2021-03-07T09:16:49Z</time>
      </trkpt>
      <trkpt lat="47.23844" lon="6.04846">
        <ele>431.4</ele>
        <time>2021-03-07T09:16:50Z</time>
      </trkpt>
      <trkpt lat="47.23843" lon="6.04841">
        <ele>431.6</ele>
        <time>2021-03-07T09:16:51Z</time>
      </trkpt>
      <trkpt lat="47.2384" lon="6.04835">
        <ele>431.6</ele>
        <time>2021-03-07T09:16:52Z</time>
      </trkpt>
      <trkpt lat="47.23838" lon="6.04828">
        <ele>431.6</ele>
        <time>2021-03-07T09:16:53Z</time>
      </trkpt>
      <trkpt lat="47.23835" lon="6.04822">
        <ele>431.8</ele>
        <time>2021-03-07T09:16:54Z</time>
      </trkpt>
      <trkpt lat="47.23833" lon="6.04816">
        <ele>431.8</ele>
        <time>2021-03-07T09:16:55Z</time>
      </trkpt>
      <trkpt lat="47.23831" lon="6.04811">
        <ele>431.8</ele>
        <time>2021-03-07T09:16:56Z</time>
      </trkpt>
      <trkpt lat="47.2383" lon="6.04805">
        <ele>432</ele>
        <time>2021-03-07T09:16:57Z</time>
      </trkpt>
      <trkpt lat="47.23828" lon="6.04799">
        <ele>432</ele>
        <time>2021-03-07T09:16:58Z</time>
      </trkpt>
      <trkpt lat="47.23825" lon="6.04793">
        <ele>432</ele>
        <time>2021-03-07T09:16:59Z</time>
      </trkpt>
      <trkpt lat="47.23823" lon="6.04789">
        <ele>432</ele>
        <time>2021-03-07T09:17:00Z</time>
      </trkpt>
      <trkpt lat="47.2382" lon="6.04784">
        <ele>432</ele>
        <time>2021-03-07T09:17:01Z</time>
      </trkpt>
      <trkpt lat="47.23817" lon="6.0478">
        <ele>432</ele>
        <time>2021-03-07T09:17:02Z</time>
      </trkpt>
      <trkpt lat="47.23815" lon="6.04776">
        <ele>432</ele>
        <time>2021-03-07T09:17:03Z</time>
      </trkpt>
      <trkpt lat="47.23813" lon="6.04772">
        <ele>432.2</ele>
        <time>2021-03-07T09:17:04Z</time>
      </trkpt>
      <trkpt lat="47.23811" lon="6.04769">
        <ele>432.2</ele>
        <time>2021-03-07T09:17:05Z</time>
      </trkpt>
      <trkpt lat="47.23813" lon="6.04769">
        <ele>432.2</ele>
        <time>2021-03-07T09:17:06Z</time>
      </trkpt>
      <trkpt lat="47.23813" lon="6.04767">
        <ele>432.2</ele>
        <time>2021-03-07T09:17:07Z</time>
      </trkpt>
      <trkpt lat="47.23813" lon="6.04766">
        <ele>432.4</ele>
        <time>2021-03-07T09:17:08Z</time>
      </trkpt>
      <trkpt lat="47.23812" lon="6.04764">
        <ele>432.4</ele>
        <time>2021-03-07T09:17:09Z</time>
      </trkpt>
      <trkpt lat="47.23812" lon="6.04762">
        <ele>432.6</ele>
        <time>2021-03-07T09:17:10Z</time>
      </trkpt>
      <trkpt lat="47.2381" lon="6.0476">
        <ele>432.6</ele>
        <time>2021-03-07T09:17:11Z</time>
      </trkpt>
      <trkpt lat="47.23809" lon="6.0476">
        <ele>432.6</ele>
        <time>2021-03-07T09:17:12Z</time>
      </trkpt>
      <trkpt lat="47.23808" lon="6.04764">
        <ele>432.8</ele>
        <time>2021-03-07T09:17:14Z</time>
      </trkpt>
      <trkpt lat="47.23807" lon="6.04765">
        <ele>433</ele>
        <time>2021-03-07T09:17:15Z</time>
      </trkpt>
      <trkpt lat="47.23805" lon="6.04765">
        <ele>433</ele>
        <time>2021-03-07T09:17:16Z</time>
      </trkpt>
      <trkpt lat="47.23804" lon="6.04763">
        <ele>433</ele>
        <time>2021-03-07T09:17:17Z</time>
      </trkpt>
      <trkpt lat="47.23796" lon="6.04754">
        <ele>433.2</ele>
        <time>2021-03-07T09:17:21Z</time>
      </trkpt>
      <trkpt lat="47.23794" lon="6.04752">
        <ele>433.4</ele>
        <time>2021-03-07T09:17:22Z</time>
      </trkpt>
      <trkpt lat="47.23792" lon="6.0475">
        <ele>433.6</ele>
        <time>2021-03-07T09:17:23Z</time>
      </trkpt>
      <trkpt lat="47.23789" lon="6.04748">
        <ele>433.6</ele>
        <time>2021-03-07T09:17:24Z</time>
      </trkpt>
      <trkpt lat="47.23783" lon="6.04738">
        <ele>434.6</ele>
        <time>2021-03-07T09:17:28Z</time>
      </trkpt>
      <trkpt lat="47.23782" lon="6.04735">
        <ele>435</ele>
        <time>2021-03-07T09:17:29Z</time>
      </trkpt>
      <trkpt lat="47.23782" lon="6.04732">
        <ele>435.4</ele>
        <time>2021-03-07T09:17:30Z</time>
      </trkpt>
      <trkpt lat="47.23782" lon="6.04728">
        <ele>435.4</ele>
        <time>2021-03-07T09:17:31Z</time>
      </trkpt>
      <trkpt lat="47.23781" lon="6.04723">
        <ele>435.8</ele>
        <time>2021-03-07T09:17:32Z</time>
      </trkpt>
      <trkpt lat="47.2378" lon="6.04719">
        <ele>435.8</ele>
        <time>2021-03-07T09:17:33Z</time>
      </trkpt>
      <trkpt lat="47.23779" lon="6.04715">
        <ele>435.8</ele>
        <time>2021-03-07T09:17:34Z</time>
      </trkpt>
      <trkpt lat="47.23778" lon="6.0471">
        <ele>435.8</ele>
        <time>2021-03-07T09:17:35Z</time>
      </trkpt>
      <trkpt lat="47.23778" lon="6.04706">
        <ele>435.8</ele>
        <time>2021-03-07T09:17:36Z</time>
      </trkpt>
      <trkpt lat="47.23777" lon="6.04702">
        <ele>436</ele>
        <time>2021-03-07T09:17:37Z</time>
      </trkpt>
      <trkpt lat="47.23777" lon="6.04698">
        <ele>436</ele>
        <time>2021-03-07T09:17:38Z</time>
      </trkpt>
      <trkpt lat="47.23777" lon="6.04694">
        <ele>436</ele>
        <time>2021-03-07T09:17:39Z</time>
      </trkpt>
      <trkpt lat="47.23776" lon="6.04691">
        <ele>435.8</ele>
        <time>2021-03-07T09:17:40Z</time>
      </trkpt>
      <trkpt lat="47.23774" lon="6.04689">
        <ele>435.8</ele>
        <time>2021-03-07T09:17:41Z</time>
      </trkpt>
      <trkpt lat="47.23774" lon="6.04687">
        <ele>435.6</ele>
        <time>2021-03-07T09:17:42Z</time>
      </trkpt>
      <trkpt lat="47.23773" lon="6.04684">
        <ele>435.6</ele>
        <time>2021-03-07T09:17:43Z</time>
      </trkpt>
      <trkpt lat="47.23773" lon="6.04681">
        <ele>435.6</ele>
        <time>2021-03-07T09:17:44Z</time>
      </trkpt>
      <trkpt lat="47.23772" lon="6.04681">
        <ele>435.6</ele>
        <time>2021-03-07T09:17:45Z</time>
      </trkpt>
      <trkpt lat="47.23771" lon="6.04681">
        <ele>435.4</ele>
        <time>2021-03-07T09:17:46Z</time>
      </trkpt>
      <trkpt lat="47.23771" lon="6.04681">
        <ele>435.4</ele>
        <time>2021-03-07T09:17:47Z</time>
      </trkpt>
      <trkpt lat="47.23771" lon="6.04683">
        <ele>435.4</ele>
        <time>2021-03-07T09:17:50Z</time>
      </trkpt>
      <trkpt lat="47.23774" lon="6.04694">
        <ele>435.4</ele>
        <time>2021-03-07T09:17:55Z</time>
      </trkpt>
      <trkpt lat="47.23777" lon="6.047">
        <ele>435.4</ele>
        <time>2021-03-07T09:17:58Z</time>
      </trkpt>
      <trkpt lat="47.23778" lon="6.047">
        <ele>435.4</ele>
        <time>2021-03-07T09:17:59Z</time>
      </trkpt>
      <trkpt lat="47.23779" lon="6.04699">
        <ele>435.4</ele>
        <time>2021-03-07T09:18:00Z</time>
      </trkpt>
      <trkpt lat="47.23783" lon="6.04694">
        <ele>435.2</ele>
        <time>2021-03-07T09:18:03Z</time>
      </trkpt>
      <trkpt lat="47.23783" lon="6.04691">
        <ele>435.2</ele>
        <time>2021-03-07T09:18:04Z</time>
      </trkpt>
      <trkpt lat="47.23783" lon="6.04689">
        <ele>435.2</ele>
        <time>2021-03-07T09:18:05Z</time>
      </trkpt>
      <trkpt lat="47.23783" lon="6.04688">
        <ele>435</ele>
        <time>2021-03-07T09:18:06Z</time>
      </trkpt>
      <trkpt lat="47.23783" lon="6.04686">
        <ele>434.4</ele>
        <time>2021-03-07T09:18:07Z</time>
      </trkpt>
      <trkpt lat="47.23784" lon="6.04684">
        <ele>434</ele>
        <time>2021-03-07T09:18:08Z</time>
      </trkpt>
      <trkpt lat="47.23785" lon="6.04683">
        <ele>433.6</ele>
        <time>2021-03-07T09:18:09Z</time>
      </trkpt>
      <trkpt lat="47.23788" lon="6.0468">
        <ele>433.2</ele>
        <time>2021-03-07T09:18:11Z</time>
      </trkpt>
      <trkpt lat="47.23792" lon="6.04677">
        <ele>432.8</ele>
        <time>2021-03-07T09:18:12Z</time>
      </trkpt>
      <trkpt lat="47.23793" lon="6.04677">
        <ele>432.4</ele>
        <time>2021-03-07T09:18:13Z</time>
      </trkpt>
      <trkpt lat="47.23795" lon="6.04675">
        <ele>432.2</ele>
        <time>2021-03-07T09:18:14Z</time>
      </trkpt>
      <trkpt lat="47.23796" lon="6.04673">
        <ele>431.6</ele>
        <time>2021-03-07T09:18:15Z</time>
      </trkpt>
      <trkpt lat="47.23798" lon="6.0467">
        <ele>431.2</ele>
        <time>2021-03-07T09:18:16Z</time>
      </trkpt>
      <trkpt lat="47.238" lon="6.04668">
        <ele>430.4</ele>
        <time>2021-03-07T09:18:17Z</time>
      </trkpt>
      <trkpt lat="47.23801" lon="6.04666">
        <ele>430</ele>
        <time>2021-03-07T09:18:18Z</time>
      </trkpt>
      <trkpt lat="47.23803" lon="6.04664">
        <ele>429</ele>
        <time>2021-03-07T09:18:19Z</time>
      </trkpt>
      <trkpt lat="47.23808" lon="6.04663">
        <ele>427.2</ele>
        <time>2021-03-07T09:18:21Z</time>
      </trkpt>
      <trkpt lat="47.23809" lon="6.04662">
        <ele>426.4</ele>
        <time>2021-03-07T09:18:22Z</time>
      </trkpt>
      <trkpt lat="47.23811" lon="6.0466">
        <ele>426</ele>
        <time>2021-03-07T09:18:23Z</time>
      </trkpt>
      <trkpt lat="47.23814" lon="6.04653">
        <ele>425.4</ele>
        <time>2021-03-07T09:18:25Z</time>
      </trkpt>
      <trkpt lat="47.23815" lon="6.04649">
        <ele>424.6</ele>
        <time>2021-03-07T09:18:26Z</time>
      </trkpt>
      <trkpt lat="47.23815" lon="6.04648">
        <ele>424.2</ele>
        <time>2021-03-07T09:18:27Z</time>
      </trkpt>
      <trkpt lat="47.23816" lon="6.04645">
        <ele>423.6</ele>
        <time>2021-03-07T09:18:28Z</time>
      </trkpt>
      <trkpt lat="47.23819" lon="6.04641">
        <ele>423.2</ele>
        <time>2021-03-07T09:18:29Z</time>
      </trkpt>
      <trkpt lat="47.23821" lon="6.04638">
        <ele>422.6</ele>
        <time>2021-03-07T09:18:30Z</time>
      </trkpt>
      <trkpt lat="47.23821" lon="6.04634">
        <ele>422.4</ele>
        <time>2021-03-07T09:18:31Z</time>
      </trkpt>
      <trkpt lat="47.23823" lon="6.0463">
        <ele>422</ele>
        <time>2021-03-07T09:18:32Z</time>
      </trkpt>
      <trkpt lat="47.23828" lon="6.0462">
        <ele>421.2</ele>
        <time>2021-03-07T09:18:34Z</time>
      </trkpt>
      <trkpt lat="47.2383" lon="6.04617">
        <ele>420.6</ele>
        <time>2021-03-07T09:18:35Z</time>
      </trkpt>
      <trkpt lat="47.23832" lon="6.04614">
        <ele>420.4</ele>
        <time>2021-03-07T09:18:36Z</time>
      </trkpt>
      <trkpt lat="47.23833" lon="6.04612">
        <ele>419.2</ele>
        <time>2021-03-07T09:18:37Z</time>
      </trkpt>
      <trkpt lat="47.23833" lon="6.04612">
        <ele>419</ele>
        <time>2021-03-07T09:18:38Z</time>
      </trkpt>
      <trkpt lat="47.23834" lon="6.0461">
        <ele>417.8</ele>
        <time>2021-03-07T09:18:39Z</time>
      </trkpt>
      <trkpt lat="47.23835" lon="6.04608">
        <ele>417.4</ele>
        <time>2021-03-07T09:18:40Z</time>
      </trkpt>
      <trkpt lat="47.2384" lon="6.04604">
        <ele>416.8</ele>
        <time>2021-03-07T09:18:41Z</time>
      </trkpt>
      <trkpt lat="47.23842" lon="6.04601">
        <ele>416.4</ele>
        <time>2021-03-07T09:18:42Z</time>
      </trkpt>
      <trkpt lat="47.23845" lon="6.04597">
        <ele>415.6</ele>
        <time>2021-03-07T09:18:44Z</time>
      </trkpt>
      <trkpt lat="47.23847" lon="6.04598">
        <ele>415.4</ele>
        <time>2021-03-07T09:18:45Z</time>
      </trkpt>
      <trkpt lat="47.2385" lon="6.04597">
        <ele>415.2</ele>
        <time>2021-03-07T09:18:46Z</time>
      </trkpt>
      <trkpt lat="47.23853" lon="6.04597">
        <ele>414.8</ele>
        <time>2021-03-07T09:18:47Z</time>
      </trkpt>
      <trkpt lat="47.23856" lon="6.04597">
        <ele>414.2</ele>
        <time>2021-03-07T09:18:48Z</time>
      </trkpt>
      <trkpt lat="47.2386" lon="6.04596">
        <ele>413.6</ele>
        <time>2021-03-07T09:18:50Z</time>
      </trkpt>
      <trkpt lat="47.2386" lon="6.04596">
        <ele>413.4</ele>
        <time>2021-03-07T09:18:51Z</time>
      </trkpt>
      <trkpt lat="47.23861" lon="6.04597">
        <ele>413</ele>
        <time>2021-03-07T09:18:52Z</time>
      </trkpt>
      <trkpt lat="47.23861" lon="6.04597">
        <ele>412.8</ele>
        <time>2021-03-07T09:18:53Z</time>
      </trkpt>
      <trkpt lat="47.23861" lon="6.04597">
        <ele>412.2</ele>
        <time>2021-03-07T09:18:54Z</time>
      </trkpt>
      <trkpt lat="47.23864" lon="6.04594">
        <ele>412</ele>
        <time>2021-03-07T09:18:55Z</time>
      </trkpt>
      <trkpt lat="47.23866" lon="6.04592">
        <ele>411.8</ele>
        <time>2021-03-07T09:18:56Z</time>
      </trkpt>
      <trkpt lat="47.23867" lon="6.04588">
        <ele>411.4</ele>
        <time>2021-03-07T09:18:57Z</time>
      </trkpt>
      <trkpt lat="47.23873" lon="6.04583">
        <ele>411</ele>
        <time>2021-03-07T09:18:59Z</time>
      </trkpt>
      <trkpt lat="47.23876" lon="6.04581">
        <ele>410.4</ele>
        <time>2021-03-07T09:19:00Z</time>
      </trkpt>
      <trkpt lat="47.23876" lon="6.04582">
        <ele>410</ele>
        <time>2021-03-07T09:19:01Z</time>
      </trkpt>
      <trkpt lat="47.23876" lon="6.04583">
        <ele>410</ele>
        <time>2021-03-07T09:19:02Z</time>
      </trkpt>
      <trkpt lat="47.23879" lon="6.04582">
        <ele>409.6</ele>
        <time>2021-03-07T09:19:03Z</time>
      </trkpt>
      <trkpt lat="47.23879" lon="6.04582">
        <ele>409.4</ele>
        <time>2021-03-07T09:19:04Z</time>
      </trkpt>
      <trkpt lat="47.23879" lon="6.04582">
        <ele>409.2</ele>
        <time>2021-03-07T09:19:05Z</time>
      </trkpt>
      <trkpt lat="47.2388" lon="6.04582">
        <ele>408.4</ele>
        <time>2021-03-07T09:19:09Z</time>
      </trkpt>
      <trkpt lat="47.23878" lon="6.0458">
        <ele>408.2</ele>
        <time>2021-03-07T09:19:12Z</time>
      </trkpt>
      <trkpt lat="47.23875" lon="6.04578">
        <ele>408.2</ele>
        <time>2021-03-07T09:19:14Z</time>
      </trkpt>
      <trkpt lat="47.23868" lon="6.04573">
        <ele>408.6</ele>
        <time>2021-03-07T09:19:19Z</time>
      </trkpt>
      <trkpt lat="47.23866" lon="6.04572">
        <ele>409</ele>
        <time>2021-03-07T09:19:20Z</time>
      </trkpt>
      <trkpt lat="47.23861" lon="6.04571">
        <ele>409.4</ele>
        <time>2021-03-07T09:19:22Z</time>
      </trkpt>
      <trkpt lat="47.23859" lon="6.0457">
        <ele>409.4</ele>
        <time>2021-03-07T09:19:23Z</time>
      </trkpt>
      <trkpt lat="47.23857" lon="6.0457">
        <ele>410</ele>
        <time>2021-03-07T09:19:24Z</time>
      </trkpt>
      <trkpt lat="47.23856" lon="6.0457">
        <ele>410.2</ele>
        <time>2021-03-07T09:19:25Z</time>
      </trkpt>
      <trkpt lat="47.23855" lon="6.0457">
        <ele>410.4</ele>
        <time>2021-03-07T09:19:26Z</time>
      </trkpt>
      <trkpt lat="47.23854" lon="6.04569">
        <ele>410.8</ele>
        <time>2021-03-07T09:19:27Z</time>
      </trkpt>
      <trkpt lat="47.23852" lon="6.04567">
        <ele>411.2</ele>
        <time>2021-03-07T09:19:29Z</time>
      </trkpt>
      <trkpt lat="47.2385" lon="6.04567">
        <ele>411.4</ele>
        <time>2021-03-07T09:19:30Z</time>
      </trkpt>
      <trkpt lat="47.23849" lon="6.04565">
        <ele>411.8</ele>
        <time>2021-03-07T09:19:31Z</time>
      </trkpt>
      <trkpt lat="47.23846" lon="6.04561">
        <ele>412.6</ele>
        <time>2021-03-07T09:19:33Z</time>
      </trkpt>
      <trkpt lat="47.23844" lon="6.04559">
        <ele>412.8</ele>
        <time>2021-03-07T09:19:34Z</time>
      </trkpt>
      <trkpt lat="47.23843" lon="6.04559">
        <ele>413.2</ele>
        <time>2021-03-07T09:19:35Z</time>
      </trkpt>
      <trkpt lat="47.23842" lon="6.04558">
        <ele>413.4</ele>
        <time>2021-03-07T09:19:36Z</time>
      </trkpt>
      <trkpt lat="47.23841" lon="6.04558">
        <ele>413.6</ele>
        <time>2021-03-07T09:19:37Z</time>
      </trkpt>
      <trkpt lat="47.23839" lon="6.04557">
        <ele>413.8</ele>
        <time>2021-03-07T09:19:38Z</time>
      </trkpt>
      <trkpt lat="47.23837" lon="6.04555">
        <ele>414</ele>
        <time>2021-03-07T09:19:39Z</time>
      </trkpt>
      <trkpt lat="47.23835" lon="6.04553">
        <ele>414</ele>
        <time>2021-03-07T09:19:40Z</time>
      </trkpt>
      <trkpt lat="47.23833" lon="6.04551">
        <ele>414.2</ele>
        <time>2021-03-07T09:19:41Z</time>
      </trkpt>
      <trkpt lat="47.23831" lon="6.04548">
        <ele>414.6</ele>
        <time>2021-03-07T09:19:42Z</time>
      </trkpt>
      <trkpt lat="47.23829" lon="6.04545">
        <ele>414.6</ele>
        <time>2021-03-07T09:19:43Z</time>
      </trkpt>
      <trkpt lat="47.23828" lon="6.04543">
        <ele>414.8</ele>
        <time>2021-03-07T09:19:44Z</time>
      </trkpt>
      <trkpt lat="47.23828" lon="6.04543">
        <ele>414.8</ele>
        <time>2021-03-07T09:19:45Z</time>
      </trkpt>
      <trkpt lat="47.23827" lon="6.04541">
        <ele>415</ele>
        <time>2021-03-07T09:19:46Z</time>
      </trkpt>
      <trkpt lat="47.23825" lon="6.04539">
        <ele>415</ele>
        <time>2021-03-07T09:19:47Z</time>
      </trkpt>
      <trkpt lat="47.23823" lon="6.04536">
        <ele>415.2</ele>
        <time>2021-03-07T09:19:48Z</time>
      </trkpt>
      <trkpt lat="47.2382" lon="6.04534">
        <ele>415.2</ele>
        <time>2021-03-07T09:19:49Z</time>
      </trkpt>
      <trkpt lat="47.23818" lon="6.04532">
        <ele>415.6</ele>
        <time>2021-03-07T09:19:50Z</time>
      </trkpt>
      <trkpt lat="47.23817" lon="6.0453">
        <ele>415.6</ele>
        <time>2021-03-07T09:19:51Z</time>
      </trkpt>
      <trkpt lat="47.23816" lon="6.04528">
        <ele>415.8</ele>
        <time>2021-03-07T09:19:52Z</time>
      </trkpt>
      <trkpt lat="47.23813" lon="6.04525">
        <ele>415.8</ele>
        <time>2021-03-07T09:19:53Z</time>
      </trkpt>
      <trkpt lat="47.23811" lon="6.04523">
        <ele>416</ele>
        <time>2021-03-07T09:19:54Z</time>
      </trkpt>
      <trkpt lat="47.2381" lon="6.04521">
        <ele>416.2</ele>
        <time>2021-03-07T09:19:55Z</time>
      </trkpt>
      <trkpt lat="47.23808" lon="6.04519">
        <ele>416.4</ele>
        <time>2021-03-07T09:19:56Z</time>
      </trkpt>
      <trkpt lat="47.23807" lon="6.04519">
        <ele>416.6</ele>
        <time>2021-03-07T09:19:57Z</time>
      </trkpt>
      <trkpt lat="47.23806" lon="6.04517">
        <ele>416.8</ele>
        <time>2021-03-07T09:19:58Z</time>
      </trkpt>
      <trkpt lat="47.23805" lon="6.04514">
        <ele>417</ele>
        <time>2021-03-07T09:19:59Z</time>
      </trkpt>
      <trkpt lat="47.23804" lon="6.04512">
        <ele>417</ele>
        <time>2021-03-07T09:20:00Z</time>
      </trkpt>
      <trkpt lat="47.23801" lon="6.04511">
        <ele>417.2</ele>
        <time>2021-03-07T09:20:01Z</time>
      </trkpt>
      <trkpt lat="47.23799" lon="6.0451">
        <ele>417.4</ele>
        <time>2021-03-07T09:20:02Z</time>
      </trkpt>
      <trkpt lat="47.23797" lon="6.04509">
        <ele>417.6</ele>
        <time>2021-03-07T09:20:03Z</time>
      </trkpt>
      <trkpt lat="47.23795" lon="6.04507">
        <ele>417.8</ele>
        <time>2021-03-07T09:20:04Z</time>
      </trkpt>
      <trkpt lat="47.23794" lon="6.04505">
        <ele>418</ele>
        <time>2021-03-07T09:20:05Z</time>
      </trkpt>
      <trkpt lat="47.23793" lon="6.04503">
        <ele>418</ele>
        <time>2021-03-07T09:20:06Z</time>
      </trkpt>
      <trkpt lat="47.23792" lon="6.04502">
        <ele>418</ele>
        <time>2021-03-07T09:20:07Z</time>
      </trkpt>
      <trkpt lat="47.2379" lon="6.04499">
        <ele>418.2</ele>
        <time>2021-03-07T09:20:08Z</time>
      </trkpt>
      <trkpt lat="47.2379" lon="6.04497">
        <ele>418.4</ele>
        <time>2021-03-07T09:20:09Z</time>
      </trkpt>
      <trkpt lat="47.2379" lon="6.04495">
        <ele>418.4</ele>
        <time>2021-03-07T09:20:10Z</time>
      </trkpt>
      <trkpt lat="47.23788" lon="6.04493">
        <ele>418.4</ele>
        <time>2021-03-07T09:20:11Z</time>
      </trkpt>
      <trkpt lat="47.23786" lon="6.04491">
        <ele>418.6</ele>
        <time>2021-03-07T09:20:12Z</time>
      </trkpt>
      <trkpt lat="47.23784" lon="6.04489">
        <ele>418.8</ele>
        <time>2021-03-07T09:20:13Z</time>
      </trkpt>
      <trkpt lat="47.23782" lon="6.04487">
        <ele>419</ele>
        <time>2021-03-07T09:20:14Z</time>
      </trkpt>
      <trkpt lat="47.2378" lon="6.04485">
        <ele>419.2</ele>
        <time>2021-03-07T09:20:15Z</time>
      </trkpt>
      <trkpt lat="47.23779" lon="6.04483">
        <ele>419.6</ele>
        <time>2021-03-07T09:20:16Z</time>
      </trkpt>
      <trkpt lat="47.23777" lon="6.04482">
        <ele>419.6</ele>
        <time>2021-03-07T09:20:17Z</time>
      </trkpt>
      <trkpt lat="47.23775" lon="6.04481">
        <ele>419.8</ele>
        <time>2021-03-07T09:20:18Z</time>
      </trkpt>
      <trkpt lat="47.23774" lon="6.04481">
        <ele>419.8</ele>
        <time>2021-03-07T09:20:19Z</time>
      </trkpt>
      <trkpt lat="47.23772" lon="6.04479">
        <ele>420</ele>
        <time>2021-03-07T09:20:20Z</time>
      </trkpt>
      <trkpt lat="47.23771" lon="6.04478">
        <ele>420.2</ele>
        <time>2021-03-07T09:20:21Z</time>
      </trkpt>
      <trkpt lat="47.23769" lon="6.04476">
        <ele>420.6</ele>
        <time>2021-03-07T09:20:22Z</time>
      </trkpt>
      <trkpt lat="47.23769" lon="6.04476">
        <ele>420.8</ele>
        <time>2021-03-07T09:20:23Z</time>
      </trkpt>
      <trkpt lat="47.23768" lon="6.04476">
        <ele>421</ele>
        <time>2021-03-07T09:20:24Z</time>
      </trkpt>
      <trkpt lat="47.23767" lon="6.04475">
        <ele>421.4</ele>
        <time>2021-03-07T09:20:25Z</time>
      </trkpt>
      <trkpt lat="47.23766" lon="6.04474">
        <ele>421.4</ele>
        <time>2021-03-07T09:20:26Z</time>
      </trkpt>
      <trkpt lat="47.23765" lon="6.04473">
        <ele>421.6</ele>
        <time>2021-03-07T09:20:27Z</time>
      </trkpt>
      <trkpt lat="47.23763" lon="6.04472">
        <ele>421.6</ele>
        <time>2021-03-07T09:20:28Z</time>
      </trkpt>
      <trkpt lat="47.23761" lon="6.04471">
        <ele>421.8</ele>
        <time>2021-03-07T09:20:29Z</time>
      </trkpt>
      <trkpt lat="47.2376" lon="6.0447">
        <ele>422</ele>
        <time>2021-03-07T09:20:30Z</time>
      </trkpt>
      <trkpt lat="47.23759" lon="6.0447">
        <ele>422.2</ele>
        <time>2021-03-07T09:20:31Z</time>
      </trkpt>
      <trkpt lat="47.23758" lon="6.04469">
        <ele>422.2</ele>
        <time>2021-03-07T09:20:32Z</time>
      </trkpt>
      <trkpt lat="47.23756" lon="6.04468">
        <ele>422.6</ele>
        <time>2021-03-07T09:20:33Z</time>
      </trkpt>
      <trkpt lat="47.23755" lon="6.04468">
        <ele>422.6</ele>
        <time>2021-03-07T09:20:34Z</time>
      </trkpt>
      <trkpt lat="47.23754" lon="6.04467">
        <ele>423</ele>
        <time>2021-03-07T09:20:35Z</time>
      </trkpt>
      <trkpt lat="47.23753" lon="6.04466">
        <ele>423.2</ele>
        <time>2021-03-07T09:20:36Z</time>
      </trkpt>
      <trkpt lat="47.23752" lon="6.04465">
        <ele>423.4</ele>
        <time>2021-03-07T09:20:37Z</time>
      </trkpt>
      <trkpt lat="47.23751" lon="6.04464">
        <ele>423.6</ele>
        <time>2021-03-07T09:20:38Z</time>
      </trkpt>
      <trkpt lat="47.2375" lon="6.04464">
        <ele>423.8</ele>
        <time>2021-03-07T09:20:39Z</time>
      </trkpt>
      <trkpt lat="47.23749" lon="6.04463">
        <ele>424</ele>
        <time>2021-03-07T09:20:40Z</time>
      </trkpt>
      <trkpt lat="47.23748" lon="6.04462">
        <ele>424.2</ele>
        <time>2021-03-07T09:20:41Z</time>
      </trkpt>
      <trkpt lat="47.23747" lon="6.0446">
        <ele>424.6</ele>
        <time>2021-03-07T09:20:42Z</time>
      </trkpt>
      <trkpt lat="47.23746" lon="6.04459">
        <ele>424.6</ele>
        <time>2021-03-07T09:20:43Z</time>
      </trkpt>
      <trkpt lat="47.23745" lon="6.04457">
        <ele>425</ele>
        <time>2021-03-07T09:20:44Z</time>
      </trkpt>
      <trkpt lat="47.23743" lon="6.04456">
        <ele>425</ele>
        <time>2021-03-07T09:20:45Z</time>
      </trkpt>
      <trkpt lat="47.23742" lon="6.04455">
        <ele>425.2</ele>
        <time>2021-03-07T09:20:46Z</time>
      </trkpt>
      <trkpt lat="47.23741" lon="6.04453">
        <ele>425.4</ele>
        <time>2021-03-07T09:20:47Z</time>
      </trkpt>
      <trkpt lat="47.2374" lon="6.04452">
        <ele>425.6</ele>
        <time>2021-03-07T09:20:48Z</time>
      </trkpt>
      <trkpt lat="47.23738" lon="6.04451">
        <ele>425.6</ele>
        <time>2021-03-07T09:20:49Z</time>
      </trkpt>
      <trkpt lat="47.23737" lon="6.0445">
        <ele>425.8</ele>
        <time>2021-03-07T09:20:50Z</time>
      </trkpt>
      <trkpt lat="47.23735" lon="6.04449">
        <ele>426.2</ele>
        <time>2021-03-07T09:20:51Z</time>
      </trkpt>
      <trkpt lat="47.23733" lon="6.04447">
        <ele>426.2</ele>
        <time>2021-03-07T09:20:52Z</time>
      </trkpt>
      <trkpt lat="47.23732" lon="6.04446">
        <ele>426.6</ele>
        <time>2021-03-07T09:20:53Z</time>
      </trkpt>
      <trkpt lat="47.2373" lon="6.04445">
        <ele>426.6</ele>
        <time>2021-03-07T09:20:54Z</time>
      </trkpt>
      <trkpt lat="47.23729" lon="6.04443">
        <ele>426.8</ele>
        <time>2021-03-07T09:20:55Z</time>
      </trkpt>
      <trkpt lat="47.23728" lon="6.04442">
        <ele>426.8</ele>
        <time>2021-03-07T09:20:56Z</time>
      </trkpt>
      <trkpt lat="47.23727" lon="6.0444">
        <ele>427.2</ele>
        <time>2021-03-07T09:20:57Z</time>
      </trkpt>
      <trkpt lat="47.23727" lon="6.04439">
        <ele>427.4</ele>
        <time>2021-03-07T09:20:58Z</time>
      </trkpt>
      <trkpt lat="47.23725" lon="6.04438">
        <ele>427.8</ele>
        <time>2021-03-07T09:20:59Z</time>
      </trkpt>
      <trkpt lat="47.23723" lon="6.04437">
        <ele>427.8</ele>
        <time>2021-03-07T09:21:00Z</time>
      </trkpt>
      <trkpt lat="47.23723" lon="6.04437">
        <ele>428</ele>
        <time>2021-03-07T09:21:01Z</time>
      </trkpt>
      <trkpt lat="47.23722" lon="6.04437">
        <ele>428.2</ele>
        <time>2021-03-07T09:21:02Z</time>
      </trkpt>
      <trkpt lat="47.23722" lon="6.04436">
        <ele>428.2</ele>
        <time>2021-03-07T09:21:03Z</time>
      </trkpt>
      <trkpt lat="47.23721" lon="6.04433">
        <ele>428.2</ele>
        <time>2021-03-07T09:21:04Z</time>
      </trkpt>
      <trkpt lat="47.23719" lon="6.04431">
        <ele>428.4</ele>
        <time>2021-03-07T09:21:05Z</time>
      </trkpt>
      <trkpt lat="47.23718" lon="6.04429">
        <ele>428.4</ele>
        <time>2021-03-07T09:21:06Z</time>
      </trkpt>
      <trkpt lat="47.23717" lon="6.04429">
        <ele>428.6</ele>
        <time>2021-03-07T09:21:07Z</time>
      </trkpt>
      <trkpt lat="47.23716" lon="6.04428">
        <ele>429</ele>
        <time>2021-03-07T09:21:08Z</time>
      </trkpt>
      <trkpt lat="47.23714" lon="6.04426">
        <ele>429</ele>
        <time>2021-03-07T09:21:09Z</time>
      </trkpt>
      <trkpt lat="47.23711" lon="6.04425">
        <ele>429</ele>
        <time>2021-03-07T09:21:10Z</time>
      </trkpt>
      <trkpt lat="47.2371" lon="6.04424">
        <ele>429</ele>
        <time>2021-03-07T09:21:11Z</time>
      </trkpt>
      <trkpt lat="47.23708" lon="6.04424">
        <ele>429.2</ele>
        <time>2021-03-07T09:21:12Z</time>
      </trkpt>
      <trkpt lat="47.23708" lon="6.04422">
        <ele>429.4</ele>
        <time>2021-03-07T09:21:13Z</time>
      </trkpt>
      <trkpt lat="47.23706" lon="6.0442">
        <ele>429.6</ele>
        <time>2021-03-07T09:21:14Z</time>
      </trkpt>
      <trkpt lat="47.23705" lon="6.04419">
        <ele>429.6</ele>
        <time>2021-03-07T09:21:15Z</time>
      </trkpt>
      <trkpt lat="47.23703" lon="6.04417">
        <ele>429.8</ele>
        <time>2021-03-07T09:21:16Z</time>
      </trkpt>
      <trkpt lat="47.237" lon="6.04415">
        <ele>429.8</ele>
        <time>2021-03-07T09:21:17Z</time>
      </trkpt>
      <trkpt lat="47.23698" lon="6.04412">
        <ele>430</ele>
        <time>2021-03-07T09:21:18Z</time>
      </trkpt>
      <trkpt lat="47.23696" lon="6.04411">
        <ele>430.2</ele>
        <time>2021-03-07T09:21:19Z</time>
      </trkpt>
      <trkpt lat="47.23694" lon="6.0441">
        <ele>430.2</ele>
        <time>2021-03-07T09:21:20Z</time>
      </trkpt>
      <trkpt lat="47.23691" lon="6.04408">
        <ele>430.4</ele>
        <time>2021-03-07T09:21:21Z</time>
      </trkpt>
      <trkpt lat="47.23688" lon="6.04408">
        <ele>430.4</ele>
        <time>2021-03-07T09:21:22Z</time>
      </trkpt>
      <trkpt lat="47.23687" lon="6.04407">
        <ele>430.8</ele>
        <time>2021-03-07T09:21:23Z</time>
      </trkpt>
      <trkpt lat="47.23687" lon="6.04407">
        <ele>430.8</ele>
        <time>2021-03-07T09:21:24Z</time>
      </trkpt>
      <trkpt lat="47.23687" lon="6.04407">
        <ele>431</ele>
        <time>2021-03-07T09:21:25Z</time>
      </trkpt>
      <trkpt lat="47.23687" lon="6.04406">
        <ele>431.2</ele>
        <time>2021-03-07T09:21:26Z</time>
      </trkpt>
      <trkpt lat="47.23687" lon="6.04404">
        <ele>431.4</ele>
        <time>2021-03-07T09:21:27Z</time>
      </trkpt>
      <trkpt lat="47.23687" lon="6.04402">
        <ele>431.4</ele>
        <time>2021-03-07T09:21:28Z</time>
      </trkpt>
      <trkpt lat="47.23687" lon="6.044">
        <ele>431.4</ele>
        <time>2021-03-07T09:21:29Z</time>
      </trkpt>
      <trkpt lat="47.23688" lon="6.04397">
        <ele>431.4</ele>
        <time>2021-03-07T09:21:30Z</time>
      </trkpt>
      <trkpt lat="47.23688" lon="6.04395">
        <ele>431.6</ele>
        <time>2021-03-07T09:21:31Z</time>
      </trkpt>
      <trkpt lat="47.23688" lon="6.04393">
        <ele>431.6</ele>
        <time>2021-03-07T09:21:32Z</time>
      </trkpt>
      <trkpt lat="47.23688" lon="6.04391">
        <ele>431.6</ele>
        <time>2021-03-07T09:21:33Z</time>
      </trkpt>
      <trkpt lat="47.23689" lon="6.04389">
        <ele>431.6</ele>
        <time>2021-03-07T09:21:34Z</time>
      </trkpt>
      <trkpt lat="47.23689" lon="6.04388">
        <ele>431.4</ele>
        <time>2021-03-07T09:21:37Z</time>
      </trkpt>
      <trkpt lat="47.23689" lon="6.04388">
        <ele>431</ele>
        <time>2021-03-07T09:21:53Z</time>
      </trkpt>
      <trkpt lat="47.2369" lon="6.04385">
        <ele>431</ele>
        <time>2021-03-07T09:22:18Z</time>
      </trkpt>
      <trkpt lat="47.23691" lon="6.04381">
        <ele>430.4</ele>
        <time>2021-03-07T09:22:43Z</time>
      </trkpt>
      <trkpt lat="47.23691" lon="6.04378">
        <ele>430.4</ele>
        <time>2021-03-07T09:22:44Z</time>
      </trkpt>
      <trkpt lat="47.23692" lon="6.04372">
        <ele>430.4</ele>
        <time>2021-03-07T09:22:46Z</time>
      </trkpt>
      <trkpt lat="47.23693" lon="6.04359">
        <ele>430.2</ele>
        <time>2021-03-07T09:22:49Z</time>
      </trkpt>
      <trkpt lat="47.23693" lon="6.04332">
        <ele>429.6</ele>
        <time>2021-03-07T09:22:53Z</time>
      </trkpt>
      <trkpt lat="47.23691" lon="6.04324">
        <ele>429.4</ele>
        <time>2021-03-07T09:22:54Z</time>
      </trkpt>
      <trkpt lat="47.23688" lon="6.04305">
        <ele>429</ele>
        <time>2021-03-07T09:22:56Z</time>
      </trkpt>
      <trkpt lat="47.23685" lon="6.04296">
        <ele>428.2</ele>
        <time>2021-03-07T09:22:57Z</time>
      </trkpt>
      <trkpt lat="47.23678" lon="6.04278">
        <ele>427.6</ele>
        <time>2021-03-07T09:22:59Z</time>
      </trkpt>
      <trkpt lat="47.23675" lon="6.04271">
        <ele>427.2</ele>
        <time>2021-03-07T09:23:00Z</time>
      </trkpt>
      <trkpt lat="47.23672" lon="6.04264">
        <ele>427</ele>
        <time>2021-03-07T09:23:01Z</time>
      </trkpt>
      <trkpt lat="47.2367" lon="6.04257">
        <ele>426.6</ele>
        <time>2021-03-07T09:23:02Z</time>
      </trkpt>
      <trkpt lat="47.23668" lon="6.04252">
        <ele>426.2</ele>
        <time>2021-03-07T09:23:03Z</time>
      </trkpt>
      <trkpt lat="47.23668" lon="6.04246">
        <ele>425.8</ele>
        <time>2021-03-07T09:23:04Z</time>
      </trkpt>
      <trkpt lat="47.23666" lon="6.0424">
        <ele>425.6</ele>
        <time>2021-03-07T09:23:05Z</time>
      </trkpt>
      <trkpt lat="47.23664" lon="6.04235">
        <ele>425.2</ele>
        <time>2021-03-07T09:23:06Z</time>
      </trkpt>
      <trkpt lat="47.23662" lon="6.04231">
        <ele>425</ele>
        <time>2021-03-07T09:23:07Z</time>
      </trkpt>
      <trkpt lat="47.23662" lon="6.04227">
        <ele>424.8</ele>
        <time>2021-03-07T09:23:08Z</time>
      </trkpt>
      <trkpt lat="47.23657" lon="6.04221">
        <ele>424.6</ele>
        <time>2021-03-07T09:23:10Z</time>
      </trkpt>
      <trkpt lat="47.23656" lon="6.04218">
        <ele>424.6</ele>
        <time>2021-03-07T09:23:11Z</time>
      </trkpt>
      <trkpt lat="47.23654" lon="6.04214">
        <ele>424.6</ele>
        <time>2021-03-07T09:23:12Z</time>
      </trkpt>
      <trkpt lat="47.23652" lon="6.04211">
        <ele>424.6</ele>
        <time>2021-03-07T09:23:13Z</time>
      </trkpt>
      <trkpt lat="47.23645" lon="6.04198">
        <ele>424.6</ele>
        <time>2021-03-07T09:23:17Z</time>
      </trkpt>
      <trkpt lat="47.23643" lon="6.04195">
        <ele>424.8</ele>
        <time>2021-03-07T09:23:18Z</time>
      </trkpt>
      <trkpt lat="47.23639" lon="6.0419">
        <ele>425.2</ele>
        <time>2021-03-07T09:23:20Z</time>
      </trkpt>
      <trkpt lat="47.23637" lon="6.04188">
        <ele>425.6</ele>
        <time>2021-03-07T09:23:21Z</time>
      </trkpt>
      <trkpt lat="47.23635" lon="6.04186">
        <ele>425.8</ele>
        <time>2021-03-07T09:23:22Z</time>
      </trkpt>
      <trkpt lat="47.23634" lon="6.04184">
        <ele>426.2</ele>
        <time>2021-03-07T09:23:23Z</time>
      </trkpt>
      <trkpt lat="47.23632" lon="6.04183">
        <ele>426.6</ele>
        <time>2021-03-07T09:23:24Z</time>
      </trkpt>
      <trkpt lat="47.2363" lon="6.04181">
        <ele>426.8</ele>
        <time>2021-03-07T09:23:25Z</time>
      </trkpt>
      <trkpt lat="47.23628" lon="6.04179">
        <ele>427</ele>
        <time>2021-03-07T09:23:26Z</time>
      </trkpt>
      <trkpt lat="47.2362" lon="6.0417">
        <ele>428.2</ele>
        <time>2021-03-07T09:23:30Z</time>
      </trkpt>
      <trkpt lat="47.23618" lon="6.04168">
        <ele>428.4</ele>
        <time>2021-03-07T09:23:31Z</time>
      </trkpt>
      <trkpt lat="47.23616" lon="6.04166">
        <ele>428.6</ele>
        <time>2021-03-07T09:23:32Z</time>
      </trkpt>
      <trkpt lat="47.23609" lon="6.04162">
        <ele>429.2</ele>
        <time>2021-03-07T09:23:35Z</time>
      </trkpt>
      <trkpt lat="47.23606" lon="6.04161">
        <ele>429.6</ele>
        <time>2021-03-07T09:23:36Z</time>
      </trkpt>
      <trkpt lat="47.23604" lon="6.0416">
        <ele>429.8</ele>
        <time>2021-03-07T09:23:37Z</time>
      </trkpt>
      <trkpt lat="47.23602" lon="6.0416">
        <ele>430.2</ele>
        <time>2021-03-07T09:23:38Z</time>
      </trkpt>
      <trkpt lat="47.23599" lon="6.0416">
        <ele>430.2</ele>
        <time>2021-03-07T09:23:39Z</time>
      </trkpt>
      <trkpt lat="47.23597" lon="6.0416">
        <ele>430.6</ele>
        <time>2021-03-07T09:23:40Z</time>
      </trkpt>
      <trkpt lat="47.23595" lon="6.04158">
        <ele>430.8</ele>
        <time>2021-03-07T09:23:41Z</time>
      </trkpt>
      <trkpt lat="47.23594" lon="6.04156">
        <ele>431</ele>
        <time>2021-03-07T09:23:42Z</time>
      </trkpt>
      <trkpt lat="47.23592" lon="6.04156">
        <ele>431.2</ele>
        <time>2021-03-07T09:23:43Z</time>
      </trkpt>
      <trkpt lat="47.2359" lon="6.04154">
        <ele>431.4</ele>
        <time>2021-03-07T09:23:44Z</time>
      </trkpt>
      <trkpt lat="47.23589" lon="6.04153">
        <ele>431.6</ele>
        <time>2021-03-07T09:23:45Z</time>
      </trkpt>
      <trkpt lat="47.23587" lon="6.04152">
        <ele>431.6</ele>
        <time>2021-03-07T09:23:46Z</time>
      </trkpt>
      <trkpt lat="47.23584" lon="6.0415">
        <ele>431.8</ele>
        <time>2021-03-07T09:23:47Z</time>
      </trkpt>
      <trkpt lat="47.23582" lon="6.04149">
        <ele>432</ele>
        <time>2021-03-07T09:23:48Z</time>
      </trkpt>
      <trkpt lat="47.2358" lon="6.04148">
        <ele>432.2</ele>
        <time>2021-03-07T09:23:49Z</time>
      </trkpt>
      <trkpt lat="47.23578" lon="6.04148">
        <ele>432.2</ele>
        <time>2021-03-07T09:23:50Z</time>
      </trkpt>
      <trkpt lat="47.23575" lon="6.04148">
        <ele>432.4</ele>
        <time>2021-03-07T09:23:51Z</time>
      </trkpt>
      <trkpt lat="47.23573" lon="6.04149">
        <ele>432.4</ele>
        <time>2021-03-07T09:23:52Z</time>
      </trkpt>
      <trkpt lat="47.23571" lon="6.04149">
        <ele>432.6</ele>
        <time>2021-03-07T09:23:53Z</time>
      </trkpt>
      <trkpt lat="47.23569" lon="6.04149">
        <ele>432.6</ele>
        <time>2021-03-07T09:23:54Z</time>
      </trkpt>
      <trkpt lat="47.23566" lon="6.0415">
        <ele>433</ele>
        <time>2021-03-07T09:23:55Z</time>
      </trkpt>
      <trkpt lat="47.23564" lon="6.04151">
        <ele>433.4</ele>
        <time>2021-03-07T09:23:56Z</time>
      </trkpt>
      <trkpt lat="47.23561" lon="6.04152">
        <ele>433.4</ele>
        <time>2021-03-07T09:23:57Z</time>
      </trkpt>
      <trkpt lat="47.2356" lon="6.04153">
        <ele>433.6</ele>
        <time>2021-03-07T09:23:58Z</time>
      </trkpt>
      <trkpt lat="47.23558" lon="6.04155">
        <ele>433.8</ele>
        <time>2021-03-07T09:23:59Z</time>
      </trkpt>
      <trkpt lat="47.23556" lon="6.04156">
        <ele>434</ele>
        <time>2021-03-07T09:24:00Z</time>
      </trkpt>
      <trkpt lat="47.23554" lon="6.04157">
        <ele>434</ele>
        <time>2021-03-07T09:24:01Z</time>
      </trkpt>
      <trkpt lat="47.23552" lon="6.04158">
        <ele>434.2</ele>
        <time>2021-03-07T09:24:02Z</time>
      </trkpt>
      <trkpt lat="47.2355" lon="6.0416">
        <ele>434.2</ele>
        <time>2021-03-07T09:24:03Z</time>
      </trkpt>
      <trkpt lat="47.23549" lon="6.04161">
        <ele>434.6</ele>
        <time>2021-03-07T09:24:04Z</time>
      </trkpt>
      <trkpt lat="47.23548" lon="6.04161">
        <ele>434.6</ele>
        <time>2021-03-07T09:24:05Z</time>
      </trkpt>
      <trkpt lat="47.23547" lon="6.04162">
        <ele>434.8</ele>
        <time>2021-03-07T09:24:06Z</time>
      </trkpt>
      <trkpt lat="47.23545" lon="6.04162">
        <ele>434.8</ele>
        <time>2021-03-07T09:24:07Z</time>
      </trkpt>
      <trkpt lat="47.23544" lon="6.04162">
        <ele>435</ele>
        <time>2021-03-07T09:24:08Z</time>
      </trkpt>
      <trkpt lat="47.23542" lon="6.04163">
        <ele>435.2</ele>
        <time>2021-03-07T09:24:09Z</time>
      </trkpt>
      <trkpt lat="47.2354" lon="6.04164">
        <ele>435.6</ele>
        <time>2021-03-07T09:24:10Z</time>
      </trkpt>
      <trkpt lat="47.23538" lon="6.04165">
        <ele>435.8</ele>
        <time>2021-03-07T09:24:11Z</time>
      </trkpt>
      <trkpt lat="47.23536" lon="6.04166">
        <ele>435.8</ele>
        <time>2021-03-07T09:24:12Z</time>
      </trkpt>
      <trkpt lat="47.23534" lon="6.04167">
        <ele>435.8</ele>
        <time>2021-03-07T09:24:13Z</time>
      </trkpt>
      <trkpt lat="47.23532" lon="6.04168">
        <ele>436</ele>
        <time>2021-03-07T09:24:14Z</time>
      </trkpt>
      <trkpt lat="47.2353" lon="6.04169">
        <ele>436</ele>
        <time>2021-03-07T09:24:15Z</time>
      </trkpt>
      <trkpt lat="47.23529" lon="6.04171">
        <ele>436.2</ele>
        <time>2021-03-07T09:24:16Z</time>
      </trkpt>
      <trkpt lat="47.23527" lon="6.04172">
        <ele>436.4</ele>
        <time>2021-03-07T09:24:17Z</time>
      </trkpt>
      <trkpt lat="47.23525" lon="6.04174">
        <ele>436.6</ele>
        <time>2021-03-07T09:24:18Z</time>
      </trkpt>
      <trkpt lat="47.23523" lon="6.04176">
        <ele>436.6</ele>
        <time>2021-03-07T09:24:19Z</time>
      </trkpt>
      <trkpt lat="47.23522" lon="6.04177">
        <ele>436.6</ele>
        <time>2021-03-07T09:24:20Z</time>
      </trkpt>
      <trkpt lat="47.2352" lon="6.04178">
        <ele>436.8</ele>
        <time>2021-03-07T09:24:21Z</time>
      </trkpt>
      <trkpt lat="47.23519" lon="6.04179">
        <ele>437</ele>
        <time>2021-03-07T09:24:22Z</time>
      </trkpt>
      <trkpt lat="47.23517" lon="6.0418">
        <ele>437.2</ele>
        <time>2021-03-07T09:24:23Z</time>
      </trkpt>
      <trkpt lat="47.23515" lon="6.04181">
        <ele>437.4</ele>
        <time>2021-03-07T09:24:24Z</time>
      </trkpt>
      <trkpt lat="47.23514" lon="6.04182">
        <ele>437.6</ele>
        <time>2021-03-07T09:24:25Z</time>
      </trkpt>
      <trkpt lat="47.23512" lon="6.04184">
        <ele>437.8</ele>
        <time>2021-03-07T09:24:26Z</time>
      </trkpt>
      <trkpt lat="47.2351" lon="6.04185">
        <ele>438</ele>
        <time>2021-03-07T09:24:27Z</time>
      </trkpt>
      <trkpt lat="47.23509" lon="6.04186">
        <ele>438.2</ele>
        <time>2021-03-07T09:24:28Z</time>
      </trkpt>
      <trkpt lat="47.23507" lon="6.04188">
        <ele>438.4</ele>
        <time>2021-03-07T09:24:29Z</time>
      </trkpt>
      <trkpt lat="47.23506" lon="6.04189">
        <ele>438.4</ele>
        <time>2021-03-07T09:24:30Z</time>
      </trkpt>
      <trkpt lat="47.23504" lon="6.0419">
        <ele>438.8</ele>
        <time>2021-03-07T09:24:31Z</time>
      </trkpt>
      <trkpt lat="47.23503" lon="6.04192">
        <ele>439</ele>
        <time>2021-03-07T09:24:32Z</time>
      </trkpt>
      <trkpt lat="47.23501" lon="6.04193">
        <ele>439.2</ele>
        <time>2021-03-07T09:24:33Z</time>
      </trkpt>
      <trkpt lat="47.235" lon="6.04194">
        <ele>439.6</ele>
        <time>2021-03-07T09:24:34Z</time>
      </trkpt>
      <trkpt lat="47.23498" lon="6.04195">
        <ele>439.8</ele>
        <time>2021-03-07T09:24:35Z</time>
      </trkpt>
      <trkpt lat="47.23496" lon="6.04195">
        <ele>440</ele>
        <time>2021-03-07T09:24:36Z</time>
      </trkpt>
      <trkpt lat="47.23495" lon="6.04196">
        <ele>440</ele>
        <time>2021-03-07T09:24:37Z</time>
      </trkpt>
      <trkpt lat="47.23493" lon="6.04198">
        <ele>440.2</ele>
        <time>2021-03-07T09:24:38Z</time>
      </trkpt>
      <trkpt lat="47.23492" lon="6.042">
        <ele>440.4</ele>
        <time>2021-03-07T09:24:39Z</time>
      </trkpt>
      <trkpt lat="47.23491" lon="6.04201">
        <ele>440.6</ele>
        <time>2021-03-07T09:24:40Z</time>
      </trkpt>
      <trkpt lat="47.2349" lon="6.04202">
        <ele>440.8</ele>
        <time>2021-03-07T09:24:41Z</time>
      </trkpt>
      <trkpt lat="47.23489" lon="6.04204">
        <ele>440.8</ele>
        <time>2021-03-07T09:24:42Z</time>
      </trkpt>
      <trkpt lat="47.23489" lon="6.04205">
        <ele>441</ele>
        <time>2021-03-07T09:24:43Z</time>
      </trkpt>
      <trkpt lat="47.23489" lon="6.04206">
        <ele>441</ele>
        <time>2021-03-07T09:24:44Z</time>
      </trkpt>
      <trkpt lat="47.23489" lon="6.04206">
        <ele>441</ele>
        <time>2021-03-07T09:24:46Z</time>
      </trkpt>
      <trkpt lat="47.23489" lon="6.04206">
        <ele>441.2</ele>
        <time>2021-03-07T09:24:48Z</time>
      </trkpt>
      <trkpt lat="47.23489" lon="6.04206">
        <ele>441.2</ele>
        <time>2021-03-07T09:27:31Z</time>
      </trkpt>
      <trkpt lat="47.23489" lon="6.04206">
        <ele>441.2</ele>
        <time>2021-03-07T09:27:33Z</time>
      </trkpt>
      <trkpt lat="47.23489" lon="6.04207">
        <ele>441.4</ele>
        <time>2021-03-07T09:27:34Z</time>
      </trkpt>
      <trkpt lat="47.2349" lon="6.04208">
        <ele>441.4</ele>
        <time>2021-03-07T09:27:35Z</time>
      </trkpt>
      <trkpt lat="47.2349" lon="6.04209">
        <ele>441.6</ele>
        <time>2021-03-07T09:27:37Z</time>
      </trkpt>
      <trkpt lat="47.2349" lon="6.04209">
        <ele>442</ele>
        <time>2021-03-07T09:27:45Z</time>
      </trkpt>
      <trkpt lat="47.2349" lon="6.04211">
        <ele>442</ele>
        <time>2021-03-07T09:27:54Z</time>
      </trkpt>
      <trkpt lat="47.2349" lon="6.04212">
        <ele>442.2</ele>
        <time>2021-03-07T09:27:55Z</time>
      </trkpt>
      <trkpt lat="47.23491" lon="6.04213">
        <ele>442.2</ele>
        <time>2021-03-07T09:27:56Z</time>
      </trkpt>
      <trkpt lat="47.23491" lon="6.04214">
        <ele>442.2</ele>
        <time>2021-03-07T09:27:57Z</time>
      </trkpt>
      <trkpt lat="47.23491" lon="6.04214">
        <ele>442.2</ele>
        <time>2021-03-07T09:27:58Z</time>
      </trkpt>
      <trkpt lat="47.23493" lon="6.04213">
        <ele>442.4</ele>
        <time>2021-03-07T09:28:06Z</time>
      </trkpt>
      <trkpt lat="47.23497" lon="6.04212">
        <ele>442.2</ele>
        <time>2021-03-07T09:28:08Z</time>
      </trkpt>
      <trkpt lat="47.23515" lon="6.04203">
        <ele>441.8</ele>
        <time>2021-03-07T09:28:15Z</time>
      </trkpt>
      <trkpt lat="47.23523" lon="6.04199">
        <ele>441.4</ele>
        <time>2021-03-07T09:28:18Z</time>
      </trkpt>
      <trkpt lat="47.23525" lon="6.04199">
        <ele>441.2</ele>
        <time>2021-03-07T09:28:19Z</time>
      </trkpt>
      <trkpt lat="47.23526" lon="6.04198">
        <ele>440.8</ele>
        <time>2021-03-07T09:28:20Z</time>
      </trkpt>
      <trkpt lat="47.23527" lon="6.04198">
        <ele>440.6</ele>
        <time>2021-03-07T09:28:21Z</time>
      </trkpt>
      <trkpt lat="47.23528" lon="6.04198">
        <ele>440.4</ele>
        <time>2021-03-07T09:28:22Z</time>
      </trkpt>
      <trkpt lat="47.23528" lon="6.04198">
        <ele>439.6</ele>
        <time>2021-03-07T09:28:25Z</time>
      </trkpt>
      <trkpt lat="47.23528" lon="6.04198">
        <ele>439.4</ele>
        <time>2021-03-07T09:28:26Z</time>
      </trkpt>
      <trkpt lat="47.2353" lon="6.04197">
        <ele>438.8</ele>
        <time>2021-03-07T09:29:14Z</time>
      </trkpt>
      <trkpt lat="47.23534" lon="6.04194">
        <ele>438.8</ele>
        <time>2021-03-07T09:29:16Z</time>
      </trkpt>
      <trkpt lat="47.23544" lon="6.04186">
        <ele>438.6</ele>
        <time>2021-03-07T09:29:19Z</time>
      </trkpt>
      <trkpt lat="47.23548" lon="6.04183">
        <ele>438.6</ele>
        <time>2021-03-07T09:29:20Z</time>
      </trkpt>
      <trkpt lat="47.23561" lon="6.04173">
        <ele>438</ele>
        <time>2021-03-07T09:29:23Z</time>
      </trkpt>
      <trkpt lat="47.23571" lon="6.04166">
        <ele>437.2</ele>
        <time>2021-03-07T09:29:25Z</time>
      </trkpt>
      <trkpt lat="47.23586" lon="6.04157">
        <ele>436.4</ele>
        <time>2021-03-07T09:29:28Z</time>
      </trkpt>
      <trkpt lat="47.23591" lon="6.04157">
        <ele>435.8</ele>
        <time>2021-03-07T09:29:29Z</time>
      </trkpt>
      <trkpt lat="47.23596" lon="6.04158">
        <ele>435.6</ele>
        <time>2021-03-07T09:29:30Z</time>
      </trkpt>
      <trkpt lat="47.236" lon="6.0416">
        <ele>435.2</ele>
        <time>2021-03-07T09:29:31Z</time>
      </trkpt>
      <trkpt lat="47.23604" lon="6.04163">
        <ele>434.8</ele>
        <time>2021-03-07T09:29:32Z</time>
      </trkpt>
      <trkpt lat="47.23608" lon="6.04167">
        <ele>434.2</ele>
        <time>2021-03-07T09:29:33Z</time>
      </trkpt>
      <trkpt lat="47.23612" lon="6.04171">
        <ele>433.8</ele>
        <time>2021-03-07T09:29:34Z</time>
      </trkpt>
      <trkpt lat="47.23615" lon="6.04173">
        <ele>433</ele>
        <time>2021-03-07T09:29:35Z</time>
      </trkpt>
      <trkpt lat="47.23618" lon="6.04176">
        <ele>432.8</ele>
        <time>2021-03-07T09:29:36Z</time>
      </trkpt>
      <trkpt lat="47.2362" lon="6.04178">
        <ele>432</ele>
        <time>2021-03-07T09:29:37Z</time>
      </trkpt>
      <trkpt lat="47.23622" lon="6.0418">
        <ele>431.4</ele>
        <time>2021-03-07T09:29:38Z</time>
      </trkpt>
      <trkpt lat="47.23624" lon="6.04182">
        <ele>431</ele>
        <time>2021-03-07T09:29:39Z</time>
      </trkpt>
      <trkpt lat="47.23625" lon="6.04185">
        <ele>430.2</ele>
        <time>2021-03-07T09:29:40Z</time>
      </trkpt>
      <trkpt lat="47.23626" lon="6.04188">
        <ele>430</ele>
        <time>2021-03-07T09:29:41Z</time>
      </trkpt>
      <trkpt lat="47.23626" lon="6.04191">
        <ele>429.8</ele>
        <time>2021-03-07T09:29:42Z</time>
      </trkpt>
      <trkpt lat="47.23625" lon="6.04194">
        <ele>429.6</ele>
        <time>2021-03-07T09:29:43Z</time>
      </trkpt>
      <trkpt lat="47.23624" lon="6.04197">
        <ele>429.4</ele>
        <time>2021-03-07T09:29:44Z</time>
      </trkpt>
      <trkpt lat="47.23623" lon="6.042">
        <ele>429.2</ele>
        <time>2021-03-07T09:29:45Z</time>
      </trkpt>
      <trkpt lat="47.23623" lon="6.04203">
        <ele>429.2</ele>
        <time>2021-03-07T09:29:46Z</time>
      </trkpt>
      <trkpt lat="47.23622" lon="6.04206">
        <ele>429.2</ele>
        <time>2021-03-07T09:29:47Z</time>
      </trkpt>
      <trkpt lat="47.23622" lon="6.04209">
        <ele>429.2</ele>
        <time>2021-03-07T09:29:48Z</time>
      </trkpt>
      <trkpt lat="47.23621" lon="6.04212">
        <ele>429.2</ele>
        <time>2021-03-07T09:29:49Z</time>
      </trkpt>
      <trkpt lat="47.23621" lon="6.04214">
        <ele>429.4</ele>
        <time>2021-03-07T09:29:50Z</time>
      </trkpt>
      <trkpt lat="47.23621" lon="6.04216">
        <ele>429.6</ele>
        <time>2021-03-07T09:29:51Z</time>
      </trkpt>
      <trkpt lat="47.23621" lon="6.04218">
        <ele>429.6</ele>
        <time>2021-03-07T09:29:52Z</time>
      </trkpt>
      <trkpt lat="47.23621" lon="6.0422">
        <ele>430</ele>
        <time>2021-03-07T09:29:53Z</time>
      </trkpt>
      <trkpt lat="47.23622" lon="6.04223">
        <ele>430</ele>
        <time>2021-03-07T09:29:54Z</time>
      </trkpt>
      <trkpt lat="47.23621" lon="6.04225">
        <ele>430.2</ele>
        <time>2021-03-07T09:29:55Z</time>
      </trkpt>
      <trkpt lat="47.2362" lon="6.04228">
        <ele>430.8</ele>
        <time>2021-03-07T09:29:56Z</time>
      </trkpt>
      <trkpt lat="47.2362" lon="6.0423">
        <ele>431.2</ele>
        <time>2021-03-07T09:29:57Z</time>
      </trkpt>
      <trkpt lat="47.23618" lon="6.04233">
        <ele>431.6</ele>
        <time>2021-03-07T09:29:58Z</time>
      </trkpt>
      <trkpt lat="47.23618" lon="6.04236">
        <ele>432</ele>
        <time>2021-03-07T09:29:59Z</time>
      </trkpt>
      <trkpt lat="47.23617" lon="6.04238">
        <ele>432</ele>
        <time>2021-03-07T09:30:00Z</time>
      </trkpt>
      <trkpt lat="47.23618" lon="6.04241">
        <ele>432.4</ele>
        <time>2021-03-07T09:30:01Z</time>
      </trkpt>
      <trkpt lat="47.23618" lon="6.04243">
        <ele>432.6</ele>
        <time>2021-03-07T09:30:02Z</time>
      </trkpt>
      <trkpt lat="47.23617" lon="6.04244">
        <ele>433</ele>
        <time>2021-03-07T09:30:03Z</time>
      </trkpt>
      <trkpt lat="47.23616" lon="6.04246">
        <ele>433.2</ele>
        <time>2021-03-07T09:30:04Z</time>
      </trkpt>
      <trkpt lat="47.23615" lon="6.04249">
        <ele>433.6</ele>
        <time>2021-03-07T09:30:05Z</time>
      </trkpt>
      <trkpt lat="47.23614" lon="6.04252">
        <ele>433.8</ele>
        <time>2021-03-07T09:30:06Z</time>
      </trkpt>
      <trkpt lat="47.23614" lon="6.04256">
        <ele>434</ele>
        <time>2021-03-07T09:30:07Z</time>
      </trkpt>
      <trkpt lat="47.23614" lon="6.04259">
        <ele>434.4</ele>
        <time>2021-03-07T09:30:08Z</time>
      </trkpt>
      <trkpt lat="47.23613" lon="6.04261">
        <ele>434.6</ele>
        <time>2021-03-07T09:30:09Z</time>
      </trkpt>
      <trkpt lat="47.23612" lon="6.04264">
        <ele>435</ele>
        <time>2021-03-07T09:30:10Z</time>
      </trkpt>
      <trkpt lat="47.23612" lon="6.04267">
        <ele>435.2</ele>
        <time>2021-03-07T09:30:11Z</time>
      </trkpt>
      <trkpt lat="47.23611" lon="6.04272">
        <ele>435.8</ele>
        <time>2021-03-07T09:30:12Z</time>
      </trkpt>
      <trkpt lat="47.23609" lon="6.04274">
        <ele>436.2</ele>
        <time>2021-03-07T09:30:13Z</time>
      </trkpt>
      <trkpt lat="47.23609" lon="6.04276">
        <ele>436.8</ele>
        <time>2021-03-07T09:30:14Z</time>
      </trkpt>
      <trkpt lat="47.23608" lon="6.0428">
        <ele>437</ele>
        <time>2021-03-07T09:30:15Z</time>
      </trkpt>
      <trkpt lat="47.23609" lon="6.04282">
        <ele>437.4</ele>
        <time>2021-03-07T09:30:16Z</time>
      </trkpt>
      <trkpt lat="47.23609" lon="6.04283">
        <ele>437.4</ele>
        <time>2021-03-07T09:30:17Z</time>
      </trkpt>
      <trkpt lat="47.23608" lon="6.04285">
        <ele>437.6</ele>
        <time>2021-03-07T09:30:18Z</time>
      </trkpt>
      <trkpt lat="47.23607" lon="6.04287">
        <ele>438</ele>
        <time>2021-03-07T09:30:19Z</time>
      </trkpt>
      <trkpt lat="47.23608" lon="6.04289">
        <ele>438</ele>
        <time>2021-03-07T09:30:20Z</time>
      </trkpt>
      <trkpt lat="47.23609" lon="6.04291">
        <ele>438.4</ele>
        <time>2021-03-07T09:30:21Z</time>
      </trkpt>
      <trkpt lat="47.23608" lon="6.04293">
        <ele>438.4</ele>
        <time>2021-03-07T09:30:22Z</time>
      </trkpt>
      <trkpt lat="47.23607" lon="6.04294">
        <ele>438.6</ele>
        <time>2021-03-07T09:30:23Z</time>
      </trkpt>
      <trkpt lat="47.23607" lon="6.04295">
        <ele>438.8</ele>
        <time>2021-03-07T09:30:24Z</time>
      </trkpt>
      <trkpt lat="47.23606" lon="6.04297">
        <ele>439.2</ele>
        <time>2021-03-07T09:30:25Z</time>
      </trkpt>
      <trkpt lat="47.23606" lon="6.04298">
        <ele>439.2</ele>
        <time>2021-03-07T09:30:26Z</time>
      </trkpt>
      <trkpt lat="47.23605" lon="6.043">
        <ele>439.6</ele>
        <time>2021-03-07T09:30:27Z</time>
      </trkpt>
      <trkpt lat="47.23605" lon="6.04302">
        <ele>439.8</ele>
        <time>2021-03-07T09:30:28Z</time>
      </trkpt>
      <trkpt lat="47.23605" lon="6.04303">
        <ele>440.2</ele>
        <time>2021-03-07T09:30:29Z</time>
      </trkpt>
      <trkpt lat="47.23605" lon="6.04305">
        <ele>440.2</ele>
        <time>2021-03-07T09:30:30Z</time>
      </trkpt>
      <trkpt lat="47.23605" lon="6.04308">
        <ele>440.4</ele>
        <time>2021-03-07T09:30:31Z</time>
      </trkpt>
      <trkpt lat="47.23604" lon="6.0431">
        <ele>440.8</ele>
        <time>2021-03-07T09:30:32Z</time>
      </trkpt>
      <trkpt lat="47.23604" lon="6.04312">
        <ele>441</ele>
        <time>2021-03-07T09:30:33Z</time>
      </trkpt>
      <trkpt lat="47.23604" lon="6.04314">
        <ele>441.2</ele>
        <time>2021-03-07T09:30:34Z</time>
      </trkpt>
      <trkpt lat="47.23603" lon="6.04317">
        <ele>441.4</ele>
        <time>2021-03-07T09:30:35Z</time>
      </trkpt>
      <trkpt lat="47.23603" lon="6.04319">
        <ele>441.6</ele>
        <time>2021-03-07T09:30:36Z</time>
      </trkpt>
      <trkpt lat="47.23602" lon="6.04321">
        <ele>441.8</ele>
        <time>2021-03-07T09:30:37Z</time>
      </trkpt>
      <trkpt lat="47.23601" lon="6.04323">
        <ele>442</ele>
        <time>2021-03-07T09:30:38Z</time>
      </trkpt>
      <trkpt lat="47.236" lon="6.04324">
        <ele>442.2</ele>
        <time>2021-03-07T09:30:39Z</time>
      </trkpt>
      <trkpt lat="47.23599" lon="6.04326">
        <ele>442.4</ele>
        <time>2021-03-07T09:30:40Z</time>
      </trkpt>
      <trkpt lat="47.23599" lon="6.04327">
        <ele>442.6</ele>
        <time>2021-03-07T09:30:41Z</time>
      </trkpt>
      <trkpt lat="47.23599" lon="6.04329">
        <ele>443</ele>
        <time>2021-03-07T09:30:42Z</time>
      </trkpt>
      <trkpt lat="47.23599" lon="6.04329">
        <ele>443.2</ele>
        <time>2021-03-07T09:30:43Z</time>
      </trkpt>
      <trkpt lat="47.23599" lon="6.04329">
        <ele>443.6</ele>
        <time>2021-03-07T09:30:44Z</time>
      </trkpt>
      <trkpt lat="47.23599" lon="6.04329">
        <ele>444.4</ele>
        <time>2021-03-07T09:30:50Z</time>
      </trkpt>
      <trkpt lat="47.23599" lon="6.04329">
        <ele>444.6</ele>
        <time>2021-03-07T09:30:54Z</time>
      </trkpt>
      <trkpt lat="47.23599" lon="6.04329">
        <ele>445</ele>
        <time>2021-03-07T09:31:12Z</time>
      </trkpt>
      <trkpt lat="47.23598" lon="6.04332">
        <ele>445.6</ele>
        <time>2021-03-07T09:31:32Z</time>
      </trkpt>
      <trkpt lat="47.23598" lon="6.04333">
        <ele>446.6</ele>
        <time>2021-03-07T09:31:41Z</time>
      </trkpt>
      <trkpt lat="47.23598" lon="6.04333">
        <ele>447</ele>
        <time>2021-03-07T09:31:43Z</time>
      </trkpt>
      <trkpt lat="47.23598" lon="6.04333">
        <ele>447.4</ele>
        <time>2021-03-07T09:31:46Z</time>
      </trkpt>
      <trkpt lat="47.23597" lon="6.04343">
        <ele>448</ele>
        <time>2021-03-07T09:31:51Z</time>
      </trkpt>
      <trkpt lat="47.23596" lon="6.04349">
        <ele>448.2</ele>
        <time>2021-03-07T09:31:53Z</time>
      </trkpt>
      <trkpt lat="47.23595" lon="6.04352">
        <ele>448.2</ele>
        <time>2021-03-07T09:31:54Z</time>
      </trkpt>
      <trkpt lat="47.23594" lon="6.04356">
        <ele>448.2</ele>
        <time>2021-03-07T09:31:55Z</time>
      </trkpt>
      <trkpt lat="47.23592" lon="6.0436">
        <ele>448.2</ele>
        <time>2021-03-07T09:31:56Z</time>
      </trkpt>
      <trkpt lat="47.23591" lon="6.04363">
        <ele>448.2</ele>
        <time>2021-03-07T09:31:57Z</time>
      </trkpt>
      <trkpt lat="47.23591" lon="6.04366">
        <ele>448.4</ele>
        <time>2021-03-07T09:31:58Z</time>
      </trkpt>
      <trkpt lat="47.23592" lon="6.04367">
        <ele>448.4</ele>
        <time>2021-03-07T09:31:59Z</time>
      </trkpt>
      <trkpt lat="47.23592" lon="6.04369">
        <ele>448.4</ele>
        <time>2021-03-07T09:32:00Z</time>
      </trkpt>
      <trkpt lat="47.23593" lon="6.04371">
        <ele>448.4</ele>
        <time>2021-03-07T09:32:01Z</time>
      </trkpt>
      <trkpt lat="47.23593" lon="6.04371">
        <ele>448.4</ele>
        <time>2021-03-07T09:32:02Z</time>
      </trkpt>
      <trkpt lat="47.23593" lon="6.04371">
        <ele>448.6</ele>
        <time>2021-03-07T09:32:05Z</time>
      </trkpt>
      <trkpt lat="47.23595" lon="6.04377">
        <ele>448.8</ele>
        <time>2021-03-07T09:32:08Z</time>
      </trkpt>
      <trkpt lat="47.23597" lon="6.04381">
        <ele>448.8</ele>
        <time>2021-03-07T09:32:09Z</time>
      </trkpt>
      <trkpt lat="47.23598" lon="6.04385">
        <ele>448.8</ele>
        <time>2021-03-07T09:32:10Z</time>
      </trkpt>
      <trkpt lat="47.23601" lon="6.04395">
        <ele>448.8</ele>
        <time>2021-03-07T09:32:13Z</time>
      </trkpt>
      <trkpt lat="47.23602" lon="6.04397">
        <ele>448.8</ele>
        <time>2021-03-07T09:32:14Z</time>
      </trkpt>
      <trkpt lat="47.23602" lon="6.04399">
        <ele>448.8</ele>
        <time>2021-03-07T09:32:15Z</time>
      </trkpt>
      <trkpt lat="47.23601" lon="6.04402">
        <ele>448.8</ele>
        <time>2021-03-07T09:32:16Z</time>
      </trkpt>
      <trkpt lat="47.23601" lon="6.04405">
        <ele>448.8</ele>
        <time>2021-03-07T09:32:17Z</time>
      </trkpt>
      <trkpt lat="47.23601" lon="6.04408">
        <ele>448.6</ele>
        <time>2021-03-07T09:32:18Z</time>
      </trkpt>
      <trkpt lat="47.23602" lon="6.04411">
        <ele>448.6</ele>
        <time>2021-03-07T09:32:19Z</time>
      </trkpt>
      <trkpt lat="47.23604" lon="6.04414">
        <ele>448.6</ele>
        <time>2021-03-07T09:32:20Z</time>
      </trkpt>
      <trkpt lat="47.23605" lon="6.04417">
        <ele>448.6</ele>
        <time>2021-03-07T09:32:21Z</time>
      </trkpt>
      <trkpt lat="47.23607" lon="6.04419">
        <ele>448.6</ele>
        <time>2021-03-07T09:32:22Z</time>
      </trkpt>
      <trkpt lat="47.23608" lon="6.04421">
        <ele>448.6</ele>
        <time>2021-03-07T09:32:23Z</time>
      </trkpt>
      <trkpt lat="47.23609" lon="6.04424">
        <ele>448.8</ele>
        <time>2021-03-07T09:32:24Z</time>
      </trkpt>
      <trkpt lat="47.23611" lon="6.04431">
        <ele>448.8</ele>
        <time>2021-03-07T09:32:26Z</time>
      </trkpt>
      <trkpt lat="47.23615" lon="6.04441">
        <ele>449</ele>
        <time>2021-03-07T09:32:30Z</time>
      </trkpt>
      <trkpt lat="47.23618" lon="6.04447">
        <ele>449.6</ele>
        <time>2021-03-07T09:32:33Z</time>
      </trkpt>
      <trkpt lat="47.23621" lon="6.04457">
        <ele>450</ele>
        <time>2021-03-07T09:32:37Z</time>
      </trkpt>
      <trkpt lat="47.23624" lon="6.04462">
        <ele>450</ele>
        <time>2021-03-07T09:32:39Z</time>
      </trkpt>
      <trkpt lat="47.23625" lon="6.04464">
        <ele>450.2</ele>
        <time>2021-03-07T09:32:40Z</time>
      </trkpt>
      <trkpt lat="47.23625" lon="6.04466">
        <ele>450.4</ele>
        <time>2021-03-07T09:32:41Z</time>
      </trkpt>
      <trkpt lat="47.23626" lon="6.04468">
        <ele>450.4</ele>
        <time>2021-03-07T09:32:42Z</time>
      </trkpt>
      <trkpt lat="47.2363" lon="6.04473">
        <ele>450.6</ele>
        <time>2021-03-07T09:32:45Z</time>
      </trkpt>
      <trkpt lat="47.23631" lon="6.04474">
        <ele>450.8</ele>
        <time>2021-03-07T09:32:46Z</time>
      </trkpt>
      <trkpt lat="47.23632" lon="6.04475">
        <ele>450.8</ele>
        <time>2021-03-07T09:32:47Z</time>
      </trkpt>
      <trkpt lat="47.23633" lon="6.04477">
        <ele>450.8</ele>
        <time>2021-03-07T09:32:48Z</time>
      </trkpt>
      <trkpt lat="47.23635" lon="6.04478">
        <ele>451</ele>
        <time>2021-03-07T09:32:49Z</time>
      </trkpt>
      <trkpt lat="47.23636" lon="6.0448">
        <ele>451</ele>
        <time>2021-03-07T09:32:50Z</time>
      </trkpt>
      <trkpt lat="47.23639" lon="6.04487">
        <ele>451.4</ele>
        <time>2021-03-07T09:32:53Z</time>
      </trkpt>
      <trkpt lat="47.2364" lon="6.04489">
        <ele>451.6</ele>
        <time>2021-03-07T09:32:54Z</time>
      </trkpt>
      <trkpt lat="47.23641" lon="6.04491">
        <ele>451.8</ele>
        <time>2021-03-07T09:32:55Z</time>
      </trkpt>
      <trkpt lat="47.23641" lon="6.04495">
        <ele>452</ele>
        <time>2021-03-07T09:32:56Z</time>
      </trkpt>
      <trkpt lat="47.23642" lon="6.04497">
        <ele>452.2</ele>
        <time>2021-03-07T09:32:57Z</time>
      </trkpt>
      <trkpt lat="47.23643" lon="6.04499">
        <ele>452.2</ele>
        <time>2021-03-07T09:32:58Z</time>
      </trkpt>
      <trkpt lat="47.23643" lon="6.04502">
        <ele>452.4</ele>
        <time>2021-03-07T09:32:59Z</time>
      </trkpt>
      <trkpt lat="47.23642" lon="6.04505">
        <ele>452.6</ele>
        <time>2021-03-07T09:33:00Z</time>
      </trkpt>
      <trkpt lat="47.23641" lon="6.04508">
        <ele>452.8</ele>
        <time>2021-03-07T09:33:01Z</time>
      </trkpt>
      <trkpt lat="47.2364" lon="6.04512">
        <ele>453</ele>
        <time>2021-03-07T09:33:02Z</time>
      </trkpt>
      <trkpt lat="47.2364" lon="6.04515">
        <ele>453.2</ele>
        <time>2021-03-07T09:33:03Z</time>
      </trkpt>
      <trkpt lat="47.23639" lon="6.04518">
        <ele>453.2</ele>
        <time>2021-03-07T09:33:04Z</time>
      </trkpt>
      <trkpt lat="47.2364" lon="6.04522">
        <ele>453.2</ele>
        <time>2021-03-07T09:33:05Z</time>
      </trkpt>
      <trkpt lat="47.23639" lon="6.04526">
        <ele>453.2</ele>
        <time>2021-03-07T09:33:06Z</time>
      </trkpt>
      <trkpt lat="47.23637" lon="6.04532">
        <ele>453.2</ele>
        <time>2021-03-07T09:33:07Z</time>
      </trkpt>
      <trkpt lat="47.23635" lon="6.04538">
        <ele>453.2</ele>
        <time>2021-03-07T09:33:08Z</time>
      </trkpt>
      <trkpt lat="47.23631" lon="6.04542">
        <ele>453</ele>
        <time>2021-03-07T09:33:09Z</time>
      </trkpt>
      <trkpt lat="47.23628" lon="6.04546">
        <ele>453</ele>
        <time>2021-03-07T09:33:10Z</time>
      </trkpt>
      <trkpt lat="47.23624" lon="6.04551">
        <ele>452.6</ele>
        <time>2021-03-07T09:33:11Z</time>
      </trkpt>
      <trkpt lat="47.23622" lon="6.04557">
        <ele>452.4</ele>
        <time>2021-03-07T09:33:12Z</time>
      </trkpt>
      <trkpt lat="47.23619" lon="6.04564">
        <ele>452</ele>
        <time>2021-03-07T09:33:13Z</time>
      </trkpt>
      <trkpt lat="47.23617" lon="6.04569">
        <ele>451.6</ele>
        <time>2021-03-07T09:33:14Z</time>
      </trkpt>
      <trkpt lat="47.23616" lon="6.04574">
        <ele>451.6</ele>
        <time>2021-03-07T09:33:15Z</time>
      </trkpt>
      <trkpt lat="47.23614" lon="6.04577">
        <ele>451.4</ele>
        <time>2021-03-07T09:33:16Z</time>
      </trkpt>
      <trkpt lat="47.23614" lon="6.0458">
        <ele>451.4</ele>
        <time>2021-03-07T09:33:17Z</time>
      </trkpt>
      <trkpt lat="47.23613" lon="6.04583">
        <ele>451.4</ele>
        <time>2021-03-07T09:33:18Z</time>
      </trkpt>
      <trkpt lat="47.23611" lon="6.04587">
        <ele>451.4</ele>
        <time>2021-03-07T09:33:19Z</time>
      </trkpt>
      <trkpt lat="47.23609" lon="6.04593">
        <ele>451.4</ele>
        <time>2021-03-07T09:33:21Z</time>
      </trkpt>
      <trkpt lat="47.23607" lon="6.04596">
        <ele>451.4</ele>
        <time>2021-03-07T09:33:22Z</time>
      </trkpt>
      <trkpt lat="47.23606" lon="6.04599">
        <ele>451.4</ele>
        <time>2021-03-07T09:33:23Z</time>
      </trkpt>
      <trkpt lat="47.23605" lon="6.04602">
        <ele>451.4</ele>
        <time>2021-03-07T09:33:24Z</time>
      </trkpt>
      <trkpt lat="47.23604" lon="6.04606">
        <ele>451.6</ele>
        <time>2021-03-07T09:33:25Z</time>
      </trkpt>
      <trkpt lat="47.23595" lon="6.04638">
        <ele>452.4</ele>
        <time>2021-03-07T09:33:34Z</time>
      </trkpt>
      <trkpt lat="47.23585" lon="6.04662">
        <ele>452.6</ele>
        <time>2021-03-07T09:33:40Z</time>
      </trkpt>
      <trkpt lat="47.23584" lon="6.0467">
        <ele>452.4</ele>
        <time>2021-03-07T09:33:41Z</time>
      </trkpt>
      <trkpt lat="47.23583" lon="6.04678">
        <ele>452.4</ele>
        <time>2021-03-07T09:33:42Z</time>
      </trkpt>
      <trkpt lat="47.2358" lon="6.04703">
        <ele>451.6</ele>
        <time>2021-03-07T09:33:45Z</time>
      </trkpt>
      <trkpt lat="47.23577" lon="6.04731">
        <ele>450</ele>
        <time>2021-03-07T09:33:48Z</time>
      </trkpt>
      <trkpt lat="47.23576" lon="6.04751">
        <ele>448.8</ele>
        <time>2021-03-07T09:33:50Z</time>
      </trkpt>
      <trkpt lat="47.23575" lon="6.0476">
        <ele>448.6</ele>
        <time>2021-03-07T09:33:51Z</time>
      </trkpt>
      <trkpt lat="47.23575" lon="6.04772">
        <ele>448</ele>
        <time>2021-03-07T09:33:52Z</time>
      </trkpt>
      <trkpt lat="47.23575" lon="6.04783">
        <ele>447.6</ele>
        <time>2021-03-07T09:33:53Z</time>
      </trkpt>
      <trkpt lat="47.23575" lon="6.04803">
        <ele>446.4</ele>
        <time>2021-03-07T09:33:55Z</time>
      </trkpt>
      <trkpt lat="47.23575" lon="6.04823">
        <ele>445.2</ele>
        <time>2021-03-07T09:33:57Z</time>
      </trkpt>
      <trkpt lat="47.23575" lon="6.04832">
        <ele>445</ele>
        <time>2021-03-07T09:33:58Z</time>
      </trkpt>
      <trkpt lat="47.23575" lon="6.0484">
        <ele>444.6</ele>
        <time>2021-03-07T09:33:59Z</time>
      </trkpt>
      <trkpt lat="47.23575" lon="6.04846">
        <ele>444.4</ele>
        <time>2021-03-07T09:34:00Z</time>
      </trkpt>
      <trkpt lat="47.23575" lon="6.04854">
        <ele>443.8</ele>
        <time>2021-03-07T09:34:01Z</time>
      </trkpt>
      <trkpt lat="47.23575" lon="6.04859">
        <ele>443.6</ele>
        <time>2021-03-07T09:34:02Z</time>
      </trkpt>
      <trkpt lat="47.23574" lon="6.04863">
        <ele>443.4</ele>
        <time>2021-03-07T09:34:03Z</time>
      </trkpt>
      <trkpt lat="47.23572" lon="6.04867">
        <ele>443.4</ele>
        <time>2021-03-07T09:34:04Z</time>
      </trkpt>
      <trkpt lat="47.23571" lon="6.04871">
        <ele>443.2</ele>
        <time>2021-03-07T09:34:05Z</time>
      </trkpt>
      <trkpt lat="47.23568" lon="6.04874">
        <ele>443</ele>
        <time>2021-03-07T09:34:06Z</time>
      </trkpt>
      <trkpt lat="47.23565" lon="6.04877">
        <ele>442.8</ele>
        <time>2021-03-07T09:34:07Z</time>
      </trkpt>
      <trkpt lat="47.23562" lon="6.04879">
        <ele>442.8</ele>
        <time>2021-03-07T09:34:08Z</time>
      </trkpt>
      <trkpt lat="47.23558" lon="6.04881">
        <ele>442.6</ele>
        <time>2021-03-07T09:34:09Z</time>
      </trkpt>
      <trkpt lat="47.23554" lon="6.04882">
        <ele>442.4</ele>
        <time>2021-03-07T09:34:10Z</time>
      </trkpt>
      <trkpt lat="47.2355" lon="6.04882">
        <ele>442.2</ele>
        <time>2021-03-07T09:34:11Z</time>
      </trkpt>
      <trkpt lat="47.23545" lon="6.04881">
        <ele>442</ele>
        <time>2021-03-07T09:34:12Z</time>
      </trkpt>
      <trkpt lat="47.2354" lon="6.04879">
        <ele>442</ele>
        <time>2021-03-07T09:34:13Z</time>
      </trkpt>
      <trkpt lat="47.23535" lon="6.04876">
        <ele>441.6</ele>
        <time>2021-03-07T09:34:14Z</time>
      </trkpt>
      <trkpt lat="47.23515" lon="6.04869">
        <ele>440.4</ele>
        <time>2021-03-07T09:34:17Z</time>
      </trkpt>
      <trkpt lat="47.23493" lon="6.04863">
        <ele>438.4</ele>
        <time>2021-03-07T09:34:20Z</time>
      </trkpt>
      <trkpt lat="47.23487" lon="6.0486">
        <ele>437.6</ele>
        <time>2021-03-07T09:34:21Z</time>
      </trkpt>
      <trkpt lat="47.23481" lon="6.04857">
        <ele>436.4</ele>
        <time>2021-03-07T09:34:22Z</time>
      </trkpt>
      <trkpt lat="47.23476" lon="6.04855">
        <ele>434.2</ele>
        <time>2021-03-07T09:34:23Z</time>
      </trkpt>
      <trkpt lat="47.23472" lon="6.04852">
        <ele>433.4</ele>
        <time>2021-03-07T09:34:24Z</time>
      </trkpt>
      <trkpt lat="47.23469" lon="6.04851">
        <ele>432</ele>
        <time>2021-03-07T09:34:25Z</time>
      </trkpt>
      <trkpt lat="47.23465" lon="6.04849">
        <ele>431.2</ele>
        <time>2021-03-07T09:34:26Z</time>
      </trkpt>
      <trkpt lat="47.23462" lon="6.04847">
        <ele>429.8</ele>
        <time>2021-03-07T09:34:27Z</time>
      </trkpt>
      <trkpt lat="47.23459" lon="6.04846">
        <ele>429</ele>
        <time>2021-03-07T09:34:28Z</time>
      </trkpt>
      <trkpt lat="47.23456" lon="6.04844">
        <ele>428</ele>
        <time>2021-03-07T09:34:29Z</time>
      </trkpt>
      <trkpt lat="47.23449" lon="6.04842">
        <ele>427</ele>
        <time>2021-03-07T09:34:31Z</time>
      </trkpt>
      <trkpt lat="47.23445" lon="6.04842">
        <ele>426.8</ele>
        <time>2021-03-07T09:34:32Z</time>
      </trkpt>
      <trkpt lat="47.23442" lon="6.04842">
        <ele>426</ele>
        <time>2021-03-07T09:34:33Z</time>
      </trkpt>
      <trkpt lat="47.23437" lon="6.04844">
        <ele>425.8</ele>
        <time>2021-03-07T09:34:34Z</time>
      </trkpt>
      <trkpt lat="47.23434" lon="6.04847">
        <ele>425.2</ele>
        <time>2021-03-07T09:34:35Z</time>
      </trkpt>
      <trkpt lat="47.2343" lon="6.04851">
        <ele>424.2</ele>
        <time>2021-03-07T09:34:36Z</time>
      </trkpt>
      <trkpt lat="47.23426" lon="6.04858">
        <ele>424</ele>
        <time>2021-03-07T09:34:37Z</time>
      </trkpt>
      <trkpt lat="47.23423" lon="6.04864">
        <ele>423</ele>
        <time>2021-03-07T09:34:38Z</time>
      </trkpt>
      <trkpt lat="47.2342" lon="6.04871">
        <ele>422.6</ele>
        <time>2021-03-07T09:34:39Z</time>
      </trkpt>
      <trkpt lat="47.23418" lon="6.0488">
        <ele>422</ele>
        <time>2021-03-07T09:34:40Z</time>
      </trkpt>
      <trkpt lat="47.23416" lon="6.04889">
        <ele>421.8</ele>
        <time>2021-03-07T09:34:41Z</time>
      </trkpt>
      <trkpt lat="47.23414" lon="6.04899">
        <ele>421</ele>
        <time>2021-03-07T09:34:42Z</time>
      </trkpt>
      <trkpt lat="47.23411" lon="6.04921">
        <ele>419.8</ele>
        <time>2021-03-07T09:34:44Z</time>
      </trkpt>
      <trkpt lat="47.23411" lon="6.04932">
        <ele>419.6</ele>
        <time>2021-03-07T09:34:45Z</time>
      </trkpt>
      <trkpt lat="47.23412" lon="6.04952">
        <ele>418.6</ele>
        <time>2021-03-07T09:34:47Z</time>
      </trkpt>
      <trkpt lat="47.23412" lon="6.04961">
        <ele>417.8</ele>
        <time>2021-03-07T09:34:48Z</time>
      </trkpt>
      <trkpt lat="47.23413" lon="6.0497">
        <ele>417</ele>
        <time>2021-03-07T09:34:49Z</time>
      </trkpt>
      <trkpt lat="47.23412" lon="6.04979">
        <ele>416.8</ele>
        <time>2021-03-07T09:34:50Z</time>
      </trkpt>
      <trkpt lat="47.23411" lon="6.04987">
        <ele>416.2</ele>
        <time>2021-03-07T09:34:51Z</time>
      </trkpt>
      <trkpt lat="47.23409" lon="6.04996">
        <ele>416</ele>
        <time>2021-03-07T09:34:52Z</time>
      </trkpt>
      <trkpt lat="47.23406" lon="6.05003">
        <ele>415.2</ele>
        <time>2021-03-07T09:34:53Z</time>
      </trkpt>
      <trkpt lat="47.23402" lon="6.05009">
        <ele>415</ele>
        <time>2021-03-07T09:34:54Z</time>
      </trkpt>
      <trkpt lat="47.23398" lon="6.05014">
        <ele>414</ele>
        <time>2021-03-07T09:34:55Z</time>
      </trkpt>
      <trkpt lat="47.23395" lon="6.05019">
        <ele>413.2</ele>
        <time>2021-03-07T09:34:56Z</time>
      </trkpt>
      <trkpt lat="47.23393" lon="6.05026">
        <ele>412.4</ele>
        <time>2021-03-07T09:34:57Z</time>
      </trkpt>
      <trkpt lat="47.23392" lon="6.05033">
        <ele>412</ele>
        <time>2021-03-07T09:34:58Z</time>
      </trkpt>
      <trkpt lat="47.23393" lon="6.0504">
        <ele>410.8</ele>
        <time>2021-03-07T09:34:59Z</time>
      </trkpt>
      <trkpt lat="47.23394" lon="6.05048">
        <ele>410</ele>
        <time>2021-03-07T09:35:00Z</time>
      </trkpt>
      <trkpt lat="47.23397" lon="6.05055">
        <ele>409</ele>
        <time>2021-03-07T09:35:01Z</time>
      </trkpt>
      <trkpt lat="47.234" lon="6.05062">
        <ele>408.6</ele>
        <time>2021-03-07T09:35:02Z</time>
      </trkpt>
      <trkpt lat="47.23403" lon="6.05069">
        <ele>408</ele>
        <time>2021-03-07T09:35:03Z</time>
      </trkpt>
      <trkpt lat="47.23407" lon="6.05075">
        <ele>407.4</ele>
        <time>2021-03-07T09:35:04Z</time>
      </trkpt>
      <trkpt lat="47.2341" lon="6.0508">
        <ele>407</ele>
        <time>2021-03-07T09:35:05Z</time>
      </trkpt>
      <trkpt lat="47.23411" lon="6.05085">
        <ele>407</ele>
        <time>2021-03-07T09:35:06Z</time>
      </trkpt>
      <trkpt lat="47.23411" lon="6.0509">
        <ele>406.8</ele>
        <time>2021-03-07T09:35:07Z</time>
      </trkpt>
      <trkpt lat="47.23409" lon="6.05093">
        <ele>406.6</ele>
        <time>2021-03-07T09:35:08Z</time>
      </trkpt>
      <trkpt lat="47.23406" lon="6.05092">
        <ele>406.4</ele>
        <time>2021-03-07T09:35:09Z</time>
      </trkpt>
      <trkpt lat="47.23404" lon="6.0509">
        <ele>406.2</ele>
        <time>2021-03-07T09:35:10Z</time>
      </trkpt>
      <trkpt lat="47.23399" lon="6.0508">
        <ele>405.8</ele>
        <time>2021-03-07T09:35:12Z</time>
      </trkpt>
      <trkpt lat="47.23397" lon="6.05074">
        <ele>405.8</ele>
        <time>2021-03-07T09:35:13Z</time>
      </trkpt>
      <trkpt lat="47.23394" lon="6.05068">
        <ele>405.4</ele>
        <time>2021-03-07T09:35:14Z</time>
      </trkpt>
      <trkpt lat="47.23385" lon="6.05047">
        <ele>404.6</ele>
        <time>2021-03-07T09:35:17Z</time>
      </trkpt>
      <trkpt lat="47.23381" lon="6.05038">
        <ele>404.4</ele>
        <time>2021-03-07T09:35:18Z</time>
      </trkpt>
      <trkpt lat="47.23374" lon="6.05023">
        <ele>403.6</ele>
        <time>2021-03-07T09:35:20Z</time>
      </trkpt>
      <trkpt lat="47.23371" lon="6.05017">
        <ele>403</ele>
        <time>2021-03-07T09:35:21Z</time>
      </trkpt>
      <trkpt lat="47.23368" lon="6.05012">
        <ele>402.8</ele>
        <time>2021-03-07T09:35:22Z</time>
      </trkpt>
      <trkpt lat="47.23365" lon="6.05008">
        <ele>402.2</ele>
        <time>2021-03-07T09:35:23Z</time>
      </trkpt>
      <trkpt lat="47.23361" lon="6.05005">
        <ele>401.8</ele>
        <time>2021-03-07T09:35:24Z</time>
      </trkpt>
      <trkpt lat="47.23357" lon="6.05004">
        <ele>401</ele>
        <time>2021-03-07T09:35:25Z</time>
      </trkpt>
      <trkpt lat="47.23351" lon="6.05003">
        <ele>400.6</ele>
        <time>2021-03-07T09:35:26Z</time>
      </trkpt>
      <trkpt lat="47.23345" lon="6.05003">
        <ele>399.6</ele>
        <time>2021-03-07T09:35:27Z</time>
      </trkpt>
      <trkpt lat="47.23341" lon="6.05003">
        <ele>399.4</ele>
        <time>2021-03-07T09:35:28Z</time>
      </trkpt>
      <trkpt lat="47.23336" lon="6.05003">
        <ele>398.8</ele>
        <time>2021-03-07T09:35:29Z</time>
      </trkpt>
      <trkpt lat="47.23332" lon="6.05002">
        <ele>398.4</ele>
        <time>2021-03-07T09:35:30Z</time>
      </trkpt>
      <trkpt lat="47.23328" lon="6.05001">
        <ele>397.4</ele>
        <time>2021-03-07T09:35:31Z</time>
      </trkpt>
      <trkpt lat="47.23326" lon="6.04998">
        <ele>396.4</ele>
        <time>2021-03-07T09:35:32Z</time>
      </trkpt>
      <trkpt lat="47.23324" lon="6.04994">
        <ele>395.8</ele>
        <time>2021-03-07T09:35:33Z</time>
      </trkpt>
      <trkpt lat="47.23323" lon="6.04986">
        <ele>394.8</ele>
        <time>2021-03-07T09:35:34Z</time>
      </trkpt>
      <trkpt lat="47.23322" lon="6.04978">
        <ele>394.4</ele>
        <time>2021-03-07T09:35:35Z</time>
      </trkpt>
      <trkpt lat="47.23323" lon="6.04969">
        <ele>393.2</ele>
        <time>2021-03-07T09:35:36Z</time>
      </trkpt>
      <trkpt lat="47.23324" lon="6.0496">
        <ele>392.8</ele>
        <time>2021-03-07T09:35:37Z</time>
      </trkpt>
      <trkpt lat="47.23325" lon="6.0495">
        <ele>392</ele>
        <time>2021-03-07T09:35:38Z</time>
      </trkpt>
      <trkpt lat="47.23327" lon="6.04939">
        <ele>391.6</ele>
        <time>2021-03-07T09:35:39Z</time>
      </trkpt>
      <trkpt lat="47.23328" lon="6.04928">
        <ele>390.4</ele>
        <time>2021-03-07T09:35:40Z</time>
      </trkpt>
      <trkpt lat="47.2333" lon="6.04908">
        <ele>389.2</ele>
        <time>2021-03-07T09:35:42Z</time>
      </trkpt>
      <trkpt lat="47.23331" lon="6.04901">
        <ele>389</ele>
        <time>2021-03-07T09:35:43Z</time>
      </trkpt>
      <trkpt lat="47.23331" lon="6.04894">
        <ele>388.2</ele>
        <time>2021-03-07T09:35:44Z</time>
      </trkpt>
      <trkpt lat="47.23331" lon="6.04887">
        <ele>387</ele>
        <time>2021-03-07T09:35:45Z</time>
      </trkpt>
      <trkpt lat="47.23331" lon="6.04881">
        <ele>386.2</ele>
        <time>2021-03-07T09:35:46Z</time>
      </trkpt>
      <trkpt lat="47.23331" lon="6.04875">
        <ele>385</ele>
        <time>2021-03-07T09:35:47Z</time>
      </trkpt>
      <trkpt lat="47.23331" lon="6.04871">
        <ele>384.6</ele>
        <time>2021-03-07T09:35:48Z</time>
      </trkpt>
      <trkpt lat="47.23329" lon="6.0487">
        <ele>383.4</ele>
        <time>2021-03-07T09:35:49Z</time>
      </trkpt>
      <trkpt lat="47.23328" lon="6.0487">
        <ele>383</ele>
        <time>2021-03-07T09:35:50Z</time>
      </trkpt>
      <trkpt lat="47.23326" lon="6.04872">
        <ele>381.8</ele>
        <time>2021-03-07T09:35:51Z</time>
      </trkpt>
      <trkpt lat="47.23322" lon="6.04881">
        <ele>380.4</ele>
        <time>2021-03-07T09:35:53Z</time>
      </trkpt>
      <trkpt lat="47.2332" lon="6.04888">
        <ele>380</ele>
        <time>2021-03-07T09:35:54Z</time>
      </trkpt>
      <trkpt lat="47.23317" lon="6.04895">
        <ele>379.4</ele>
        <time>2021-03-07T09:35:55Z</time>
      </trkpt>
      <trkpt lat="47.23313" lon="6.04901">
        <ele>379.2</ele>
        <time>2021-03-07T09:35:56Z</time>
      </trkpt>
      <trkpt lat="47.23309" lon="6.04908">
        <ele>378.6</ele>
        <time>2021-03-07T09:35:57Z</time>
      </trkpt>
      <trkpt lat="47.23298" lon="6.04924">
        <ele>378</ele>
        <time>2021-03-07T09:35:59Z</time>
      </trkpt>
      <trkpt lat="47.23287" lon="6.04941">
        <ele>376.6</ele>
        <time>2021-03-07T09:36:01Z</time>
      </trkpt>
      <trkpt lat="47.23281" lon="6.0495">
        <ele>376.2</ele>
        <time>2021-03-07T09:36:02Z</time>
      </trkpt>
      <trkpt lat="47.2327" lon="6.04967">
        <ele>375</ele>
        <time>2021-03-07T09:36:04Z</time>
      </trkpt>
      <trkpt lat="47.23265" lon="6.04975">
        <ele>374.6</ele>
        <time>2021-03-07T09:36:05Z</time>
      </trkpt>
      <trkpt lat="47.23259" lon="6.04982">
        <ele>374</ele>
        <time>2021-03-07T09:36:06Z</time>
      </trkpt>
      <trkpt lat="47.23253" lon="6.04988">
        <ele>373.8</ele>
        <time>2021-03-07T09:36:07Z</time>
      </trkpt>
      <trkpt lat="47.23248" lon="6.04993">
        <ele>373.4</ele>
        <time>2021-03-07T09:36:08Z</time>
      </trkpt>
      <trkpt lat="47.23243" lon="6.04996">
        <ele>373.4</ele>
        <time>2021-03-07T09:36:09Z</time>
      </trkpt>
      <trkpt lat="47.23239" lon="6.04998">
        <ele>373</ele>
        <time>2021-03-07T09:36:10Z</time>
      </trkpt>
      <trkpt lat="47.23234" lon="6.04999">
        <ele>373</ele>
        <time>2021-03-07T09:36:11Z</time>
      </trkpt>
      <trkpt lat="47.2323" lon="6.04998">
        <ele>373</ele>
        <time>2021-03-07T09:36:12Z</time>
      </trkpt>
      <trkpt lat="47.23226" lon="6.04997">
        <ele>372.8</ele>
        <time>2021-03-07T09:36:13Z</time>
      </trkpt>
      <trkpt lat="47.23221" lon="6.04994">
        <ele>372.8</ele>
        <time>2021-03-07T09:36:14Z</time>
      </trkpt>
      <trkpt lat="47.23216" lon="6.0499">
        <ele>372.8</ele>
        <time>2021-03-07T09:36:15Z</time>
      </trkpt>
      <trkpt lat="47.23212" lon="6.04985">
        <ele>372.8</ele>
        <time>2021-03-07T09:36:16Z</time>
      </trkpt>
      <trkpt lat="47.23208" lon="6.0498">
        <ele>372.4</ele>
        <time>2021-03-07T09:36:17Z</time>
      </trkpt>
      <trkpt lat="47.23204" lon="6.04974">
        <ele>372.4</ele>
        <time>2021-03-07T09:36:18Z</time>
      </trkpt>
      <trkpt lat="47.23196" lon="6.04964">
        <ele>372</ele>
        <time>2021-03-07T09:36:20Z</time>
      </trkpt>
      <trkpt lat="47.23192" lon="6.04959">
        <ele>371.6</ele>
        <time>2021-03-07T09:36:21Z</time>
      </trkpt>
      <trkpt lat="47.23188" lon="6.04953">
        <ele>371.4</ele>
        <time>2021-03-07T09:36:22Z</time>
      </trkpt>
      <trkpt lat="47.23179" lon="6.04936">
        <ele>370.8</ele>
        <time>2021-03-07T09:36:25Z</time>
      </trkpt>
      <trkpt lat="47.23177" lon="6.04932">
        <ele>370.6</ele>
        <time>2021-03-07T09:36:26Z</time>
      </trkpt>
      <trkpt lat="47.23176" lon="6.04928">
        <ele>370.4</ele>
        <time>2021-03-07T09:36:27Z</time>
      </trkpt>
      <trkpt lat="47.23174" lon="6.04924">
        <ele>370.2</ele>
        <time>2021-03-07T09:36:28Z</time>
      </trkpt>
      <trkpt lat="47.23173" lon="6.04919">
        <ele>370</ele>
        <time>2021-03-07T09:36:29Z</time>
      </trkpt>
      <trkpt lat="47.23171" lon="6.04916">
        <ele>369.8</ele>
        <time>2021-03-07T09:36:30Z</time>
      </trkpt>
      <trkpt lat="47.2317" lon="6.04911">
        <ele>369.8</ele>
        <time>2021-03-07T09:36:31Z</time>
      </trkpt>
      <trkpt lat="47.23168" lon="6.04907">
        <ele>369.4</ele>
        <time>2021-03-07T09:36:32Z</time>
      </trkpt>
      <trkpt lat="47.23167" lon="6.04903">
        <ele>369.2</ele>
        <time>2021-03-07T09:36:33Z</time>
      </trkpt>
      <trkpt lat="47.23166" lon="6.04899">
        <ele>368.6</ele>
        <time>2021-03-07T09:36:34Z</time>
      </trkpt>
      <trkpt lat="47.23166" lon="6.04896">
        <ele>368.4</ele>
        <time>2021-03-07T09:36:35Z</time>
      </trkpt>
      <trkpt lat="47.23165" lon="6.04893">
        <ele>367.6</ele>
        <time>2021-03-07T09:36:36Z</time>
      </trkpt>
      <trkpt lat="47.23165" lon="6.0489">
        <ele>367</ele>
        <time>2021-03-07T09:36:37Z</time>
      </trkpt>
      <trkpt lat="47.23165" lon="6.04888">
        <ele>366.2</ele>
        <time>2021-03-07T09:36:38Z</time>
      </trkpt>
      <trkpt lat="47.23164" lon="6.04885">
        <ele>365.6</ele>
        <time>2021-03-07T09:36:39Z</time>
      </trkpt>
      <trkpt lat="47.23164" lon="6.04882">
        <ele>364.8</ele>
        <time>2021-03-07T09:36:40Z</time>
      </trkpt>
      <trkpt lat="47.23164" lon="6.04877">
        <ele>363.6</ele>
        <time>2021-03-07T09:36:42Z</time>
      </trkpt>
      <trkpt lat="47.23163" lon="6.04875">
        <ele>362.6</ele>
        <time>2021-03-07T09:36:43Z</time>
      </trkpt>
      <trkpt lat="47.23162" lon="6.04873">
        <ele>362.2</ele>
        <time>2021-03-07T09:36:44Z</time>
      </trkpt>
      <trkpt lat="47.23162" lon="6.04872">
        <ele>361.6</ele>
        <time>2021-03-07T09:36:45Z</time>
      </trkpt>
      <trkpt lat="47.23161" lon="6.04869">
        <ele>361.2</ele>
        <time>2021-03-07T09:36:46Z</time>
      </trkpt>
      <trkpt lat="47.2316" lon="6.04867">
        <ele>360.2</ele>
        <time>2021-03-07T09:36:47Z</time>
      </trkpt>
      <trkpt lat="47.23159" lon="6.04865">
        <ele>359.6</ele>
        <time>2021-03-07T09:36:48Z</time>
      </trkpt>
      <trkpt lat="47.23159" lon="6.04865">
        <ele>359.2</ele>
        <time>2021-03-07T09:36:49Z</time>
      </trkpt>
      <trkpt lat="47.23159" lon="6.04865">
        <ele>357.8</ele>
        <time>2021-03-07T09:36:52Z</time>
      </trkpt>
      <trkpt lat="47.23159" lon="6.04865">
        <ele>356.4</ele>
        <time>2021-03-07T09:36:55Z</time>
      </trkpt>
      <trkpt lat="47.23158" lon="6.0486">
        <ele>355.8</ele>
        <time>2021-03-07T09:36:59Z</time>
      </trkpt>
      <trkpt lat="47.23158" lon="6.04857">
        <ele>355.8</ele>
        <time>2021-03-07T09:37:00Z</time>
      </trkpt>
      <trkpt lat="47.23159" lon="6.04846">
        <ele>355.4</ele>
        <time>2021-03-07T09:37:03Z</time>
      </trkpt>
      <trkpt lat="47.23159" lon="6.04843">
        <ele>354.8</ele>
        <time>2021-03-07T09:37:04Z</time>
      </trkpt>
      <trkpt lat="47.23159" lon="6.04842">
        <ele>354.8</ele>
        <time>2021-03-07T09:37:05Z</time>
      </trkpt>
      <trkpt lat="47.23156" lon="6.04839">
        <ele>353.8</ele>
        <time>2021-03-07T09:37:06Z</time>
      </trkpt>
      <trkpt lat="47.23154" lon="6.04836">
        <ele>353.4</ele>
        <time>2021-03-07T09:37:07Z</time>
      </trkpt>
      <trkpt lat="47.23153" lon="6.04833">
        <ele>352.4</ele>
        <time>2021-03-07T09:37:08Z</time>
      </trkpt>
      <trkpt lat="47.23152" lon="6.04828">
        <ele>351</ele>
        <time>2021-03-07T09:37:10Z</time>
      </trkpt>
      <trkpt lat="47.23152" lon="6.04826">
        <ele>350.2</ele>
        <time>2021-03-07T09:37:11Z</time>
      </trkpt>
      <trkpt lat="47.23153" lon="6.04824">
        <ele>350</ele>
        <time>2021-03-07T09:37:12Z</time>
      </trkpt>
      <trkpt lat="47.23152" lon="6.04821">
        <ele>349.4</ele>
        <time>2021-03-07T09:37:13Z</time>
      </trkpt>
      <trkpt lat="47.23152" lon="6.04818">
        <ele>348.8</ele>
        <time>2021-03-07T09:37:14Z</time>
      </trkpt>
      <trkpt lat="47.23152" lon="6.04816">
        <ele>348.2</ele>
        <time>2021-03-07T09:37:15Z</time>
      </trkpt>
      <trkpt lat="47.23152" lon="6.04812">
        <ele>347.6</ele>
        <time>2021-03-07T09:37:17Z</time>
      </trkpt>
      <trkpt lat="47.23151" lon="6.04809">
        <ele>347.4</ele>
        <time>2021-03-07T09:37:18Z</time>
      </trkpt>
      <trkpt lat="47.2315" lon="6.04804">
        <ele>347</ele>
        <time>2021-03-07T09:37:20Z</time>
      </trkpt>
      <trkpt lat="47.2315" lon="6.04802">
        <ele>346.4</ele>
        <time>2021-03-07T09:37:21Z</time>
      </trkpt>
      <trkpt lat="47.23149" lon="6.04799">
        <ele>345.6</ele>
        <time>2021-03-07T09:37:23Z</time>
      </trkpt>
      <trkpt lat="47.23148" lon="6.04799">
        <ele>344.8</ele>
        <time>2021-03-07T09:37:24Z</time>
      </trkpt>
      <trkpt lat="47.23149" lon="6.04797">
        <ele>344.2</ele>
        <time>2021-03-07T09:37:25Z</time>
      </trkpt>
      <trkpt lat="47.23149" lon="6.04795">
        <ele>343.6</ele>
        <time>2021-03-07T09:37:26Z</time>
      </trkpt>
      <trkpt lat="47.23149" lon="6.04793">
        <ele>343</ele>
        <time>2021-03-07T09:37:27Z</time>
      </trkpt>
      <trkpt lat="47.2315" lon="6.04794">
        <ele>342.2</ele>
        <time>2021-03-07T09:37:28Z</time>
      </trkpt>
      <trkpt lat="47.2315" lon="6.04794">
        <ele>341.2</ele>
        <time>2021-03-07T09:37:30Z</time>
      </trkpt>
      <trkpt lat="47.2315" lon="6.04793">
        <ele>340.4</ele>
        <time>2021-03-07T09:37:32Z</time>
      </trkpt>
      <trkpt lat="47.23155" lon="6.04796">
        <ele>340</ele>
        <time>2021-03-07T09:37:34Z</time>
      </trkpt>
      <trkpt lat="47.23157" lon="6.04799">
        <ele>339.8</ele>
        <time>2021-03-07T09:37:35Z</time>
      </trkpt>
      <trkpt lat="47.23158" lon="6.04801">
        <ele>339.6</ele>
        <time>2021-03-07T09:37:36Z</time>
      </trkpt>
      <trkpt lat="47.2316" lon="6.04802">
        <ele>339.4</ele>
        <time>2021-03-07T09:37:37Z</time>
      </trkpt>
      <trkpt lat="47.23161" lon="6.04801">
        <ele>339.2</ele>
        <time>2021-03-07T09:37:38Z</time>
      </trkpt>
      <trkpt lat="47.23162" lon="6.048">
        <ele>338.8</ele>
        <time>2021-03-07T09:37:39Z</time>
      </trkpt>
      <trkpt lat="47.23161" lon="6.04798">
        <ele>338.6</ele>
        <time>2021-03-07T09:37:40Z</time>
      </trkpt>
      <trkpt lat="47.23161" lon="6.04797">
        <ele>338.4</ele>
        <time>2021-03-07T09:37:41Z</time>
      </trkpt>
      <trkpt lat="47.23161" lon="6.04797">
        <ele>338</ele>
        <time>2021-03-07T09:37:45Z</time>
      </trkpt>
      <trkpt lat="47.23159" lon="6.04795">
        <ele>338.2</ele>
        <time>2021-03-07T09:38:07Z</time>
      </trkpt>
      <trkpt lat="47.23157" lon="6.04792">
        <ele>338.2</ele>
        <time>2021-03-07T09:38:09Z</time>
      </trkpt>
      <trkpt lat="47.23154" lon="6.04789">
        <ele>338.2</ele>
        <time>2021-03-07T09:38:11Z</time>
      </trkpt>
      <trkpt lat="47.23153" lon="6.04787">
        <ele>338.2</ele>
        <time>2021-03-07T09:38:12Z</time>
      </trkpt>
      <trkpt lat="47.23152" lon="6.04786">
        <ele>338</ele>
        <time>2021-03-07T09:38:13Z</time>
      </trkpt>
      <trkpt lat="47.23152" lon="6.04786">
        <ele>338</ele>
        <time>2021-03-07T09:38:14Z</time>
      </trkpt>
      <trkpt lat="47.23152" lon="6.04786">
        <ele>337.6</ele>
        <time>2021-03-07T09:38:15Z</time>
      </trkpt>
      <trkpt lat="47.23152" lon="6.04786">
        <ele>336.4</ele>
        <time>2021-03-07T09:38:20Z</time>
      </trkpt>
      <trkpt lat="47.23152" lon="6.04786">
        <ele>336</ele>
        <time>2021-03-07T09:38:27Z</time>
      </trkpt>
      <trkpt lat="47.23148" lon="6.04778">
        <ele>336</ele>
        <time>2021-03-07T09:38:54Z</time>
      </trkpt>
      <trkpt lat="47.23138" lon="6.04756">
        <ele>335.4</ele>
        <time>2021-03-07T09:38:58Z</time>
      </trkpt>
      <trkpt lat="47.23119" lon="6.04714">
        <ele>333.8</ele>
        <time>2021-03-07T09:39:02Z</time>
      </trkpt>
      <trkpt lat="47.23115" lon="6.04705">
        <ele>332.4</ele>
        <time>2021-03-07T09:39:03Z</time>
      </trkpt>
      <trkpt lat="47.23106" lon="6.04678">
        <ele>330.2</ele>
        <time>2021-03-07T09:39:05Z</time>
      </trkpt>
      <trkpt lat="47.23096" lon="6.04653">
        <ele>327.2</ele>
        <time>2021-03-07T09:39:07Z</time>
      </trkpt>
      <trkpt lat="47.23086" lon="6.0463">
        <ele>324.8</ele>
        <time>2021-03-07T09:39:09Z</time>
      </trkpt>
      <trkpt lat="47.23075" lon="6.04602">
        <ele>321.8</ele>
        <time>2021-03-07T09:39:11Z</time>
      </trkpt>
      <trkpt lat="47.23071" lon="6.04592">
        <ele>320.4</ele>
        <time>2021-03-07T09:39:12Z</time>
      </trkpt>
      <trkpt lat="47.23066" lon="6.04581">
        <ele>317.6</ele>
        <time>2021-03-07T09:39:13Z</time>
      </trkpt>
      <trkpt lat="47.23061" lon="6.04569">
        <ele>316</ele>
        <time>2021-03-07T09:39:14Z</time>
      </trkpt>
      <trkpt lat="47.23057" lon="6.04558">
        <ele>313.6</ele>
        <time>2021-03-07T09:39:15Z</time>
      </trkpt>
      <trkpt lat="47.23051" lon="6.04546">
        <ele>311.8</ele>
        <time>2021-03-07T09:39:16Z</time>
      </trkpt>
      <trkpt lat="47.23046" lon="6.04534">
        <ele>309</ele>
        <time>2021-03-07T09:39:17Z</time>
      </trkpt>
      <trkpt lat="47.23041" lon="6.04522">
        <ele>306.2</ele>
        <time>2021-03-07T09:39:18Z</time>
      </trkpt>
      <trkpt lat="47.23036" lon="6.0451">
        <ele>305.2</ele>
        <time>2021-03-07T09:39:19Z</time>
      </trkpt>
      <trkpt lat="47.23031" lon="6.04499">
        <ele>302.2</ele>
        <time>2021-03-07T09:39:20Z</time>
      </trkpt>
      <trkpt lat="47.23025" lon="6.04487">
        <ele>301</ele>
        <time>2021-03-07T09:39:21Z</time>
      </trkpt>
      <trkpt lat="47.23018" lon="6.04475">
        <ele>298.8</ele>
        <time>2021-03-07T09:39:22Z</time>
      </trkpt>
      <trkpt lat="47.23012" lon="6.04463">
        <ele>297.6</ele>
        <time>2021-03-07T09:39:23Z</time>
      </trkpt>
      <trkpt lat="47.23005" lon="6.0445">
        <ele>295.4</ele>
        <time>2021-03-07T09:39:24Z</time>
      </trkpt>
      <trkpt lat="47.22998" lon="6.04435">
        <ele>294.4</ele>
        <time>2021-03-07T09:39:25Z</time>
      </trkpt>
      <trkpt lat="47.22994" lon="6.04425">
        <ele>292.4</ele>
        <time>2021-03-07T09:39:26Z</time>
      </trkpt>
      <trkpt lat="47.22988" lon="6.04413">
        <ele>291.2</ele>
        <time>2021-03-07T09:39:27Z</time>
      </trkpt>
      <trkpt lat="47.22982" lon="6.04401">
        <ele>289</ele>
        <time>2021-03-07T09:39:28Z</time>
      </trkpt>
      <trkpt lat="47.22968" lon="6.04377">
        <ele>286.2</ele>
        <time>2021-03-07T09:39:30Z</time>
      </trkpt>
      <trkpt lat="47.22962" lon="6.04367">
        <ele>284.6</ele>
        <time>2021-03-07T09:39:31Z</time>
      </trkpt>
      <trkpt lat="47.22954" lon="6.04356">
        <ele>284</ele>
        <time>2021-03-07T09:39:32Z</time>
      </trkpt>
      <trkpt lat="47.2295" lon="6.0435">
        <ele>282.6</ele>
        <time>2021-03-07T09:39:33Z</time>
      </trkpt>
      <trkpt lat="47.22944" lon="6.04342">
        <ele>281.8</ele>
        <time>2021-03-07T09:39:34Z</time>
      </trkpt>
      <trkpt lat="47.22939" lon="6.04334">
        <ele>280.2</ele>
        <time>2021-03-07T09:39:35Z</time>
      </trkpt>
      <trkpt lat="47.22933" lon="6.04326">
        <ele>279.2</ele>
        <time>2021-03-07T09:39:36Z</time>
      </trkpt>
      <trkpt lat="47.22928" lon="6.04319">
        <ele>277.8</ele>
        <time>2021-03-07T09:39:37Z</time>
      </trkpt>
      <trkpt lat="47.22923" lon="6.04311">
        <ele>277.2</ele>
        <time>2021-03-07T09:39:38Z</time>
      </trkpt>
      <trkpt lat="47.22919" lon="6.04305">
        <ele>276</ele>
        <time>2021-03-07T09:39:39Z</time>
      </trkpt>
      <trkpt lat="47.22914" lon="6.04298">
        <ele>275.4</ele>
        <time>2021-03-07T09:39:40Z</time>
      </trkpt>
      <trkpt lat="47.22911" lon="6.04294">
        <ele>274.2</ele>
        <time>2021-03-07T09:39:41Z</time>
      </trkpt>
      <trkpt lat="47.22908" lon="6.0429">
        <ele>273.6</ele>
        <time>2021-03-07T09:39:42Z</time>
      </trkpt>
      <trkpt lat="47.22906" lon="6.04287">
        <ele>272.4</ele>
        <time>2021-03-07T09:39:43Z</time>
      </trkpt>
      <trkpt lat="47.22904" lon="6.04283">
        <ele>271.8</ele>
        <time>2021-03-07T09:39:44Z</time>
      </trkpt>
      <trkpt lat="47.22904" lon="6.0428">
        <ele>270.6</ele>
        <time>2021-03-07T09:39:45Z</time>
      </trkpt>
      <trkpt lat="47.22903" lon="6.04277">
        <ele>269.4</ele>
        <time>2021-03-07T09:39:46Z</time>
      </trkpt>
      <trkpt lat="47.22904" lon="6.04274">
        <ele>268.8</ele>
        <time>2021-03-07T09:39:47Z</time>
      </trkpt>
      <trkpt lat="47.22904" lon="6.0427">
        <ele>268</ele>
        <time>2021-03-07T09:39:48Z</time>
      </trkpt>
      <trkpt lat="47.22905" lon="6.04265">
        <ele>267.6</ele>
        <time>2021-03-07T09:39:49Z</time>
      </trkpt>
      <trkpt lat="47.22907" lon="6.0426">
        <ele>267.2</ele>
        <time>2021-03-07T09:39:50Z</time>
      </trkpt>
      <trkpt lat="47.2291" lon="6.04255">
        <ele>266.8</ele>
        <time>2021-03-07T09:39:51Z</time>
      </trkpt>
      <trkpt lat="47.22913" lon="6.0425">
        <ele>266.4</ele>
        <time>2021-03-07T09:39:52Z</time>
      </trkpt>
      <trkpt lat="47.22917" lon="6.04242">
        <ele>265.6</ele>
        <time>2021-03-07T09:39:54Z</time>
      </trkpt>
      <trkpt lat="47.22919" lon="6.0424">
        <ele>265.4</ele>
        <time>2021-03-07T09:39:55Z</time>
      </trkpt>
      <trkpt lat="47.2292" lon="6.04238">
        <ele>265.2</ele>
        <time>2021-03-07T09:39:56Z</time>
      </trkpt>
      <trkpt lat="47.22921" lon="6.04235">
        <ele>265</ele>
        <time>2021-03-07T09:39:57Z</time>
      </trkpt>
      <trkpt lat="47.22924" lon="6.04226">
        <ele>264.6</ele>
        <time>2021-03-07T09:39:59Z</time>
      </trkpt>
      <trkpt lat="47.22926" lon="6.04213">
        <ele>264</ele>
        <time>2021-03-07T09:40:01Z</time>
      </trkpt>
      <trkpt lat="47.22929" lon="6.04189">
        <ele>263.6</ele>
        <time>2021-03-07T09:40:04Z</time>
      </trkpt>
      <trkpt lat="47.22931" lon="6.04181">
        <ele>263.2</ele>
        <time>2021-03-07T09:40:05Z</time>
      </trkpt>
      <trkpt lat="47.22934" lon="6.04173">
        <ele>263</ele>
        <time>2021-03-07T09:40:06Z</time>
      </trkpt>
      <trkpt lat="47.22939" lon="6.04166">
        <ele>262.4</ele>
        <time>2021-03-07T09:40:07Z</time>
      </trkpt>
      <trkpt lat="47.22943" lon="6.04158">
        <ele>262.4</ele>
        <time>2021-03-07T09:40:08Z</time>
      </trkpt>
      <trkpt lat="47.22948" lon="6.0415">
        <ele>262</ele>
        <time>2021-03-07T09:40:09Z</time>
      </trkpt>
      <trkpt lat="47.22956" lon="6.04134">
        <ele>260.8</ele>
        <time>2021-03-07T09:40:11Z</time>
      </trkpt>
      <trkpt lat="47.22961" lon="6.04128">
        <ele>260.4</ele>
        <time>2021-03-07T09:40:12Z</time>
      </trkpt>
      <trkpt lat="47.2297" lon="6.04117">
        <ele>259.8</ele>
        <time>2021-03-07T09:40:14Z</time>
      </trkpt>
      <trkpt lat="47.22975" lon="6.04112">
        <ele>259.4</ele>
        <time>2021-03-07T09:40:15Z</time>
      </trkpt>
      <trkpt lat="47.2298" lon="6.04108">
        <ele>259</ele>
        <time>2021-03-07T09:40:16Z</time>
      </trkpt>
      <trkpt lat="47.22985" lon="6.04104">
        <ele>258.8</ele>
        <time>2021-03-07T09:40:17Z</time>
      </trkpt>
      <trkpt lat="47.22989" lon="6.041">
        <ele>258.6</ele>
        <time>2021-03-07T09:40:18Z</time>
      </trkpt>
      <trkpt lat="47.22993" lon="6.04096">
        <ele>258.6</ele>
        <time>2021-03-07T09:40:19Z</time>
      </trkpt>
      <trkpt lat="47.22997" lon="6.04092">
        <ele>258.4</ele>
        <time>2021-03-07T09:40:20Z</time>
      </trkpt>
      <trkpt lat="47.23001" lon="6.04088">
        <ele>258.4</ele>
        <time>2021-03-07T09:40:21Z</time>
      </trkpt>
      <trkpt lat="47.23004" lon="6.04084">
        <ele>258.4</ele>
        <time>2021-03-07T09:40:22Z</time>
      </trkpt>
      <trkpt lat="47.23007" lon="6.0408">
        <ele>258.4</ele>
        <time>2021-03-07T09:40:23Z</time>
      </trkpt>
      <trkpt lat="47.2301" lon="6.04077">
        <ele>258.2</ele>
        <time>2021-03-07T09:40:24Z</time>
      </trkpt>
      <trkpt lat="47.23013" lon="6.04073">
        <ele>258.2</ele>
        <time>2021-03-07T09:40:25Z</time>
      </trkpt>
      <trkpt lat="47.23016" lon="6.0407">
        <ele>258.2</ele>
        <time>2021-03-07T09:40:26Z</time>
      </trkpt>
      <trkpt lat="47.23019" lon="6.04068">
        <ele>258.2</ele>
        <time>2021-03-07T09:40:27Z</time>
      </trkpt>
      <trkpt lat="47.23036" lon="6.04047">
        <ele>258.2</ele>
        <time>2021-03-07T09:40:33Z</time>
      </trkpt>
      <trkpt lat="47.23045" lon="6.04038">
        <ele>258.2</ele>
        <time>2021-03-07T09:40:36Z</time>
      </trkpt>
      <trkpt lat="47.23047" lon="6.04035">
        <ele>258.2</ele>
        <time>2021-03-07T09:40:37Z</time>
      </trkpt>
      <trkpt lat="47.2305" lon="6.04033">
        <ele>258.2</ele>
        <time>2021-03-07T09:40:38Z</time>
      </trkpt>
      <trkpt lat="47.23052" lon="6.0403">
        <ele>258.2</ele>
        <time>2021-03-07T09:40:39Z</time>
      </trkpt>
      <trkpt lat="47.2306" lon="6.04022">
        <ele>258.2</ele>
        <time>2021-03-07T09:40:42Z</time>
      </trkpt>
      <trkpt lat="47.23062" lon="6.04019">
        <ele>258.4</ele>
        <time>2021-03-07T09:40:43Z</time>
      </trkpt>
      <trkpt lat="47.23065" lon="6.04017">
        <ele>258.4</ele>
        <time>2021-03-07T09:40:44Z</time>
      </trkpt>
      <trkpt lat="47.23068" lon="6.04014">
        <ele>258.4</ele>
        <time>2021-03-07T09:40:45Z</time>
      </trkpt>
      <trkpt lat="47.23083" lon="6.03996">
        <ele>258.4</ele>
        <time>2021-03-07T09:40:50Z</time>
      </trkpt>
      <trkpt lat="47.23102" lon="6.03979">
        <ele>258.4</ele>
        <time>2021-03-07T09:40:55Z</time>
      </trkpt>
      <trkpt lat="47.23132" lon="6.03946">
        <ele>258.8</ele>
        <time>2021-03-07T09:41:03Z</time>
      </trkpt>
      <trkpt lat="47.23138" lon="6.03934">
        <ele>258.8</ele>
        <time>2021-03-07T09:41:05Z</time>
      </trkpt>
      <trkpt lat="47.23139" lon="6.03928">
        <ele>258.8</ele>
        <time>2021-03-07T09:41:06Z</time>
      </trkpt>
      <trkpt lat="47.23139" lon="6.03922">
        <ele>258.8</ele>
        <time>2021-03-07T09:41:07Z</time>
      </trkpt>
      <trkpt lat="47.23134" lon="6.039">
        <ele>258.6</ele>
        <time>2021-03-07T09:41:10Z</time>
      </trkpt>
      <trkpt lat="47.23132" lon="6.03893">
        <ele>258.4</ele>
        <time>2021-03-07T09:41:11Z</time>
      </trkpt>
      <trkpt lat="47.23132" lon="6.03887">
        <ele>258.4</ele>
        <time>2021-03-07T09:41:12Z</time>
      </trkpt>
      <trkpt lat="47.23133" lon="6.03879">
        <ele>258.4</ele>
        <time>2021-03-07T09:41:13Z</time>
      </trkpt>
      <trkpt lat="47.23136" lon="6.03872">
        <ele>258.2</ele>
        <time>2021-03-07T09:41:14Z</time>
      </trkpt>
      <trkpt lat="47.23143" lon="6.03861">
        <ele>258.2</ele>
        <time>2021-03-07T09:41:16Z</time>
      </trkpt>
      <trkpt lat="47.23147" lon="6.03856">
        <ele>258.2</ele>
        <time>2021-03-07T09:41:17Z</time>
      </trkpt>
      <trkpt lat="47.23151" lon="6.03851">
        <ele>258</ele>
        <time>2021-03-07T09:41:18Z</time>
      </trkpt>
      <trkpt lat="47.23189" lon="6.0381">
        <ele>257.6</ele>
        <time>2021-03-07T09:41:27Z</time>
      </trkpt>
      <trkpt lat="47.23193" lon="6.03805">
        <ele>257.6</ele>
        <time>2021-03-07T09:41:28Z</time>
      </trkpt>
      <trkpt lat="47.23197" lon="6.03801">
        <ele>257.6</ele>
        <time>2021-03-07T09:41:29Z</time>
      </trkpt>
      <trkpt lat="47.23201" lon="6.03797">
        <ele>257.6</ele>
        <time>2021-03-07T09:41:30Z</time>
      </trkpt>
      <trkpt lat="47.23205" lon="6.03793">
        <ele>257.6</ele>
        <time>2021-03-07T09:41:31Z</time>
      </trkpt>
      <trkpt lat="47.23208" lon="6.03789">
        <ele>257.6</ele>
        <time>2021-03-07T09:41:32Z</time>
      </trkpt>
      <trkpt lat="47.23211" lon="6.03784">
        <ele>257.6</ele>
        <time>2021-03-07T09:41:33Z</time>
      </trkpt>
      <trkpt lat="47.23214" lon="6.03779">
        <ele>257.6</ele>
        <time>2021-03-07T09:41:34Z</time>
      </trkpt>
      <trkpt lat="47.23217" lon="6.03776">
        <ele>257.6</ele>
        <time>2021-03-07T09:41:35Z</time>
      </trkpt>
      <trkpt lat="47.23219" lon="6.03773">
        <ele>257.6</ele>
        <time>2021-03-07T09:41:36Z</time>
      </trkpt>
      <trkpt lat="47.23221" lon="6.03771">
        <ele>257.6</ele>
        <time>2021-03-07T09:41:37Z</time>
      </trkpt>
      <trkpt lat="47.23223" lon="6.03768">
        <ele>257.6</ele>
        <time>2021-03-07T09:41:38Z</time>
      </trkpt>
      <trkpt lat="47.23225" lon="6.03765">
        <ele>257.6</ele>
        <time>2021-03-07T09:41:39Z</time>
      </trkpt>
      <trkpt lat="47.23227" lon="6.03763">
        <ele>257.8</ele>
        <time>2021-03-07T09:41:40Z</time>
      </trkpt>
      <trkpt lat="47.23234" lon="6.0376">
        <ele>257.8</ele>
        <time>2021-03-07T09:41:42Z</time>
      </trkpt>
      <trkpt lat="47.23237" lon="6.0376">
        <ele>257.8</ele>
        <time>2021-03-07T09:41:43Z</time>
      </trkpt>
      <trkpt lat="47.2324" lon="6.0376">
        <ele>257.8</ele>
        <time>2021-03-07T09:41:44Z</time>
      </trkpt>
      <trkpt lat="47.23244" lon="6.0376">
        <ele>257.8</ele>
        <time>2021-03-07T09:41:45Z</time>
      </trkpt>
      <trkpt lat="47.23253" lon="6.03757">
        <ele>258</ele>
        <time>2021-03-07T09:41:47Z</time>
      </trkpt>
      <trkpt lat="47.23274" lon="6.03739">
        <ele>258</ele>
        <time>2021-03-07T09:41:51Z</time>
      </trkpt>
      <trkpt lat="47.23279" lon="6.03735">
        <ele>258</ele>
        <time>2021-03-07T09:41:52Z</time>
      </trkpt>
      <trkpt lat="47.23289" lon="6.03727">
        <ele>258</ele>
        <time>2021-03-07T09:41:54Z</time>
      </trkpt>
      <trkpt lat="47.23323" lon="6.03705">
        <ele>257.8</ele>
        <time>2021-03-07T09:42:01Z</time>
      </trkpt>
      <trkpt lat="47.23328" lon="6.03702">
        <ele>257.8</ele>
        <time>2021-03-07T09:42:02Z</time>
      </trkpt>
      <trkpt lat="47.23341" lon="6.03694">
        <ele>258</ele>
        <time>2021-03-07T09:42:05Z</time>
      </trkpt>
      <trkpt lat="47.23346" lon="6.03691">
        <ele>258</ele>
        <time>2021-03-07T09:42:06Z</time>
      </trkpt>
      <trkpt lat="47.2335" lon="6.03689">
        <ele>258</ele>
        <time>2021-03-07T09:42:07Z</time>
      </trkpt>
      <trkpt lat="47.23355" lon="6.03686">
        <ele>258</ele>
        <time>2021-03-07T09:42:08Z</time>
      </trkpt>
      <trkpt lat="47.23358" lon="6.03682">
        <ele>258</ele>
        <time>2021-03-07T09:42:09Z</time>
      </trkpt>
      <trkpt lat="47.23362" lon="6.03677">
        <ele>258</ele>
        <time>2021-03-07T09:42:10Z</time>
      </trkpt>
      <trkpt lat="47.23366" lon="6.03671">
        <ele>258</ele>
        <time>2021-03-07T09:42:11Z</time>
      </trkpt>
      <trkpt lat="47.2337" lon="6.03667">
        <ele>258.2</ele>
        <time>2021-03-07T09:42:12Z</time>
      </trkpt>
      <trkpt lat="47.23373" lon="6.03662">
        <ele>258.2</ele>
        <time>2021-03-07T09:42:13Z</time>
      </trkpt>
      <trkpt lat="47.23376" lon="6.03656">
        <ele>258.2</ele>
        <time>2021-03-07T09:42:14Z</time>
      </trkpt>
      <trkpt lat="47.23379" lon="6.03651">
        <ele>258.2</ele>
        <time>2021-03-07T09:42:15Z</time>
      </trkpt>
      <trkpt lat="47.23382" lon="6.03645">
        <ele>258.2</ele>
        <time>2021-03-07T09:42:16Z</time>
      </trkpt>
      <trkpt lat="47.23385" lon="6.03639">
        <ele>258.2</ele>
        <time>2021-03-07T09:42:17Z</time>
      </trkpt>
      <trkpt lat="47.23404" lon="6.03598">
        <ele>258.6</ele>
        <time>2021-03-07T09:42:24Z</time>
      </trkpt>
      <trkpt lat="47.23437" lon="6.03528">
        <ele>259</ele>
        <time>2021-03-07T09:42:35Z</time>
      </trkpt>
      <trkpt lat="47.2345" lon="6.03498">
        <ele>258.6</ele>
        <time>2021-03-07T09:42:40Z</time>
      </trkpt>
      <trkpt lat="47.23451" lon="6.03492">
        <ele>258.6</ele>
        <time>2021-03-07T09:42:41Z</time>
      </trkpt>
      <trkpt lat="47.23451" lon="6.03488">
        <ele>258.4</ele>
        <time>2021-03-07T09:42:42Z</time>
      </trkpt>
      <trkpt lat="47.23449" lon="6.03486">
        <ele>258.2</ele>
        <time>2021-03-07T09:42:43Z</time>
      </trkpt>
      <trkpt lat="47.23446" lon="6.03485">
        <ele>258.2</ele>
        <time>2021-03-07T09:42:44Z</time>
      </trkpt>
      <trkpt lat="47.23444" lon="6.03486">
        <ele>258</ele>
        <time>2021-03-07T09:42:45Z</time>
      </trkpt>
      <trkpt lat="47.23437" lon="6.03488">
        <ele>257.8</ele>
        <time>2021-03-07T09:42:47Z</time>
      </trkpt>
      <trkpt lat="47.23434" lon="6.03489">
        <ele>257.8</ele>
        <time>2021-03-07T09:42:48Z</time>
      </trkpt>
      <trkpt lat="47.23423" lon="6.03496">
        <ele>257.6</ele>
        <time>2021-03-07T09:42:51Z</time>
      </trkpt>
      <trkpt lat="47.23419" lon="6.03499">
        <ele>257.6</ele>
        <time>2021-03-07T09:42:52Z</time>
      </trkpt>
      <trkpt lat="47.23406" lon="6.03506">
        <ele>257.4</ele>
        <time>2021-03-07T09:42:55Z</time>
      </trkpt>
      <trkpt lat="47.23367" lon="6.0353">
        <ele>257.4</ele>
        <time>2021-03-07T09:43:04Z</time>
      </trkpt>
      <trkpt lat="47.23321" lon="6.03555">
        <ele>257.2</ele>
        <time>2021-03-07T09:43:14Z</time>
      </trkpt>
      <trkpt lat="47.23267" lon="6.03581">
        <ele>257.2</ele>
        <time>2021-03-07T09:43:25Z</time>
      </trkpt>
      <trkpt lat="47.23263" lon="6.03583">
        <ele>257.2</ele>
        <time>2021-03-07T09:43:26Z</time>
      </trkpt>
      <trkpt lat="47.23244" lon="6.03591">
        <ele>257.2</ele>
        <time>2021-03-07T09:43:30Z</time>
      </trkpt>
      <trkpt lat="47.23219" lon="6.03595">
        <ele>257.2</ele>
        <time>2021-03-07T09:43:35Z</time>
      </trkpt>
      <trkpt lat="47.23215" lon="6.03596">
        <ele>257.2</ele>
        <time>2021-03-07T09:43:36Z</time>
      </trkpt>
      <trkpt lat="47.23206" lon="6.03594">
        <ele>257.2</ele>
        <time>2021-03-07T09:43:38Z</time>
      </trkpt>
      <trkpt lat="47.23202" lon="6.03593">
        <ele>257.4</ele>
        <time>2021-03-07T09:43:39Z</time>
      </trkpt>
      <trkpt lat="47.23197" lon="6.03592">
        <ele>257.6</ele>
        <time>2021-03-07T09:43:40Z</time>
      </trkpt>
      <trkpt lat="47.23193" lon="6.03591">
        <ele>257.6</ele>
        <time>2021-03-07T09:43:41Z</time>
      </trkpt>
      <trkpt lat="47.23189" lon="6.0359">
        <ele>257.6</ele>
        <time>2021-03-07T09:43:42Z</time>
      </trkpt>
      <trkpt lat="47.23185" lon="6.03588">
        <ele>257.8</ele>
        <time>2021-03-07T09:43:43Z</time>
      </trkpt>
      <trkpt lat="47.23181" lon="6.03587">
        <ele>258</ele>
        <time>2021-03-07T09:43:44Z</time>
      </trkpt>
      <trkpt lat="47.23178" lon="6.03585">
        <ele>258</ele>
        <time>2021-03-07T09:43:45Z</time>
      </trkpt>
      <trkpt lat="47.23174" lon="6.03584">
        <ele>258</ele>
        <time>2021-03-07T09:43:46Z</time>
      </trkpt>
      <trkpt lat="47.23171" lon="6.03582">
        <ele>258.4</ele>
        <time>2021-03-07T09:43:47Z</time>
      </trkpt>
      <trkpt lat="47.23165" lon="6.03579">
        <ele>259</ele>
        <time>2021-03-07T09:43:49Z</time>
      </trkpt>
      <trkpt lat="47.23162" lon="6.03578">
        <ele>259</ele>
        <time>2021-03-07T09:43:50Z</time>
      </trkpt>
      <trkpt lat="47.23159" lon="6.03578">
        <ele>259.2</ele>
        <time>2021-03-07T09:43:51Z</time>
      </trkpt>
      <trkpt lat="47.23156" lon="6.03578">
        <ele>259.2</ele>
        <time>2021-03-07T09:43:52Z</time>
      </trkpt>
      <trkpt lat="47.23154" lon="6.03579">
        <ele>259.4</ele>
        <time>2021-03-07T09:43:53Z</time>
      </trkpt>
      <trkpt lat="47.23151" lon="6.03581">
        <ele>259.6</ele>
        <time>2021-03-07T09:43:54Z</time>
      </trkpt>
      <trkpt lat="47.23149" lon="6.03583">
        <ele>259.6</ele>
        <time>2021-03-07T09:43:55Z</time>
      </trkpt>
      <trkpt lat="47.2314" lon="6.0359">
        <ele>260</ele>
        <time>2021-03-07T09:43:58Z</time>
      </trkpt>
      <trkpt lat="47.23138" lon="6.03593">
        <ele>259.8</ele>
        <time>2021-03-07T09:43:59Z</time>
      </trkpt>
      <trkpt lat="47.23131" lon="6.03604">
        <ele>260</ele>
        <time>2021-03-07T09:44:02Z</time>
      </trkpt>
      <trkpt lat="47.23129" lon="6.03609">
        <ele>260</ele>
        <time>2021-03-07T09:44:03Z</time>
      </trkpt>
      <trkpt lat="47.23127" lon="6.03615">
        <ele>260</ele>
        <time>2021-03-07T09:44:04Z</time>
      </trkpt>
      <trkpt lat="47.23122" lon="6.03626">
        <ele>260</ele>
        <time>2021-03-07T09:44:06Z</time>
      </trkpt>
      <trkpt lat="47.2312" lon="6.0363">
        <ele>260</ele>
        <time>2021-03-07T09:44:07Z</time>
      </trkpt>
      <trkpt lat="47.23119" lon="6.03635">
        <ele>259.8</ele>
        <time>2021-03-07T09:44:08Z</time>
      </trkpt>
      <trkpt lat="47.2312" lon="6.03639">
        <ele>259.6</ele>
        <time>2021-03-07T09:44:09Z</time>
      </trkpt>
      <trkpt lat="47.23123" lon="6.0364">
        <ele>259</ele>
        <time>2021-03-07T09:44:10Z</time>
      </trkpt>
      <trkpt lat="47.23125" lon="6.03639">
        <ele>258.8</ele>
        <time>2021-03-07T09:44:11Z</time>
      </trkpt>
      <trkpt lat="47.23128" lon="6.03636">
        <ele>258.2</ele>
        <time>2021-03-07T09:44:12Z</time>
      </trkpt>
      <trkpt lat="47.23132" lon="6.03628">
        <ele>257.4</ele>
        <time>2021-03-07T09:44:14Z</time>
      </trkpt>
      <trkpt lat="47.23137" lon="6.03619">
        <ele>257.2</ele>
        <time>2021-03-07T09:44:16Z</time>
      </trkpt>
      <trkpt lat="47.23146" lon="6.03593">
        <ele>256.8</ele>
        <time>2021-03-07T09:44:21Z</time>
      </trkpt>
      <trkpt lat="47.23145" lon="6.03587">
        <ele>256.8</ele>
        <time>2021-03-07T09:44:22Z</time>
      </trkpt>
      <trkpt lat="47.23144" lon="6.03582">
        <ele>256.8</ele>
        <time>2021-03-07T09:44:23Z</time>
      </trkpt>
      <trkpt lat="47.23144" lon="6.03577">
        <ele>256.8</ele>
        <time>2021-03-07T09:44:24Z</time>
      </trkpt>
      <trkpt lat="47.23144" lon="6.03573">
        <ele>256.8</ele>
        <time>2021-03-07T09:44:25Z</time>
      </trkpt>
      <trkpt lat="47.23143" lon="6.03568">
        <ele>256.8</ele>
        <time>2021-03-07T09:44:26Z</time>
      </trkpt>
      <trkpt lat="47.23138" lon="6.03556">
        <ele>256.6</ele>
        <time>2021-03-07T09:44:28Z</time>
      </trkpt>
      <trkpt lat="47.23137" lon="6.03554">
        <ele>256.4</ele>
        <time>2021-03-07T09:44:29Z</time>
      </trkpt>
      <trkpt lat="47.23136" lon="6.03553">
        <ele>256.4</ele>
        <time>2021-03-07T09:44:30Z</time>
      </trkpt>
      <trkpt lat="47.23136" lon="6.0355">
        <ele>256.2</ele>
        <time>2021-03-07T09:44:31Z</time>
      </trkpt>
      <trkpt lat="47.23136" lon="6.03547">
        <ele>256</ele>
        <time>2021-03-07T09:44:32Z</time>
      </trkpt>
      <trkpt lat="47.23135" lon="6.03544">
        <ele>255.8</ele>
        <time>2021-03-07T09:44:33Z</time>
      </trkpt>
      <trkpt lat="47.23134" lon="6.03539">
        <ele>255.6</ele>
        <time>2021-03-07T09:44:34Z</time>
      </trkpt>
      <trkpt lat="47.22979" lon="6.0305">
        <ele>253</ele>
        <time>2021-03-07T09:45:45Z</time>
      </trkpt>
      <trkpt lat="47.22968" lon="6.03044">
        <ele>252.8</ele>
        <time>2021-03-07T09:45:46Z</time>
      </trkpt>
      <trkpt lat="47.22973" lon="6.03047">
        <ele>252.6</ele>
        <time>2021-03-07T09:45:47Z</time>
      </trkpt>
      <trkpt lat="47.22954" lon="6.03046">
        <ele>252.4</ele>
        <time>2021-03-07T09:45:51Z</time>
      </trkpt>
      <trkpt lat="47.22927" lon="6.0304">
        <ele>252.6</ele>
        <time>2021-03-07T09:45:59Z</time>
      </trkpt>
      <trkpt lat="47.22908" lon="6.03046">
        <ele>252.8</ele>
        <time>2021-03-07T09:46:05Z</time>
      </trkpt>
      <trkpt lat="47.22895" lon="6.03052">
        <ele>252.8</ele>
        <time>2021-03-07T09:46:09Z</time>
      </trkpt>
      <trkpt lat="47.22876" lon="6.03066">
        <ele>252.2</ele>
        <time>2021-03-07T09:46:15Z</time>
      </trkpt>
      <trkpt lat="47.22871" lon="6.0309">
        <ele>252</ele>
        <time>2021-03-07T09:46:19Z</time>
      </trkpt>
      <trkpt lat="47.22868" lon="6.03095">
        <ele>252</ele>
        <time>2021-03-07T09:46:20Z</time>
      </trkpt>
      <trkpt lat="47.22862" lon="6.03104">
        <ele>252</ele>
        <time>2021-03-07T09:46:22Z</time>
      </trkpt>
      <trkpt lat="47.22859" lon="6.03108">
        <ele>252</ele>
        <time>2021-03-07T09:46:23Z</time>
      </trkpt>
      <trkpt lat="47.22856" lon="6.03112">
        <ele>252</ele>
        <time>2021-03-07T09:46:24Z</time>
      </trkpt>
      <trkpt lat="47.22841" lon="6.03134">
        <ele>252</ele>
        <time>2021-03-07T09:46:29Z</time>
      </trkpt>
      <trkpt lat="47.22836" lon="6.03143">
        <ele>252</ele>
        <time>2021-03-07T09:46:31Z</time>
      </trkpt>
      <trkpt lat="47.22813" lon="6.03182">
        <ele>252.2</ele>
        <time>2021-03-07T09:46:39Z</time>
      </trkpt>
      <trkpt lat="47.22803" lon="6.03193">
        <ele>252.2</ele>
        <time>2021-03-07T09:46:42Z</time>
      </trkpt>
      <trkpt lat="47.228" lon="6.03196">
        <ele>252.2</ele>
        <time>2021-03-07T09:46:43Z</time>
      </trkpt>
      <trkpt lat="47.22796" lon="6.03198">
        <ele>252.2</ele>
        <time>2021-03-07T09:46:44Z</time>
      </trkpt>
      <trkpt lat="47.22788" lon="6.03204">
        <ele>252.2</ele>
        <time>2021-03-07T09:46:46Z</time>
      </trkpt>
      <trkpt lat="47.2276" lon="6.03223">
        <ele>252.2</ele>
        <time>2021-03-07T09:46:53Z</time>
      </trkpt>
      <trkpt lat="47.22748" lon="6.03228">
        <ele>252.4</ele>
        <time>2021-03-07T09:46:56Z</time>
      </trkpt>
      <trkpt lat="47.22745" lon="6.0323">
        <ele>252.4</ele>
        <time>2021-03-07T09:46:57Z</time>
      </trkpt>
      <trkpt lat="47.22741" lon="6.03232">
        <ele>252.6</ele>
        <time>2021-03-07T09:46:58Z</time>
      </trkpt>
      <trkpt lat="47.22738" lon="6.03233">
        <ele>252.8</ele>
        <time>2021-03-07T09:46:59Z</time>
      </trkpt>
      <trkpt lat="47.22734" lon="6.03235">
        <ele>252.8</ele>
        <time>2021-03-07T09:47:00Z</time>
      </trkpt>
      <trkpt lat="47.2273" lon="6.03237">
        <ele>252.8</ele>
        <time>2021-03-07T09:47:01Z</time>
      </trkpt>
      <trkpt lat="47.22727" lon="6.03238">
        <ele>253</ele>
        <time>2021-03-07T09:47:02Z</time>
      </trkpt>
      <trkpt lat="47.22724" lon="6.03239">
        <ele>253</ele>
        <time>2021-03-07T09:47:03Z</time>
      </trkpt>
      <trkpt lat="47.2272" lon="6.03239">
        <ele>253.2</ele>
        <time>2021-03-07T09:47:04Z</time>
      </trkpt>
      <trkpt lat="47.22717" lon="6.03237">
        <ele>253.2</ele>
        <time>2021-03-07T09:47:05Z</time>
      </trkpt>
      <trkpt lat="47.22714" lon="6.03235">
        <ele>253.4</ele>
        <time>2021-03-07T09:47:06Z</time>
      </trkpt>
      <trkpt lat="47.22713" lon="6.03231">
        <ele>253.6</ele>
        <time>2021-03-07T09:47:07Z</time>
      </trkpt>
      <trkpt lat="47.22712" lon="6.03227">
        <ele>254</ele>
        <time>2021-03-07T09:47:08Z</time>
      </trkpt>
      <trkpt lat="47.22711" lon="6.03222">
        <ele>254.2</ele>
        <time>2021-03-07T09:47:09Z</time>
      </trkpt>
      <trkpt lat="47.2271" lon="6.03217">
        <ele>254.4</ele>
        <time>2021-03-07T09:47:10Z</time>
      </trkpt>
      <trkpt lat="47.22709" lon="6.03213">
        <ele>254.6</ele>
        <time>2021-03-07T09:47:11Z</time>
      </trkpt>
      <trkpt lat="47.22707" lon="6.03199">
        <ele>254.8</ele>
        <time>2021-03-07T09:47:14Z</time>
      </trkpt>
      <trkpt lat="47.22701" lon="6.03171">
        <ele>255</ele>
        <time>2021-03-07T09:47:19Z</time>
      </trkpt>
      <trkpt lat="47.227" lon="6.03166">
        <ele>255</ele>
        <time>2021-03-07T09:47:20Z</time>
      </trkpt>
      <trkpt lat="47.22699" lon="6.0316">
        <ele>255.2</ele>
        <time>2021-03-07T09:47:21Z</time>
      </trkpt>
      <trkpt lat="47.22697" lon="6.03154">
        <ele>255.2</ele>
        <time>2021-03-07T09:47:22Z</time>
      </trkpt>
      <trkpt lat="47.22696" lon="6.03149">
        <ele>255.2</ele>
        <time>2021-03-07T09:47:23Z</time>
      </trkpt>
      <trkpt lat="47.22695" lon="6.03129">
        <ele>255</ele>
        <time>2021-03-07T09:47:27Z</time>
      </trkpt>
      <trkpt lat="47.22697" lon="6.03124">
        <ele>255</ele>
        <time>2021-03-07T09:47:28Z</time>
      </trkpt>
      <trkpt lat="47.22703" lon="6.03117">
        <ele>254.8</ele>
        <time>2021-03-07T09:47:30Z</time>
      </trkpt>
      <trkpt lat="47.22706" lon="6.03115">
        <ele>254.8</ele>
        <time>2021-03-07T09:47:31Z</time>
      </trkpt>
      <trkpt lat="47.2271" lon="6.03113">
        <ele>254.6</ele>
        <time>2021-03-07T09:47:32Z</time>
      </trkpt>
      <trkpt lat="47.22713" lon="6.0311">
        <ele>254.6</ele>
        <time>2021-03-07T09:47:33Z</time>
      </trkpt>
      <trkpt lat="47.22731" lon="6.03097">
        <ele>254.2</ele>
        <time>2021-03-07T09:47:37Z</time>
      </trkpt>
      <trkpt lat="47.22735" lon="6.03093">
        <ele>254.2</ele>
        <time>2021-03-07T09:47:38Z</time>
      </trkpt>
      <trkpt lat="47.2274" lon="6.0309">
        <ele>254</ele>
        <time>2021-03-07T09:47:39Z</time>
      </trkpt>
      <trkpt lat="47.22753" lon="6.0308">
        <ele>253.2</ele>
        <time>2021-03-07T09:47:42Z</time>
      </trkpt>
      <trkpt lat="47.22761" lon="6.03071">
        <ele>253</ele>
        <time>2021-03-07T09:47:44Z</time>
      </trkpt>
      <trkpt lat="47.22765" lon="6.03066">
        <ele>252.8</ele>
        <time>2021-03-07T09:47:45Z</time>
      </trkpt>
      <trkpt lat="47.22777" lon="6.03052">
        <ele>252</ele>
        <time>2021-03-07T09:47:48Z</time>
      </trkpt>
      <trkpt lat="47.22783" lon="6.03044">
        <ele>251.8</ele>
        <time>2021-03-07T09:47:50Z</time>
      </trkpt>
      <trkpt lat="47.22786" lon="6.0304">
        <ele>251.6</ele>
        <time>2021-03-07T09:47:51Z</time>
      </trkpt>
      <trkpt lat="47.22789" lon="6.03038">
        <ele>251.6</ele>
        <time>2021-03-07T09:47:52Z</time>
      </trkpt>
      <trkpt lat="47.22791" lon="6.03035">
        <ele>251.4</ele>
        <time>2021-03-07T09:47:53Z</time>
      </trkpt>
      <trkpt lat="47.22794" lon="6.03032">
        <ele>251.4</ele>
        <time>2021-03-07T09:47:54Z</time>
      </trkpt>
      <trkpt lat="47.22807" lon="6.03013">
        <ele>251.2</ele>
        <time>2021-03-07T09:47:59Z</time>
      </trkpt>
      <trkpt lat="47.22809" lon="6.03008">
        <ele>251.2</ele>
        <time>2021-03-07T09:48:00Z</time>
      </trkpt>
      <trkpt lat="47.22811" lon="6.03004">
        <ele>251.4</ele>
        <time>2021-03-07T09:48:01Z</time>
      </trkpt>
      <trkpt lat="47.22813" lon="6.03">
        <ele>251.4</ele>
        <time>2021-03-07T09:48:02Z</time>
      </trkpt>
      <trkpt lat="47.22815" lon="6.02997">
        <ele>251.4</ele>
        <time>2021-03-07T09:48:03Z</time>
      </trkpt>
      <trkpt lat="47.2282" lon="6.02991">
        <ele>251.4</ele>
        <time>2021-03-07T09:48:05Z</time>
      </trkpt>
      <trkpt lat="47.22823" lon="6.02988">
        <ele>251.4</ele>
        <time>2021-03-07T09:48:06Z</time>
      </trkpt>
      <trkpt lat="47.22826" lon="6.02985">
        <ele>251.6</ele>
        <time>2021-03-07T09:48:07Z</time>
      </trkpt>
      <trkpt lat="47.22828" lon="6.02982">
        <ele>251.6</ele>
        <time>2021-03-07T09:48:08Z</time>
      </trkpt>
      <trkpt lat="47.2283" lon="6.02978">
        <ele>251.6</ele>
        <time>2021-03-07T09:48:09Z</time>
      </trkpt>
      <trkpt lat="47.22833" lon="6.02973">
        <ele>251.6</ele>
        <time>2021-03-07T09:48:10Z</time>
      </trkpt>
      <trkpt lat="47.22842" lon="6.02948">
        <ele>252</ele>
        <time>2021-03-07T09:48:15Z</time>
      </trkpt>
      <trkpt lat="47.22844" lon="6.02943">
        <ele>252</ele>
        <time>2021-03-07T09:48:16Z</time>
      </trkpt>
      <trkpt lat="47.22846" lon="6.02937">
        <ele>252.2</ele>
        <time>2021-03-07T09:48:17Z</time>
      </trkpt>
      <trkpt lat="47.22857" lon="6.02908">
        <ele>252.2</ele>
        <time>2021-03-07T09:48:22Z</time>
      </trkpt>
      <trkpt lat="47.22862" lon="6.02891">
        <ele>252</ele>
        <time>2021-03-07T09:48:25Z</time>
      </trkpt>
      <trkpt lat="47.2287" lon="6.02868">
        <ele>251.8</ele>
        <time>2021-03-07T09:48:29Z</time>
      </trkpt>
      <trkpt lat="47.22873" lon="6.02858">
        <ele>251.8</ele>
        <time>2021-03-07T09:48:31Z</time>
      </trkpt>
      <trkpt lat="47.22874" lon="6.02853">
        <ele>251.8</ele>
        <time>2021-03-07T09:48:32Z</time>
      </trkpt>
      <trkpt lat="47.22875" lon="6.02848">
        <ele>251.8</ele>
        <time>2021-03-07T09:48:33Z</time>
      </trkpt>
      <trkpt lat="47.22876" lon="6.02843">
        <ele>251.8</ele>
        <time>2021-03-07T09:48:34Z</time>
      </trkpt>
      <trkpt lat="47.22878" lon="6.02837">
        <ele>251.8</ele>
        <time>2021-03-07T09:48:35Z</time>
      </trkpt>
      <trkpt lat="47.22879" lon="6.02831">
        <ele>251.8</ele>
        <time>2021-03-07T09:48:36Z</time>
      </trkpt>
      <trkpt lat="47.22881" lon="6.02826">
        <ele>251.8</ele>
        <time>2021-03-07T09:48:37Z</time>
      </trkpt>
      <trkpt lat="47.22882" lon="6.0282">
        <ele>251.8</ele>
        <time>2021-03-07T09:48:38Z</time>
      </trkpt>
      <trkpt lat="47.22887" lon="6.02799">
        <ele>251.8</ele>
        <time>2021-03-07T09:48:42Z</time>
      </trkpt>
      <trkpt lat="47.22888" lon="6.02794">
        <ele>251.8</ele>
        <time>2021-03-07T09:48:43Z</time>
      </trkpt>
      <trkpt lat="47.22889" lon="6.0279">
        <ele>251.8</ele>
        <time>2021-03-07T09:48:44Z</time>
      </trkpt>
      <trkpt lat="47.2289" lon="6.02786">
        <ele>251.8</ele>
        <time>2021-03-07T09:48:45Z</time>
      </trkpt>
      <trkpt lat="47.22891" lon="6.02782">
        <ele>252</ele>
        <time>2021-03-07T09:48:46Z</time>
      </trkpt>
      <trkpt lat="47.22892" lon="6.02779">
        <ele>252</ele>
        <time>2021-03-07T09:48:47Z</time>
      </trkpt>
      <trkpt lat="47.22894" lon="6.02776">
        <ele>252</ele>
        <time>2021-03-07T09:48:48Z</time>
      </trkpt>
      <trkpt lat="47.22895" lon="6.02772">
        <ele>252.2</ele>
        <time>2021-03-07T09:48:49Z</time>
      </trkpt>
      <trkpt lat="47.22897" lon="6.02768">
        <ele>252.2</ele>
        <time>2021-03-07T09:48:50Z</time>
      </trkpt>
      <trkpt lat="47.22898" lon="6.02764">
        <ele>252.4</ele>
        <time>2021-03-07T09:48:51Z</time>
      </trkpt>
      <trkpt lat="47.22899" lon="6.0276">
        <ele>252.4</ele>
        <time>2021-03-07T09:48:52Z</time>
      </trkpt>
      <trkpt lat="47.229" lon="6.02757">
        <ele>252.6</ele>
        <time>2021-03-07T09:48:53Z</time>
      </trkpt>
      <trkpt lat="47.22901" lon="6.0275">
        <ele>252.8</ele>
        <time>2021-03-07T09:48:55Z</time>
      </trkpt>
      <trkpt lat="47.22902" lon="6.02746">
        <ele>253</ele>
        <time>2021-03-07T09:48:56Z</time>
      </trkpt>
      <trkpt lat="47.22903" lon="6.02742">
        <ele>253.4</ele>
        <time>2021-03-07T09:48:57Z</time>
      </trkpt>
      <trkpt lat="47.22904" lon="6.02739">
        <ele>253.6</ele>
        <time>2021-03-07T09:48:58Z</time>
      </trkpt>
      <trkpt lat="47.22905" lon="6.02734">
        <ele>253.6</ele>
        <time>2021-03-07T09:48:59Z</time>
      </trkpt>
      <trkpt lat="47.22906" lon="6.0273">
        <ele>253.8</ele>
        <time>2021-03-07T09:49:00Z</time>
      </trkpt>
      <trkpt lat="47.22907" lon="6.02726">
        <ele>253.8</ele>
        <time>2021-03-07T09:49:01Z</time>
      </trkpt>
      <trkpt lat="47.22909" lon="6.02715">
        <ele>253.8</ele>
        <time>2021-03-07T09:49:03Z</time>
      </trkpt>
      <trkpt lat="47.22911" lon="6.02711">
        <ele>254</ele>
        <time>2021-03-07T09:49:04Z</time>
      </trkpt>
      <trkpt lat="47.22919" lon="6.02682">
        <ele>254</ele>
        <time>2021-03-07T09:49:09Z</time>
      </trkpt>
      <trkpt lat="47.22921" lon="6.02676">
        <ele>254</ele>
        <time>2021-03-07T09:49:10Z</time>
      </trkpt>
      <trkpt lat="47.22932" lon="6.0264">
        <ele>254</ele>
        <time>2021-03-07T09:49:16Z</time>
      </trkpt>
      <trkpt lat="47.22938" lon="6.02608">
        <ele>254</ele>
        <time>2021-03-07T09:49:21Z</time>
      </trkpt>
      <trkpt lat="47.22949" lon="6.02565">
        <ele>253.8</ele>
        <time>2021-03-07T09:49:28Z</time>
      </trkpt>
      <trkpt lat="47.22957" lon="6.02535">
        <ele>253.8</ele>
        <time>2021-03-07T09:49:33Z</time>
      </trkpt>
      <trkpt lat="47.22958" lon="6.0253">
        <ele>253.8</ele>
        <time>2021-03-07T09:49:34Z</time>
      </trkpt>
      <trkpt lat="47.22964" lon="6.02495">
        <ele>254</ele>
        <time>2021-03-07T09:49:40Z</time>
      </trkpt>
      <trkpt lat="47.22966" lon="6.0248">
        <ele>254</ele>
        <time>2021-03-07T09:49:43Z</time>
      </trkpt>
      <trkpt lat="47.22966" lon="6.02476">
        <ele>254.2</ele>
        <time>2021-03-07T09:49:44Z</time>
      </trkpt>
      <trkpt lat="47.22966" lon="6.02471">
        <ele>254.2</ele>
        <time>2021-03-07T09:49:45Z</time>
      </trkpt>
      <trkpt lat="47.22966" lon="6.02467">
        <ele>254.4</ele>
        <time>2021-03-07T09:49:46Z</time>
      </trkpt>
      <trkpt lat="47.22966" lon="6.02463">
        <ele>254.4</ele>
        <time>2021-03-07T09:49:47Z</time>
      </trkpt>
      <trkpt lat="47.22966" lon="6.02459">
        <ele>254.4</ele>
        <time>2021-03-07T09:49:48Z</time>
      </trkpt>
      <trkpt lat="47.22967" lon="6.02454">
        <ele>254.6</ele>
        <time>2021-03-07T09:49:49Z</time>
      </trkpt>
      <trkpt lat="47.22967" lon="6.0245">
        <ele>254.6</ele>
        <time>2021-03-07T09:49:50Z</time>
      </trkpt>
      <trkpt lat="47.22969" lon="6.02446">
        <ele>254.8</ele>
        <time>2021-03-07T09:49:51Z</time>
      </trkpt>
      <trkpt lat="47.2297" lon="6.02442">
        <ele>255</ele>
        <time>2021-03-07T09:49:52Z</time>
      </trkpt>
      <trkpt lat="47.22971" lon="6.02437">
        <ele>255.2</ele>
        <time>2021-03-07T09:49:53Z</time>
      </trkpt>
      <trkpt lat="47.22972" lon="6.02433">
        <ele>255.4</ele>
        <time>2021-03-07T09:49:54Z</time>
      </trkpt>
      <trkpt lat="47.22975" lon="6.02423">
        <ele>255.6</ele>
        <time>2021-03-07T09:49:56Z</time>
      </trkpt>
      <trkpt lat="47.22981" lon="6.02401">
        <ele>255.8</ele>
        <time>2021-03-07T09:50:00Z</time>
      </trkpt>
      <trkpt lat="47.22984" lon="6.02388">
        <ele>255.8</ele>
        <time>2021-03-07T09:50:02Z</time>
      </trkpt>
      <trkpt lat="47.22985" lon="6.02375">
        <ele>255.6</ele>
        <time>2021-03-07T09:50:04Z</time>
      </trkpt>
      <trkpt lat="47.22985" lon="6.02368">
        <ele>255.6</ele>
        <time>2021-03-07T09:50:05Z</time>
      </trkpt>
      <trkpt lat="47.22985" lon="6.02363">
        <ele>255.6</ele>
        <time>2021-03-07T09:50:06Z</time>
      </trkpt>
      <trkpt lat="47.22985" lon="6.02346">
        <ele>255.4</ele>
        <time>2021-03-07T09:50:09Z</time>
      </trkpt>
      <trkpt lat="47.22985" lon="6.02341">
        <ele>255.4</ele>
        <time>2021-03-07T09:50:10Z</time>
      </trkpt>
      <trkpt lat="47.22985" lon="6.02336">
        <ele>255.4</ele>
        <time>2021-03-07T09:50:11Z</time>
      </trkpt>
      <trkpt lat="47.22984" lon="6.0233">
        <ele>255.4</ele>
        <time>2021-03-07T09:50:12Z</time>
      </trkpt>
      <trkpt lat="47.22984" lon="6.02325">
        <ele>255.4</ele>
        <time>2021-03-07T09:50:13Z</time>
      </trkpt>
      <trkpt lat="47.22984" lon="6.02319">
        <ele>255.4</ele>
        <time>2021-03-07T09:50:14Z</time>
      </trkpt>
      <trkpt lat="47.22985" lon="6.02313">
        <ele>255.4</ele>
        <time>2021-03-07T09:50:15Z</time>
      </trkpt>
      <trkpt lat="47.22984" lon="6.02301">
        <ele>255.6</ele>
        <time>2021-03-07T09:50:17Z</time>
      </trkpt>
      <trkpt lat="47.22985" lon="6.02259">
        <ele>255.6</ele>
        <time>2021-03-07T09:50:24Z</time>
      </trkpt>
      <trkpt lat="47.22987" lon="6.0222">
        <ele>255.6</ele>
        <time>2021-03-07T09:50:30Z</time>
      </trkpt>
      <trkpt lat="47.22988" lon="6.02184">
        <ele>255.4</ele>
        <time>2021-03-07T09:50:36Z</time>
      </trkpt>
      <trkpt lat="47.22988" lon="6.02178">
        <ele>255.4</ele>
        <time>2021-03-07T09:50:37Z</time>
      </trkpt>
      <trkpt lat="47.22989" lon="6.02173">
        <ele>255.6</ele>
        <time>2021-03-07T09:50:38Z</time>
      </trkpt>
      <trkpt lat="47.22988" lon="6.02142">
        <ele>255.6</ele>
        <time>2021-03-07T09:50:43Z</time>
      </trkpt>
      <trkpt lat="47.22988" lon="6.02105">
        <ele>255.6</ele>
        <time>2021-03-07T09:50:49Z</time>
      </trkpt>
      <trkpt lat="47.22988" lon="6.02081">
        <ele>255.6</ele>
        <time>2021-03-07T09:50:53Z</time>
      </trkpt>
      <trkpt lat="47.22987" lon="6.02076">
        <ele>255.6</ele>
        <time>2021-03-07T09:50:54Z</time>
      </trkpt>
      <trkpt lat="47.22987" lon="6.0207">
        <ele>255.6</ele>
        <time>2021-03-07T09:50:55Z</time>
      </trkpt>
      <trkpt lat="47.22987" lon="6.02064">
        <ele>255.6</ele>
        <time>2021-03-07T09:50:56Z</time>
      </trkpt>
      <trkpt lat="47.22987" lon="6.02057">
        <ele>255.6</ele>
        <time>2021-03-07T09:50:57Z</time>
      </trkpt>
      <trkpt lat="47.22987" lon="6.02051">
        <ele>255.6</ele>
        <time>2021-03-07T09:50:58Z</time>
      </trkpt>
      <trkpt lat="47.22987" lon="6.02046">
        <ele>255.6</ele>
        <time>2021-03-07T09:50:59Z</time>
      </trkpt>
      <trkpt lat="47.22987" lon="6.0204">
        <ele>255.8</ele>
        <time>2021-03-07T09:51:00Z</time>
      </trkpt>
      <trkpt lat="47.22987" lon="6.02034">
        <ele>255.8</ele>
        <time>2021-03-07T09:51:01Z</time>
      </trkpt>
      <trkpt lat="47.22985" lon="6.02016">
        <ele>256</ele>
        <time>2021-03-07T09:51:04Z</time>
      </trkpt>
      <trkpt lat="47.22983" lon="6.02005">
        <ele>256.2</ele>
        <time>2021-03-07T09:51:06Z</time>
      </trkpt>
      <trkpt lat="47.22981" lon="6.0199">
        <ele>256.4</ele>
        <time>2021-03-07T09:51:09Z</time>
      </trkpt>
      <trkpt lat="47.2298" lon="6.01985">
        <ele>256.4</ele>
        <time>2021-03-07T09:51:10Z</time>
      </trkpt>
      <trkpt lat="47.22979" lon="6.01981">
        <ele>256.4</ele>
        <time>2021-03-07T09:51:11Z</time>
      </trkpt>
      <trkpt lat="47.22978" lon="6.01976">
        <ele>256.4</ele>
        <time>2021-03-07T09:51:12Z</time>
      </trkpt>
      <trkpt lat="47.22977" lon="6.01971">
        <ele>256.4</ele>
        <time>2021-03-07T09:51:13Z</time>
      </trkpt>
      <trkpt lat="47.22977" lon="6.01966">
        <ele>256.4</ele>
        <time>2021-03-07T09:51:14Z</time>
      </trkpt>
      <trkpt lat="47.22976" lon="6.01961">
        <ele>256.4</ele>
        <time>2021-03-07T09:51:15Z</time>
      </trkpt>
      <trkpt lat="47.22976" lon="6.01955">
        <ele>256.4</ele>
        <time>2021-03-07T09:51:16Z</time>
      </trkpt>
      <trkpt lat="47.22975" lon="6.01949">
        <ele>256.4</ele>
        <time>2021-03-07T09:51:17Z</time>
      </trkpt>
      <trkpt lat="47.22973" lon="6.01936">
        <ele>256.6</ele>
        <time>2021-03-07T09:51:19Z</time>
      </trkpt>
      <trkpt lat="47.22972" lon="6.01914">
        <ele>256.8</ele>
        <time>2021-03-07T09:51:22Z</time>
      </trkpt>
      <trkpt lat="47.22973" lon="6.01907">
        <ele>257</ele>
        <time>2021-03-07T09:51:23Z</time>
      </trkpt>
      <trkpt lat="47.22972" lon="6.01895">
        <ele>256.8</ele>
        <time>2021-03-07T09:51:25Z</time>
      </trkpt>
      <trkpt lat="47.22971" lon="6.01866">
        <ele>256.8</ele>
        <time>2021-03-07T09:51:30Z</time>
      </trkpt>
      <trkpt lat="47.2297" lon="6.01861">
        <ele>256.8</ele>
        <time>2021-03-07T09:51:31Z</time>
      </trkpt>
      <trkpt lat="47.22971" lon="6.01855">
        <ele>257</ele>
        <time>2021-03-07T09:51:32Z</time>
      </trkpt>
      <trkpt lat="47.22971" lon="6.0185">
        <ele>257</ele>
        <time>2021-03-07T09:51:33Z</time>
      </trkpt>
      <trkpt lat="47.22973" lon="6.01844">
        <ele>257</ele>
        <time>2021-03-07T09:51:34Z</time>
      </trkpt>
      <trkpt lat="47.22974" lon="6.01839">
        <ele>257</ele>
        <time>2021-03-07T09:51:35Z</time>
      </trkpt>
      <trkpt lat="47.22975" lon="6.01833">
        <ele>257</ele>
        <time>2021-03-07T09:51:36Z</time>
      </trkpt>
      <trkpt lat="47.22976" lon="6.01828">
        <ele>257</ele>
        <time>2021-03-07T09:51:37Z</time>
      </trkpt>
      <trkpt lat="47.22976" lon="6.01824">
        <ele>257</ele>
        <time>2021-03-07T09:51:38Z</time>
      </trkpt>
      <trkpt lat="47.22977" lon="6.0182">
        <ele>257.2</ele>
        <time>2021-03-07T09:51:39Z</time>
      </trkpt>
      <trkpt lat="47.22985" lon="6.01796">
        <ele>257.2</ele>
        <time>2021-03-07T09:51:43Z</time>
      </trkpt>
      <trkpt lat="47.22998" lon="6.0177">
        <ele>256.8</ele>
        <time>2021-03-07T09:51:47Z</time>
      </trkpt>
      <trkpt lat="47.23002" lon="6.01766">
        <ele>256.6</ele>
        <time>2021-03-07T09:51:48Z</time>
      </trkpt>
      <trkpt lat="47.23006" lon="6.01763">
        <ele>256.4</ele>
        <time>2021-03-07T09:51:49Z</time>
      </trkpt>
      <trkpt lat="47.23009" lon="6.0176">
        <ele>256.2</ele>
        <time>2021-03-07T09:51:50Z</time>
      </trkpt>
      <trkpt lat="47.23012" lon="6.01758">
        <ele>255.8</ele>
        <time>2021-03-07T09:51:51Z</time>
      </trkpt>
      <trkpt lat="47.23012" lon="6.01758">
        <ele>255.6</ele>
        <time>2021-03-07T09:51:52Z</time>
      </trkpt>
      <trkpt lat="47.23012" lon="6.01758">
        <ele>255.4</ele>
        <time>2021-03-07T09:51:53Z</time>
      </trkpt>
      <trkpt lat="47.23012" lon="6.01758">
        <ele>254.8</ele>
        <time>2021-03-07T09:52:02Z</time>
      </trkpt>
      <trkpt lat="47.23013" lon="6.01757">
        <ele>255</ele>
        <time>2021-03-07T09:53:00Z</time>
      </trkpt>
      <trkpt lat="47.23019" lon="6.01746">
        <ele>255</ele>
        <time>2021-03-07T09:53:03Z</time>
      </trkpt>
      <trkpt lat="47.23024" lon="6.0173">
        <ele>255</ele>
        <time>2021-03-07T09:53:06Z</time>
      </trkpt>
      <trkpt lat="47.23025" lon="6.01724">
        <ele>255.2</ele>
        <time>2021-03-07T09:53:07Z</time>
      </trkpt>
      <trkpt lat="47.23025" lon="6.01718">
        <ele>255.2</ele>
        <time>2021-03-07T09:53:08Z</time>
      </trkpt>
      <trkpt lat="47.23024" lon="6.01696">
        <ele>256</ele>
        <time>2021-03-07T09:53:14Z</time>
      </trkpt>
      <trkpt lat="47.23024" lon="6.01693">
        <ele>256</ele>
        <time>2021-03-07T09:53:15Z</time>
      </trkpt>
      <trkpt lat="47.23024" lon="6.0169">
        <ele>256.6</ele>
        <time>2021-03-07T09:53:16Z</time>
      </trkpt>
      <trkpt lat="47.23023" lon="6.01688">
        <ele>257.2</ele>
        <time>2021-03-07T09:53:17Z</time>
      </trkpt>
      <trkpt lat="47.23023" lon="6.01685">
        <ele>257.6</ele>
        <time>2021-03-07T09:53:18Z</time>
      </trkpt>
      <trkpt lat="47.23023" lon="6.01682">
        <ele>258.2</ele>
        <time>2021-03-07T09:53:19Z</time>
      </trkpt>
      <trkpt lat="47.23023" lon="6.01679">
        <ele>258.2</ele>
        <time>2021-03-07T09:53:20Z</time>
      </trkpt>
      <trkpt lat="47.23023" lon="6.01676">
        <ele>258.8</ele>
        <time>2021-03-07T09:53:21Z</time>
      </trkpt>
      <trkpt lat="47.23023" lon="6.01673">
        <ele>259</ele>
        <time>2021-03-07T09:53:22Z</time>
      </trkpt>
      <trkpt lat="47.23023" lon="6.0167">
        <ele>259.4</ele>
        <time>2021-03-07T09:53:23Z</time>
      </trkpt>
      <trkpt lat="47.23023" lon="6.01668">
        <ele>259.6</ele>
        <time>2021-03-07T09:53:24Z</time>
      </trkpt>
      <trkpt lat="47.23022" lon="6.01666">
        <ele>259.8</ele>
        <time>2021-03-07T09:53:25Z</time>
      </trkpt>
      <trkpt lat="47.23021" lon="6.01664">
        <ele>260.2</ele>
        <time>2021-03-07T09:53:26Z</time>
      </trkpt>
      <trkpt lat="47.23021" lon="6.01661">
        <ele>260.4</ele>
        <time>2021-03-07T09:53:27Z</time>
      </trkpt>
      <trkpt lat="47.2302" lon="6.01658">
        <ele>260.6</ele>
        <time>2021-03-07T09:53:28Z</time>
      </trkpt>
      <trkpt lat="47.2302" lon="6.01655">
        <ele>261</ele>
        <time>2021-03-07T09:53:29Z</time>
      </trkpt>
      <trkpt lat="47.2302" lon="6.01653">
        <ele>261</ele>
        <time>2021-03-07T09:53:30Z</time>
      </trkpt>
      <trkpt lat="47.2302" lon="6.01651">
        <ele>261.6</ele>
        <time>2021-03-07T09:53:31Z</time>
      </trkpt>
      <trkpt lat="47.2302" lon="6.01649">
        <ele>261.8</ele>
        <time>2021-03-07T09:53:32Z</time>
      </trkpt>
      <trkpt lat="47.2302" lon="6.01645">
        <ele>262</ele>
        <time>2021-03-07T09:53:33Z</time>
      </trkpt>
      <trkpt lat="47.23019" lon="6.01643">
        <ele>262</ele>
        <time>2021-03-07T09:53:34Z</time>
      </trkpt>
      <trkpt lat="47.23019" lon="6.0164">
        <ele>262.2</ele>
        <time>2021-03-07T09:53:35Z</time>
      </trkpt>
      <trkpt lat="47.23019" lon="6.01638">
        <ele>262.4</ele>
        <time>2021-03-07T09:53:36Z</time>
      </trkpt>
      <trkpt lat="47.23019" lon="6.01636">
        <ele>262.6</ele>
        <time>2021-03-07T09:53:37Z</time>
      </trkpt>
      <trkpt lat="47.23019" lon="6.01633">
        <ele>262.6</ele>
        <time>2021-03-07T09:53:38Z</time>
      </trkpt>
      <trkpt lat="47.23019" lon="6.0163">
        <ele>262.8</ele>
        <time>2021-03-07T09:53:39Z</time>
      </trkpt>
      <trkpt lat="47.23019" lon="6.01628">
        <ele>263</ele>
        <time>2021-03-07T09:53:40Z</time>
      </trkpt>
      <trkpt lat="47.23019" lon="6.01626">
        <ele>263.4</ele>
        <time>2021-03-07T09:53:41Z</time>
      </trkpt>
      <trkpt lat="47.23019" lon="6.01623">
        <ele>263.4</ele>
        <time>2021-03-07T09:53:42Z</time>
      </trkpt>
      <trkpt lat="47.23019" lon="6.01621">
        <ele>263.4</ele>
        <time>2021-03-07T09:53:43Z</time>
      </trkpt>
      <trkpt lat="47.23019" lon="6.01619">
        <ele>263.6</ele>
        <time>2021-03-07T09:53:44Z</time>
      </trkpt>
      <trkpt lat="47.23019" lon="6.01618">
        <ele>263.8</ele>
        <time>2021-03-07T09:53:46Z</time>
      </trkpt>
      <trkpt lat="47.23019" lon="6.01617">
        <ele>264.4</ele>
        <time>2021-03-07T09:53:52Z</time>
      </trkpt>
      <trkpt lat="47.23018" lon="6.01614">
        <ele>264.4</ele>
        <time>2021-03-07T09:53:53Z</time>
      </trkpt>
      <trkpt lat="47.23018" lon="6.01612">
        <ele>264.4</ele>
        <time>2021-03-07T09:53:54Z</time>
      </trkpt>
      <trkpt lat="47.23018" lon="6.0161">
        <ele>264.6</ele>
        <time>2021-03-07T09:53:55Z</time>
      </trkpt>
      <trkpt lat="47.23018" lon="6.01608">
        <ele>264.6</ele>
        <time>2021-03-07T09:53:56Z</time>
      </trkpt>
      <trkpt lat="47.23018" lon="6.01606">
        <ele>264.8</ele>
        <time>2021-03-07T09:53:57Z</time>
      </trkpt>
      <trkpt lat="47.23017" lon="6.01604">
        <ele>264.8</ele>
        <time>2021-03-07T09:53:58Z</time>
      </trkpt>
      <trkpt lat="47.23017" lon="6.01601">
        <ele>264.8</ele>
        <time>2021-03-07T09:53:59Z</time>
      </trkpt>
      <trkpt lat="47.23016" lon="6.01599">
        <ele>264.8</ele>
        <time>2021-03-07T09:54:00Z</time>
      </trkpt>
      <trkpt lat="47.23016" lon="6.01597">
        <ele>265</ele>
        <time>2021-03-07T09:54:01Z</time>
      </trkpt>
      <trkpt lat="47.23016" lon="6.01595">
        <ele>265.4</ele>
        <time>2021-03-07T09:54:02Z</time>
      </trkpt>
      <trkpt lat="47.23015" lon="6.01592">
        <ele>265.4</ele>
        <time>2021-03-07T09:54:03Z</time>
      </trkpt>
      <trkpt lat="47.23015" lon="6.0159">
        <ele>265.8</ele>
        <time>2021-03-07T09:54:04Z</time>
      </trkpt>
      <trkpt lat="47.23015" lon="6.01588">
        <ele>266</ele>
        <time>2021-03-07T09:54:05Z</time>
      </trkpt>
      <trkpt lat="47.23016" lon="6.01586">
        <ele>266.2</ele>
        <time>2021-03-07T09:54:06Z</time>
      </trkpt>
      <trkpt lat="47.23016" lon="6.01584">
        <ele>266.4</ele>
        <time>2021-03-07T09:54:07Z</time>
      </trkpt>
      <trkpt lat="47.23016" lon="6.01583">
        <ele>266.8</ele>
        <time>2021-03-07T09:54:08Z</time>
      </trkpt>
      <trkpt lat="47.23016" lon="6.0158">
        <ele>266.8</ele>
        <time>2021-03-07T09:54:09Z</time>
      </trkpt>
      <trkpt lat="47.23016" lon="6.01577">
        <ele>267</ele>
        <time>2021-03-07T09:54:10Z</time>
      </trkpt>
      <trkpt lat="47.23016" lon="6.01576">
        <ele>267.2</ele>
        <time>2021-03-07T09:54:11Z</time>
      </trkpt>
      <trkpt lat="47.23016" lon="6.01573">
        <ele>267.4</ele>
        <time>2021-03-07T09:54:12Z</time>
      </trkpt>
      <trkpt lat="47.23016" lon="6.01572">
        <ele>267.6</ele>
        <time>2021-03-07T09:54:13Z</time>
      </trkpt>
      <trkpt lat="47.23015" lon="6.01569">
        <ele>267.8</ele>
        <time>2021-03-07T09:54:14Z</time>
      </trkpt>
      <trkpt lat="47.23015" lon="6.01567">
        <ele>268</ele>
        <time>2021-03-07T09:54:15Z</time>
      </trkpt>
      <trkpt lat="47.23014" lon="6.01565">
        <ele>268</ele>
        <time>2021-03-07T09:54:16Z</time>
      </trkpt>
      <trkpt lat="47.23014" lon="6.01563">
        <ele>268.2</ele>
        <time>2021-03-07T09:54:17Z</time>
      </trkpt>
      <trkpt lat="47.23014" lon="6.01561">
        <ele>268.4</ele>
        <time>2021-03-07T09:54:18Z</time>
      </trkpt>
      <trkpt lat="47.23013" lon="6.01559">
        <ele>268.8</ele>
        <time>2021-03-07T09:54:19Z</time>
      </trkpt>
      <trkpt lat="47.23013" lon="6.01557">
        <ele>269</ele>
        <time>2021-03-07T09:54:20Z</time>
      </trkpt>
      <trkpt lat="47.23013" lon="6.01555">
        <ele>269.2</ele>
        <time>2021-03-07T09:54:21Z</time>
      </trkpt>
      <trkpt lat="47.23013" lon="6.01553">
        <ele>269.4</ele>
        <time>2021-03-07T09:54:22Z</time>
      </trkpt>
      <trkpt lat="47.23012" lon="6.01551">
        <ele>269.8</ele>
        <time>2021-03-07T09:54:23Z</time>
      </trkpt>
      <trkpt lat="47.23011" lon="6.01549">
        <ele>269.8</ele>
        <time>2021-03-07T09:54:24Z</time>
      </trkpt>
      <trkpt lat="47.23011" lon="6.01547">
        <ele>270</ele>
        <time>2021-03-07T09:54:25Z</time>
      </trkpt>
      <trkpt lat="47.2301" lon="6.01545">
        <ele>270</ele>
        <time>2021-03-07T09:54:26Z</time>
      </trkpt>
      <trkpt lat="47.23008" lon="6.01542">
        <ele>270.2</ele>
        <time>2021-03-07T09:54:27Z</time>
      </trkpt>
      <trkpt lat="47.23007" lon="6.0154">
        <ele>270.4</ele>
        <time>2021-03-07T09:54:28Z</time>
      </trkpt>
      <trkpt lat="47.23007" lon="6.01538">
        <ele>270.6</ele>
        <time>2021-03-07T09:54:29Z</time>
      </trkpt>
      <trkpt lat="47.23006" lon="6.01536">
        <ele>271</ele>
        <time>2021-03-07T09:54:30Z</time>
      </trkpt>
      <trkpt lat="47.23006" lon="6.01534">
        <ele>271.2</ele>
        <time>2021-03-07T09:54:31Z</time>
      </trkpt>
      <trkpt lat="47.23006" lon="6.01531">
        <ele>271.4</ele>
        <time>2021-03-07T09:54:32Z</time>
      </trkpt>
      <trkpt lat="47.23006" lon="6.01529">
        <ele>271.6</ele>
        <time>2021-03-07T09:54:33Z</time>
      </trkpt>
      <trkpt lat="47.23005" lon="6.01527">
        <ele>271.8</ele>
        <time>2021-03-07T09:54:34Z</time>
      </trkpt>
      <trkpt lat="47.23005" lon="6.01525">
        <ele>272</ele>
        <time>2021-03-07T09:54:35Z</time>
      </trkpt>
      <trkpt lat="47.23005" lon="6.01522">
        <ele>272.4</ele>
        <time>2021-03-07T09:54:36Z</time>
      </trkpt>
      <trkpt lat="47.23005" lon="6.0152">
        <ele>272.4</ele>
        <time>2021-03-07T09:54:37Z</time>
      </trkpt>
      <trkpt lat="47.23005" lon="6.01517">
        <ele>272.8</ele>
        <time>2021-03-07T09:54:38Z</time>
      </trkpt>
      <trkpt lat="47.23004" lon="6.01515">
        <ele>273</ele>
        <time>2021-03-07T09:54:39Z</time>
      </trkpt>
      <trkpt lat="47.23004" lon="6.01513">
        <ele>273.2</ele>
        <time>2021-03-07T09:54:40Z</time>
      </trkpt>
      <trkpt lat="47.23004" lon="6.01511">
        <ele>273.4</ele>
        <time>2021-03-07T09:54:41Z</time>
      </trkpt>
      <trkpt lat="47.23003" lon="6.01509">
        <ele>273.6</ele>
        <time>2021-03-07T09:54:42Z</time>
      </trkpt>
      <trkpt lat="47.23003" lon="6.01507">
        <ele>273.8</ele>
        <time>2021-03-07T09:54:43Z</time>
      </trkpt>
      <trkpt lat="47.23003" lon="6.01505">
        <ele>274</ele>
        <time>2021-03-07T09:54:44Z</time>
      </trkpt>
      <trkpt lat="47.23003" lon="6.01503">
        <ele>274.4</ele>
        <time>2021-03-07T09:54:45Z</time>
      </trkpt>
      <trkpt lat="47.23003" lon="6.01501">
        <ele>274.6</ele>
        <time>2021-03-07T09:54:46Z</time>
      </trkpt>
      <trkpt lat="47.23002" lon="6.01499">
        <ele>274.8</ele>
        <time>2021-03-07T09:54:47Z</time>
      </trkpt>
      <trkpt lat="47.23002" lon="6.01497">
        <ele>275</ele>
        <time>2021-03-07T09:54:48Z</time>
      </trkpt>
      <trkpt lat="47.23002" lon="6.01495">
        <ele>275.4</ele>
        <time>2021-03-07T09:54:49Z</time>
      </trkpt>
      <trkpt lat="47.23001" lon="6.01492">
        <ele>275.6</ele>
        <time>2021-03-07T09:54:50Z</time>
      </trkpt>
      <trkpt lat="47.23001" lon="6.0149">
        <ele>275.8</ele>
        <time>2021-03-07T09:54:51Z</time>
      </trkpt>
      <trkpt lat="47.23" lon="6.01488">
        <ele>275.8</ele>
        <time>2021-03-07T09:54:52Z</time>
      </trkpt>
      <trkpt lat="47.23" lon="6.01486">
        <ele>276</ele>
        <time>2021-03-07T09:54:53Z</time>
      </trkpt>
      <trkpt lat="47.23" lon="6.01484">
        <ele>276.2</ele>
        <time>2021-03-07T09:54:54Z</time>
      </trkpt>
      <trkpt lat="47.23" lon="6.01482">
        <ele>276.6</ele>
        <time>2021-03-07T09:54:55Z</time>
      </trkpt>
      <trkpt lat="47.23" lon="6.0148">
        <ele>276.6</ele>
        <time>2021-03-07T09:54:56Z</time>
      </trkpt>
      <trkpt lat="47.22999" lon="6.01478">
        <ele>276.8</ele>
        <time>2021-03-07T09:54:57Z</time>
      </trkpt>
      <trkpt lat="47.22999" lon="6.01476">
        <ele>277.4</ele>
        <time>2021-03-07T09:54:58Z</time>
      </trkpt>
      <trkpt lat="47.22999" lon="6.01473">
        <ele>277.6</ele>
        <time>2021-03-07T09:54:59Z</time>
      </trkpt>
      <trkpt lat="47.23" lon="6.01471">
        <ele>277.8</ele>
        <time>2021-03-07T09:55:00Z</time>
      </trkpt>
      <trkpt lat="47.23" lon="6.01469">
        <ele>278</ele>
        <time>2021-03-07T09:55:01Z</time>
      </trkpt>
      <trkpt lat="47.23001" lon="6.01467">
        <ele>278.4</ele>
        <time>2021-03-07T09:55:02Z</time>
      </trkpt>
      <trkpt lat="47.23001" lon="6.01465">
        <ele>278.6</ele>
        <time>2021-03-07T09:55:03Z</time>
      </trkpt>
      <trkpt lat="47.23002" lon="6.01463">
        <ele>278.8</ele>
        <time>2021-03-07T09:55:04Z</time>
      </trkpt>
      <trkpt lat="47.23002" lon="6.01461">
        <ele>278.8</ele>
        <time>2021-03-07T09:55:05Z</time>
      </trkpt>
      <trkpt lat="47.23003" lon="6.01459">
        <ele>278.8</ele>
        <time>2021-03-07T09:55:06Z</time>
      </trkpt>
      <trkpt lat="47.23004" lon="6.01457">
        <ele>278.8</ele>
        <time>2021-03-07T09:55:07Z</time>
      </trkpt>
      <trkpt lat="47.23004" lon="6.01455">
        <ele>279</ele>
        <time>2021-03-07T09:55:08Z</time>
      </trkpt>
      <trkpt lat="47.23005" lon="6.01453">
        <ele>279</ele>
        <time>2021-03-07T09:55:09Z</time>
      </trkpt>
      <trkpt lat="47.23006" lon="6.01451">
        <ele>279.2</ele>
        <time>2021-03-07T09:55:10Z</time>
      </trkpt>
      <trkpt lat="47.23006" lon="6.01449">
        <ele>279.2</ele>
        <time>2021-03-07T09:55:11Z</time>
      </trkpt>
      <trkpt lat="47.23007" lon="6.01447">
        <ele>279.2</ele>
        <time>2021-03-07T09:55:12Z</time>
      </trkpt>
      <trkpt lat="47.23008" lon="6.01445">
        <ele>279.4</ele>
        <time>2021-03-07T09:55:13Z</time>
      </trkpt>
      <trkpt lat="47.23009" lon="6.01444">
        <ele>279.4</ele>
        <time>2021-03-07T09:55:14Z</time>
      </trkpt>
      <trkpt lat="47.2301" lon="6.01442">
        <ele>279.6</ele>
        <time>2021-03-07T09:55:15Z</time>
      </trkpt>
      <trkpt lat="47.23011" lon="6.0144">
        <ele>279.6</ele>
        <time>2021-03-07T09:55:16Z</time>
      </trkpt>
      <trkpt lat="47.23012" lon="6.01438">
        <ele>279.8</ele>
        <time>2021-03-07T09:55:17Z</time>
      </trkpt>
      <trkpt lat="47.23012" lon="6.01436">
        <ele>280</ele>
        <time>2021-03-07T09:55:18Z</time>
      </trkpt>
      <trkpt lat="47.23012" lon="6.01436">
        <ele>280</ele>
        <time>2021-03-07T09:55:19Z</time>
      </trkpt>
      <trkpt lat="47.23012" lon="6.01433">
        <ele>280</ele>
        <time>2021-03-07T09:55:20Z</time>
      </trkpt>
      <trkpt lat="47.23011" lon="6.01431">
        <ele>280</ele>
        <time>2021-03-07T09:55:21Z</time>
      </trkpt>
      <trkpt lat="47.23009" lon="6.01431">
        <ele>280.2</ele>
        <time>2021-03-07T09:55:22Z</time>
      </trkpt>
      <trkpt lat="47.23008" lon="6.01431">
        <ele>280.2</ele>
        <time>2021-03-07T09:55:23Z</time>
      </trkpt>
      <trkpt lat="47.23006" lon="6.01433">
        <ele>280.2</ele>
        <time>2021-03-07T09:55:24Z</time>
      </trkpt>
      <trkpt lat="47.23005" lon="6.01434">
        <ele>280.4</ele>
        <time>2021-03-07T09:55:25Z</time>
      </trkpt>
      <trkpt lat="47.23003" lon="6.01436">
        <ele>280.4</ele>
        <time>2021-03-07T09:55:26Z</time>
      </trkpt>
      <trkpt lat="47.23002" lon="6.01438">
        <ele>280.6</ele>
        <time>2021-03-07T09:55:27Z</time>
      </trkpt>
      <trkpt lat="47.23" lon="6.01439">
        <ele>280.6</ele>
        <time>2021-03-07T09:55:28Z</time>
      </trkpt>
      <trkpt lat="47.22999" lon="6.01441">
        <ele>280.6</ele>
        <time>2021-03-07T09:55:29Z</time>
      </trkpt>
      <trkpt lat="47.22998" lon="6.01442">
        <ele>280.8</ele>
        <time>2021-03-07T09:55:30Z</time>
      </trkpt>
      <trkpt lat="47.22997" lon="6.01443">
        <ele>280.8</ele>
        <time>2021-03-07T09:55:31Z</time>
      </trkpt>
      <trkpt lat="47.22995" lon="6.01445">
        <ele>281</ele>
        <time>2021-03-07T09:55:32Z</time>
      </trkpt>
      <trkpt lat="47.22994" lon="6.01446">
        <ele>281</ele>
        <time>2021-03-07T09:55:33Z</time>
      </trkpt>
      <trkpt lat="47.22991" lon="6.01451">
        <ele>281.6</ele>
        <time>2021-03-07T09:55:36Z</time>
      </trkpt>
      <trkpt lat="47.22989" lon="6.01452">
        <ele>282</ele>
        <time>2021-03-07T09:55:37Z</time>
      </trkpt>
      <trkpt lat="47.22988" lon="6.01454">
        <ele>282</ele>
        <time>2021-03-07T09:55:38Z</time>
      </trkpt>
      <trkpt lat="47.22987" lon="6.01455">
        <ele>282.4</ele>
        <time>2021-03-07T09:55:39Z</time>
      </trkpt>
      <trkpt lat="47.22986" lon="6.01457">
        <ele>282.6</ele>
        <time>2021-03-07T09:55:40Z</time>
      </trkpt>
      <trkpt lat="47.22986" lon="6.01458">
        <ele>282.8</ele>
        <time>2021-03-07T09:55:41Z</time>
      </trkpt>
      <trkpt lat="47.22985" lon="6.0146">
        <ele>282.8</ele>
        <time>2021-03-07T09:55:42Z</time>
      </trkpt>
      <trkpt lat="47.22984" lon="6.01463">
        <ele>283</ele>
        <time>2021-03-07T09:55:43Z</time>
      </trkpt>
      <trkpt lat="47.22983" lon="6.01465">
        <ele>283.2</ele>
        <time>2021-03-07T09:55:44Z</time>
      </trkpt>
      <trkpt lat="47.22982" lon="6.01467">
        <ele>283.4</ele>
        <time>2021-03-07T09:55:45Z</time>
      </trkpt>
      <trkpt lat="47.22982" lon="6.01468">
        <ele>283.6</ele>
        <time>2021-03-07T09:55:46Z</time>
      </trkpt>
      <trkpt lat="47.22981" lon="6.01471">
        <ele>283.6</ele>
        <time>2021-03-07T09:55:47Z</time>
      </trkpt>
      <trkpt lat="47.2298" lon="6.01473">
        <ele>283.8</ele>
        <time>2021-03-07T09:55:48Z</time>
      </trkpt>
      <trkpt lat="47.22979" lon="6.01475">
        <ele>284</ele>
        <time>2021-03-07T09:55:49Z</time>
      </trkpt>
      <trkpt lat="47.22978" lon="6.01477">
        <ele>284</ele>
        <time>2021-03-07T09:55:50Z</time>
      </trkpt>
      <trkpt lat="47.22977" lon="6.01479">
        <ele>284.2</ele>
        <time>2021-03-07T09:55:51Z</time>
      </trkpt>
      <trkpt lat="47.22977" lon="6.01482">
        <ele>284.4</ele>
        <time>2021-03-07T09:55:52Z</time>
      </trkpt>
      <trkpt lat="47.22976" lon="6.01483">
        <ele>284.6</ele>
        <time>2021-03-07T09:55:53Z</time>
      </trkpt>
      <trkpt lat="47.22975" lon="6.01486">
        <ele>284.8</ele>
        <time>2021-03-07T09:55:54Z</time>
      </trkpt>
      <trkpt lat="47.22974" lon="6.01487">
        <ele>285</ele>
        <time>2021-03-07T09:55:55Z</time>
      </trkpt>
      <trkpt lat="47.22974" lon="6.01487">
        <ele>285</ele>
        <time>2021-03-07T09:55:56Z</time>
      </trkpt>
      <trkpt lat="47.22973" lon="6.01491">
        <ele>285.2</ele>
        <time>2021-03-07T09:55:57Z</time>
      </trkpt>
      <trkpt lat="47.22972" lon="6.01493">
        <ele>285.4</ele>
        <time>2021-03-07T09:55:58Z</time>
      </trkpt>
      <trkpt lat="47.22971" lon="6.01495">
        <ele>285.6</ele>
        <time>2021-03-07T09:55:59Z</time>
      </trkpt>
      <trkpt lat="47.22971" lon="6.01497">
        <ele>285.6</ele>
        <time>2021-03-07T09:56:00Z</time>
      </trkpt>
      <trkpt lat="47.2297" lon="6.01498">
        <ele>285.6</ele>
        <time>2021-03-07T09:56:01Z</time>
      </trkpt>
      <trkpt lat="47.22969" lon="6.015">
        <ele>285.8</ele>
        <time>2021-03-07T09:56:02Z</time>
      </trkpt>
      <trkpt lat="47.22968" lon="6.01502">
        <ele>286</ele>
        <time>2021-03-07T09:56:03Z</time>
      </trkpt>
      <trkpt lat="47.22968" lon="6.01504">
        <ele>286.2</ele>
        <time>2021-03-07T09:56:04Z</time>
      </trkpt>
      <trkpt lat="47.22967" lon="6.01506">
        <ele>286.4</ele>
        <time>2021-03-07T09:56:05Z</time>
      </trkpt>
      <trkpt lat="47.22967" lon="6.01508">
        <ele>286.4</ele>
        <time>2021-03-07T09:56:06Z</time>
      </trkpt>
      <trkpt lat="47.22966" lon="6.0151">
        <ele>286.6</ele>
        <time>2021-03-07T09:56:07Z</time>
      </trkpt>
      <trkpt lat="47.22966" lon="6.01512">
        <ele>286.8</ele>
        <time>2021-03-07T09:56:08Z</time>
      </trkpt>
      <trkpt lat="47.22965" lon="6.01514">
        <ele>287</ele>
        <time>2021-03-07T09:56:09Z</time>
      </trkpt>
      <trkpt lat="47.22965" lon="6.01515">
        <ele>287</ele>
        <time>2021-03-07T09:56:10Z</time>
      </trkpt>
      <trkpt lat="47.22964" lon="6.01517">
        <ele>287.2</ele>
        <time>2021-03-07T09:56:11Z</time>
      </trkpt>
      <trkpt lat="47.22964" lon="6.01519">
        <ele>287.4</ele>
        <time>2021-03-07T09:56:12Z</time>
      </trkpt>
      <trkpt lat="47.22963" lon="6.01522">
        <ele>287.6</ele>
        <time>2021-03-07T09:56:13Z</time>
      </trkpt>
      <trkpt lat="47.22962" lon="6.01525">
        <ele>287.8</ele>
        <time>2021-03-07T09:56:14Z</time>
      </trkpt>
      <trkpt lat="47.22961" lon="6.01528">
        <ele>288.2</ele>
        <time>2021-03-07T09:56:15Z</time>
      </trkpt>
      <trkpt lat="47.22961" lon="6.0153">
        <ele>288.2</ele>
        <time>2021-03-07T09:56:16Z</time>
      </trkpt>
      <trkpt lat="47.2296" lon="6.01532">
        <ele>288.2</ele>
        <time>2021-03-07T09:56:17Z</time>
      </trkpt>
      <trkpt lat="47.22959" lon="6.01534">
        <ele>288.4</ele>
        <time>2021-03-07T09:56:18Z</time>
      </trkpt>
      <trkpt lat="47.22958" lon="6.01536">
        <ele>288.6</ele>
        <time>2021-03-07T09:56:19Z</time>
      </trkpt>
      <trkpt lat="47.22958" lon="6.01538">
        <ele>288.8</ele>
        <time>2021-03-07T09:56:20Z</time>
      </trkpt>
      <trkpt lat="47.22958" lon="6.0154">
        <ele>289</ele>
        <time>2021-03-07T09:56:21Z</time>
      </trkpt>
      <trkpt lat="47.22958" lon="6.01543">
        <ele>289.2</ele>
        <time>2021-03-07T09:56:22Z</time>
      </trkpt>
      <trkpt lat="47.22958" lon="6.01545">
        <ele>289.4</ele>
        <time>2021-03-07T09:56:23Z</time>
      </trkpt>
      <trkpt lat="47.22958" lon="6.01548">
        <ele>289.4</ele>
        <time>2021-03-07T09:56:24Z</time>
      </trkpt>
      <trkpt lat="47.22957" lon="6.0155">
        <ele>289.6</ele>
        <time>2021-03-07T09:56:25Z</time>
      </trkpt>
      <trkpt lat="47.22957" lon="6.0155">
        <ele>289.6</ele>
        <time>2021-03-07T09:56:26Z</time>
      </trkpt>
      <trkpt lat="47.22957" lon="6.01554">
        <ele>289.6</ele>
        <time>2021-03-07T09:56:27Z</time>
      </trkpt>
      <trkpt lat="47.22958" lon="6.01557">
        <ele>290</ele>
        <time>2021-03-07T09:56:28Z</time>
      </trkpt>
      <trkpt lat="47.22958" lon="6.01559">
        <ele>290</ele>
        <time>2021-03-07T09:56:29Z</time>
      </trkpt>
      <trkpt lat="47.22958" lon="6.01562">
        <ele>290.2</ele>
        <time>2021-03-07T09:56:30Z</time>
      </trkpt>
      <trkpt lat="47.22958" lon="6.01562">
        <ele>290.4</ele>
        <time>2021-03-07T09:56:31Z</time>
      </trkpt>
      <trkpt lat="47.22959" lon="6.01567">
        <ele>290.4</ele>
        <time>2021-03-07T09:56:32Z</time>
      </trkpt>
      <trkpt lat="47.22958" lon="6.0157">
        <ele>290.6</ele>
        <time>2021-03-07T09:56:33Z</time>
      </trkpt>
      <trkpt lat="47.22958" lon="6.01573">
        <ele>290.6</ele>
        <time>2021-03-07T09:56:34Z</time>
      </trkpt>
      <trkpt lat="47.22957" lon="6.01575">
        <ele>291</ele>
        <time>2021-03-07T09:56:35Z</time>
      </trkpt>
      <trkpt lat="47.22957" lon="6.01577">
        <ele>291.2</ele>
        <time>2021-03-07T09:56:36Z</time>
      </trkpt>
      <trkpt lat="47.22958" lon="6.0158">
        <ele>291.4</ele>
        <time>2021-03-07T09:56:37Z</time>
      </trkpt>
      <trkpt lat="47.22958" lon="6.0158">
        <ele>291.6</ele>
        <time>2021-03-07T09:56:38Z</time>
      </trkpt>
      <trkpt lat="47.22957" lon="6.01585">
        <ele>291.6</ele>
        <time>2021-03-07T09:56:39Z</time>
      </trkpt>
      <trkpt lat="47.22957" lon="6.01588">
        <ele>291.8</ele>
        <time>2021-03-07T09:56:40Z</time>
      </trkpt>
      <trkpt lat="47.22958" lon="6.0159">
        <ele>292</ele>
        <time>2021-03-07T09:56:41Z</time>
      </trkpt>
      <trkpt lat="47.22957" lon="6.01593">
        <ele>292.2</ele>
        <time>2021-03-07T09:56:42Z</time>
      </trkpt>
      <trkpt lat="47.22956" lon="6.01596">
        <ele>292.4</ele>
        <time>2021-03-07T09:56:43Z</time>
      </trkpt>
      <trkpt lat="47.22956" lon="6.01599">
        <ele>292.4</ele>
        <time>2021-03-07T09:56:44Z</time>
      </trkpt>
      <trkpt lat="47.22956" lon="6.01601">
        <ele>292.8</ele>
        <time>2021-03-07T09:56:45Z</time>
      </trkpt>
      <trkpt lat="47.22957" lon="6.01604">
        <ele>293</ele>
        <time>2021-03-07T09:56:46Z</time>
      </trkpt>
      <trkpt lat="47.22956" lon="6.01606">
        <ele>293</ele>
        <time>2021-03-07T09:56:47Z</time>
      </trkpt>
      <trkpt lat="47.22956" lon="6.01608">
        <ele>293.2</ele>
        <time>2021-03-07T09:56:48Z</time>
      </trkpt>
      <trkpt lat="47.22956" lon="6.0161">
        <ele>293.4</ele>
        <time>2021-03-07T09:56:49Z</time>
      </trkpt>
      <trkpt lat="47.22956" lon="6.01613">
        <ele>293.6</ele>
        <time>2021-03-07T09:56:50Z</time>
      </trkpt>
      <trkpt lat="47.22955" lon="6.01615">
        <ele>293.6</ele>
        <time>2021-03-07T09:56:51Z</time>
      </trkpt>
      <trkpt lat="47.22955" lon="6.01617">
        <ele>293.8</ele>
        <time>2021-03-07T09:56:52Z</time>
      </trkpt>
      <trkpt lat="47.22956" lon="6.0162">
        <ele>294</ele>
        <time>2021-03-07T09:56:53Z</time>
      </trkpt>
      <trkpt lat="47.22956" lon="6.01622">
        <ele>294.2</ele>
        <time>2021-03-07T09:56:54Z</time>
      </trkpt>
      <trkpt lat="47.22955" lon="6.01624">
        <ele>294.2</ele>
        <time>2021-03-07T09:56:55Z</time>
      </trkpt>
      <trkpt lat="47.22955" lon="6.01626">
        <ele>294.4</ele>
        <time>2021-03-07T09:56:56Z</time>
      </trkpt>
      <trkpt lat="47.22955" lon="6.01628">
        <ele>294.4</ele>
        <time>2021-03-07T09:56:57Z</time>
      </trkpt>
      <trkpt lat="47.22955" lon="6.0163">
        <ele>294.8</ele>
        <time>2021-03-07T09:56:58Z</time>
      </trkpt>
      <trkpt lat="47.22955" lon="6.01633">
        <ele>295</ele>
        <time>2021-03-07T09:56:59Z</time>
      </trkpt>
      <trkpt lat="47.22955" lon="6.01636">
        <ele>295</ele>
        <time>2021-03-07T09:57:00Z</time>
      </trkpt>
      <trkpt lat="47.22955" lon="6.01637">
        <ele>295.2</ele>
        <time>2021-03-07T09:57:01Z</time>
      </trkpt>
      <trkpt lat="47.22954" lon="6.01639">
        <ele>295.2</ele>
        <time>2021-03-07T09:57:02Z</time>
      </trkpt>
      <trkpt lat="47.22954" lon="6.01642">
        <ele>295.4</ele>
        <time>2021-03-07T09:57:03Z</time>
      </trkpt>
      <trkpt lat="47.22953" lon="6.01644">
        <ele>295.4</ele>
        <time>2021-03-07T09:57:04Z</time>
      </trkpt>
      <trkpt lat="47.22953" lon="6.01646">
        <ele>295.6</ele>
        <time>2021-03-07T09:57:05Z</time>
      </trkpt>
      <trkpt lat="47.22953" lon="6.01647">
        <ele>295.6</ele>
        <time>2021-03-07T09:57:06Z</time>
      </trkpt>
      <trkpt lat="47.22952" lon="6.0165">
        <ele>295.8</ele>
        <time>2021-03-07T09:57:07Z</time>
      </trkpt>
      <trkpt lat="47.22952" lon="6.01652">
        <ele>296</ele>
        <time>2021-03-07T09:57:08Z</time>
      </trkpt>
      <trkpt lat="47.22952" lon="6.01654">
        <ele>296</ele>
        <time>2021-03-07T09:57:09Z</time>
      </trkpt>
      <trkpt lat="47.22951" lon="6.01656">
        <ele>296.2</ele>
        <time>2021-03-07T09:57:10Z</time>
      </trkpt>
      <trkpt lat="47.22951" lon="6.01658">
        <ele>296.6</ele>
        <time>2021-03-07T09:57:11Z</time>
      </trkpt>
      <trkpt lat="47.22951" lon="6.01659">
        <ele>296.8</ele>
        <time>2021-03-07T09:57:12Z</time>
      </trkpt>
      <trkpt lat="47.2295" lon="6.01662">
        <ele>297</ele>
        <time>2021-03-07T09:57:13Z</time>
      </trkpt>
      <trkpt lat="47.2295" lon="6.01664">
        <ele>297</ele>
        <time>2021-03-07T09:57:14Z</time>
      </trkpt>
      <trkpt lat="47.2295" lon="6.01666">
        <ele>297.2</ele>
        <time>2021-03-07T09:57:15Z</time>
      </trkpt>
      <trkpt lat="47.2295" lon="6.01668">
        <ele>297.4</ele>
        <time>2021-03-07T09:57:16Z</time>
      </trkpt>
      <trkpt lat="47.22949" lon="6.01669">
        <ele>297.4</ele>
        <time>2021-03-07T09:57:17Z</time>
      </trkpt>
      <trkpt lat="47.22949" lon="6.01672">
        <ele>297.4</ele>
        <time>2021-03-07T09:57:18Z</time>
      </trkpt>
      <trkpt lat="47.22949" lon="6.01674">
        <ele>297.6</ele>
        <time>2021-03-07T09:57:19Z</time>
      </trkpt>
      <trkpt lat="47.2295" lon="6.01676">
        <ele>297.6</ele>
        <time>2021-03-07T09:57:20Z</time>
      </trkpt>
      <trkpt lat="47.2295" lon="6.01678">
        <ele>297.8</ele>
        <time>2021-03-07T09:57:21Z</time>
      </trkpt>
      <trkpt lat="47.2295" lon="6.0168">
        <ele>297.8</ele>
        <time>2021-03-07T09:57:22Z</time>
      </trkpt>
      <trkpt lat="47.22949" lon="6.01682">
        <ele>298</ele>
        <time>2021-03-07T09:57:23Z</time>
      </trkpt>
      <trkpt lat="47.22949" lon="6.01685">
        <ele>298.2</ele>
        <time>2021-03-07T09:57:24Z</time>
      </trkpt>
      <trkpt lat="47.22949" lon="6.01686">
        <ele>298.4</ele>
        <time>2021-03-07T09:57:25Z</time>
      </trkpt>
      <trkpt lat="47.22948" lon="6.01688">
        <ele>298.4</ele>
        <time>2021-03-07T09:57:26Z</time>
      </trkpt>
      <trkpt lat="47.22948" lon="6.01689">
        <ele>298.6</ele>
        <time>2021-03-07T09:57:27Z</time>
      </trkpt>
      <trkpt lat="47.22948" lon="6.01691">
        <ele>298.6</ele>
        <time>2021-03-07T09:57:28Z</time>
      </trkpt>
      <trkpt lat="47.22947" lon="6.01693">
        <ele>298.8</ele>
        <time>2021-03-07T09:57:29Z</time>
      </trkpt>
      <trkpt lat="47.22947" lon="6.01696">
        <ele>299</ele>
        <time>2021-03-07T09:57:30Z</time>
      </trkpt>
      <trkpt lat="47.22947" lon="6.01698">
        <ele>299.2</ele>
        <time>2021-03-07T09:57:31Z</time>
      </trkpt>
      <trkpt lat="47.22946" lon="6.017">
        <ele>299.2</ele>
        <time>2021-03-07T09:57:32Z</time>
      </trkpt>
      <trkpt lat="47.22946" lon="6.01702">
        <ele>299.4</ele>
        <time>2021-03-07T09:57:33Z</time>
      </trkpt>
      <trkpt lat="47.22946" lon="6.01705">
        <ele>299.8</ele>
        <time>2021-03-07T09:57:34Z</time>
      </trkpt>
      <trkpt lat="47.22945" lon="6.01707">
        <ele>300</ele>
        <time>2021-03-07T09:57:35Z</time>
      </trkpt>
      <trkpt lat="47.22945" lon="6.01709">
        <ele>300</ele>
        <time>2021-03-07T09:57:36Z</time>
      </trkpt>
      <trkpt lat="47.22945" lon="6.01711">
        <ele>300.2</ele>
        <time>2021-03-07T09:57:37Z</time>
      </trkpt>
      <trkpt lat="47.22944" lon="6.01713">
        <ele>300.4</ele>
        <time>2021-03-07T09:57:38Z</time>
      </trkpt>
      <trkpt lat="47.22943" lon="6.01715">
        <ele>300.6</ele>
        <time>2021-03-07T09:57:39Z</time>
      </trkpt>
      <trkpt lat="47.22943" lon="6.01716">
        <ele>300.6</ele>
        <time>2021-03-07T09:57:40Z</time>
      </trkpt>
      <trkpt lat="47.22942" lon="6.01718">
        <ele>300.8</ele>
        <time>2021-03-07T09:57:41Z</time>
      </trkpt>
      <trkpt lat="47.22942" lon="6.01719">
        <ele>301</ele>
        <time>2021-03-07T09:57:42Z</time>
      </trkpt>
      <trkpt lat="47.22942" lon="6.01721">
        <ele>301.2</ele>
        <time>2021-03-07T09:57:43Z</time>
      </trkpt>
      <trkpt lat="47.22941" lon="6.01722">
        <ele>301.4</ele>
        <time>2021-03-07T09:57:44Z</time>
      </trkpt>
      <trkpt lat="47.22941" lon="6.01724">
        <ele>301.6</ele>
        <time>2021-03-07T09:57:45Z</time>
      </trkpt>
      <trkpt lat="47.22941" lon="6.01724">
        <ele>301.8</ele>
        <time>2021-03-07T09:57:46Z</time>
      </trkpt>
      <trkpt lat="47.22939" lon="6.01728">
        <ele>302</ele>
        <time>2021-03-07T09:57:47Z</time>
      </trkpt>
      <trkpt lat="47.22938" lon="6.01731">
        <ele>302.2</ele>
        <time>2021-03-07T09:57:48Z</time>
      </trkpt>
      <trkpt lat="47.22937" lon="6.01733">
        <ele>302.4</ele>
        <time>2021-03-07T09:57:49Z</time>
      </trkpt>
      <trkpt lat="47.22936" lon="6.01736">
        <ele>302.4</ele>
        <time>2021-03-07T09:57:50Z</time>
      </trkpt>
      <trkpt lat="47.22936" lon="6.01738">
        <ele>302.8</ele>
        <time>2021-03-07T09:57:51Z</time>
      </trkpt>
      <trkpt lat="47.22935" lon="6.0174">
        <ele>302.8</ele>
        <time>2021-03-07T09:57:52Z</time>
      </trkpt>
      <trkpt lat="47.22934" lon="6.01743">
        <ele>303</ele>
        <time>2021-03-07T09:57:53Z</time>
      </trkpt>
      <trkpt lat="47.22934" lon="6.01745">
        <ele>303</ele>
        <time>2021-03-07T09:57:54Z</time>
      </trkpt>
      <trkpt lat="47.22933" lon="6.01747">
        <ele>303.2</ele>
        <time>2021-03-07T09:57:55Z</time>
      </trkpt>
      <trkpt lat="47.22932" lon="6.01749">
        <ele>303.2</ele>
        <time>2021-03-07T09:57:56Z</time>
      </trkpt>
      <trkpt lat="47.22932" lon="6.01751">
        <ele>303.4</ele>
        <time>2021-03-07T09:57:57Z</time>
      </trkpt>
      <trkpt lat="47.22932" lon="6.01755">
        <ele>303.6</ele>
        <time>2021-03-07T09:57:58Z</time>
      </trkpt>
      <trkpt lat="47.22931" lon="6.01757">
        <ele>303.8</ele>
        <time>2021-03-07T09:57:59Z</time>
      </trkpt>
      <trkpt lat="47.2293" lon="6.01759">
        <ele>304</ele>
        <time>2021-03-07T09:58:00Z</time>
      </trkpt>
      <trkpt lat="47.22929" lon="6.01761">
        <ele>304.2</ele>
        <time>2021-03-07T09:58:01Z</time>
      </trkpt>
      <trkpt lat="47.22929" lon="6.01763">
        <ele>304.2</ele>
        <time>2021-03-07T09:58:02Z</time>
      </trkpt>
      <trkpt lat="47.22928" lon="6.01764">
        <ele>304.4</ele>
        <time>2021-03-07T09:58:03Z</time>
      </trkpt>
      <trkpt lat="47.22928" lon="6.01767">
        <ele>304.6</ele>
        <time>2021-03-07T09:58:04Z</time>
      </trkpt>
      <trkpt lat="47.22929" lon="6.01769">
        <ele>304.8</ele>
        <time>2021-03-07T09:58:05Z</time>
      </trkpt>
      <trkpt lat="47.22928" lon="6.01772">
        <ele>305</ele>
        <time>2021-03-07T09:58:06Z</time>
      </trkpt>
      <trkpt lat="47.22928" lon="6.01775">
        <ele>305.2</ele>
        <time>2021-03-07T09:58:07Z</time>
      </trkpt>
      <trkpt lat="47.22927" lon="6.01777">
        <ele>305.2</ele>
        <time>2021-03-07T09:58:08Z</time>
      </trkpt>
      <trkpt lat="47.22927" lon="6.0178">
        <ele>305.4</ele>
        <time>2021-03-07T09:58:09Z</time>
      </trkpt>
      <trkpt lat="47.22926" lon="6.01782">
        <ele>305.4</ele>
        <time>2021-03-07T09:58:10Z</time>
      </trkpt>
      <trkpt lat="47.22926" lon="6.01784">
        <ele>305.6</ele>
        <time>2021-03-07T09:58:11Z</time>
      </trkpt>
      <trkpt lat="47.22926" lon="6.01784">
        <ele>305.8</ele>
        <time>2021-03-07T09:58:12Z</time>
      </trkpt>
      <trkpt lat="47.22925" lon="6.01786">
        <ele>306</ele>
        <time>2021-03-07T09:58:13Z</time>
      </trkpt>
      <trkpt lat="47.22924" lon="6.01789">
        <ele>306</ele>
        <time>2021-03-07T09:58:14Z</time>
      </trkpt>
      <trkpt lat="47.22923" lon="6.01791">
        <ele>306.2</ele>
        <time>2021-03-07T09:58:15Z</time>
      </trkpt>
      <trkpt lat="47.22922" lon="6.01793">
        <ele>306.4</ele>
        <time>2021-03-07T09:58:16Z</time>
      </trkpt>
      <trkpt lat="47.22922" lon="6.01796">
        <ele>306.4</ele>
        <time>2021-03-07T09:58:17Z</time>
      </trkpt>
      <trkpt lat="47.22921" lon="6.01797">
        <ele>306.6</ele>
        <time>2021-03-07T09:58:18Z</time>
      </trkpt>
      <trkpt lat="47.22921" lon="6.018">
        <ele>306.8</ele>
        <time>2021-03-07T09:58:19Z</time>
      </trkpt>
      <trkpt lat="47.2292" lon="6.01801">
        <ele>307</ele>
        <time>2021-03-07T09:58:20Z</time>
      </trkpt>
      <trkpt lat="47.2292" lon="6.01802">
        <ele>307.2</ele>
        <time>2021-03-07T09:58:21Z</time>
      </trkpt>
      <trkpt lat="47.2292" lon="6.01804">
        <ele>307.4</ele>
        <time>2021-03-07T09:58:22Z</time>
      </trkpt>
      <trkpt lat="47.22919" lon="6.01806">
        <ele>307.4</ele>
        <time>2021-03-07T09:58:23Z</time>
      </trkpt>
      <trkpt lat="47.22918" lon="6.01808">
        <ele>307.4</ele>
        <time>2021-03-07T09:58:24Z</time>
      </trkpt>
      <trkpt lat="47.22918" lon="6.01808">
        <ele>307.6</ele>
        <time>2021-03-07T09:58:25Z</time>
      </trkpt>
      <trkpt lat="47.22918" lon="6.01813">
        <ele>307.8</ele>
        <time>2021-03-07T09:58:26Z</time>
      </trkpt>
      <trkpt lat="47.22917" lon="6.01815">
        <ele>308</ele>
        <time>2021-03-07T09:58:27Z</time>
      </trkpt>
      <trkpt lat="47.22916" lon="6.01816">
        <ele>308</ele>
        <time>2021-03-07T09:58:28Z</time>
      </trkpt>
      <trkpt lat="47.22915" lon="6.01818">
        <ele>308.2</ele>
        <time>2021-03-07T09:58:29Z</time>
      </trkpt>
      <trkpt lat="47.22915" lon="6.0182">
        <ele>308.6</ele>
        <time>2021-03-07T09:58:30Z</time>
      </trkpt>
      <trkpt lat="47.22914" lon="6.01821">
        <ele>308.6</ele>
        <time>2021-03-07T09:58:31Z</time>
      </trkpt>
      <trkpt lat="47.22913" lon="6.01822">
        <ele>309</ele>
        <time>2021-03-07T09:58:32Z</time>
      </trkpt>
      <trkpt lat="47.22913" lon="6.01824">
        <ele>309</ele>
        <time>2021-03-07T09:58:33Z</time>
      </trkpt>
      <trkpt lat="47.22912" lon="6.01826">
        <ele>309.2</ele>
        <time>2021-03-07T09:58:34Z</time>
      </trkpt>
      <trkpt lat="47.22912" lon="6.01828">
        <ele>309.4</ele>
        <time>2021-03-07T09:58:35Z</time>
      </trkpt>
      <trkpt lat="47.22911" lon="6.01831">
        <ele>309.4</ele>
        <time>2021-03-07T09:58:36Z</time>
      </trkpt>
      <trkpt lat="47.2291" lon="6.01833">
        <ele>309.4</ele>
        <time>2021-03-07T09:58:37Z</time>
      </trkpt>
      <trkpt lat="47.2291" lon="6.01836">
        <ele>310</ele>
        <time>2021-03-07T09:58:38Z</time>
      </trkpt>
      <trkpt lat="47.22909" lon="6.01837">
        <ele>309.8</ele>
        <time>2021-03-07T09:58:39Z</time>
      </trkpt>
      <trkpt lat="47.22908" lon="6.0184">
        <ele>310.4</ele>
        <time>2021-03-07T09:58:40Z</time>
      </trkpt>
      <trkpt lat="47.22908" lon="6.01842">
        <ele>310.4</ele>
        <time>2021-03-07T09:58:41Z</time>
      </trkpt>
      <trkpt lat="47.22907" lon="6.01845">
        <ele>310.4</ele>
        <time>2021-03-07T09:58:42Z</time>
      </trkpt>
      <trkpt lat="47.22907" lon="6.01849">
        <ele>310.6</ele>
        <time>2021-03-07T09:58:43Z</time>
      </trkpt>
      <trkpt lat="47.22907" lon="6.01852">
        <ele>310.8</ele>
        <time>2021-03-07T09:58:44Z</time>
      </trkpt>
      <trkpt lat="47.22907" lon="6.01854">
        <ele>310.8</ele>
        <time>2021-03-07T09:58:45Z</time>
      </trkpt>
      <trkpt lat="47.22907" lon="6.01858">
        <ele>311</ele>
        <time>2021-03-07T09:58:46Z</time>
      </trkpt>
      <trkpt lat="47.22907" lon="6.01861">
        <ele>311.2</ele>
        <time>2021-03-07T09:58:47Z</time>
      </trkpt>
      <trkpt lat="47.22906" lon="6.01862">
        <ele>311.2</ele>
        <time>2021-03-07T09:58:48Z</time>
      </trkpt>
      <trkpt lat="47.22906" lon="6.01864">
        <ele>311.4</ele>
        <time>2021-03-07T09:58:49Z</time>
      </trkpt>
      <trkpt lat="47.22905" lon="6.01866">
        <ele>311.6</ele>
        <time>2021-03-07T09:58:50Z</time>
      </trkpt>
      <trkpt lat="47.22905" lon="6.01867">
        <ele>311.8</ele>
        <time>2021-03-07T09:58:51Z</time>
      </trkpt>
      <trkpt lat="47.22904" lon="6.01869">
        <ele>311.8</ele>
        <time>2021-03-07T09:58:52Z</time>
      </trkpt>
      <trkpt lat="47.22904" lon="6.01871">
        <ele>312</ele>
        <time>2021-03-07T09:58:53Z</time>
      </trkpt>
      <trkpt lat="47.22907" lon="6.01874">
        <ele>312.2</ele>
        <time>2021-03-07T09:58:54Z</time>
      </trkpt>
      <trkpt lat="47.22906" lon="6.01876">
        <ele>312.2</ele>
        <time>2021-03-07T09:58:55Z</time>
      </trkpt>
      <trkpt lat="47.22905" lon="6.01878">
        <ele>312.4</ele>
        <time>2021-03-07T09:58:56Z</time>
      </trkpt>
      <trkpt lat="47.22905" lon="6.01881">
        <ele>312.4</ele>
        <time>2021-03-07T09:58:57Z</time>
      </trkpt>
      <trkpt lat="47.22904" lon="6.01883">
        <ele>312.6</ele>
        <time>2021-03-07T09:58:58Z</time>
      </trkpt>
      <trkpt lat="47.22904" lon="6.01885">
        <ele>312.6</ele>
        <time>2021-03-07T09:58:59Z</time>
      </trkpt>
      <trkpt lat="47.22903" lon="6.01888">
        <ele>312.8</ele>
        <time>2021-03-07T09:59:00Z</time>
      </trkpt>
      <trkpt lat="47.22903" lon="6.01892">
        <ele>313</ele>
        <time>2021-03-07T09:59:01Z</time>
      </trkpt>
      <trkpt lat="47.22903" lon="6.01895">
        <ele>313.2</ele>
        <time>2021-03-07T09:59:02Z</time>
      </trkpt>
      <trkpt lat="47.22903" lon="6.01899">
        <ele>313.4</ele>
        <time>2021-03-07T09:59:03Z</time>
      </trkpt>
      <trkpt lat="47.22903" lon="6.01901">
        <ele>313.6</ele>
        <time>2021-03-07T09:59:04Z</time>
      </trkpt>
      <trkpt lat="47.22902" lon="6.01904">
        <ele>313.6</ele>
        <time>2021-03-07T09:59:05Z</time>
      </trkpt>
      <trkpt lat="47.22901" lon="6.01907">
        <ele>314</ele>
        <time>2021-03-07T09:59:06Z</time>
      </trkpt>
      <trkpt lat="47.22901" lon="6.01911">
        <ele>314.2</ele>
        <time>2021-03-07T09:59:07Z</time>
      </trkpt>
      <trkpt lat="47.22901" lon="6.01914">
        <ele>314.2</ele>
        <time>2021-03-07T09:59:08Z</time>
      </trkpt>
      <trkpt lat="47.229" lon="6.01918">
        <ele>314.4</ele>
        <time>2021-03-07T09:59:09Z</time>
      </trkpt>
      <trkpt lat="47.229" lon="6.01921">
        <ele>314.6</ele>
        <time>2021-03-07T09:59:10Z</time>
      </trkpt>
      <trkpt lat="47.229" lon="6.01924">
        <ele>314.8</ele>
        <time>2021-03-07T09:59:11Z</time>
      </trkpt>
      <trkpt lat="47.229" lon="6.01927">
        <ele>315</ele>
        <time>2021-03-07T09:59:12Z</time>
      </trkpt>
      <trkpt lat="47.229" lon="6.01929">
        <ele>315</ele>
        <time>2021-03-07T09:59:13Z</time>
      </trkpt>
      <trkpt lat="47.22899" lon="6.01933">
        <ele>315.2</ele>
        <time>2021-03-07T09:59:14Z</time>
      </trkpt>
      <trkpt lat="47.22899" lon="6.01935">
        <ele>315.2</ele>
        <time>2021-03-07T09:59:15Z</time>
      </trkpt>
      <trkpt lat="47.22899" lon="6.01937">
        <ele>315.4</ele>
        <time>2021-03-07T09:59:16Z</time>
      </trkpt>
      <trkpt lat="47.22899" lon="6.01939">
        <ele>315.6</ele>
        <time>2021-03-07T09:59:17Z</time>
      </trkpt>
      <trkpt lat="47.22898" lon="6.01941">
        <ele>315.6</ele>
        <time>2021-03-07T09:59:18Z</time>
      </trkpt>
      <trkpt lat="47.22898" lon="6.01942">
        <ele>315.8</ele>
        <time>2021-03-07T09:59:19Z</time>
      </trkpt>
      <trkpt lat="47.22898" lon="6.01945">
        <ele>316</ele>
        <time>2021-03-07T09:59:20Z</time>
      </trkpt>
      <trkpt lat="47.22897" lon="6.01947">
        <ele>316.2</ele>
        <time>2021-03-07T09:59:21Z</time>
      </trkpt>
      <trkpt lat="47.22897" lon="6.0195">
        <ele>316.4</ele>
        <time>2021-03-07T09:59:22Z</time>
      </trkpt>
      <trkpt lat="47.22897" lon="6.01951">
        <ele>316.6</ele>
        <time>2021-03-07T09:59:23Z</time>
      </trkpt>
      <trkpt lat="47.22897" lon="6.01953">
        <ele>316.6</ele>
        <time>2021-03-07T09:59:24Z</time>
      </trkpt>
      <trkpt lat="47.22897" lon="6.01954">
        <ele>316.6</ele>
        <time>2021-03-07T09:59:25Z</time>
      </trkpt>
      <trkpt lat="47.22896" lon="6.01955">
        <ele>316.8</ele>
        <time>2021-03-07T09:59:26Z</time>
      </trkpt>
      <trkpt lat="47.22895" lon="6.01957">
        <ele>317</ele>
        <time>2021-03-07T09:59:27Z</time>
      </trkpt>
      <trkpt lat="47.22894" lon="6.01959">
        <ele>317.2</ele>
        <time>2021-03-07T09:59:28Z</time>
      </trkpt>
      <trkpt lat="47.22894" lon="6.01961">
        <ele>317.2</ele>
        <time>2021-03-07T09:59:29Z</time>
      </trkpt>
      <trkpt lat="47.22894" lon="6.01963">
        <ele>317.4</ele>
        <time>2021-03-07T09:59:30Z</time>
      </trkpt>
      <trkpt lat="47.22894" lon="6.01965">
        <ele>317.6</ele>
        <time>2021-03-07T09:59:31Z</time>
      </trkpt>
      <trkpt lat="47.22894" lon="6.01967">
        <ele>317.8</ele>
        <time>2021-03-07T09:59:32Z</time>
      </trkpt>
      <trkpt lat="47.22893" lon="6.0197">
        <ele>318</ele>
        <time>2021-03-07T09:59:33Z</time>
      </trkpt>
      <trkpt lat="47.22893" lon="6.01971">
        <ele>318</ele>
        <time>2021-03-07T09:59:34Z</time>
      </trkpt>
      <trkpt lat="47.22893" lon="6.01973">
        <ele>318.2</ele>
        <time>2021-03-07T09:59:35Z</time>
      </trkpt>
      <trkpt lat="47.22893" lon="6.01974">
        <ele>318.4</ele>
        <time>2021-03-07T09:59:36Z</time>
      </trkpt>
      <trkpt lat="47.22893" lon="6.01975">
        <ele>318.6</ele>
        <time>2021-03-07T09:59:37Z</time>
      </trkpt>
      <trkpt lat="47.22892" lon="6.01978">
        <ele>318.6</ele>
        <time>2021-03-07T09:59:38Z</time>
      </trkpt>
      <trkpt lat="47.22892" lon="6.01981">
        <ele>318.8</ele>
        <time>2021-03-07T09:59:39Z</time>
      </trkpt>
      <trkpt lat="47.22892" lon="6.01984">
        <ele>318.8</ele>
        <time>2021-03-07T09:59:40Z</time>
      </trkpt>
      <trkpt lat="47.22892" lon="6.01987">
        <ele>319</ele>
        <time>2021-03-07T09:59:41Z</time>
      </trkpt>
      <trkpt lat="47.22892" lon="6.01989">
        <ele>319.2</ele>
        <time>2021-03-07T09:59:42Z</time>
      </trkpt>
      <trkpt lat="47.22891" lon="6.01991">
        <ele>319.4</ele>
        <time>2021-03-07T09:59:43Z</time>
      </trkpt>
      <trkpt lat="47.2289" lon="6.01993">
        <ele>319.4</ele>
        <time>2021-03-07T09:59:44Z</time>
      </trkpt>
      <trkpt lat="47.2289" lon="6.01996">
        <ele>319.6</ele>
        <time>2021-03-07T09:59:45Z</time>
      </trkpt>
      <trkpt lat="47.2289" lon="6.01998">
        <ele>319.8</ele>
        <time>2021-03-07T09:59:46Z</time>
      </trkpt>
      <trkpt lat="47.22891" lon="6.02001">
        <ele>320</ele>
        <time>2021-03-07T09:59:47Z</time>
      </trkpt>
      <trkpt lat="47.22892" lon="6.02005">
        <ele>320.4</ele>
        <time>2021-03-07T09:59:48Z</time>
      </trkpt>
      <trkpt lat="47.22892" lon="6.02008">
        <ele>320.6</ele>
        <time>2021-03-07T09:59:49Z</time>
      </trkpt>
      <trkpt lat="47.22892" lon="6.02012">
        <ele>320.8</ele>
        <time>2021-03-07T09:59:50Z</time>
      </trkpt>
      <trkpt lat="47.22891" lon="6.02014">
        <ele>320.8</ele>
        <time>2021-03-07T09:59:51Z</time>
      </trkpt>
      <trkpt lat="47.22891" lon="6.02017">
        <ele>321</ele>
        <time>2021-03-07T09:59:52Z</time>
      </trkpt>
      <trkpt lat="47.22891" lon="6.02021">
        <ele>321.2</ele>
        <time>2021-03-07T09:59:53Z</time>
      </trkpt>
      <trkpt lat="47.22891" lon="6.02024">
        <ele>321.4</ele>
        <time>2021-03-07T09:59:54Z</time>
      </trkpt>
      <trkpt lat="47.2289" lon="6.02026">
        <ele>321.4</ele>
        <time>2021-03-07T09:59:55Z</time>
      </trkpt>
      <trkpt lat="47.22889" lon="6.02028">
        <ele>321.6</ele>
        <time>2021-03-07T09:59:56Z</time>
      </trkpt>
      <trkpt lat="47.22887" lon="6.0203">
        <ele>321.6</ele>
        <time>2021-03-07T09:59:57Z</time>
      </trkpt>
      <trkpt lat="47.22887" lon="6.02033">
        <ele>322</ele>
        <time>2021-03-07T09:59:58Z</time>
      </trkpt>
      <trkpt lat="47.22887" lon="6.02036">
        <ele>322.2</ele>
        <time>2021-03-07T09:59:59Z</time>
      </trkpt>
      <trkpt lat="47.22887" lon="6.02038">
        <ele>322.2</ele>
        <time>2021-03-07T10:00:00Z</time>
      </trkpt>
      <trkpt lat="47.22889" lon="6.0204">
        <ele>322.4</ele>
        <time>2021-03-07T10:00:01Z</time>
      </trkpt>
      <trkpt lat="47.22888" lon="6.02042">
        <ele>322.6</ele>
        <time>2021-03-07T10:00:02Z</time>
      </trkpt>
      <trkpt lat="47.22888" lon="6.02044">
        <ele>322.6</ele>
        <time>2021-03-07T10:00:03Z</time>
      </trkpt>
      <trkpt lat="47.22888" lon="6.02046">
        <ele>322.8</ele>
        <time>2021-03-07T10:00:04Z</time>
      </trkpt>
      <trkpt lat="47.22888" lon="6.02048">
        <ele>322.8</ele>
        <time>2021-03-07T10:00:05Z</time>
      </trkpt>
      <trkpt lat="47.22888" lon="6.0205">
        <ele>322.8</ele>
        <time>2021-03-07T10:00:06Z</time>
      </trkpt>
      <trkpt lat="47.22888" lon="6.02052">
        <ele>323</ele>
        <time>2021-03-07T10:00:07Z</time>
      </trkpt>
      <trkpt lat="47.22888" lon="6.02054">
        <ele>323.2</ele>
        <time>2021-03-07T10:00:08Z</time>
      </trkpt>
      <trkpt lat="47.22887" lon="6.02057">
        <ele>323.4</ele>
        <time>2021-03-07T10:00:09Z</time>
      </trkpt>
      <trkpt lat="47.22888" lon="6.02059">
        <ele>323.4</ele>
        <time>2021-03-07T10:00:10Z</time>
      </trkpt>
      <trkpt lat="47.22888" lon="6.02062">
        <ele>323.8</ele>
        <time>2021-03-07T10:00:11Z</time>
      </trkpt>
      <trkpt lat="47.22888" lon="6.02064">
        <ele>324</ele>
        <time>2021-03-07T10:00:12Z</time>
      </trkpt>
      <trkpt lat="47.22887" lon="6.02067">
        <ele>324</ele>
        <time>2021-03-07T10:00:13Z</time>
      </trkpt>
      <trkpt lat="47.22887" lon="6.02069">
        <ele>324.4</ele>
        <time>2021-03-07T10:00:14Z</time>
      </trkpt>
      <trkpt lat="47.22888" lon="6.02072">
        <ele>324.4</ele>
        <time>2021-03-07T10:00:15Z</time>
      </trkpt>
      <trkpt lat="47.22888" lon="6.02074">
        <ele>324.8</ele>
        <time>2021-03-07T10:00:16Z</time>
      </trkpt>
      <trkpt lat="47.22887" lon="6.02077">
        <ele>324.8</ele>
        <time>2021-03-07T10:00:17Z</time>
      </trkpt>
      <trkpt lat="47.22888" lon="6.02079">
        <ele>325</ele>
        <time>2021-03-07T10:00:18Z</time>
      </trkpt>
      <trkpt lat="47.22888" lon="6.02082">
        <ele>325.2</ele>
        <time>2021-03-07T10:00:19Z</time>
      </trkpt>
      <trkpt lat="47.22888" lon="6.02083">
        <ele>325.4</ele>
        <time>2021-03-07T10:00:20Z</time>
      </trkpt>
      <trkpt lat="47.22889" lon="6.02085">
        <ele>325.4</ele>
        <time>2021-03-07T10:00:21Z</time>
      </trkpt>
      <trkpt lat="47.22889" lon="6.02087">
        <ele>325.6</ele>
        <time>2021-03-07T10:00:22Z</time>
      </trkpt>
      <trkpt lat="47.22888" lon="6.02089">
        <ele>325.6</ele>
        <time>2021-03-07T10:00:23Z</time>
      </trkpt>
      <trkpt lat="47.22888" lon="6.02092">
        <ele>326</ele>
        <time>2021-03-07T10:00:24Z</time>
      </trkpt>
      <trkpt lat="47.22888" lon="6.02095">
        <ele>326</ele>
        <time>2021-03-07T10:00:25Z</time>
      </trkpt>
      <trkpt lat="47.22888" lon="6.02097">
        <ele>326.2</ele>
        <time>2021-03-07T10:00:26Z</time>
      </trkpt>
      <trkpt lat="47.22888" lon="6.02101">
        <ele>326.4</ele>
        <time>2021-03-07T10:00:27Z</time>
      </trkpt>
      <trkpt lat="47.22888" lon="6.02103">
        <ele>326.4</ele>
        <time>2021-03-07T10:00:28Z</time>
      </trkpt>
      <trkpt lat="47.22888" lon="6.02105">
        <ele>326.6</ele>
        <time>2021-03-07T10:00:29Z</time>
      </trkpt>
      <trkpt lat="47.22888" lon="6.02107">
        <ele>326.8</ele>
        <time>2021-03-07T10:00:30Z</time>
      </trkpt>
      <trkpt lat="47.22887" lon="6.02108">
        <ele>326.8</ele>
        <time>2021-03-07T10:00:31Z</time>
      </trkpt>
      <trkpt lat="47.22886" lon="6.0211">
        <ele>327</ele>
        <time>2021-03-07T10:00:32Z</time>
      </trkpt>
      <trkpt lat="47.22885" lon="6.02111">
        <ele>327.2</ele>
        <time>2021-03-07T10:00:33Z</time>
      </trkpt>
      <trkpt lat="47.22884" lon="6.02112">
        <ele>327.4</ele>
        <time>2021-03-07T10:00:34Z</time>
      </trkpt>
      <trkpt lat="47.22883" lon="6.02112">
        <ele>327.4</ele>
        <time>2021-03-07T10:00:35Z</time>
      </trkpt>
      <trkpt lat="47.22883" lon="6.02112">
        <ele>327.6</ele>
        <time>2021-03-07T10:00:37Z</time>
      </trkpt>
      <trkpt lat="47.22883" lon="6.02112">
        <ele>327.6</ele>
        <time>2021-03-07T10:00:38Z</time>
      </trkpt>
      <trkpt lat="47.22883" lon="6.02112">
        <ele>327.8</ele>
        <time>2021-03-07T10:00:45Z</time>
      </trkpt>
      <trkpt lat="47.22883" lon="6.02111">
        <ele>327.4</ele>
        <time>2021-03-07T10:02:44Z</time>
      </trkpt>
      <trkpt lat="47.22881" lon="6.02104">
        <ele>327.8</ele>
        <time>2021-03-07T10:02:47Z</time>
      </trkpt>
      <trkpt lat="47.22881" lon="6.02102">
        <ele>327.8</ele>
        <time>2021-03-07T10:02:48Z</time>
      </trkpt>
      <trkpt lat="47.22878" lon="6.02088">
        <ele>328.2</ele>
        <time>2021-03-07T10:02:53Z</time>
      </trkpt>
      <trkpt lat="47.22877" lon="6.02079">
        <ele>328.6</ele>
        <time>2021-03-07T10:02:56Z</time>
      </trkpt>
      <trkpt lat="47.22876" lon="6.0207">
        <ele>328.8</ele>
        <time>2021-03-07T10:02:59Z</time>
      </trkpt>
      <trkpt lat="47.22875" lon="6.02067">
        <ele>329</ele>
        <time>2021-03-07T10:03:00Z</time>
      </trkpt>
      <trkpt lat="47.22875" lon="6.02061">
        <ele>329.4</ele>
        <time>2021-03-07T10:03:02Z</time>
      </trkpt>
      <trkpt lat="47.22874" lon="6.02058">
        <ele>329.6</ele>
        <time>2021-03-07T10:03:03Z</time>
      </trkpt>
      <trkpt lat="47.22874" lon="6.02052">
        <ele>330</ele>
        <time>2021-03-07T10:03:05Z</time>
      </trkpt>
      <trkpt lat="47.22874" lon="6.0205">
        <ele>330</ele>
        <time>2021-03-07T10:03:06Z</time>
      </trkpt>
      <trkpt lat="47.22874" lon="6.02047">
        <ele>330.4</ele>
        <time>2021-03-07T10:03:07Z</time>
      </trkpt>
      <trkpt lat="47.22875" lon="6.02045">
        <ele>330.2</ele>
        <time>2021-03-07T10:03:08Z</time>
      </trkpt>
      <trkpt lat="47.22876" lon="6.02042">
        <ele>330.6</ele>
        <time>2021-03-07T10:03:09Z</time>
      </trkpt>
      <trkpt lat="47.22875" lon="6.02037">
        <ele>330.6</ele>
        <time>2021-03-07T10:03:10Z</time>
      </trkpt>
      <trkpt lat="47.22875" lon="6.02034">
        <ele>330.8</ele>
        <time>2021-03-07T10:03:11Z</time>
      </trkpt>
      <trkpt lat="47.22875" lon="6.02028">
        <ele>331</ele>
        <time>2021-03-07T10:03:12Z</time>
      </trkpt>
      <trkpt lat="47.22875" lon="6.02025">
        <ele>331</ele>
        <time>2021-03-07T10:03:13Z</time>
      </trkpt>
      <trkpt lat="47.22876" lon="6.02022">
        <ele>331.4</ele>
        <time>2021-03-07T10:03:14Z</time>
      </trkpt>
      <trkpt lat="47.22876" lon="6.0202">
        <ele>331.6</ele>
        <time>2021-03-07T10:03:15Z</time>
      </trkpt>
      <trkpt lat="47.22875" lon="6.02018">
        <ele>331.8</ele>
        <time>2021-03-07T10:03:16Z</time>
      </trkpt>
      <trkpt lat="47.22875" lon="6.02015">
        <ele>332</ele>
        <time>2021-03-07T10:03:17Z</time>
      </trkpt>
      <trkpt lat="47.22873" lon="6.02013">
        <ele>332</ele>
        <time>2021-03-07T10:03:18Z</time>
      </trkpt>
      <trkpt lat="47.22874" lon="6.02011">
        <ele>332.2</ele>
        <time>2021-03-07T10:03:19Z</time>
      </trkpt>
      <trkpt lat="47.22874" lon="6.02009">
        <ele>332.4</ele>
        <time>2021-03-07T10:03:20Z</time>
      </trkpt>
      <trkpt lat="47.22874" lon="6.02006">
        <ele>332.6</ele>
        <time>2021-03-07T10:03:21Z</time>
      </trkpt>
      <trkpt lat="47.22875" lon="6.02005">
        <ele>332.8</ele>
        <time>2021-03-07T10:03:22Z</time>
      </trkpt>
      <trkpt lat="47.22875" lon="6.02003">
        <ele>332.8</ele>
        <time>2021-03-07T10:03:23Z</time>
      </trkpt>
      <trkpt lat="47.22875" lon="6.02002">
        <ele>333</ele>
        <time>2021-03-07T10:03:24Z</time>
      </trkpt>
      <trkpt lat="47.22875" lon="6.02">
        <ele>333.2</ele>
        <time>2021-03-07T10:03:25Z</time>
      </trkpt>
      <trkpt lat="47.22875" lon="6.01997">
        <ele>333.2</ele>
        <time>2021-03-07T10:03:26Z</time>
      </trkpt>
      <trkpt lat="47.22875" lon="6.01995">
        <ele>333.4</ele>
        <time>2021-03-07T10:03:27Z</time>
      </trkpt>
      <trkpt lat="47.22874" lon="6.01993">
        <ele>333.4</ele>
        <time>2021-03-07T10:03:28Z</time>
      </trkpt>
      <trkpt lat="47.22874" lon="6.01992">
        <ele>333.6</ele>
        <time>2021-03-07T10:03:29Z</time>
      </trkpt>
      <trkpt lat="47.22875" lon="6.0199">
        <ele>333.8</ele>
        <time>2021-03-07T10:03:30Z</time>
      </trkpt>
      <trkpt lat="47.22875" lon="6.01989">
        <ele>334</ele>
        <time>2021-03-07T10:03:31Z</time>
      </trkpt>
      <trkpt lat="47.22875" lon="6.01987">
        <ele>334</ele>
        <time>2021-03-07T10:03:32Z</time>
      </trkpt>
      <trkpt lat="47.22875" lon="6.01984">
        <ele>334.2</ele>
        <time>2021-03-07T10:03:33Z</time>
      </trkpt>
      <trkpt lat="47.22875" lon="6.01983">
        <ele>334.2</ele>
        <time>2021-03-07T10:03:34Z</time>
      </trkpt>
      <trkpt lat="47.22875" lon="6.0198">
        <ele>334.4</ele>
        <time>2021-03-07T10:03:35Z</time>
      </trkpt>
      <trkpt lat="47.22874" lon="6.01977">
        <ele>334.6</ele>
        <time>2021-03-07T10:03:36Z</time>
      </trkpt>
      <trkpt lat="47.22873" lon="6.01974">
        <ele>334.8</ele>
        <time>2021-03-07T10:03:37Z</time>
      </trkpt>
      <trkpt lat="47.22872" lon="6.01972">
        <ele>335.2</ele>
        <time>2021-03-07T10:03:38Z</time>
      </trkpt>
      <trkpt lat="47.22872" lon="6.0197">
        <ele>335.4</ele>
        <time>2021-03-07T10:03:39Z</time>
      </trkpt>
      <trkpt lat="47.22872" lon="6.01968">
        <ele>335.8</ele>
        <time>2021-03-07T10:03:40Z</time>
      </trkpt>
      <trkpt lat="47.22873" lon="6.01965">
        <ele>336</ele>
        <time>2021-03-07T10:03:41Z</time>
      </trkpt>
      <trkpt lat="47.22873" lon="6.01962">
        <ele>336.2</ele>
        <time>2021-03-07T10:03:42Z</time>
      </trkpt>
      <trkpt lat="47.22872" lon="6.01958">
        <ele>336.4</ele>
        <time>2021-03-07T10:03:43Z</time>
      </trkpt>
      <trkpt lat="47.22872" lon="6.01956">
        <ele>336.6</ele>
        <time>2021-03-07T10:03:44Z</time>
      </trkpt>
      <trkpt lat="47.22872" lon="6.01954">
        <ele>336.6</ele>
        <time>2021-03-07T10:03:45Z</time>
      </trkpt>
      <trkpt lat="47.22872" lon="6.01951">
        <ele>336.8</ele>
        <time>2021-03-07T10:03:46Z</time>
      </trkpt>
      <trkpt lat="47.22871" lon="6.01948">
        <ele>337</ele>
        <time>2021-03-07T10:03:47Z</time>
      </trkpt>
      <trkpt lat="47.2287" lon="6.01944">
        <ele>337.2</ele>
        <time>2021-03-07T10:03:48Z</time>
      </trkpt>
      <trkpt lat="47.2287" lon="6.01941">
        <ele>337.2</ele>
        <time>2021-03-07T10:03:49Z</time>
      </trkpt>
      <trkpt lat="47.2287" lon="6.01938">
        <ele>337.4</ele>
        <time>2021-03-07T10:03:50Z</time>
      </trkpt>
      <trkpt lat="47.2287" lon="6.01936">
        <ele>337.6</ele>
        <time>2021-03-07T10:03:51Z</time>
      </trkpt>
      <trkpt lat="47.22869" lon="6.01933">
        <ele>337.6</ele>
        <time>2021-03-07T10:03:52Z</time>
      </trkpt>
      <trkpt lat="47.22869" lon="6.0193">
        <ele>337.8</ele>
        <time>2021-03-07T10:03:53Z</time>
      </trkpt>
      <trkpt lat="47.22868" lon="6.01927">
        <ele>338</ele>
        <time>2021-03-07T10:03:54Z</time>
      </trkpt>
      <trkpt lat="47.22868" lon="6.01924">
        <ele>338.2</ele>
        <time>2021-03-07T10:03:55Z</time>
      </trkpt>
      <trkpt lat="47.22867" lon="6.01921">
        <ele>338.2</ele>
        <time>2021-03-07T10:03:56Z</time>
      </trkpt>
      <trkpt lat="47.22866" lon="6.01918">
        <ele>338.4</ele>
        <time>2021-03-07T10:03:57Z</time>
      </trkpt>
      <trkpt lat="47.22866" lon="6.01915">
        <ele>338.6</ele>
        <time>2021-03-07T10:03:58Z</time>
      </trkpt>
      <trkpt lat="47.22866" lon="6.01913">
        <ele>338.8</ele>
        <time>2021-03-07T10:03:59Z</time>
      </trkpt>
      <trkpt lat="47.22867" lon="6.01911">
        <ele>338.8</ele>
        <time>2021-03-07T10:04:00Z</time>
      </trkpt>
      <trkpt lat="47.22868" lon="6.01909">
        <ele>339.2</ele>
        <time>2021-03-07T10:04:01Z</time>
      </trkpt>
      <trkpt lat="47.22868" lon="6.01906">
        <ele>339.2</ele>
        <time>2021-03-07T10:04:02Z</time>
      </trkpt>
      <trkpt lat="47.22868" lon="6.01904">
        <ele>339.4</ele>
        <time>2021-03-07T10:04:03Z</time>
      </trkpt>
      <trkpt lat="47.22869" lon="6.01902">
        <ele>339.6</ele>
        <time>2021-03-07T10:04:04Z</time>
      </trkpt>
      <trkpt lat="47.22869" lon="6.019">
        <ele>339.6</ele>
        <time>2021-03-07T10:04:05Z</time>
      </trkpt>
      <trkpt lat="47.22869" lon="6.01898">
        <ele>339.8</ele>
        <time>2021-03-07T10:04:06Z</time>
      </trkpt>
      <trkpt lat="47.2287" lon="6.01896">
        <ele>340</ele>
        <time>2021-03-07T10:04:07Z</time>
      </trkpt>
      <trkpt lat="47.2287" lon="6.01895">
        <ele>340.2</ele>
        <time>2021-03-07T10:04:08Z</time>
      </trkpt>
      <trkpt lat="47.2287" lon="6.01892">
        <ele>340.2</ele>
        <time>2021-03-07T10:04:09Z</time>
      </trkpt>
      <trkpt lat="47.22869" lon="6.0189">
        <ele>340.4</ele>
        <time>2021-03-07T10:04:10Z</time>
      </trkpt>
      <trkpt lat="47.22869" lon="6.01887">
        <ele>340.4</ele>
        <time>2021-03-07T10:04:11Z</time>
      </trkpt>
      <trkpt lat="47.22869" lon="6.01885">
        <ele>340.6</ele>
        <time>2021-03-07T10:04:12Z</time>
      </trkpt>
      <trkpt lat="47.22868" lon="6.01882">
        <ele>340.6</ele>
        <time>2021-03-07T10:04:13Z</time>
      </trkpt>
      <trkpt lat="47.22868" lon="6.0188">
        <ele>341</ele>
        <time>2021-03-07T10:04:14Z</time>
      </trkpt>
      <trkpt lat="47.22868" lon="6.01879">
        <ele>341</ele>
        <time>2021-03-07T10:04:15Z</time>
      </trkpt>
      <trkpt lat="47.22867" lon="6.01877">
        <ele>341.2</ele>
        <time>2021-03-07T10:04:16Z</time>
      </trkpt>
      <trkpt lat="47.22867" lon="6.01874">
        <ele>341.4</ele>
        <time>2021-03-07T10:04:17Z</time>
      </trkpt>
      <trkpt lat="47.22866" lon="6.01872">
        <ele>341.4</ele>
        <time>2021-03-07T10:04:18Z</time>
      </trkpt>
      <trkpt lat="47.22865" lon="6.01869">
        <ele>341.6</ele>
        <time>2021-03-07T10:04:19Z</time>
      </trkpt>
      <trkpt lat="47.22865" lon="6.01867">
        <ele>341.6</ele>
        <time>2021-03-07T10:04:20Z</time>
      </trkpt>
      <trkpt lat="47.22865" lon="6.01864">
        <ele>342</ele>
        <time>2021-03-07T10:04:21Z</time>
      </trkpt>
      <trkpt lat="47.22864" lon="6.01862">
        <ele>342</ele>
        <time>2021-03-07T10:04:22Z</time>
      </trkpt>
      <trkpt lat="47.22864" lon="6.01859">
        <ele>342.2</ele>
        <time>2021-03-07T10:04:23Z</time>
      </trkpt>
      <trkpt lat="47.22863" lon="6.01856">
        <ele>342.4</ele>
        <time>2021-03-07T10:04:24Z</time>
      </trkpt>
      <trkpt lat="47.22864" lon="6.01853">
        <ele>342.6</ele>
        <time>2021-03-07T10:04:25Z</time>
      </trkpt>
      <trkpt lat="47.22863" lon="6.0185">
        <ele>342.8</ele>
        <time>2021-03-07T10:04:26Z</time>
      </trkpt>
      <trkpt lat="47.22863" lon="6.01848">
        <ele>342.8</ele>
        <time>2021-03-07T10:04:27Z</time>
      </trkpt>
      <trkpt lat="47.22863" lon="6.01844">
        <ele>343</ele>
        <time>2021-03-07T10:04:28Z</time>
      </trkpt>
      <trkpt lat="47.22863" lon="6.01842">
        <ele>343.2</ele>
        <time>2021-03-07T10:04:29Z</time>
      </trkpt>
      <trkpt lat="47.22863" lon="6.01839">
        <ele>343.6</ele>
        <time>2021-03-07T10:04:30Z</time>
      </trkpt>
      <trkpt lat="47.22864" lon="6.01837">
        <ele>343.6</ele>
        <time>2021-03-07T10:04:31Z</time>
      </trkpt>
      <trkpt lat="47.22865" lon="6.01835">
        <ele>343.8</ele>
        <time>2021-03-07T10:04:32Z</time>
      </trkpt>
      <trkpt lat="47.22865" lon="6.01833">
        <ele>343.8</ele>
        <time>2021-03-07T10:04:33Z</time>
      </trkpt>
      <trkpt lat="47.22866" lon="6.01831">
        <ele>344</ele>
        <time>2021-03-07T10:04:34Z</time>
      </trkpt>
      <trkpt lat="47.22866" lon="6.01828">
        <ele>344.2</ele>
        <time>2021-03-07T10:04:35Z</time>
      </trkpt>
      <trkpt lat="47.22867" lon="6.01826">
        <ele>344.4</ele>
        <time>2021-03-07T10:04:36Z</time>
      </trkpt>
      <trkpt lat="47.22867" lon="6.01824">
        <ele>344.4</ele>
        <time>2021-03-07T10:04:37Z</time>
      </trkpt>
      <trkpt lat="47.22867" lon="6.01822">
        <ele>344.8</ele>
        <time>2021-03-07T10:04:38Z</time>
      </trkpt>
      <trkpt lat="47.22867" lon="6.01819">
        <ele>344.8</ele>
        <time>2021-03-07T10:04:39Z</time>
      </trkpt>
      <trkpt lat="47.22867" lon="6.01817">
        <ele>345.2</ele>
        <time>2021-03-07T10:04:40Z</time>
      </trkpt>
      <trkpt lat="47.22867" lon="6.01815">
        <ele>345</ele>
        <time>2021-03-07T10:04:41Z</time>
      </trkpt>
      <trkpt lat="47.22867" lon="6.01813">
        <ele>345.4</ele>
        <time>2021-03-07T10:04:42Z</time>
      </trkpt>
      <trkpt lat="47.22867" lon="6.01811">
        <ele>345.8</ele>
        <time>2021-03-07T10:04:43Z</time>
      </trkpt>
      <trkpt lat="47.22867" lon="6.01808">
        <ele>345.8</ele>
        <time>2021-03-07T10:04:44Z</time>
      </trkpt>
      <trkpt lat="47.22867" lon="6.01806">
        <ele>346</ele>
        <time>2021-03-07T10:04:45Z</time>
      </trkpt>
      <trkpt lat="47.22866" lon="6.01803">
        <ele>346.2</ele>
        <time>2021-03-07T10:04:46Z</time>
      </trkpt>
      <trkpt lat="47.22866" lon="6.01801">
        <ele>346.4</ele>
        <time>2021-03-07T10:04:47Z</time>
      </trkpt>
      <trkpt lat="47.22865" lon="6.01798">
        <ele>346.6</ele>
        <time>2021-03-07T10:04:48Z</time>
      </trkpt>
      <trkpt lat="47.22864" lon="6.01795">
        <ele>346.6</ele>
        <time>2021-03-07T10:04:49Z</time>
      </trkpt>
      <trkpt lat="47.22863" lon="6.01793">
        <ele>346.8</ele>
        <time>2021-03-07T10:04:50Z</time>
      </trkpt>
      <trkpt lat="47.22863" lon="6.01792">
        <ele>347</ele>
        <time>2021-03-07T10:04:51Z</time>
      </trkpt>
      <trkpt lat="47.22862" lon="6.0179">
        <ele>347</ele>
        <time>2021-03-07T10:04:52Z</time>
      </trkpt>
      <trkpt lat="47.22861" lon="6.01788">
        <ele>347.2</ele>
        <time>2021-03-07T10:04:53Z</time>
      </trkpt>
      <trkpt lat="47.22861" lon="6.01785">
        <ele>347.4</ele>
        <time>2021-03-07T10:04:54Z</time>
      </trkpt>
      <trkpt lat="47.22859" lon="6.01782">
        <ele>347.6</ele>
        <time>2021-03-07T10:04:55Z</time>
      </trkpt>
      <trkpt lat="47.22858" lon="6.01779">
        <ele>347.8</ele>
        <time>2021-03-07T10:04:56Z</time>
      </trkpt>
      <trkpt lat="47.22857" lon="6.01775">
        <ele>347.8</ele>
        <time>2021-03-07T10:04:57Z</time>
      </trkpt>
      <trkpt lat="47.22856" lon="6.01772">
        <ele>348</ele>
        <time>2021-03-07T10:04:58Z</time>
      </trkpt>
      <trkpt lat="47.22854" lon="6.01769">
        <ele>348</ele>
        <time>2021-03-07T10:04:59Z</time>
      </trkpt>
      <trkpt lat="47.22853" lon="6.01765">
        <ele>348</ele>
        <time>2021-03-07T10:05:00Z</time>
      </trkpt>
      <trkpt lat="47.22852" lon="6.01763">
        <ele>348</ele>
        <time>2021-03-07T10:05:01Z</time>
      </trkpt>
      <trkpt lat="47.22851" lon="6.0176">
        <ele>348</ele>
        <time>2021-03-07T10:05:02Z</time>
      </trkpt>
      <trkpt lat="47.2285" lon="6.01756">
        <ele>348</ele>
        <time>2021-03-07T10:05:03Z</time>
      </trkpt>
      <trkpt lat="47.22846" lon="6.01751">
        <ele>348</ele>
        <time>2021-03-07T10:05:04Z</time>
      </trkpt>
      <trkpt lat="47.22843" lon="6.01747">
        <ele>348</ele>
        <time>2021-03-07T10:05:05Z</time>
      </trkpt>
      <trkpt lat="47.22841" lon="6.01744">
        <ele>348</ele>
        <time>2021-03-07T10:05:06Z</time>
      </trkpt>
      <trkpt lat="47.22838" lon="6.01739">
        <ele>348</ele>
        <time>2021-03-07T10:05:07Z</time>
      </trkpt>
      <trkpt lat="47.22836" lon="6.01734">
        <ele>348</ele>
        <time>2021-03-07T10:05:08Z</time>
      </trkpt>
      <trkpt lat="47.22834" lon="6.0173">
        <ele>348</ele>
        <time>2021-03-07T10:05:09Z</time>
      </trkpt>
      <trkpt lat="47.22832" lon="6.01726">
        <ele>348</ele>
        <time>2021-03-07T10:05:10Z</time>
      </trkpt>
      <trkpt lat="47.22829" lon="6.01722">
        <ele>348</ele>
        <time>2021-03-07T10:05:11Z</time>
      </trkpt>
      <trkpt lat="47.22816" lon="6.01702">
        <ele>348</ele>
        <time>2021-03-07T10:05:17Z</time>
      </trkpt>
      <trkpt lat="47.22789" lon="6.01672">
        <ele>348.4</ele>
        <time>2021-03-07T10:05:27Z</time>
      </trkpt>
      <trkpt lat="47.22777" lon="6.01662">
        <ele>348.6</ele>
        <time>2021-03-07T10:05:31Z</time>
      </trkpt>
      <trkpt lat="47.22775" lon="6.01661">
        <ele>348.6</ele>
        <time>2021-03-07T10:05:32Z</time>
      </trkpt>
      <trkpt lat="47.22772" lon="6.01661">
        <ele>348.8</ele>
        <time>2021-03-07T10:05:33Z</time>
      </trkpt>
      <trkpt lat="47.22766" lon="6.01661">
        <ele>349</ele>
        <time>2021-03-07T10:05:35Z</time>
      </trkpt>
      <trkpt lat="47.22763" lon="6.01661">
        <ele>349.2</ele>
        <time>2021-03-07T10:05:36Z</time>
      </trkpt>
      <trkpt lat="47.2276" lon="6.01662">
        <ele>349.2</ele>
        <time>2021-03-07T10:05:37Z</time>
      </trkpt>
      <trkpt lat="47.22758" lon="6.01663">
        <ele>349.4</ele>
        <time>2021-03-07T10:05:38Z</time>
      </trkpt>
      <trkpt lat="47.22756" lon="6.01663">
        <ele>349.6</ele>
        <time>2021-03-07T10:05:39Z</time>
      </trkpt>
      <trkpt lat="47.22753" lon="6.01664">
        <ele>349.6</ele>
        <time>2021-03-07T10:05:40Z</time>
      </trkpt>
      <trkpt lat="47.22751" lon="6.01665">
        <ele>350</ele>
        <time>2021-03-07T10:05:41Z</time>
      </trkpt>
      <trkpt lat="47.22749" lon="6.01665">
        <ele>350.2</ele>
        <time>2021-03-07T10:05:42Z</time>
      </trkpt>
      <trkpt lat="47.22748" lon="6.01666">
        <ele>350.4</ele>
        <time>2021-03-07T10:05:43Z</time>
      </trkpt>
      <trkpt lat="47.22746" lon="6.01666">
        <ele>350.6</ele>
        <time>2021-03-07T10:05:44Z</time>
      </trkpt>
      <trkpt lat="47.22743" lon="6.01667">
        <ele>351</ele>
        <time>2021-03-07T10:05:45Z</time>
      </trkpt>
      <trkpt lat="47.22741" lon="6.01667">
        <ele>351</ele>
        <time>2021-03-07T10:05:46Z</time>
      </trkpt>
      <trkpt lat="47.22739" lon="6.01668">
        <ele>351.4</ele>
        <time>2021-03-07T10:05:47Z</time>
      </trkpt>
      <trkpt lat="47.22737" lon="6.01668">
        <ele>351.6</ele>
        <time>2021-03-07T10:05:48Z</time>
      </trkpt>
      <trkpt lat="47.22735" lon="6.01669">
        <ele>351.8</ele>
        <time>2021-03-07T10:05:49Z</time>
      </trkpt>
      <trkpt lat="47.22733" lon="6.01669">
        <ele>352.2</ele>
        <time>2021-03-07T10:05:50Z</time>
      </trkpt>
      <trkpt lat="47.22731" lon="6.01669">
        <ele>352.4</ele>
        <time>2021-03-07T10:05:51Z</time>
      </trkpt>
      <trkpt lat="47.22729" lon="6.01669">
        <ele>352.8</ele>
        <time>2021-03-07T10:05:52Z</time>
      </trkpt>
      <trkpt lat="47.22727" lon="6.01669">
        <ele>353</ele>
        <time>2021-03-07T10:05:53Z</time>
      </trkpt>
      <trkpt lat="47.22725" lon="6.01669">
        <ele>353.2</ele>
        <time>2021-03-07T10:05:54Z</time>
      </trkpt>
      <trkpt lat="47.22722" lon="6.01669">
        <ele>353.6</ele>
        <time>2021-03-07T10:05:55Z</time>
      </trkpt>
      <trkpt lat="47.2272" lon="6.01669">
        <ele>353.8</ele>
        <time>2021-03-07T10:05:56Z</time>
      </trkpt>
      <trkpt lat="47.22717" lon="6.01669">
        <ele>354</ele>
        <time>2021-03-07T10:05:57Z</time>
      </trkpt>
      <trkpt lat="47.22715" lon="6.01669">
        <ele>354.2</ele>
        <time>2021-03-07T10:05:58Z</time>
      </trkpt>
      <trkpt lat="47.22712" lon="6.0167">
        <ele>354.4</ele>
        <time>2021-03-07T10:05:59Z</time>
      </trkpt>
      <trkpt lat="47.2271" lon="6.0167">
        <ele>354.6</ele>
        <time>2021-03-07T10:06:00Z</time>
      </trkpt>
      <trkpt lat="47.22707" lon="6.0167">
        <ele>354.8</ele>
        <time>2021-03-07T10:06:01Z</time>
      </trkpt>
      <trkpt lat="47.22705" lon="6.0167">
        <ele>354.8</ele>
        <time>2021-03-07T10:06:02Z</time>
      </trkpt>
      <trkpt lat="47.22703" lon="6.0167">
        <ele>355</ele>
        <time>2021-03-07T10:06:03Z</time>
      </trkpt>
      <trkpt lat="47.227" lon="6.0167">
        <ele>355</ele>
        <time>2021-03-07T10:06:04Z</time>
      </trkpt>
      <trkpt lat="47.22698" lon="6.01671">
        <ele>355.2</ele>
        <time>2021-03-07T10:06:05Z</time>
      </trkpt>
      <trkpt lat="47.22695" lon="6.01671">
        <ele>355.2</ele>
        <time>2021-03-07T10:06:06Z</time>
      </trkpt>
      <trkpt lat="47.22693" lon="6.01672">
        <ele>355.4</ele>
        <time>2021-03-07T10:06:07Z</time>
      </trkpt>
      <trkpt lat="47.22691" lon="6.01672">
        <ele>355.4</ele>
        <time>2021-03-07T10:06:08Z</time>
      </trkpt>
      <trkpt lat="47.22688" lon="6.01672">
        <ele>355.6</ele>
        <time>2021-03-07T10:06:09Z</time>
      </trkpt>
      <trkpt lat="47.22685" lon="6.01672">
        <ele>355.6</ele>
        <time>2021-03-07T10:06:10Z</time>
      </trkpt>
      <trkpt lat="47.22683" lon="6.01672">
        <ele>356</ele>
        <time>2021-03-07T10:06:11Z</time>
      </trkpt>
      <trkpt lat="47.2268" lon="6.01673">
        <ele>356</ele>
        <time>2021-03-07T10:06:12Z</time>
      </trkpt>
      <trkpt lat="47.22678" lon="6.01673">
        <ele>356.2</ele>
        <time>2021-03-07T10:06:13Z</time>
      </trkpt>
      <trkpt lat="47.22676" lon="6.01673">
        <ele>356.2</ele>
        <time>2021-03-07T10:06:14Z</time>
      </trkpt>
      <trkpt lat="47.22674" lon="6.01674">
        <ele>356.4</ele>
        <time>2021-03-07T10:06:15Z</time>
      </trkpt>
      <trkpt lat="47.22671" lon="6.01674">
        <ele>356.6</ele>
        <time>2021-03-07T10:06:16Z</time>
      </trkpt>
      <trkpt lat="47.22669" lon="6.01675">
        <ele>356.6</ele>
        <time>2021-03-07T10:06:17Z</time>
      </trkpt>
      <trkpt lat="47.22666" lon="6.01675">
        <ele>356.8</ele>
        <time>2021-03-07T10:06:18Z</time>
      </trkpt>
      <trkpt lat="47.22665" lon="6.01675">
        <ele>357</ele>
        <time>2021-03-07T10:06:19Z</time>
      </trkpt>
      <trkpt lat="47.22662" lon="6.01676">
        <ele>357.2</ele>
        <time>2021-03-07T10:06:20Z</time>
      </trkpt>
      <trkpt lat="47.2266" lon="6.01677">
        <ele>357.2</ele>
        <time>2021-03-07T10:06:21Z</time>
      </trkpt>
      <trkpt lat="47.22657" lon="6.01678">
        <ele>357.4</ele>
        <time>2021-03-07T10:06:22Z</time>
      </trkpt>
      <trkpt lat="47.22655" lon="6.01678">
        <ele>357.4</ele>
        <time>2021-03-07T10:06:23Z</time>
      </trkpt>
      <trkpt lat="47.22653" lon="6.01679">
        <ele>357.6</ele>
        <time>2021-03-07T10:06:24Z</time>
      </trkpt>
      <trkpt lat="47.22651" lon="6.01679">
        <ele>357.6</ele>
        <time>2021-03-07T10:06:25Z</time>
      </trkpt>
      <trkpt lat="47.22648" lon="6.0168">
        <ele>357.6</ele>
        <time>2021-03-07T10:06:26Z</time>
      </trkpt>
      <trkpt lat="47.22646" lon="6.01681">
        <ele>357.8</ele>
        <time>2021-03-07T10:06:27Z</time>
      </trkpt>
      <trkpt lat="47.22644" lon="6.01681">
        <ele>357.8</ele>
        <time>2021-03-07T10:06:28Z</time>
      </trkpt>
      <trkpt lat="47.22641" lon="6.01682">
        <ele>357.8</ele>
        <time>2021-03-07T10:06:29Z</time>
      </trkpt>
      <trkpt lat="47.22639" lon="6.01682">
        <ele>358</ele>
        <time>2021-03-07T10:06:30Z</time>
      </trkpt>
      <trkpt lat="47.22637" lon="6.01683">
        <ele>358</ele>
        <time>2021-03-07T10:06:31Z</time>
      </trkpt>
      <trkpt lat="47.22634" lon="6.01683">
        <ele>358.2</ele>
        <time>2021-03-07T10:06:32Z</time>
      </trkpt>
      <trkpt lat="47.22631" lon="6.01683">
        <ele>358.2</ele>
        <time>2021-03-07T10:06:33Z</time>
      </trkpt>
      <trkpt lat="47.2263" lon="6.01684">
        <ele>358.2</ele>
        <time>2021-03-07T10:06:34Z</time>
      </trkpt>
      <trkpt lat="47.22627" lon="6.01684">
        <ele>358.2</ele>
        <time>2021-03-07T10:06:35Z</time>
      </trkpt>
      <trkpt lat="47.22625" lon="6.01685">
        <ele>358.4</ele>
        <time>2021-03-07T10:06:36Z</time>
      </trkpt>
      <trkpt lat="47.22623" lon="6.01685">
        <ele>358.4</ele>
        <time>2021-03-07T10:06:37Z</time>
      </trkpt>
      <trkpt lat="47.22621" lon="6.01686">
        <ele>358.4</ele>
        <time>2021-03-07T10:06:38Z</time>
      </trkpt>
      <trkpt lat="47.22618" lon="6.01687">
        <ele>358.6</ele>
        <time>2021-03-07T10:06:39Z</time>
      </trkpt>
      <trkpt lat="47.22617" lon="6.01687">
        <ele>358.8</ele>
        <time>2021-03-07T10:06:40Z</time>
      </trkpt>
      <trkpt lat="47.22614" lon="6.01688">
        <ele>359</ele>
        <time>2021-03-07T10:06:41Z</time>
      </trkpt>
      <trkpt lat="47.2261" lon="6.01689">
        <ele>359.4</ele>
        <time>2021-03-07T10:06:43Z</time>
      </trkpt>
      <trkpt lat="47.22607" lon="6.0169">
        <ele>359.6</ele>
        <time>2021-03-07T10:06:44Z</time>
      </trkpt>
      <trkpt lat="47.22605" lon="6.0169">
        <ele>359.6</ele>
        <time>2021-03-07T10:06:45Z</time>
      </trkpt>
      <trkpt lat="47.22603" lon="6.0169">
        <ele>359.8</ele>
        <time>2021-03-07T10:06:46Z</time>
      </trkpt>
      <trkpt lat="47.22601" lon="6.0169">
        <ele>360</ele>
        <time>2021-03-07T10:06:47Z</time>
      </trkpt>
      <trkpt lat="47.22598" lon="6.01691">
        <ele>360.4</ele>
        <time>2021-03-07T10:06:48Z</time>
      </trkpt>
      <trkpt lat="47.22596" lon="6.01691">
        <ele>360.4</ele>
        <time>2021-03-07T10:06:49Z</time>
      </trkpt>
      <trkpt lat="47.22594" lon="6.01692">
        <ele>361</ele>
        <time>2021-03-07T10:06:50Z</time>
      </trkpt>
      <trkpt lat="47.22592" lon="6.01692">
        <ele>361.2</ele>
        <time>2021-03-07T10:06:51Z</time>
      </trkpt>
      <trkpt lat="47.2259" lon="6.01693">
        <ele>361.2</ele>
        <time>2021-03-07T10:06:52Z</time>
      </trkpt>
      <trkpt lat="47.22588" lon="6.01693">
        <ele>361.4</ele>
        <time>2021-03-07T10:06:53Z</time>
      </trkpt>
      <trkpt lat="47.22586" lon="6.01694">
        <ele>361.4</ele>
        <time>2021-03-07T10:06:54Z</time>
      </trkpt>
      <trkpt lat="47.22584" lon="6.01695">
        <ele>361.6</ele>
        <time>2021-03-07T10:06:55Z</time>
      </trkpt>
      <trkpt lat="47.22582" lon="6.01696">
        <ele>361.8</ele>
        <time>2021-03-07T10:06:56Z</time>
      </trkpt>
      <trkpt lat="47.22579" lon="6.01697">
        <ele>362</ele>
        <time>2021-03-07T10:06:57Z</time>
      </trkpt>
      <trkpt lat="47.22577" lon="6.01698">
        <ele>362</ele>
        <time>2021-03-07T10:06:58Z</time>
      </trkpt>
      <trkpt lat="47.22575" lon="6.01698">
        <ele>362.2</ele>
        <time>2021-03-07T10:06:59Z</time>
      </trkpt>
      <trkpt lat="47.22573" lon="6.01699">
        <ele>362.2</ele>
        <time>2021-03-07T10:07:00Z</time>
      </trkpt>
      <trkpt lat="47.22571" lon="6.017">
        <ele>362.4</ele>
        <time>2021-03-07T10:07:01Z</time>
      </trkpt>
      <trkpt lat="47.22569" lon="6.017">
        <ele>362.4</ele>
        <time>2021-03-07T10:07:02Z</time>
      </trkpt>
      <trkpt lat="47.22566" lon="6.01702">
        <ele>362.6</ele>
        <time>2021-03-07T10:07:03Z</time>
      </trkpt>
      <trkpt lat="47.22564" lon="6.01703">
        <ele>363</ele>
        <time>2021-03-07T10:07:04Z</time>
      </trkpt>
      <trkpt lat="47.22562" lon="6.01704">
        <ele>363</ele>
        <time>2021-03-07T10:07:05Z</time>
      </trkpt>
      <trkpt lat="47.2256" lon="6.01705">
        <ele>363.2</ele>
        <time>2021-03-07T10:07:06Z</time>
      </trkpt>
      <trkpt lat="47.22558" lon="6.01707">
        <ele>363.4</ele>
        <time>2021-03-07T10:07:07Z</time>
      </trkpt>
      <trkpt lat="47.22556" lon="6.01709">
        <ele>363.4</ele>
        <time>2021-03-07T10:07:08Z</time>
      </trkpt>
      <trkpt lat="47.22554" lon="6.0171">
        <ele>363.6</ele>
        <time>2021-03-07T10:07:09Z</time>
      </trkpt>
      <trkpt lat="47.22552" lon="6.01713">
        <ele>363.6</ele>
        <time>2021-03-07T10:07:10Z</time>
      </trkpt>
      <trkpt lat="47.22551" lon="6.01714">
        <ele>363.6</ele>
        <time>2021-03-07T10:07:11Z</time>
      </trkpt>
      <trkpt lat="47.22549" lon="6.01717">
        <ele>363.8</ele>
        <time>2021-03-07T10:07:12Z</time>
      </trkpt>
      <trkpt lat="47.22548" lon="6.0172">
        <ele>363.8</ele>
        <time>2021-03-07T10:07:13Z</time>
      </trkpt>
      <trkpt lat="47.22546" lon="6.01723">
        <ele>363.8</ele>
        <time>2021-03-07T10:07:14Z</time>
      </trkpt>
      <trkpt lat="47.22545" lon="6.01725">
        <ele>364</ele>
        <time>2021-03-07T10:07:15Z</time>
      </trkpt>
      <trkpt lat="47.22544" lon="6.01727">
        <ele>364.2</ele>
        <time>2021-03-07T10:07:16Z</time>
      </trkpt>
      <trkpt lat="47.22544" lon="6.0173">
        <ele>364.4</ele>
        <time>2021-03-07T10:07:17Z</time>
      </trkpt>
      <trkpt lat="47.22544" lon="6.01733">
        <ele>364.4</ele>
        <time>2021-03-07T10:07:18Z</time>
      </trkpt>
      <trkpt lat="47.22544" lon="6.01736">
        <ele>364.6</ele>
        <time>2021-03-07T10:07:19Z</time>
      </trkpt>
      <trkpt lat="47.22544" lon="6.01739">
        <ele>364.6</ele>
        <time>2021-03-07T10:07:20Z</time>
      </trkpt>
      <trkpt lat="47.22544" lon="6.01741">
        <ele>364.8</ele>
        <time>2021-03-07T10:07:21Z</time>
      </trkpt>
      <trkpt lat="47.22544" lon="6.01744">
        <ele>365</ele>
        <time>2021-03-07T10:07:22Z</time>
      </trkpt>
      <trkpt lat="47.22544" lon="6.01747">
        <ele>365.2</ele>
        <time>2021-03-07T10:07:23Z</time>
      </trkpt>
      <trkpt lat="47.22545" lon="6.0175">
        <ele>365.4</ele>
        <time>2021-03-07T10:07:24Z</time>
      </trkpt>
      <trkpt lat="47.22545" lon="6.01753">
        <ele>365.6</ele>
        <time>2021-03-07T10:07:25Z</time>
      </trkpt>
      <trkpt lat="47.22545" lon="6.01755">
        <ele>365.8</ele>
        <time>2021-03-07T10:07:26Z</time>
      </trkpt>
      <trkpt lat="47.22546" lon="6.01758">
        <ele>366.2</ele>
        <time>2021-03-07T10:07:27Z</time>
      </trkpt>
      <trkpt lat="47.22546" lon="6.01761">
        <ele>366.4</ele>
        <time>2021-03-07T10:07:28Z</time>
      </trkpt>
      <trkpt lat="47.22546" lon="6.01764">
        <ele>366.6</ele>
        <time>2021-03-07T10:07:29Z</time>
      </trkpt>
      <trkpt lat="47.22546" lon="6.01766">
        <ele>366.8</ele>
        <time>2021-03-07T10:07:30Z</time>
      </trkpt>
      <trkpt lat="47.22546" lon="6.01769">
        <ele>367</ele>
        <time>2021-03-07T10:07:31Z</time>
      </trkpt>
      <trkpt lat="47.22546" lon="6.0177">
        <ele>367.2</ele>
        <time>2021-03-07T10:07:32Z</time>
      </trkpt>
      <trkpt lat="47.22545" lon="6.01773">
        <ele>367.2</ele>
        <time>2021-03-07T10:07:33Z</time>
      </trkpt>
      <trkpt lat="47.22545" lon="6.01773">
        <ele>367.4</ele>
        <time>2021-03-07T10:07:34Z</time>
      </trkpt>
      <trkpt lat="47.22544" lon="6.01777">
        <ele>367.6</ele>
        <time>2021-03-07T10:07:35Z</time>
      </trkpt>
      <trkpt lat="47.22544" lon="6.01779">
        <ele>367.8</ele>
        <time>2021-03-07T10:07:36Z</time>
      </trkpt>
      <trkpt lat="47.22544" lon="6.01781">
        <ele>368</ele>
        <time>2021-03-07T10:07:37Z</time>
      </trkpt>
      <trkpt lat="47.22543" lon="6.01783">
        <ele>368.2</ele>
        <time>2021-03-07T10:07:38Z</time>
      </trkpt>
      <trkpt lat="47.22543" lon="6.01785">
        <ele>368.4</ele>
        <time>2021-03-07T10:07:39Z</time>
      </trkpt>
      <trkpt lat="47.22542" lon="6.01787">
        <ele>368.4</ele>
        <time>2021-03-07T10:07:40Z</time>
      </trkpt>
      <trkpt lat="47.2254" lon="6.01788">
        <ele>368.6</ele>
        <time>2021-03-07T10:07:41Z</time>
      </trkpt>
      <trkpt lat="47.22539" lon="6.01789">
        <ele>368.8</ele>
        <time>2021-03-07T10:07:42Z</time>
      </trkpt>
      <trkpt lat="47.22538" lon="6.01791">
        <ele>369</ele>
        <time>2021-03-07T10:07:43Z</time>
      </trkpt>
      <trkpt lat="47.22537" lon="6.01792">
        <ele>369</ele>
        <time>2021-03-07T10:07:44Z</time>
      </trkpt>
      <trkpt lat="47.22536" lon="6.01794">
        <ele>369.2</ele>
        <time>2021-03-07T10:07:45Z</time>
      </trkpt>
      <trkpt lat="47.22535" lon="6.01795">
        <ele>369.4</ele>
        <time>2021-03-07T10:07:46Z</time>
      </trkpt>
      <trkpt lat="47.22534" lon="6.01797">
        <ele>369.6</ele>
        <time>2021-03-07T10:07:47Z</time>
      </trkpt>
      <trkpt lat="47.22533" lon="6.01798">
        <ele>369.6</ele>
        <time>2021-03-07T10:07:48Z</time>
      </trkpt>
      <trkpt lat="47.22532" lon="6.01799">
        <ele>369.8</ele>
        <time>2021-03-07T10:07:49Z</time>
      </trkpt>
      <trkpt lat="47.22531" lon="6.01801">
        <ele>369.8</ele>
        <time>2021-03-07T10:07:50Z</time>
      </trkpt>
      <trkpt lat="47.22529" lon="6.01803">
        <ele>369.8</ele>
        <time>2021-03-07T10:07:51Z</time>
      </trkpt>
      <trkpt lat="47.22528" lon="6.01803">
        <ele>369.8</ele>
        <time>2021-03-07T10:07:52Z</time>
      </trkpt>
      <trkpt lat="47.22527" lon="6.01805">
        <ele>370.2</ele>
        <time>2021-03-07T10:07:53Z</time>
      </trkpt>
      <trkpt lat="47.22526" lon="6.01806">
        <ele>370.4</ele>
        <time>2021-03-07T10:07:54Z</time>
      </trkpt>
      <trkpt lat="47.22524" lon="6.01808">
        <ele>370.6</ele>
        <time>2021-03-07T10:07:55Z</time>
      </trkpt>
      <trkpt lat="47.22523" lon="6.01809">
        <ele>370.8</ele>
        <time>2021-03-07T10:07:56Z</time>
      </trkpt>
      <trkpt lat="47.22522" lon="6.01811">
        <ele>370.8</ele>
        <time>2021-03-07T10:07:57Z</time>
      </trkpt>
      <trkpt lat="47.22521" lon="6.01812">
        <ele>371</ele>
        <time>2021-03-07T10:07:58Z</time>
      </trkpt>
      <trkpt lat="47.2252" lon="6.01813">
        <ele>371.2</ele>
        <time>2021-03-07T10:07:59Z</time>
      </trkpt>
      <trkpt lat="47.22519" lon="6.01815">
        <ele>371.6</ele>
        <time>2021-03-07T10:08:00Z</time>
      </trkpt>
      <trkpt lat="47.22517" lon="6.01817">
        <ele>371.6</ele>
        <time>2021-03-07T10:08:01Z</time>
      </trkpt>
      <trkpt lat="47.22516" lon="6.01818">
        <ele>372</ele>
        <time>2021-03-07T10:08:02Z</time>
      </trkpt>
      <trkpt lat="47.22515" lon="6.0182">
        <ele>372</ele>
        <time>2021-03-07T10:08:03Z</time>
      </trkpt>
      <trkpt lat="47.22514" lon="6.01821">
        <ele>372.2</ele>
        <time>2021-03-07T10:08:04Z</time>
      </trkpt>
      <trkpt lat="47.22512" lon="6.01823">
        <ele>372.4</ele>
        <time>2021-03-07T10:08:05Z</time>
      </trkpt>
      <trkpt lat="47.22511" lon="6.01824">
        <ele>372.6</ele>
        <time>2021-03-07T10:08:06Z</time>
      </trkpt>
      <trkpt lat="47.2251" lon="6.01826">
        <ele>372.8</ele>
        <time>2021-03-07T10:08:07Z</time>
      </trkpt>
      <trkpt lat="47.22509" lon="6.01827">
        <ele>373</ele>
        <time>2021-03-07T10:08:08Z</time>
      </trkpt>
      <trkpt lat="47.22507" lon="6.01828">
        <ele>373</ele>
        <time>2021-03-07T10:08:09Z</time>
      </trkpt>
      <trkpt lat="47.22506" lon="6.0183">
        <ele>373.2</ele>
        <time>2021-03-07T10:08:10Z</time>
      </trkpt>
      <trkpt lat="47.22505" lon="6.01832">
        <ele>373.4</ele>
        <time>2021-03-07T10:08:11Z</time>
      </trkpt>
      <trkpt lat="47.22504" lon="6.01834">
        <ele>373.6</ele>
        <time>2021-03-07T10:08:12Z</time>
      </trkpt>
      <trkpt lat="47.22503" lon="6.01835">
        <ele>373.6</ele>
        <time>2021-03-07T10:08:13Z</time>
      </trkpt>
      <trkpt lat="47.22503" lon="6.01837">
        <ele>373.8</ele>
        <time>2021-03-07T10:08:14Z</time>
      </trkpt>
      <trkpt lat="47.22502" lon="6.01839">
        <ele>374</ele>
        <time>2021-03-07T10:08:15Z</time>
      </trkpt>
      <trkpt lat="47.22501" lon="6.01841">
        <ele>374.2</ele>
        <time>2021-03-07T10:08:16Z</time>
      </trkpt>
      <trkpt lat="47.225" lon="6.01843">
        <ele>374.4</ele>
        <time>2021-03-07T10:08:17Z</time>
      </trkpt>
      <trkpt lat="47.22499" lon="6.01844">
        <ele>374.4</ele>
        <time>2021-03-07T10:08:18Z</time>
      </trkpt>
      <trkpt lat="47.22498" lon="6.01846">
        <ele>374.6</ele>
        <time>2021-03-07T10:08:19Z</time>
      </trkpt>
      <trkpt lat="47.22497" lon="6.01847">
        <ele>374.8</ele>
        <time>2021-03-07T10:08:20Z</time>
      </trkpt>
      <trkpt lat="47.22496" lon="6.01849">
        <ele>374.8</ele>
        <time>2021-03-07T10:08:21Z</time>
      </trkpt>
      <trkpt lat="47.22495" lon="6.01851">
        <ele>375</ele>
        <time>2021-03-07T10:08:22Z</time>
      </trkpt>
      <trkpt lat="47.22494" lon="6.01852">
        <ele>375.2</ele>
        <time>2021-03-07T10:08:23Z</time>
      </trkpt>
      <trkpt lat="47.22492" lon="6.01854">
        <ele>375.2</ele>
        <time>2021-03-07T10:08:24Z</time>
      </trkpt>
      <trkpt lat="47.22491" lon="6.01855">
        <ele>375.2</ele>
        <time>2021-03-07T10:08:25Z</time>
      </trkpt>
      <trkpt lat="47.2249" lon="6.01857">
        <ele>375.6</ele>
        <time>2021-03-07T10:08:26Z</time>
      </trkpt>
      <trkpt lat="47.22489" lon="6.01859">
        <ele>375.6</ele>
        <time>2021-03-07T10:08:27Z</time>
      </trkpt>
      <trkpt lat="47.22488" lon="6.0186">
        <ele>376</ele>
        <time>2021-03-07T10:08:28Z</time>
      </trkpt>
      <trkpt lat="47.22487" lon="6.01862">
        <ele>376.2</ele>
        <time>2021-03-07T10:08:29Z</time>
      </trkpt>
      <trkpt lat="47.22485" lon="6.01863">
        <ele>376.6</ele>
        <time>2021-03-07T10:08:30Z</time>
      </trkpt>
      <trkpt lat="47.22484" lon="6.01865">
        <ele>376.6</ele>
        <time>2021-03-07T10:08:31Z</time>
      </trkpt>
      <trkpt lat="47.22483" lon="6.01867">
        <ele>376.6</ele>
        <time>2021-03-07T10:08:32Z</time>
      </trkpt>
      <trkpt lat="47.22483" lon="6.01867">
        <ele>376.8</ele>
        <time>2021-03-07T10:08:33Z</time>
      </trkpt>
      <trkpt lat="47.2248" lon="6.0187">
        <ele>376.8</ele>
        <time>2021-03-07T10:08:34Z</time>
      </trkpt>
      <trkpt lat="47.22479" lon="6.01871">
        <ele>377</ele>
        <time>2021-03-07T10:08:35Z</time>
      </trkpt>
      <trkpt lat="47.22478" lon="6.01873">
        <ele>377.2</ele>
        <time>2021-03-07T10:08:36Z</time>
      </trkpt>
      <trkpt lat="47.22477" lon="6.01874">
        <ele>377.4</ele>
        <time>2021-03-07T10:08:37Z</time>
      </trkpt>
      <trkpt lat="47.22475" lon="6.01875">
        <ele>377.4</ele>
        <time>2021-03-07T10:08:38Z</time>
      </trkpt>
      <trkpt lat="47.22474" lon="6.01877">
        <ele>377.6</ele>
        <time>2021-03-07T10:08:39Z</time>
      </trkpt>
      <trkpt lat="47.22473" lon="6.01879">
        <ele>377.6</ele>
        <time>2021-03-07T10:08:40Z</time>
      </trkpt>
      <trkpt lat="47.22472" lon="6.01881">
        <ele>378</ele>
        <time>2021-03-07T10:08:41Z</time>
      </trkpt>
      <trkpt lat="47.22471" lon="6.01882">
        <ele>378</ele>
        <time>2021-03-07T10:08:42Z</time>
      </trkpt>
      <trkpt lat="47.2247" lon="6.01885">
        <ele>378.2</ele>
        <time>2021-03-07T10:08:43Z</time>
      </trkpt>
      <trkpt lat="47.22469" lon="6.01886">
        <ele>378.4</ele>
        <time>2021-03-07T10:08:44Z</time>
      </trkpt>
      <trkpt lat="47.22467" lon="6.01889">
        <ele>378.6</ele>
        <time>2021-03-07T10:08:45Z</time>
      </trkpt>
      <trkpt lat="47.22467" lon="6.01891">
        <ele>378.8</ele>
        <time>2021-03-07T10:08:46Z</time>
      </trkpt>
      <trkpt lat="47.22466" lon="6.01893">
        <ele>378.8</ele>
        <time>2021-03-07T10:08:47Z</time>
      </trkpt>
      <trkpt lat="47.22465" lon="6.01895">
        <ele>379</ele>
        <time>2021-03-07T10:08:48Z</time>
      </trkpt>
      <trkpt lat="47.22465" lon="6.01897">
        <ele>379.2</ele>
        <time>2021-03-07T10:08:49Z</time>
      </trkpt>
      <trkpt lat="47.22464" lon="6.01899">
        <ele>379.4</ele>
        <time>2021-03-07T10:08:50Z</time>
      </trkpt>
      <trkpt lat="47.22464" lon="6.01902">
        <ele>379.4</ele>
        <time>2021-03-07T10:08:51Z</time>
      </trkpt>
      <trkpt lat="47.22463" lon="6.01905">
        <ele>379.6</ele>
        <time>2021-03-07T10:08:52Z</time>
      </trkpt>
      <trkpt lat="47.22463" lon="6.01907">
        <ele>379.8</ele>
        <time>2021-03-07T10:08:53Z</time>
      </trkpt>
      <trkpt lat="47.22463" lon="6.0191">
        <ele>380</ele>
        <time>2021-03-07T10:08:54Z</time>
      </trkpt>
      <trkpt lat="47.22463" lon="6.01912">
        <ele>380</ele>
        <time>2021-03-07T10:08:55Z</time>
      </trkpt>
      <trkpt lat="47.22463" lon="6.01915">
        <ele>380.2</ele>
        <time>2021-03-07T10:08:56Z</time>
      </trkpt>
      <trkpt lat="47.22464" lon="6.01918">
        <ele>380.4</ele>
        <time>2021-03-07T10:08:57Z</time>
      </trkpt>
      <trkpt lat="47.22464" lon="6.0192">
        <ele>380.6</ele>
        <time>2021-03-07T10:08:58Z</time>
      </trkpt>
      <trkpt lat="47.22465" lon="6.01922">
        <ele>380.8</ele>
        <time>2021-03-07T10:08:59Z</time>
      </trkpt>
      <trkpt lat="47.22466" lon="6.01925">
        <ele>380.8</ele>
        <time>2021-03-07T10:09:00Z</time>
      </trkpt>
      <trkpt lat="47.22466" lon="6.01927">
        <ele>381.2</ele>
        <time>2021-03-07T10:09:01Z</time>
      </trkpt>
      <trkpt lat="47.22467" lon="6.01929">
        <ele>381.6</ele>
        <time>2021-03-07T10:09:02Z</time>
      </trkpt>
      <trkpt lat="47.22468" lon="6.01931">
        <ele>382</ele>
        <time>2021-03-07T10:09:03Z</time>
      </trkpt>
      <trkpt lat="47.22469" lon="6.01933">
        <ele>382.2</ele>
        <time>2021-03-07T10:09:04Z</time>
      </trkpt>
      <trkpt lat="47.2247" lon="6.01936">
        <ele>382.4</ele>
        <time>2021-03-07T10:09:05Z</time>
      </trkpt>
      <trkpt lat="47.22471" lon="6.01938">
        <ele>382.4</ele>
        <time>2021-03-07T10:09:06Z</time>
      </trkpt>
      <trkpt lat="47.22471" lon="6.0194">
        <ele>382.6</ele>
        <time>2021-03-07T10:09:07Z</time>
      </trkpt>
      <trkpt lat="47.22472" lon="6.01942">
        <ele>382.6</ele>
        <time>2021-03-07T10:09:08Z</time>
      </trkpt>
      <trkpt lat="47.22473" lon="6.01944">
        <ele>382.8</ele>
        <time>2021-03-07T10:09:09Z</time>
      </trkpt>
      <trkpt lat="47.22474" lon="6.01946">
        <ele>382.8</ele>
        <time>2021-03-07T10:09:10Z</time>
      </trkpt>
      <trkpt lat="47.22475" lon="6.01948">
        <ele>383</ele>
        <time>2021-03-07T10:09:11Z</time>
      </trkpt>
      <trkpt lat="47.22476" lon="6.0195">
        <ele>383.2</ele>
        <time>2021-03-07T10:09:12Z</time>
      </trkpt>
      <trkpt lat="47.22476" lon="6.01952">
        <ele>383.2</ele>
        <time>2021-03-07T10:09:13Z</time>
      </trkpt>
      <trkpt lat="47.22477" lon="6.01954">
        <ele>383.6</ele>
        <time>2021-03-07T10:09:14Z</time>
      </trkpt>
      <trkpt lat="47.22478" lon="6.01956">
        <ele>383.6</ele>
        <time>2021-03-07T10:09:15Z</time>
      </trkpt>
      <trkpt lat="47.22479" lon="6.01958">
        <ele>383.8</ele>
        <time>2021-03-07T10:09:16Z</time>
      </trkpt>
      <trkpt lat="47.2248" lon="6.0196">
        <ele>384.2</ele>
        <time>2021-03-07T10:09:17Z</time>
      </trkpt>
      <trkpt lat="47.22481" lon="6.01962">
        <ele>384.4</ele>
        <time>2021-03-07T10:09:18Z</time>
      </trkpt>
      <trkpt lat="47.22482" lon="6.01964">
        <ele>384.6</ele>
        <time>2021-03-07T10:09:19Z</time>
      </trkpt>
      <trkpt lat="47.22483" lon="6.01966">
        <ele>384.8</ele>
        <time>2021-03-07T10:09:20Z</time>
      </trkpt>
      <trkpt lat="47.22484" lon="6.01968">
        <ele>385</ele>
        <time>2021-03-07T10:09:21Z</time>
      </trkpt>
      <trkpt lat="47.22484" lon="6.0197">
        <ele>385.2</ele>
        <time>2021-03-07T10:09:22Z</time>
      </trkpt>
      <trkpt lat="47.22485" lon="6.01972">
        <ele>385.4</ele>
        <time>2021-03-07T10:09:23Z</time>
      </trkpt>
      <trkpt lat="47.22486" lon="6.01974">
        <ele>385.4</ele>
        <time>2021-03-07T10:09:24Z</time>
      </trkpt>
      <trkpt lat="47.22486" lon="6.01976">
        <ele>385.8</ele>
        <time>2021-03-07T10:09:25Z</time>
      </trkpt>
      <trkpt lat="47.22487" lon="6.01978">
        <ele>385.8</ele>
        <time>2021-03-07T10:09:26Z</time>
      </trkpt>
      <trkpt lat="47.22488" lon="6.0198">
        <ele>386</ele>
        <time>2021-03-07T10:09:27Z</time>
      </trkpt>
      <trkpt lat="47.22489" lon="6.01982">
        <ele>386.2</ele>
        <time>2021-03-07T10:09:28Z</time>
      </trkpt>
      <trkpt lat="47.2249" lon="6.01984">
        <ele>386.4</ele>
        <time>2021-03-07T10:09:29Z</time>
      </trkpt>
      <trkpt lat="47.2249" lon="6.01987">
        <ele>386.6</ele>
        <time>2021-03-07T10:09:30Z</time>
      </trkpt>
      <trkpt lat="47.22491" lon="6.01988">
        <ele>386.6</ele>
        <time>2021-03-07T10:09:31Z</time>
      </trkpt>
      <trkpt lat="47.22492" lon="6.0199">
        <ele>386.6</ele>
        <time>2021-03-07T10:09:32Z</time>
      </trkpt>
      <trkpt lat="47.22493" lon="6.01992">
        <ele>387</ele>
        <time>2021-03-07T10:09:33Z</time>
      </trkpt>
      <trkpt lat="47.22493" lon="6.01994">
        <ele>387</ele>
        <time>2021-03-07T10:09:34Z</time>
      </trkpt>
      <trkpt lat="47.22493" lon="6.01997">
        <ele>387.2</ele>
        <time>2021-03-07T10:09:35Z</time>
      </trkpt>
      <trkpt lat="47.22494" lon="6.01999">
        <ele>387.2</ele>
        <time>2021-03-07T10:09:36Z</time>
      </trkpt>
      <trkpt lat="47.22494" lon="6.02001">
        <ele>387.2</ele>
        <time>2021-03-07T10:09:37Z</time>
      </trkpt>
      <trkpt lat="47.22495" lon="6.02003">
        <ele>387.6</ele>
        <time>2021-03-07T10:09:38Z</time>
      </trkpt>
      <trkpt lat="47.22495" lon="6.02005">
        <ele>387.8</ele>
        <time>2021-03-07T10:09:39Z</time>
      </trkpt>
      <trkpt lat="47.22496" lon="6.02006">
        <ele>388</ele>
        <time>2021-03-07T10:09:40Z</time>
      </trkpt>
      <trkpt lat="47.22496" lon="6.02008">
        <ele>388</ele>
        <time>2021-03-07T10:09:41Z</time>
      </trkpt>
      <trkpt lat="47.22497" lon="6.0201">
        <ele>388.2</ele>
        <time>2021-03-07T10:09:42Z</time>
      </trkpt>
      <trkpt lat="47.22498" lon="6.02011">
        <ele>388.2</ele>
        <time>2021-03-07T10:09:43Z</time>
      </trkpt>
      <trkpt lat="47.22499" lon="6.02012">
        <ele>388.4</ele>
        <time>2021-03-07T10:09:44Z</time>
      </trkpt>
      <trkpt lat="47.225" lon="6.02014">
        <ele>388.4</ele>
        <time>2021-03-07T10:09:45Z</time>
      </trkpt>
      <trkpt lat="47.22501" lon="6.02016">
        <ele>388.4</ele>
        <time>2021-03-07T10:09:46Z</time>
      </trkpt>
      <trkpt lat="47.22501" lon="6.02018">
        <ele>388.4</ele>
        <time>2021-03-07T10:09:47Z</time>
      </trkpt>
      <trkpt lat="47.22502" lon="6.02019">
        <ele>388.6</ele>
        <time>2021-03-07T10:09:48Z</time>
      </trkpt>
      <trkpt lat="47.22502" lon="6.02021">
        <ele>388.8</ele>
        <time>2021-03-07T10:09:49Z</time>
      </trkpt>
      <trkpt lat="47.22502" lon="6.02023">
        <ele>388.8</ele>
        <time>2021-03-07T10:09:50Z</time>
      </trkpt>
      <trkpt lat="47.22503" lon="6.02025">
        <ele>389</ele>
        <time>2021-03-07T10:09:51Z</time>
      </trkpt>
      <trkpt lat="47.22504" lon="6.02027">
        <ele>389</ele>
        <time>2021-03-07T10:09:52Z</time>
      </trkpt>
      <trkpt lat="47.22504" lon="6.02029">
        <ele>389</ele>
        <time>2021-03-07T10:09:53Z</time>
      </trkpt>
      <trkpt lat="47.22505" lon="6.02031">
        <ele>389.2</ele>
        <time>2021-03-07T10:09:54Z</time>
      </trkpt>
      <trkpt lat="47.22506" lon="6.02033">
        <ele>389.4</ele>
        <time>2021-03-07T10:09:55Z</time>
      </trkpt>
      <trkpt lat="47.22506" lon="6.02035">
        <ele>389.4</ele>
        <time>2021-03-07T10:09:56Z</time>
      </trkpt>
      <trkpt lat="47.22506" lon="6.02037">
        <ele>389.6</ele>
        <time>2021-03-07T10:09:57Z</time>
      </trkpt>
      <trkpt lat="47.22507" lon="6.02039">
        <ele>389.6</ele>
        <time>2021-03-07T10:09:58Z</time>
      </trkpt>
      <trkpt lat="47.22507" lon="6.02041">
        <ele>389.8</ele>
        <time>2021-03-07T10:09:59Z</time>
      </trkpt>
      <trkpt lat="47.22508" lon="6.02043">
        <ele>389.8</ele>
        <time>2021-03-07T10:10:00Z</time>
      </trkpt>
      <trkpt lat="47.22508" lon="6.02046">
        <ele>390</ele>
        <time>2021-03-07T10:10:01Z</time>
      </trkpt>
      <trkpt lat="47.22509" lon="6.02048">
        <ele>390.2</ele>
        <time>2021-03-07T10:10:02Z</time>
      </trkpt>
      <trkpt lat="47.2251" lon="6.0205">
        <ele>390.2</ele>
        <time>2021-03-07T10:10:03Z</time>
      </trkpt>
      <trkpt lat="47.2251" lon="6.02052">
        <ele>390.4</ele>
        <time>2021-03-07T10:10:04Z</time>
      </trkpt>
      <trkpt lat="47.22511" lon="6.02054">
        <ele>390.4</ele>
        <time>2021-03-07T10:10:05Z</time>
      </trkpt>
      <trkpt lat="47.22512" lon="6.02056">
        <ele>390.6</ele>
        <time>2021-03-07T10:10:06Z</time>
      </trkpt>
      <trkpt lat="47.22512" lon="6.02059">
        <ele>390.8</ele>
        <time>2021-03-07T10:10:07Z</time>
      </trkpt>
      <trkpt lat="47.22513" lon="6.02061">
        <ele>391.2</ele>
        <time>2021-03-07T10:10:08Z</time>
      </trkpt>
      <trkpt lat="47.22513" lon="6.02063">
        <ele>391.2</ele>
        <time>2021-03-07T10:10:09Z</time>
      </trkpt>
      <trkpt lat="47.22513" lon="6.02066">
        <ele>391.4</ele>
        <time>2021-03-07T10:10:10Z</time>
      </trkpt>
      <trkpt lat="47.22514" lon="6.02068">
        <ele>391.6</ele>
        <time>2021-03-07T10:10:11Z</time>
      </trkpt>
      <trkpt lat="47.22514" lon="6.0207">
        <ele>391.8</ele>
        <time>2021-03-07T10:10:12Z</time>
      </trkpt>
      <trkpt lat="47.22515" lon="6.02073">
        <ele>391.8</ele>
        <time>2021-03-07T10:10:13Z</time>
      </trkpt>
      <trkpt lat="47.22515" lon="6.02075">
        <ele>392.2</ele>
        <time>2021-03-07T10:10:14Z</time>
      </trkpt>
      <trkpt lat="47.22516" lon="6.02078">
        <ele>392.4</ele>
        <time>2021-03-07T10:10:15Z</time>
      </trkpt>
      <trkpt lat="47.22516" lon="6.0208">
        <ele>392.6</ele>
        <time>2021-03-07T10:10:16Z</time>
      </trkpt>
      <trkpt lat="47.22516" lon="6.02083">
        <ele>392.8</ele>
        <time>2021-03-07T10:10:17Z</time>
      </trkpt>
      <trkpt lat="47.22517" lon="6.02085">
        <ele>393</ele>
        <time>2021-03-07T10:10:18Z</time>
      </trkpt>
      <trkpt lat="47.22517" lon="6.02088">
        <ele>393.2</ele>
        <time>2021-03-07T10:10:19Z</time>
      </trkpt>
      <trkpt lat="47.22518" lon="6.0209">
        <ele>393.2</ele>
        <time>2021-03-07T10:10:20Z</time>
      </trkpt>
      <trkpt lat="47.22518" lon="6.02092">
        <ele>393.4</ele>
        <time>2021-03-07T10:10:21Z</time>
      </trkpt>
      <trkpt lat="47.22518" lon="6.02095">
        <ele>393.6</ele>
        <time>2021-03-07T10:10:22Z</time>
      </trkpt>
      <trkpt lat="47.22518" lon="6.02097">
        <ele>393.8</ele>
        <time>2021-03-07T10:10:23Z</time>
      </trkpt>
      <trkpt lat="47.22518" lon="6.021">
        <ele>393.8</ele>
        <time>2021-03-07T10:10:24Z</time>
      </trkpt>
      <trkpt lat="47.22518" lon="6.02102">
        <ele>394</ele>
        <time>2021-03-07T10:10:25Z</time>
      </trkpt>
      <trkpt lat="47.22518" lon="6.02105">
        <ele>394.2</ele>
        <time>2021-03-07T10:10:26Z</time>
      </trkpt>
      <trkpt lat="47.22518" lon="6.02108">
        <ele>394.4</ele>
        <time>2021-03-07T10:10:27Z</time>
      </trkpt>
      <trkpt lat="47.22518" lon="6.02111">
        <ele>394.4</ele>
        <time>2021-03-07T10:10:28Z</time>
      </trkpt>
      <trkpt lat="47.22518" lon="6.02113">
        <ele>394.6</ele>
        <time>2021-03-07T10:10:29Z</time>
      </trkpt>
      <trkpt lat="47.22518" lon="6.02116">
        <ele>394.8</ele>
        <time>2021-03-07T10:10:30Z</time>
      </trkpt>
      <trkpt lat="47.22518" lon="6.02118">
        <ele>394.8</ele>
        <time>2021-03-07T10:10:31Z</time>
      </trkpt>
      <trkpt lat="47.22519" lon="6.02121">
        <ele>395.2</ele>
        <time>2021-03-07T10:10:32Z</time>
      </trkpt>
      <trkpt lat="47.22519" lon="6.02123">
        <ele>395.2</ele>
        <time>2021-03-07T10:10:33Z</time>
      </trkpt>
      <trkpt lat="47.2252" lon="6.02126">
        <ele>395.6</ele>
        <time>2021-03-07T10:10:34Z</time>
      </trkpt>
      <trkpt lat="47.2252" lon="6.02128">
        <ele>395.8</ele>
        <time>2021-03-07T10:10:35Z</time>
      </trkpt>
      <trkpt lat="47.22521" lon="6.02131">
        <ele>396</ele>
        <time>2021-03-07T10:10:36Z</time>
      </trkpt>
      <trkpt lat="47.22521" lon="6.02133">
        <ele>396</ele>
        <time>2021-03-07T10:10:37Z</time>
      </trkpt>
      <trkpt lat="47.22521" lon="6.02136">
        <ele>396.2</ele>
        <time>2021-03-07T10:10:38Z</time>
      </trkpt>
      <trkpt lat="47.22521" lon="6.02138">
        <ele>396.4</ele>
        <time>2021-03-07T10:10:39Z</time>
      </trkpt>
      <trkpt lat="47.22522" lon="6.02141">
        <ele>396.4</ele>
        <time>2021-03-07T10:10:40Z</time>
      </trkpt>
      <trkpt lat="47.22522" lon="6.02144">
        <ele>396.8</ele>
        <time>2021-03-07T10:10:41Z</time>
      </trkpt>
      <trkpt lat="47.22522" lon="6.02146">
        <ele>396.8</ele>
        <time>2021-03-07T10:10:42Z</time>
      </trkpt>
      <trkpt lat="47.22522" lon="6.02149">
        <ele>397.2</ele>
        <time>2021-03-07T10:10:43Z</time>
      </trkpt>
      <trkpt lat="47.22522" lon="6.02151">
        <ele>397.2</ele>
        <time>2021-03-07T10:10:44Z</time>
      </trkpt>
      <trkpt lat="47.22522" lon="6.02154">
        <ele>397.4</ele>
        <time>2021-03-07T10:10:45Z</time>
      </trkpt>
      <trkpt lat="47.22522" lon="6.02157">
        <ele>397.6</ele>
        <time>2021-03-07T10:10:46Z</time>
      </trkpt>
      <trkpt lat="47.22522" lon="6.02159">
        <ele>397.8</ele>
        <time>2021-03-07T10:10:47Z</time>
      </trkpt>
      <trkpt lat="47.22523" lon="6.02161">
        <ele>397.8</ele>
        <time>2021-03-07T10:10:48Z</time>
      </trkpt>
      <trkpt lat="47.22523" lon="6.02163">
        <ele>398</ele>
        <time>2021-03-07T10:10:49Z</time>
      </trkpt>
      <trkpt lat="47.22523" lon="6.02166">
        <ele>398.2</ele>
        <time>2021-03-07T10:10:50Z</time>
      </trkpt>
      <trkpt lat="47.22522" lon="6.02168">
        <ele>398.4</ele>
        <time>2021-03-07T10:10:51Z</time>
      </trkpt>
      <trkpt lat="47.22522" lon="6.02171">
        <ele>398.6</ele>
        <time>2021-03-07T10:10:52Z</time>
      </trkpt>
      <trkpt lat="47.22523" lon="6.02173">
        <ele>398.8</ele>
        <time>2021-03-07T10:10:53Z</time>
      </trkpt>
      <trkpt lat="47.22523" lon="6.02176">
        <ele>399</ele>
        <time>2021-03-07T10:10:54Z</time>
      </trkpt>
      <trkpt lat="47.22523" lon="6.02178">
        <ele>399</ele>
        <time>2021-03-07T10:10:55Z</time>
      </trkpt>
      <trkpt lat="47.22524" lon="6.0218">
        <ele>399.4</ele>
        <time>2021-03-07T10:10:56Z</time>
      </trkpt>
      <trkpt lat="47.22524" lon="6.02183">
        <ele>399.6</ele>
        <time>2021-03-07T10:10:57Z</time>
      </trkpt>
      <trkpt lat="47.22524" lon="6.02185">
        <ele>399.8</ele>
        <time>2021-03-07T10:10:58Z</time>
      </trkpt>
      <trkpt lat="47.22525" lon="6.02188">
        <ele>399.8</ele>
        <time>2021-03-07T10:10:59Z</time>
      </trkpt>
      <trkpt lat="47.22525" lon="6.0219">
        <ele>400.2</ele>
        <time>2021-03-07T10:11:00Z</time>
      </trkpt>
      <trkpt lat="47.22526" lon="6.02193">
        <ele>400.2</ele>
        <time>2021-03-07T10:11:01Z</time>
      </trkpt>
      <trkpt lat="47.22526" lon="6.02195">
        <ele>400.4</ele>
        <time>2021-03-07T10:11:02Z</time>
      </trkpt>
      <trkpt lat="47.22526" lon="6.02197">
        <ele>400.4</ele>
        <time>2021-03-07T10:11:03Z</time>
      </trkpt>
      <trkpt lat="47.22526" lon="6.02199">
        <ele>400.6</ele>
        <time>2021-03-07T10:11:04Z</time>
      </trkpt>
      <trkpt lat="47.22526" lon="6.02201">
        <ele>400.8</ele>
        <time>2021-03-07T10:11:05Z</time>
      </trkpt>
      <trkpt lat="47.22526" lon="6.02204">
        <ele>400.8</ele>
        <time>2021-03-07T10:11:06Z</time>
      </trkpt>
      <trkpt lat="47.22526" lon="6.02206">
        <ele>401</ele>
        <time>2021-03-07T10:11:07Z</time>
      </trkpt>
      <trkpt lat="47.22527" lon="6.02209">
        <ele>401</ele>
        <time>2021-03-07T10:11:08Z</time>
      </trkpt>
      <trkpt lat="47.22527" lon="6.02212">
        <ele>401.2</ele>
        <time>2021-03-07T10:11:09Z</time>
      </trkpt>
      <trkpt lat="47.22527" lon="6.02214">
        <ele>401.4</ele>
        <time>2021-03-07T10:11:10Z</time>
      </trkpt>
      <trkpt lat="47.22527" lon="6.02217">
        <ele>401.6</ele>
        <time>2021-03-07T10:11:11Z</time>
      </trkpt>
      <trkpt lat="47.22527" lon="6.02219">
        <ele>401.6</ele>
        <time>2021-03-07T10:11:12Z</time>
      </trkpt>
      <trkpt lat="47.22528" lon="6.02221">
        <ele>401.8</ele>
        <time>2021-03-07T10:11:13Z</time>
      </trkpt>
      <trkpt lat="47.22528" lon="6.02224">
        <ele>402</ele>
        <time>2021-03-07T10:11:14Z</time>
      </trkpt>
      <trkpt lat="47.22528" lon="6.02226">
        <ele>402.2</ele>
        <time>2021-03-07T10:11:15Z</time>
      </trkpt>
      <trkpt lat="47.22528" lon="6.02228">
        <ele>402.4</ele>
        <time>2021-03-07T10:11:16Z</time>
      </trkpt>
      <trkpt lat="47.22528" lon="6.02231">
        <ele>402.8</ele>
        <time>2021-03-07T10:11:17Z</time>
      </trkpt>
      <trkpt lat="47.22528" lon="6.02233">
        <ele>403</ele>
        <time>2021-03-07T10:11:18Z</time>
      </trkpt>
      <trkpt lat="47.22528" lon="6.02236">
        <ele>403.2</ele>
        <time>2021-03-07T10:11:19Z</time>
      </trkpt>
      <trkpt lat="47.22529" lon="6.02238">
        <ele>403.2</ele>
        <time>2021-03-07T10:11:20Z</time>
      </trkpt>
      <trkpt lat="47.22529" lon="6.02241">
        <ele>403.4</ele>
        <time>2021-03-07T10:11:21Z</time>
      </trkpt>
      <trkpt lat="47.22529" lon="6.02243">
        <ele>403.6</ele>
        <time>2021-03-07T10:11:22Z</time>
      </trkpt>
      <trkpt lat="47.2253" lon="6.02245">
        <ele>403.6</ele>
        <time>2021-03-07T10:11:23Z</time>
      </trkpt>
      <trkpt lat="47.2253" lon="6.02248">
        <ele>403.8</ele>
        <time>2021-03-07T10:11:24Z</time>
      </trkpt>
      <trkpt lat="47.22531" lon="6.0225">
        <ele>404</ele>
        <time>2021-03-07T10:11:25Z</time>
      </trkpt>
      <trkpt lat="47.22531" lon="6.02252">
        <ele>404.4</ele>
        <time>2021-03-07T10:11:26Z</time>
      </trkpt>
      <trkpt lat="47.22532" lon="6.02255">
        <ele>404.6</ele>
        <time>2021-03-07T10:11:27Z</time>
      </trkpt>
      <trkpt lat="47.22532" lon="6.02257">
        <ele>404.6</ele>
        <time>2021-03-07T10:11:28Z</time>
      </trkpt>
      <trkpt lat="47.22533" lon="6.02259">
        <ele>404.8</ele>
        <time>2021-03-07T10:11:29Z</time>
      </trkpt>
      <trkpt lat="47.22533" lon="6.02262">
        <ele>404.8</ele>
        <time>2021-03-07T10:11:30Z</time>
      </trkpt>
      <trkpt lat="47.22533" lon="6.02264">
        <ele>405</ele>
        <time>2021-03-07T10:11:31Z</time>
      </trkpt>
      <trkpt lat="47.22534" lon="6.02266">
        <ele>405</ele>
        <time>2021-03-07T10:11:32Z</time>
      </trkpt>
      <trkpt lat="47.22534" lon="6.02269">
        <ele>405.4</ele>
        <time>2021-03-07T10:11:33Z</time>
      </trkpt>
      <trkpt lat="47.22535" lon="6.02271">
        <ele>405.4</ele>
        <time>2021-03-07T10:11:34Z</time>
      </trkpt>
      <trkpt lat="47.22535" lon="6.02274">
        <ele>405.6</ele>
        <time>2021-03-07T10:11:35Z</time>
      </trkpt>
      <trkpt lat="47.22536" lon="6.02276">
        <ele>405.6</ele>
        <time>2021-03-07T10:11:36Z</time>
      </trkpt>
      <trkpt lat="47.22537" lon="6.02278">
        <ele>405.8</ele>
        <time>2021-03-07T10:11:37Z</time>
      </trkpt>
      <trkpt lat="47.22537" lon="6.0228">
        <ele>405.8</ele>
        <time>2021-03-07T10:11:38Z</time>
      </trkpt>
      <trkpt lat="47.22538" lon="6.02283">
        <ele>406</ele>
        <time>2021-03-07T10:11:39Z</time>
      </trkpt>
      <trkpt lat="47.22539" lon="6.02285">
        <ele>406.2</ele>
        <time>2021-03-07T10:11:40Z</time>
      </trkpt>
      <trkpt lat="47.22539" lon="6.02287">
        <ele>406.4</ele>
        <time>2021-03-07T10:11:41Z</time>
      </trkpt>
      <trkpt lat="47.22539" lon="6.0229">
        <ele>406.6</ele>
        <time>2021-03-07T10:11:42Z</time>
      </trkpt>
      <trkpt lat="47.2254" lon="6.02292">
        <ele>406.6</ele>
        <time>2021-03-07T10:11:43Z</time>
      </trkpt>
      <trkpt lat="47.2254" lon="6.02294">
        <ele>406.8</ele>
        <time>2021-03-07T10:11:44Z</time>
      </trkpt>
      <trkpt lat="47.22541" lon="6.02297">
        <ele>406.8</ele>
        <time>2021-03-07T10:11:45Z</time>
      </trkpt>
      <trkpt lat="47.22541" lon="6.02299">
        <ele>407</ele>
        <time>2021-03-07T10:11:46Z</time>
      </trkpt>
      <trkpt lat="47.22542" lon="6.02301">
        <ele>407.2</ele>
        <time>2021-03-07T10:11:47Z</time>
      </trkpt>
      <trkpt lat="47.22542" lon="6.02304">
        <ele>407.4</ele>
        <time>2021-03-07T10:11:48Z</time>
      </trkpt>
      <trkpt lat="47.22542" lon="6.02306">
        <ele>407.6</ele>
        <time>2021-03-07T10:11:49Z</time>
      </trkpt>
      <trkpt lat="47.22543" lon="6.02308">
        <ele>407.6</ele>
        <time>2021-03-07T10:11:50Z</time>
      </trkpt>
      <trkpt lat="47.22543" lon="6.02311">
        <ele>407.8</ele>
        <time>2021-03-07T10:11:51Z</time>
      </trkpt>
      <trkpt lat="47.22544" lon="6.02313">
        <ele>407.8</ele>
        <time>2021-03-07T10:11:52Z</time>
      </trkpt>
      <trkpt lat="47.22545" lon="6.02315">
        <ele>408.2</ele>
        <time>2021-03-07T10:11:53Z</time>
      </trkpt>
      <trkpt lat="47.22546" lon="6.02317">
        <ele>408.4</ele>
        <time>2021-03-07T10:11:54Z</time>
      </trkpt>
      <trkpt lat="47.22546" lon="6.0232">
        <ele>408.6</ele>
        <time>2021-03-07T10:11:55Z</time>
      </trkpt>
      <trkpt lat="47.22546" lon="6.02322">
        <ele>408.8</ele>
        <time>2021-03-07T10:11:56Z</time>
      </trkpt>
      <trkpt lat="47.22547" lon="6.02324">
        <ele>409</ele>
        <time>2021-03-07T10:11:57Z</time>
      </trkpt>
      <trkpt lat="47.22547" lon="6.02326">
        <ele>409</ele>
        <time>2021-03-07T10:11:58Z</time>
      </trkpt>
      <trkpt lat="47.22547" lon="6.02329">
        <ele>409.2</ele>
        <time>2021-03-07T10:11:59Z</time>
      </trkpt>
      <trkpt lat="47.22548" lon="6.02331">
        <ele>409.4</ele>
        <time>2021-03-07T10:12:00Z</time>
      </trkpt>
      <trkpt lat="47.22548" lon="6.02334">
        <ele>409.6</ele>
        <time>2021-03-07T10:12:01Z</time>
      </trkpt>
      <trkpt lat="47.22549" lon="6.02336">
        <ele>409.6</ele>
        <time>2021-03-07T10:12:02Z</time>
      </trkpt>
      <trkpt lat="47.22549" lon="6.02338">
        <ele>409.8</ele>
        <time>2021-03-07T10:12:03Z</time>
      </trkpt>
      <trkpt lat="47.2255" lon="6.0234">
        <ele>410</ele>
        <time>2021-03-07T10:12:04Z</time>
      </trkpt>
      <trkpt lat="47.2255" lon="6.02342">
        <ele>410</ele>
        <time>2021-03-07T10:12:05Z</time>
      </trkpt>
      <trkpt lat="47.22551" lon="6.02344">
        <ele>410.2</ele>
        <time>2021-03-07T10:12:06Z</time>
      </trkpt>
      <trkpt lat="47.22551" lon="6.02346">
        <ele>410.6</ele>
        <time>2021-03-07T10:12:07Z</time>
      </trkpt>
      <trkpt lat="47.22552" lon="6.02348">
        <ele>410.8</ele>
        <time>2021-03-07T10:12:08Z</time>
      </trkpt>
      <trkpt lat="47.22553" lon="6.0235">
        <ele>411</ele>
        <time>2021-03-07T10:12:09Z</time>
      </trkpt>
      <trkpt lat="47.22554" lon="6.02352">
        <ele>411.2</ele>
        <time>2021-03-07T10:12:10Z</time>
      </trkpt>
      <trkpt lat="47.22554" lon="6.02354">
        <ele>411.4</ele>
        <time>2021-03-07T10:12:11Z</time>
      </trkpt>
      <trkpt lat="47.22555" lon="6.02357">
        <ele>411.4</ele>
        <time>2021-03-07T10:12:12Z</time>
      </trkpt>
      <trkpt lat="47.22556" lon="6.02359">
        <ele>411.6</ele>
        <time>2021-03-07T10:12:13Z</time>
      </trkpt>
      <trkpt lat="47.22556" lon="6.02361">
        <ele>411.8</ele>
        <time>2021-03-07T10:12:14Z</time>
      </trkpt>
      <trkpt lat="47.22557" lon="6.02364">
        <ele>411.8</ele>
        <time>2021-03-07T10:12:15Z</time>
      </trkpt>
      <trkpt lat="47.22558" lon="6.02366">
        <ele>412</ele>
        <time>2021-03-07T10:12:16Z</time>
      </trkpt>
      <trkpt lat="47.22559" lon="6.02368">
        <ele>412</ele>
        <time>2021-03-07T10:12:17Z</time>
      </trkpt>
      <trkpt lat="47.2256" lon="6.0237">
        <ele>412.2</ele>
        <time>2021-03-07T10:12:18Z</time>
      </trkpt>
      <trkpt lat="47.2256" lon="6.02372">
        <ele>412.4</ele>
        <time>2021-03-07T10:12:19Z</time>
      </trkpt>
      <trkpt lat="47.22561" lon="6.02374">
        <ele>412.6</ele>
        <time>2021-03-07T10:12:20Z</time>
      </trkpt>
      <trkpt lat="47.22562" lon="6.02376">
        <ele>412.8</ele>
        <time>2021-03-07T10:12:21Z</time>
      </trkpt>
      <trkpt lat="47.22563" lon="6.02377">
        <ele>413</ele>
        <time>2021-03-07T10:12:22Z</time>
      </trkpt>
      <trkpt lat="47.22564" lon="6.02379">
        <ele>413</ele>
        <time>2021-03-07T10:12:23Z</time>
      </trkpt>
      <trkpt lat="47.22565" lon="6.02382">
        <ele>413.2</ele>
        <time>2021-03-07T10:12:24Z</time>
      </trkpt>
      <trkpt lat="47.22566" lon="6.02384">
        <ele>413.4</ele>
        <time>2021-03-07T10:12:25Z</time>
      </trkpt>
      <trkpt lat="47.22567" lon="6.02386">
        <ele>413.4</ele>
        <time>2021-03-07T10:12:26Z</time>
      </trkpt>
      <trkpt lat="47.22568" lon="6.02388">
        <ele>413.6</ele>
        <time>2021-03-07T10:12:27Z</time>
      </trkpt>
      <trkpt lat="47.22569" lon="6.0239">
        <ele>413.6</ele>
        <time>2021-03-07T10:12:28Z</time>
      </trkpt>
      <trkpt lat="47.22569" lon="6.02393">
        <ele>414.2</ele>
        <time>2021-03-07T10:12:29Z</time>
      </trkpt>
      <trkpt lat="47.2257" lon="6.02395">
        <ele>414.2</ele>
        <time>2021-03-07T10:12:30Z</time>
      </trkpt>
      <trkpt lat="47.22571" lon="6.02397">
        <ele>414.4</ele>
        <time>2021-03-07T10:12:31Z</time>
      </trkpt>
      <trkpt lat="47.22572" lon="6.02399">
        <ele>414.6</ele>
        <time>2021-03-07T10:12:32Z</time>
      </trkpt>
      <trkpt lat="47.22573" lon="6.02401">
        <ele>414.8</ele>
        <time>2021-03-07T10:12:33Z</time>
      </trkpt>
      <trkpt lat="47.22574" lon="6.02403">
        <ele>414.8</ele>
        <time>2021-03-07T10:12:34Z</time>
      </trkpt>
      <trkpt lat="47.22575" lon="6.02405">
        <ele>415</ele>
        <time>2021-03-07T10:12:35Z</time>
      </trkpt>
      <trkpt lat="47.22577" lon="6.02407">
        <ele>415.2</ele>
        <time>2021-03-07T10:12:36Z</time>
      </trkpt>
      <trkpt lat="47.22577" lon="6.02409">
        <ele>415.4</ele>
        <time>2021-03-07T10:12:37Z</time>
      </trkpt>
      <trkpt lat="47.22578" lon="6.02411">
        <ele>415.6</ele>
        <time>2021-03-07T10:12:38Z</time>
      </trkpt>
      <trkpt lat="47.22579" lon="6.02413">
        <ele>415.6</ele>
        <time>2021-03-07T10:12:39Z</time>
      </trkpt>
      <trkpt lat="47.22579" lon="6.02415">
        <ele>415.8</ele>
        <time>2021-03-07T10:12:40Z</time>
      </trkpt>
      <trkpt lat="47.2258" lon="6.02417">
        <ele>416</ele>
        <time>2021-03-07T10:12:41Z</time>
      </trkpt>
      <trkpt lat="47.22581" lon="6.02419">
        <ele>416</ele>
        <time>2021-03-07T10:12:42Z</time>
      </trkpt>
      <trkpt lat="47.22582" lon="6.02421">
        <ele>416.4</ele>
        <time>2021-03-07T10:12:43Z</time>
      </trkpt>
      <trkpt lat="47.22583" lon="6.02423">
        <ele>416.4</ele>
        <time>2021-03-07T10:12:44Z</time>
      </trkpt>
      <trkpt lat="47.22584" lon="6.02425">
        <ele>416.6</ele>
        <time>2021-03-07T10:12:45Z</time>
      </trkpt>
      <trkpt lat="47.22585" lon="6.02427">
        <ele>416.8</ele>
        <time>2021-03-07T10:12:46Z</time>
      </trkpt>
      <trkpt lat="47.22586" lon="6.02429">
        <ele>417</ele>
        <time>2021-03-07T10:12:47Z</time>
      </trkpt>
      <trkpt lat="47.22587" lon="6.02431">
        <ele>417</ele>
        <time>2021-03-07T10:12:48Z</time>
      </trkpt>
      <trkpt lat="47.22588" lon="6.02432">
        <ele>417.2</ele>
        <time>2021-03-07T10:12:49Z</time>
      </trkpt>
      <trkpt lat="47.22589" lon="6.02434">
        <ele>417.2</ele>
        <time>2021-03-07T10:12:50Z</time>
      </trkpt>
      <trkpt lat="47.2259" lon="6.02436">
        <ele>417.4</ele>
        <time>2021-03-07T10:12:51Z</time>
      </trkpt>
      <trkpt lat="47.22591" lon="6.02437">
        <ele>417.6</ele>
        <time>2021-03-07T10:12:52Z</time>
      </trkpt>
      <trkpt lat="47.22593" lon="6.02439">
        <ele>417.8</ele>
        <time>2021-03-07T10:12:53Z</time>
      </trkpt>
      <trkpt lat="47.22594" lon="6.02441">
        <ele>418.2</ele>
        <time>2021-03-07T10:12:54Z</time>
      </trkpt>
      <trkpt lat="47.22595" lon="6.02443">
        <ele>418.2</ele>
        <time>2021-03-07T10:12:55Z</time>
      </trkpt>
      <trkpt lat="47.22596" lon="6.02444">
        <ele>418.4</ele>
        <time>2021-03-07T10:12:56Z</time>
      </trkpt>
      <trkpt lat="47.22597" lon="6.02446">
        <ele>418.4</ele>
        <time>2021-03-07T10:12:57Z</time>
      </trkpt>
      <trkpt lat="47.22598" lon="6.02447">
        <ele>418.6</ele>
        <time>2021-03-07T10:12:58Z</time>
      </trkpt>
      <trkpt lat="47.22599" lon="6.02449">
        <ele>418.8</ele>
        <time>2021-03-07T10:12:59Z</time>
      </trkpt>
      <trkpt lat="47.22601" lon="6.02451">
        <ele>419</ele>
        <time>2021-03-07T10:13:00Z</time>
      </trkpt>
      <trkpt lat="47.22602" lon="6.02453">
        <ele>419</ele>
        <time>2021-03-07T10:13:01Z</time>
      </trkpt>
      <trkpt lat="47.22603" lon="6.02454">
        <ele>419.2</ele>
        <time>2021-03-07T10:13:02Z</time>
      </trkpt>
      <trkpt lat="47.22604" lon="6.02456">
        <ele>419.4</ele>
        <time>2021-03-07T10:13:03Z</time>
      </trkpt>
      <trkpt lat="47.22605" lon="6.02458">
        <ele>419.6</ele>
        <time>2021-03-07T10:13:04Z</time>
      </trkpt>
      <trkpt lat="47.22606" lon="6.0246">
        <ele>419.8</ele>
        <time>2021-03-07T10:13:05Z</time>
      </trkpt>
      <trkpt lat="47.22607" lon="6.02461">
        <ele>419.8</ele>
        <time>2021-03-07T10:13:06Z</time>
      </trkpt>
      <trkpt lat="47.22609" lon="6.02463">
        <ele>420</ele>
        <time>2021-03-07T10:13:07Z</time>
      </trkpt>
      <trkpt lat="47.2261" lon="6.02464">
        <ele>420.2</ele>
        <time>2021-03-07T10:13:08Z</time>
      </trkpt>
      <trkpt lat="47.22612" lon="6.02466">
        <ele>420.2</ele>
        <time>2021-03-07T10:13:09Z</time>
      </trkpt>
      <trkpt lat="47.22613" lon="6.02467">
        <ele>420.4</ele>
        <time>2021-03-07T10:13:10Z</time>
      </trkpt>
      <trkpt lat="47.22615" lon="6.02469">
        <ele>420.4</ele>
        <time>2021-03-07T10:13:11Z</time>
      </trkpt>
      <trkpt lat="47.22616" lon="6.0247">
        <ele>420.6</ele>
        <time>2021-03-07T10:13:12Z</time>
      </trkpt>
      <trkpt lat="47.22618" lon="6.02471">
        <ele>420.8</ele>
        <time>2021-03-07T10:13:13Z</time>
      </trkpt>
      <trkpt lat="47.2262" lon="6.02473">
        <ele>420.8</ele>
        <time>2021-03-07T10:13:14Z</time>
      </trkpt>
      <trkpt lat="47.22621" lon="6.02474">
        <ele>421.2</ele>
        <time>2021-03-07T10:13:15Z</time>
      </trkpt>
      <trkpt lat="47.22623" lon="6.02475">
        <ele>421.2</ele>
        <time>2021-03-07T10:13:16Z</time>
      </trkpt>
      <trkpt lat="47.22625" lon="6.02476">
        <ele>421.6</ele>
        <time>2021-03-07T10:13:17Z</time>
      </trkpt>
      <trkpt lat="47.22627" lon="6.02477">
        <ele>421.6</ele>
        <time>2021-03-07T10:13:18Z</time>
      </trkpt>
      <trkpt lat="47.22628" lon="6.02478">
        <ele>421.8</ele>
        <time>2021-03-07T10:13:19Z</time>
      </trkpt>
      <trkpt lat="47.2263" lon="6.02478">
        <ele>422</ele>
        <time>2021-03-07T10:13:20Z</time>
      </trkpt>
      <trkpt lat="47.22632" lon="6.02478">
        <ele>422</ele>
        <time>2021-03-07T10:13:21Z</time>
      </trkpt>
      <trkpt lat="47.22634" lon="6.02478">
        <ele>422.2</ele>
        <time>2021-03-07T10:13:22Z</time>
      </trkpt>
      <trkpt lat="47.22635" lon="6.02479">
        <ele>422.2</ele>
        <time>2021-03-07T10:13:23Z</time>
      </trkpt>
      <trkpt lat="47.22637" lon="6.02479">
        <ele>422.4</ele>
        <time>2021-03-07T10:13:24Z</time>
      </trkpt>
      <trkpt lat="47.22639" lon="6.02479">
        <ele>422.4</ele>
        <time>2021-03-07T10:13:25Z</time>
      </trkpt>
      <trkpt lat="47.2264" lon="6.02479">
        <ele>422.6</ele>
        <time>2021-03-07T10:13:26Z</time>
      </trkpt>
      <trkpt lat="47.22642" lon="6.02479">
        <ele>422.6</ele>
        <time>2021-03-07T10:13:27Z</time>
      </trkpt>
      <trkpt lat="47.22644" lon="6.02479">
        <ele>422.8</ele>
        <time>2021-03-07T10:13:28Z</time>
      </trkpt>
      <trkpt lat="47.22646" lon="6.02479">
        <ele>422.8</ele>
        <time>2021-03-07T10:13:29Z</time>
      </trkpt>
      <trkpt lat="47.22647" lon="6.02479">
        <ele>423</ele>
        <time>2021-03-07T10:13:30Z</time>
      </trkpt>
      <trkpt lat="47.22649" lon="6.02478">
        <ele>423</ele>
        <time>2021-03-07T10:13:31Z</time>
      </trkpt>
      <trkpt lat="47.22651" lon="6.02478">
        <ele>423.2</ele>
        <time>2021-03-07T10:13:32Z</time>
      </trkpt>
      <trkpt lat="47.22653" lon="6.02478">
        <ele>423.6</ele>
        <time>2021-03-07T10:13:33Z</time>
      </trkpt>
      <trkpt lat="47.22654" lon="6.02478">
        <ele>423.8</ele>
        <time>2021-03-07T10:13:34Z</time>
      </trkpt>
      <trkpt lat="47.22656" lon="6.02477">
        <ele>424</ele>
        <time>2021-03-07T10:13:35Z</time>
      </trkpt>
      <trkpt lat="47.22658" lon="6.02476">
        <ele>424</ele>
        <time>2021-03-07T10:13:36Z</time>
      </trkpt>
      <trkpt lat="47.2266" lon="6.02476">
        <ele>424.2</ele>
        <time>2021-03-07T10:13:37Z</time>
      </trkpt>
      <trkpt lat="47.22662" lon="6.02475">
        <ele>424.4</ele>
        <time>2021-03-07T10:13:38Z</time>
      </trkpt>
      <trkpt lat="47.22663" lon="6.02474">
        <ele>424.6</ele>
        <time>2021-03-07T10:13:39Z</time>
      </trkpt>
      <trkpt lat="47.22665" lon="6.02473">
        <ele>424.8</ele>
        <time>2021-03-07T10:13:40Z</time>
      </trkpt>
      <trkpt lat="47.22667" lon="6.02472">
        <ele>425</ele>
        <time>2021-03-07T10:13:41Z</time>
      </trkpt>
      <trkpt lat="47.22669" lon="6.02472">
        <ele>425</ele>
        <time>2021-03-07T10:13:42Z</time>
      </trkpt>
      <trkpt lat="47.2267" lon="6.02471">
        <ele>425.2</ele>
        <time>2021-03-07T10:13:43Z</time>
      </trkpt>
      <trkpt lat="47.22672" lon="6.02469">
        <ele>425.2</ele>
        <time>2021-03-07T10:13:44Z</time>
      </trkpt>
      <trkpt lat="47.22673" lon="6.02468">
        <ele>425.4</ele>
        <time>2021-03-07T10:13:45Z</time>
      </trkpt>
      <trkpt lat="47.22675" lon="6.02467">
        <ele>425.6</ele>
        <time>2021-03-07T10:13:46Z</time>
      </trkpt>
      <trkpt lat="47.22676" lon="6.02466">
        <ele>425.6</ele>
        <time>2021-03-07T10:13:47Z</time>
      </trkpt>
      <trkpt lat="47.22677" lon="6.02465">
        <ele>425.8</ele>
        <time>2021-03-07T10:13:48Z</time>
      </trkpt>
      <trkpt lat="47.22678" lon="6.02464">
        <ele>426</ele>
        <time>2021-03-07T10:13:49Z</time>
      </trkpt>
      <trkpt lat="47.2268" lon="6.02463">
        <ele>426</ele>
        <time>2021-03-07T10:13:50Z</time>
      </trkpt>
      <trkpt lat="47.22682" lon="6.02462">
        <ele>426.2</ele>
        <time>2021-03-07T10:13:51Z</time>
      </trkpt>
      <trkpt lat="47.22684" lon="6.02462">
        <ele>426.6</ele>
        <time>2021-03-07T10:13:52Z</time>
      </trkpt>
      <trkpt lat="47.22685" lon="6.02462">
        <ele>426.8</ele>
        <time>2021-03-07T10:13:53Z</time>
      </trkpt>
      <trkpt lat="47.22687" lon="6.02463">
        <ele>427</ele>
        <time>2021-03-07T10:13:54Z</time>
      </trkpt>
      <trkpt lat="47.22689" lon="6.02463">
        <ele>427</ele>
        <time>2021-03-07T10:13:55Z</time>
      </trkpt>
      <trkpt lat="47.2269" lon="6.02464">
        <ele>427.2</ele>
        <time>2021-03-07T10:13:56Z</time>
      </trkpt>
      <trkpt lat="47.22692" lon="6.02465">
        <ele>427.2</ele>
        <time>2021-03-07T10:13:57Z</time>
      </trkpt>
      <trkpt lat="47.22693" lon="6.02465">
        <ele>427.2</ele>
        <time>2021-03-07T10:13:58Z</time>
      </trkpt>
      <trkpt lat="47.22694" lon="6.02466">
        <ele>427.4</ele>
        <time>2021-03-07T10:13:59Z</time>
      </trkpt>
      <trkpt lat="47.22695" lon="6.02467">
        <ele>427.4</ele>
        <time>2021-03-07T10:14:00Z</time>
      </trkpt>
      <trkpt lat="47.22695" lon="6.02467">
        <ele>427.4</ele>
        <time>2021-03-07T10:14:02Z</time>
      </trkpt>
      <trkpt lat="47.22695" lon="6.02467">
        <ele>427.4</ele>
        <time>2021-03-07T10:14:03Z</time>
      </trkpt>
      <trkpt lat="47.22694" lon="6.02467">
        <ele>427.4</ele>
        <time>2021-03-07T10:14:06Z</time>
      </trkpt>
      <trkpt lat="47.22695" lon="6.02467">
        <ele>427.4</ele>
        <time>2021-03-07T10:14:08Z</time>
      </trkpt>
      <trkpt lat="47.22695" lon="6.02467">
        <ele>427.2</ele>
        <time>2021-03-07T10:14:20Z</time>
      </trkpt>
      <trkpt lat="47.22695" lon="6.02467">
        <ele>427.2</ele>
        <time>2021-03-07T10:15:00Z</time>
      </trkpt>
      <trkpt lat="47.22695" lon="6.02467">
        <ele>427.4</ele>
        <time>2021-03-07T10:15:32Z</time>
      </trkpt>
      <trkpt lat="47.22695" lon="6.02467">
        <ele>427</ele>
        <time>2021-03-07T10:16:00Z</time>
      </trkpt>
      <trkpt lat="47.22696" lon="6.02465">
        <ele>427.4</ele>
        <time>2021-03-07T10:16:21Z</time>
      </trkpt>
      <trkpt lat="47.22702" lon="6.02462">
        <ele>427.6</ele>
        <time>2021-03-07T10:16:23Z</time>
      </trkpt>
      <trkpt lat="47.22705" lon="6.0246">
        <ele>427.6</ele>
        <time>2021-03-07T10:16:24Z</time>
      </trkpt>
      <trkpt lat="47.22708" lon="6.02459">
        <ele>427.6</ele>
        <time>2021-03-07T10:16:25Z</time>
      </trkpt>
      <trkpt lat="47.22714" lon="6.02458">
        <ele>427.6</ele>
        <time>2021-03-07T10:16:27Z</time>
      </trkpt>
      <trkpt lat="47.22716" lon="6.02457">
        <ele>427.6</ele>
        <time>2021-03-07T10:16:28Z</time>
      </trkpt>
      <trkpt lat="47.22719" lon="6.02457">
        <ele>427.6</ele>
        <time>2021-03-07T10:16:29Z</time>
      </trkpt>
      <trkpt lat="47.22722" lon="6.02458">
        <ele>427.6</ele>
        <time>2021-03-07T10:16:30Z</time>
      </trkpt>
      <trkpt lat="47.22731" lon="6.02456">
        <ele>427.6</ele>
        <time>2021-03-07T10:16:33Z</time>
      </trkpt>
      <trkpt lat="47.22733" lon="6.02453">
        <ele>427.4</ele>
        <time>2021-03-07T10:16:34Z</time>
      </trkpt>
      <trkpt lat="47.22735" lon="6.0245">
        <ele>427.4</ele>
        <time>2021-03-07T10:16:35Z</time>
      </trkpt>
      <trkpt lat="47.22736" lon="6.02448">
        <ele>427.2</ele>
        <time>2021-03-07T10:16:36Z</time>
      </trkpt>
      <trkpt lat="47.22736" lon="6.02445">
        <ele>427.2</ele>
        <time>2021-03-07T10:16:37Z</time>
      </trkpt>
      <trkpt lat="47.22737" lon="6.02443">
        <ele>427</ele>
        <time>2021-03-07T10:16:38Z</time>
      </trkpt>
      <trkpt lat="47.22738" lon="6.02443">
        <ele>426.6</ele>
        <time>2021-03-07T10:16:39Z</time>
      </trkpt>
      <trkpt lat="47.22739" lon="6.02444">
        <ele>426.2</ele>
        <time>2021-03-07T10:16:40Z</time>
      </trkpt>
      <trkpt lat="47.22741" lon="6.02449">
        <ele>425.6</ele>
        <time>2021-03-07T10:16:42Z</time>
      </trkpt>
      <trkpt lat="47.22742" lon="6.02451">
        <ele>425</ele>
        <time>2021-03-07T10:16:43Z</time>
      </trkpt>
      <trkpt lat="47.22743" lon="6.02453">
        <ele>425</ele>
        <time>2021-03-07T10:16:44Z</time>
      </trkpt>
      <trkpt lat="47.22745" lon="6.02454">
        <ele>424.8</ele>
        <time>2021-03-07T10:16:45Z</time>
      </trkpt>
      <trkpt lat="47.22748" lon="6.02456">
        <ele>424.6</ele>
        <time>2021-03-07T10:16:46Z</time>
      </trkpt>
      <trkpt lat="47.22751" lon="6.02456">
        <ele>424.4</ele>
        <time>2021-03-07T10:16:47Z</time>
      </trkpt>
      <trkpt lat="47.22755" lon="6.02457">
        <ele>424.2</ele>
        <time>2021-03-07T10:16:48Z</time>
      </trkpt>
      <trkpt lat="47.22764" lon="6.02458">
        <ele>423.6</ele>
        <time>2021-03-07T10:16:50Z</time>
      </trkpt>
      <trkpt lat="47.22771" lon="6.02459">
        <ele>422.8</ele>
        <time>2021-03-07T10:16:52Z</time>
      </trkpt>
      <trkpt lat="47.22773" lon="6.02459">
        <ele>421.8</ele>
        <time>2021-03-07T10:16:53Z</time>
      </trkpt>
      <trkpt lat="47.22775" lon="6.02459">
        <ele>421</ele>
        <time>2021-03-07T10:16:54Z</time>
      </trkpt>
      <trkpt lat="47.22776" lon="6.02459">
        <ele>420.6</ele>
        <time>2021-03-07T10:16:55Z</time>
      </trkpt>
      <trkpt lat="47.22776" lon="6.02459">
        <ele>420</ele>
        <time>2021-03-07T10:16:56Z</time>
      </trkpt>
      <trkpt lat="47.22776" lon="6.02459">
        <ele>419.8</ele>
        <time>2021-03-07T10:16:57Z</time>
      </trkpt>
      <trkpt lat="47.22777" lon="6.02458">
        <ele>419.4</ele>
        <time>2021-03-07T10:16:58Z</time>
      </trkpt>
      <trkpt lat="47.22777" lon="6.02457">
        <ele>418.6</ele>
        <time>2021-03-07T10:17:04Z</time>
      </trkpt>
      <trkpt lat="47.22777" lon="6.02457">
        <ele>418.4</ele>
        <time>2021-03-07T10:17:07Z</time>
      </trkpt>
      <trkpt lat="47.22777" lon="6.02457">
        <ele>417.6</ele>
        <time>2021-03-07T10:18:10Z</time>
      </trkpt>
      <trkpt lat="47.22777" lon="6.02457">
        <ele>417.4</ele>
        <time>2021-03-07T10:20:07Z</time>
      </trkpt>
      <trkpt lat="47.22777" lon="6.02457">
        <ele>417.8</ele>
        <time>2021-03-07T10:22:05Z</time>
      </trkpt>
      <trkpt lat="47.22777" lon="6.02457">
        <ele>418</ele>
        <time>2021-03-07T10:22:19Z</time>
      </trkpt>
      <trkpt lat="47.22777" lon="6.02456">
        <ele>418</ele>
        <time>2021-03-07T10:22:22Z</time>
      </trkpt>
      <trkpt lat="47.22777" lon="6.02448">
        <ele>418.6</ele>
        <time>2021-03-07T10:22:31Z</time>
      </trkpt>
      <trkpt lat="47.22775" lon="6.02445">
        <ele>418.6</ele>
        <time>2021-03-07T10:22:33Z</time>
      </trkpt>
      <trkpt lat="47.22774" lon="6.02444">
        <ele>418.6</ele>
        <time>2021-03-07T10:22:34Z</time>
      </trkpt>
      <trkpt lat="47.22773" lon="6.02442">
        <ele>418.8</ele>
        <time>2021-03-07T10:22:35Z</time>
      </trkpt>
      <trkpt lat="47.22772" lon="6.0244">
        <ele>418.8</ele>
        <time>2021-03-07T10:22:36Z</time>
      </trkpt>
      <trkpt lat="47.22769" lon="6.02437">
        <ele>419</ele>
        <time>2021-03-07T10:22:38Z</time>
      </trkpt>
      <trkpt lat="47.22769" lon="6.02435">
        <ele>419</ele>
        <time>2021-03-07T10:22:39Z</time>
      </trkpt>
      <trkpt lat="47.22769" lon="6.02433">
        <ele>419.2</ele>
        <time>2021-03-07T10:22:40Z</time>
      </trkpt>
      <trkpt lat="47.22769" lon="6.0243">
        <ele>419.4</ele>
        <time>2021-03-07T10:22:41Z</time>
      </trkpt>
      <trkpt lat="47.22768" lon="6.02427">
        <ele>419.6</ele>
        <time>2021-03-07T10:22:42Z</time>
      </trkpt>
      <trkpt lat="47.22768" lon="6.02425">
        <ele>419.6</ele>
        <time>2021-03-07T10:22:43Z</time>
      </trkpt>
      <trkpt lat="47.22767" lon="6.02423">
        <ele>419.8</ele>
        <time>2021-03-07T10:22:44Z</time>
      </trkpt>
      <trkpt lat="47.22766" lon="6.02421">
        <ele>419.8</ele>
        <time>2021-03-07T10:22:45Z</time>
      </trkpt>
      <trkpt lat="47.22766" lon="6.02419">
        <ele>420</ele>
        <time>2021-03-07T10:22:46Z</time>
      </trkpt>
      <trkpt lat="47.22765" lon="6.02417">
        <ele>420</ele>
        <time>2021-03-07T10:22:47Z</time>
      </trkpt>
      <trkpt lat="47.22763" lon="6.02413">
        <ele>420.2</ele>
        <time>2021-03-07T10:22:49Z</time>
      </trkpt>
      <trkpt lat="47.22752" lon="6.02402">
        <ele>421.4</ele>
        <time>2021-03-07T10:22:56Z</time>
      </trkpt>
      <trkpt lat="47.2275" lon="6.02401">
        <ele>421.6</ele>
        <time>2021-03-07T10:22:57Z</time>
      </trkpt>
      <trkpt lat="47.22748" lon="6.02402">
        <ele>421.8</ele>
        <time>2021-03-07T10:22:58Z</time>
      </trkpt>
      <trkpt lat="47.22745" lon="6.02403">
        <ele>421.8</ele>
        <time>2021-03-07T10:22:59Z</time>
      </trkpt>
      <trkpt lat="47.22743" lon="6.02405">
        <ele>422</ele>
        <time>2021-03-07T10:23:00Z</time>
      </trkpt>
      <trkpt lat="47.22742" lon="6.02408">
        <ele>422</ele>
        <time>2021-03-07T10:23:01Z</time>
      </trkpt>
      <trkpt lat="47.22741" lon="6.02411">
        <ele>422</ele>
        <time>2021-03-07T10:23:02Z</time>
      </trkpt>
      <trkpt lat="47.2274" lon="6.02414">
        <ele>422</ele>
        <time>2021-03-07T10:23:03Z</time>
      </trkpt>
      <trkpt lat="47.22739" lon="6.02417">
        <ele>422.2</ele>
        <time>2021-03-07T10:23:04Z</time>
      </trkpt>
      <trkpt lat="47.22738" lon="6.0242">
        <ele>422.2</ele>
        <time>2021-03-07T10:23:05Z</time>
      </trkpt>
      <trkpt lat="47.22738" lon="6.02423">
        <ele>422.2</ele>
        <time>2021-03-07T10:23:06Z</time>
      </trkpt>
      <trkpt lat="47.22738" lon="6.02426">
        <ele>422.4</ele>
        <time>2021-03-07T10:23:07Z</time>
      </trkpt>
      <trkpt lat="47.22737" lon="6.02428">
        <ele>422.4</ele>
        <time>2021-03-07T10:23:08Z</time>
      </trkpt>
      <trkpt lat="47.22737" lon="6.02431">
        <ele>422.6</ele>
        <time>2021-03-07T10:23:09Z</time>
      </trkpt>
      <trkpt lat="47.22737" lon="6.02434">
        <ele>422.6</ele>
        <time>2021-03-07T10:23:10Z</time>
      </trkpt>
      <trkpt lat="47.22736" lon="6.02437">
        <ele>422.8</ele>
        <time>2021-03-07T10:23:11Z</time>
      </trkpt>
      <trkpt lat="47.22736" lon="6.02439">
        <ele>422.8</ele>
        <time>2021-03-07T10:23:12Z</time>
      </trkpt>
      <trkpt lat="47.22735" lon="6.02442">
        <ele>423</ele>
        <time>2021-03-07T10:23:13Z</time>
      </trkpt>
      <trkpt lat="47.22734" lon="6.02445">
        <ele>423.2</ele>
        <time>2021-03-07T10:23:14Z</time>
      </trkpt>
      <trkpt lat="47.22734" lon="6.02447">
        <ele>423.6</ele>
        <time>2021-03-07T10:23:15Z</time>
      </trkpt>
      <trkpt lat="47.22733" lon="6.02449">
        <ele>424</ele>
        <time>2021-03-07T10:23:16Z</time>
      </trkpt>
      <trkpt lat="47.22732" lon="6.02451">
        <ele>424.2</ele>
        <time>2021-03-07T10:23:17Z</time>
      </trkpt>
      <trkpt lat="47.22731" lon="6.02452">
        <ele>424.4</ele>
        <time>2021-03-07T10:23:18Z</time>
      </trkpt>
      <trkpt lat="47.2273" lon="6.02454">
        <ele>424.8</ele>
        <time>2021-03-07T10:23:19Z</time>
      </trkpt>
      <trkpt lat="47.22728" lon="6.02455">
        <ele>425.4</ele>
        <time>2021-03-07T10:23:20Z</time>
      </trkpt>
      <trkpt lat="47.22727" lon="6.02456">
        <ele>425.6</ele>
        <time>2021-03-07T10:23:21Z</time>
      </trkpt>
      <trkpt lat="47.22725" lon="6.02456">
        <ele>426</ele>
        <time>2021-03-07T10:23:22Z</time>
      </trkpt>
      <trkpt lat="47.22724" lon="6.02456">
        <ele>426.4</ele>
        <time>2021-03-07T10:23:23Z</time>
      </trkpt>
      <trkpt lat="47.22722" lon="6.02456">
        <ele>427</ele>
        <time>2021-03-07T10:23:24Z</time>
      </trkpt>
      <trkpt lat="47.2272" lon="6.02455">
        <ele>427.2</ele>
        <time>2021-03-07T10:23:25Z</time>
      </trkpt>
      <trkpt lat="47.22719" lon="6.02455">
        <ele>427.2</ele>
        <time>2021-03-07T10:23:26Z</time>
      </trkpt>
      <trkpt lat="47.22717" lon="6.02454">
        <ele>427.6</ele>
        <time>2021-03-07T10:23:27Z</time>
      </trkpt>
      <trkpt lat="47.22715" lon="6.02454">
        <ele>427.6</ele>
        <time>2021-03-07T10:23:28Z</time>
      </trkpt>
      <trkpt lat="47.22713" lon="6.02454">
        <ele>427.8</ele>
        <time>2021-03-07T10:23:29Z</time>
      </trkpt>
      <trkpt lat="47.22712" lon="6.02453">
        <ele>427.8</ele>
        <time>2021-03-07T10:23:30Z</time>
      </trkpt>
      <trkpt lat="47.2271" lon="6.02453">
        <ele>428</ele>
        <time>2021-03-07T10:23:31Z</time>
      </trkpt>
      <trkpt lat="47.22708" lon="6.02452">
        <ele>428.2</ele>
        <time>2021-03-07T10:23:32Z</time>
      </trkpt>
      <trkpt lat="47.22707" lon="6.02452">
        <ele>428.4</ele>
        <time>2021-03-07T10:23:33Z</time>
      </trkpt>
      <trkpt lat="47.22705" lon="6.02452">
        <ele>428.6</ele>
        <time>2021-03-07T10:23:34Z</time>
      </trkpt>
      <trkpt lat="47.22703" lon="6.02452">
        <ele>428.6</ele>
        <time>2021-03-07T10:23:35Z</time>
      </trkpt>
      <trkpt lat="47.22702" lon="6.02452">
        <ele>428.6</ele>
        <time>2021-03-07T10:23:36Z</time>
      </trkpt>
      <trkpt lat="47.22699" lon="6.02452">
        <ele>428.8</ele>
        <time>2021-03-07T10:23:37Z</time>
      </trkpt>
      <trkpt lat="47.22697" lon="6.02451">
        <ele>428.8</ele>
        <time>2021-03-07T10:23:38Z</time>
      </trkpt>
      <trkpt lat="47.22696" lon="6.0245">
        <ele>428.8</ele>
        <time>2021-03-07T10:23:39Z</time>
      </trkpt>
      <trkpt lat="47.22694" lon="6.0245">
        <ele>429</ele>
        <time>2021-03-07T10:23:40Z</time>
      </trkpt>
      <trkpt lat="47.22692" lon="6.02449">
        <ele>429</ele>
        <time>2021-03-07T10:23:41Z</time>
      </trkpt>
      <trkpt lat="47.2269" lon="6.02448">
        <ele>429</ele>
        <time>2021-03-07T10:23:42Z</time>
      </trkpt>
      <trkpt lat="47.22689" lon="6.02446">
        <ele>429.2</ele>
        <time>2021-03-07T10:23:43Z</time>
      </trkpt>
      <trkpt lat="47.22688" lon="6.02445">
        <ele>429.2</ele>
        <time>2021-03-07T10:23:44Z</time>
      </trkpt>
      <trkpt lat="47.22686" lon="6.02444">
        <ele>429.4</ele>
        <time>2021-03-07T10:23:45Z</time>
      </trkpt>
      <trkpt lat="47.22685" lon="6.02443">
        <ele>429.4</ele>
        <time>2021-03-07T10:23:46Z</time>
      </trkpt>
      <trkpt lat="47.22684" lon="6.02442">
        <ele>429.6</ele>
        <time>2021-03-07T10:23:47Z</time>
      </trkpt>
      <trkpt lat="47.22682" lon="6.02441">
        <ele>429.6</ele>
        <time>2021-03-07T10:23:48Z</time>
      </trkpt>
      <trkpt lat="47.2268" lon="6.02441">
        <ele>429.8</ele>
        <time>2021-03-07T10:23:49Z</time>
      </trkpt>
      <trkpt lat="47.22678" lon="6.02442">
        <ele>429.8</ele>
        <time>2021-03-07T10:23:50Z</time>
      </trkpt>
      <trkpt lat="47.22675" lon="6.02442">
        <ele>429.8</ele>
        <time>2021-03-07T10:23:51Z</time>
      </trkpt>
      <trkpt lat="47.22672" lon="6.02442">
        <ele>429.8</ele>
        <time>2021-03-07T10:23:52Z</time>
      </trkpt>
      <trkpt lat="47.22669" lon="6.02443">
        <ele>429.8</ele>
        <time>2021-03-07T10:23:53Z</time>
      </trkpt>
      <trkpt lat="47.22665" lon="6.02443">
        <ele>429.8</ele>
        <time>2021-03-07T10:23:54Z</time>
      </trkpt>
      <trkpt lat="47.22662" lon="6.02444">
        <ele>429.8</ele>
        <time>2021-03-07T10:23:55Z</time>
      </trkpt>
      <trkpt lat="47.22658" lon="6.02446">
        <ele>429.6</ele>
        <time>2021-03-07T10:23:56Z</time>
      </trkpt>
      <trkpt lat="47.22654" lon="6.02447">
        <ele>429.6</ele>
        <time>2021-03-07T10:23:57Z</time>
      </trkpt>
      <trkpt lat="47.22651" lon="6.02447">
        <ele>429.4</ele>
        <time>2021-03-07T10:23:58Z</time>
      </trkpt>
      <trkpt lat="47.22648" lon="6.02448">
        <ele>429.2</ele>
        <time>2021-03-07T10:23:59Z</time>
      </trkpt>
      <trkpt lat="47.22646" lon="6.02448">
        <ele>428.8</ele>
        <time>2021-03-07T10:24:00Z</time>
      </trkpt>
      <trkpt lat="47.22643" lon="6.02448">
        <ele>428.6</ele>
        <time>2021-03-07T10:24:01Z</time>
      </trkpt>
      <trkpt lat="47.2264" lon="6.02448">
        <ele>428</ele>
        <time>2021-03-07T10:24:02Z</time>
      </trkpt>
      <trkpt lat="47.22637" lon="6.02447">
        <ele>427.8</ele>
        <time>2021-03-07T10:24:03Z</time>
      </trkpt>
      <trkpt lat="47.22634" lon="6.02447">
        <ele>427</ele>
        <time>2021-03-07T10:24:04Z</time>
      </trkpt>
      <trkpt lat="47.22613" lon="6.02446">
        <ele>425.4</ele>
        <time>2021-03-07T10:24:09Z</time>
      </trkpt>
      <trkpt lat="47.22609" lon="6.02444">
        <ele>425</ele>
        <time>2021-03-07T10:24:10Z</time>
      </trkpt>
      <trkpt lat="47.22606" lon="6.02442">
        <ele>424.6</ele>
        <time>2021-03-07T10:24:11Z</time>
      </trkpt>
      <trkpt lat="47.22603" lon="6.02438">
        <ele>424.2</ele>
        <time>2021-03-07T10:24:12Z</time>
      </trkpt>
      <trkpt lat="47.226" lon="6.02435">
        <ele>423.6</ele>
        <time>2021-03-07T10:24:13Z</time>
      </trkpt>
      <trkpt lat="47.22598" lon="6.02431">
        <ele>423.4</ele>
        <time>2021-03-07T10:24:14Z</time>
      </trkpt>
      <trkpt lat="47.22597" lon="6.02427">
        <ele>423</ele>
        <time>2021-03-07T10:24:15Z</time>
      </trkpt>
      <trkpt lat="47.22596" lon="6.02423">
        <ele>422.4</ele>
        <time>2021-03-07T10:24:16Z</time>
      </trkpt>
      <trkpt lat="47.22596" lon="6.02419">
        <ele>421.8</ele>
        <time>2021-03-07T10:24:17Z</time>
      </trkpt>
      <trkpt lat="47.22596" lon="6.02415">
        <ele>421.4</ele>
        <time>2021-03-07T10:24:18Z</time>
      </trkpt>
      <trkpt lat="47.22597" lon="6.02411">
        <ele>421.2</ele>
        <time>2021-03-07T10:24:19Z</time>
      </trkpt>
      <trkpt lat="47.22598" lon="6.02408">
        <ele>421</ele>
        <time>2021-03-07T10:24:20Z</time>
      </trkpt>
      <trkpt lat="47.22599" lon="6.02405">
        <ele>420.8</ele>
        <time>2021-03-07T10:24:21Z</time>
      </trkpt>
      <trkpt lat="47.226" lon="6.02402">
        <ele>420.8</ele>
        <time>2021-03-07T10:24:22Z</time>
      </trkpt>
      <trkpt lat="47.22601" lon="6.02396">
        <ele>420.6</ele>
        <time>2021-03-07T10:24:24Z</time>
      </trkpt>
      <trkpt lat="47.22602" lon="6.02393">
        <ele>420.6</ele>
        <time>2021-03-07T10:24:25Z</time>
      </trkpt>
      <trkpt lat="47.22603" lon="6.02391">
        <ele>420.6</ele>
        <time>2021-03-07T10:24:26Z</time>
      </trkpt>
      <trkpt lat="47.22604" lon="6.02388">
        <ele>420.6</ele>
        <time>2021-03-07T10:24:27Z</time>
      </trkpt>
      <trkpt lat="47.22605" lon="6.02385">
        <ele>420.6</ele>
        <time>2021-03-07T10:24:28Z</time>
      </trkpt>
      <trkpt lat="47.22606" lon="6.02383">
        <ele>421.2</ele>
        <time>2021-03-07T10:24:29Z</time>
      </trkpt>
      <trkpt lat="47.22607" lon="6.0238">
        <ele>421.2</ele>
        <time>2021-03-07T10:24:30Z</time>
      </trkpt>
      <trkpt lat="47.22608" lon="6.02378">
        <ele>421.4</ele>
        <time>2021-03-07T10:24:31Z</time>
      </trkpt>
      <trkpt lat="47.22609" lon="6.02375">
        <ele>421.6</ele>
        <time>2021-03-07T10:24:32Z</time>
      </trkpt>
      <trkpt lat="47.2261" lon="6.02372">
        <ele>421.6</ele>
        <time>2021-03-07T10:24:33Z</time>
      </trkpt>
      <trkpt lat="47.22612" lon="6.02364">
        <ele>422</ele>
        <time>2021-03-07T10:24:36Z</time>
      </trkpt>
      <trkpt lat="47.22613" lon="6.02361">
        <ele>422.2</ele>
        <time>2021-03-07T10:24:37Z</time>
      </trkpt>
      <trkpt lat="47.22614" lon="6.02359">
        <ele>422.4</ele>
        <time>2021-03-07T10:24:38Z</time>
      </trkpt>
      <trkpt lat="47.22615" lon="6.02356">
        <ele>422.6</ele>
        <time>2021-03-07T10:24:39Z</time>
      </trkpt>
      <trkpt lat="47.22616" lon="6.02354">
        <ele>423.2</ele>
        <time>2021-03-07T10:24:40Z</time>
      </trkpt>
      <trkpt lat="47.22616" lon="6.02351">
        <ele>423.4</ele>
        <time>2021-03-07T10:24:41Z</time>
      </trkpt>
      <trkpt lat="47.22617" lon="6.02349">
        <ele>423.6</ele>
        <time>2021-03-07T10:24:42Z</time>
      </trkpt>
      <trkpt lat="47.22618" lon="6.02346">
        <ele>423.8</ele>
        <time>2021-03-07T10:24:43Z</time>
      </trkpt>
      <trkpt lat="47.22619" lon="6.02344">
        <ele>424.2</ele>
        <time>2021-03-07T10:24:44Z</time>
      </trkpt>
      <trkpt lat="47.2262" lon="6.02341">
        <ele>424.2</ele>
        <time>2021-03-07T10:24:45Z</time>
      </trkpt>
      <trkpt lat="47.22621" lon="6.02339">
        <ele>424.6</ele>
        <time>2021-03-07T10:24:46Z</time>
      </trkpt>
      <trkpt lat="47.22625" lon="6.02326">
        <ele>425.6</ele>
        <time>2021-03-07T10:24:51Z</time>
      </trkpt>
      <trkpt lat="47.22626" lon="6.02323">
        <ele>425.6</ele>
        <time>2021-03-07T10:24:52Z</time>
      </trkpt>
      <trkpt lat="47.22626" lon="6.0232">
        <ele>426</ele>
        <time>2021-03-07T10:24:53Z</time>
      </trkpt>
      <trkpt lat="47.22627" lon="6.02317">
        <ele>426.2</ele>
        <time>2021-03-07T10:24:54Z</time>
      </trkpt>
      <trkpt lat="47.22627" lon="6.02314">
        <ele>426.4</ele>
        <time>2021-03-07T10:24:55Z</time>
      </trkpt>
      <trkpt lat="47.22627" lon="6.02311">
        <ele>426.4</ele>
        <time>2021-03-07T10:24:56Z</time>
      </trkpt>
      <trkpt lat="47.22627" lon="6.02307">
        <ele>426.6</ele>
        <time>2021-03-07T10:24:57Z</time>
      </trkpt>
      <trkpt lat="47.22626" lon="6.02304">
        <ele>426.6</ele>
        <time>2021-03-07T10:24:58Z</time>
      </trkpt>
      <trkpt lat="47.22626" lon="6.023">
        <ele>426.8</ele>
        <time>2021-03-07T10:24:59Z</time>
      </trkpt>
      <trkpt lat="47.22626" lon="6.02295">
        <ele>426.8</ele>
        <time>2021-03-07T10:25:00Z</time>
      </trkpt>
      <trkpt lat="47.22625" lon="6.0229">
        <ele>426.8</ele>
        <time>2021-03-07T10:25:01Z</time>
      </trkpt>
      <trkpt lat="47.22625" lon="6.02286">
        <ele>426.8</ele>
        <time>2021-03-07T10:25:02Z</time>
      </trkpt>
      <trkpt lat="47.22626" lon="6.02282">
        <ele>426.8</ele>
        <time>2021-03-07T10:25:03Z</time>
      </trkpt>
      <trkpt lat="47.22627" lon="6.02278">
        <ele>426.8</ele>
        <time>2021-03-07T10:25:04Z</time>
      </trkpt>
      <trkpt lat="47.22628" lon="6.02275">
        <ele>427</ele>
        <time>2021-03-07T10:25:05Z</time>
      </trkpt>
      <trkpt lat="47.2263" lon="6.02272">
        <ele>427</ele>
        <time>2021-03-07T10:25:06Z</time>
      </trkpt>
      <trkpt lat="47.22633" lon="6.02269">
        <ele>427</ele>
        <time>2021-03-07T10:25:07Z</time>
      </trkpt>
      <trkpt lat="47.22636" lon="6.02267">
        <ele>427</ele>
        <time>2021-03-07T10:25:08Z</time>
      </trkpt>
      <trkpt lat="47.22638" lon="6.02265">
        <ele>427.2</ele>
        <time>2021-03-07T10:25:09Z</time>
      </trkpt>
      <trkpt lat="47.22641" lon="6.02263">
        <ele>427.2</ele>
        <time>2021-03-07T10:25:10Z</time>
      </trkpt>
      <trkpt lat="47.22644" lon="6.02261">
        <ele>427.4</ele>
        <time>2021-03-07T10:25:11Z</time>
      </trkpt>
      <trkpt lat="47.22647" lon="6.0226">
        <ele>427.6</ele>
        <time>2021-03-07T10:25:12Z</time>
      </trkpt>
      <trkpt lat="47.22649" lon="6.02258">
        <ele>427.8</ele>
        <time>2021-03-07T10:25:13Z</time>
      </trkpt>
      <trkpt lat="47.22652" lon="6.02256">
        <ele>427.8</ele>
        <time>2021-03-07T10:25:14Z</time>
      </trkpt>
      <trkpt lat="47.22655" lon="6.02254">
        <ele>428</ele>
        <time>2021-03-07T10:25:15Z</time>
      </trkpt>
      <trkpt lat="47.22657" lon="6.02253">
        <ele>428.2</ele>
        <time>2021-03-07T10:25:16Z</time>
      </trkpt>
      <trkpt lat="47.2266" lon="6.02251">
        <ele>428.2</ele>
        <time>2021-03-07T10:25:17Z</time>
      </trkpt>
      <trkpt lat="47.22662" lon="6.02249">
        <ele>428.6</ele>
        <time>2021-03-07T10:25:18Z</time>
      </trkpt>
      <trkpt lat="47.22665" lon="6.02246">
        <ele>428.8</ele>
        <time>2021-03-07T10:25:19Z</time>
      </trkpt>
      <trkpt lat="47.22667" lon="6.02244">
        <ele>429</ele>
        <time>2021-03-07T10:25:20Z</time>
      </trkpt>
      <trkpt lat="47.2267" lon="6.02242">
        <ele>429.4</ele>
        <time>2021-03-07T10:25:21Z</time>
      </trkpt>
      <trkpt lat="47.22672" lon="6.02239">
        <ele>429.6</ele>
        <time>2021-03-07T10:25:22Z</time>
      </trkpt>
      <trkpt lat="47.22675" lon="6.02237">
        <ele>429.6</ele>
        <time>2021-03-07T10:25:23Z</time>
      </trkpt>
      <trkpt lat="47.22677" lon="6.02234">
        <ele>429.8</ele>
        <time>2021-03-07T10:25:24Z</time>
      </trkpt>
      <trkpt lat="47.2268" lon="6.02232">
        <ele>430</ele>
        <time>2021-03-07T10:25:25Z</time>
      </trkpt>
      <trkpt lat="47.22683" lon="6.02229">
        <ele>430.2</ele>
        <time>2021-03-07T10:25:26Z</time>
      </trkpt>
      <trkpt lat="47.22686" lon="6.02227">
        <ele>430.2</ele>
        <time>2021-03-07T10:25:27Z</time>
      </trkpt>
      <trkpt lat="47.22689" lon="6.02224">
        <ele>430.4</ele>
        <time>2021-03-07T10:25:28Z</time>
      </trkpt>
      <trkpt lat="47.22691" lon="6.02222">
        <ele>430.4</ele>
        <time>2021-03-07T10:25:29Z</time>
      </trkpt>
      <trkpt lat="47.22694" lon="6.02219">
        <ele>430.6</ele>
        <time>2021-03-07T10:25:30Z</time>
      </trkpt>
      <trkpt lat="47.22697" lon="6.02217">
        <ele>430.6</ele>
        <time>2021-03-07T10:25:31Z</time>
      </trkpt>
      <trkpt lat="47.22699" lon="6.02214">
        <ele>430.8</ele>
        <time>2021-03-07T10:25:32Z</time>
      </trkpt>
      <trkpt lat="47.22702" lon="6.02212">
        <ele>430.8</ele>
        <time>2021-03-07T10:25:33Z</time>
      </trkpt>
      <trkpt lat="47.22705" lon="6.02209">
        <ele>430.8</ele>
        <time>2021-03-07T10:25:34Z</time>
      </trkpt>
      <trkpt lat="47.22708" lon="6.02206">
        <ele>431</ele>
        <time>2021-03-07T10:25:35Z</time>
      </trkpt>
      <trkpt lat="47.22711" lon="6.02204">
        <ele>431</ele>
        <time>2021-03-07T10:25:36Z</time>
      </trkpt>
      <trkpt lat="47.22714" lon="6.02202">
        <ele>431.2</ele>
        <time>2021-03-07T10:25:37Z</time>
      </trkpt>
      <trkpt lat="47.22716" lon="6.022">
        <ele>431.2</ele>
        <time>2021-03-07T10:25:38Z</time>
      </trkpt>
      <trkpt lat="47.22719" lon="6.02197">
        <ele>431.4</ele>
        <time>2021-03-07T10:25:39Z</time>
      </trkpt>
      <trkpt lat="47.22721" lon="6.02195">
        <ele>431.4</ele>
        <time>2021-03-07T10:25:40Z</time>
      </trkpt>
      <trkpt lat="47.22723" lon="6.02193">
        <ele>431.6</ele>
        <time>2021-03-07T10:25:41Z</time>
      </trkpt>
      <trkpt lat="47.22725" lon="6.02191">
        <ele>431.8</ele>
        <time>2021-03-07T10:25:42Z</time>
      </trkpt>
      <trkpt lat="47.22726" lon="6.02189">
        <ele>431.8</ele>
        <time>2021-03-07T10:25:43Z</time>
      </trkpt>
      <trkpt lat="47.22728" lon="6.02188">
        <ele>431.8</ele>
        <time>2021-03-07T10:25:44Z</time>
      </trkpt>
      <trkpt lat="47.22729" lon="6.02186">
        <ele>431.8</ele>
        <time>2021-03-07T10:25:45Z</time>
      </trkpt>
      <trkpt lat="47.22731" lon="6.02184">
        <ele>432</ele>
        <time>2021-03-07T10:25:46Z</time>
      </trkpt>
      <trkpt lat="47.22733" lon="6.02181">
        <ele>432</ele>
        <time>2021-03-07T10:25:47Z</time>
      </trkpt>
      <trkpt lat="47.22735" lon="6.02178">
        <ele>431.8</ele>
        <time>2021-03-07T10:25:48Z</time>
      </trkpt>
      <trkpt lat="47.22737" lon="6.02176">
        <ele>431.8</ele>
        <time>2021-03-07T10:25:49Z</time>
      </trkpt>
      <trkpt lat="47.22738" lon="6.02174">
        <ele>431.8</ele>
        <time>2021-03-07T10:25:50Z</time>
      </trkpt>
      <trkpt lat="47.22738" lon="6.02171">
        <ele>431.8</ele>
        <time>2021-03-07T10:25:51Z</time>
      </trkpt>
      <trkpt lat="47.22739" lon="6.02168">
        <ele>431.6</ele>
        <time>2021-03-07T10:25:52Z</time>
      </trkpt>
      <trkpt lat="47.2274" lon="6.02166">
        <ele>431</ele>
        <time>2021-03-07T10:25:53Z</time>
      </trkpt>
      <trkpt lat="47.2274" lon="6.02166">
        <ele>430.8</ele>
        <time>2021-03-07T10:25:54Z</time>
      </trkpt>
      <trkpt lat="47.2274" lon="6.02166">
        <ele>430.6</ele>
        <time>2021-03-07T10:25:55Z</time>
      </trkpt>
      <trkpt lat="47.2274" lon="6.02166">
        <ele>430.2</ele>
        <time>2021-03-07T10:25:56Z</time>
      </trkpt>
      <trkpt lat="47.2274" lon="6.02166">
        <ele>429.6</ele>
        <time>2021-03-07T10:25:58Z</time>
      </trkpt>
      <trkpt lat="47.2274" lon="6.02166">
        <ele>429.2</ele>
        <time>2021-03-07T10:26:00Z</time>
      </trkpt>
      <trkpt lat="47.2274" lon="6.02166">
        <ele>428.6</ele>
        <time>2021-03-07T10:26:27Z</time>
      </trkpt>
      <trkpt lat="47.2274" lon="6.02165">
        <ele>428.4</ele>
        <time>2021-03-07T10:26:32Z</time>
      </trkpt>
      <trkpt lat="47.22738" lon="6.02158">
        <ele>428.4</ele>
        <time>2021-03-07T10:26:34Z</time>
      </trkpt>
      <trkpt lat="47.22737" lon="6.02155">
        <ele>428.6</ele>
        <time>2021-03-07T10:26:35Z</time>
      </trkpt>
      <trkpt lat="47.22735" lon="6.02153">
        <ele>428.6</ele>
        <time>2021-03-07T10:26:36Z</time>
      </trkpt>
      <trkpt lat="47.22732" lon="6.02151">
        <ele>428.2</ele>
        <time>2021-03-07T10:26:37Z</time>
      </trkpt>
      <trkpt lat="47.2273" lon="6.02149">
        <ele>428.2</ele>
        <time>2021-03-07T10:26:38Z</time>
      </trkpt>
      <trkpt lat="47.22728" lon="6.02146">
        <ele>428</ele>
        <time>2021-03-07T10:26:39Z</time>
      </trkpt>
      <trkpt lat="47.22727" lon="6.02144">
        <ele>427.8</ele>
        <time>2021-03-07T10:26:40Z</time>
      </trkpt>
      <trkpt lat="47.22725" lon="6.02142">
        <ele>427.4</ele>
        <time>2021-03-07T10:26:41Z</time>
      </trkpt>
      <trkpt lat="47.22723" lon="6.02139">
        <ele>427.2</ele>
        <time>2021-03-07T10:26:42Z</time>
      </trkpt>
      <trkpt lat="47.22721" lon="6.02137">
        <ele>427</ele>
        <time>2021-03-07T10:26:43Z</time>
      </trkpt>
      <trkpt lat="47.22718" lon="6.02136">
        <ele>426.8</ele>
        <time>2021-03-07T10:26:44Z</time>
      </trkpt>
      <trkpt lat="47.22714" lon="6.02134">
        <ele>426.6</ele>
        <time>2021-03-07T10:26:45Z</time>
      </trkpt>
      <trkpt lat="47.22711" lon="6.02133">
        <ele>426.4</ele>
        <time>2021-03-07T10:26:46Z</time>
      </trkpt>
      <trkpt lat="47.22706" lon="6.02132">
        <ele>426.4</ele>
        <time>2021-03-07T10:26:47Z</time>
      </trkpt>
      <trkpt lat="47.22695" lon="6.02127">
        <ele>426</ele>
        <time>2021-03-07T10:26:49Z</time>
      </trkpt>
      <trkpt lat="47.22682" lon="6.02121">
        <ele>425.6</ele>
        <time>2021-03-07T10:26:51Z</time>
      </trkpt>
      <trkpt lat="47.2267" lon="6.02115">
        <ele>424.6</ele>
        <time>2021-03-07T10:26:53Z</time>
      </trkpt>
      <trkpt lat="47.22663" lon="6.02113">
        <ele>423.8</ele>
        <time>2021-03-07T10:26:54Z</time>
      </trkpt>
      <trkpt lat="47.22657" lon="6.0211">
        <ele>422.8</ele>
        <time>2021-03-07T10:26:55Z</time>
      </trkpt>
      <trkpt lat="47.22651" lon="6.02106">
        <ele>422.2</ele>
        <time>2021-03-07T10:26:56Z</time>
      </trkpt>
      <trkpt lat="47.22645" lon="6.02102">
        <ele>421</ele>
        <time>2021-03-07T10:26:57Z</time>
      </trkpt>
      <trkpt lat="47.22639" lon="6.02098">
        <ele>420.6</ele>
        <time>2021-03-07T10:26:58Z</time>
      </trkpt>
      <trkpt lat="47.22633" lon="6.02093">
        <ele>419.4</ele>
        <time>2021-03-07T10:26:59Z</time>
      </trkpt>
      <trkpt lat="47.2262" lon="6.02085">
        <ele>417.6</ele>
        <time>2021-03-07T10:27:01Z</time>
      </trkpt>
      <trkpt lat="47.22606" lon="6.02078">
        <ele>416.4</ele>
        <time>2021-03-07T10:27:03Z</time>
      </trkpt>
      <trkpt lat="47.22598" lon="6.02074">
        <ele>414.6</ele>
        <time>2021-03-07T10:27:04Z</time>
      </trkpt>
      <trkpt lat="47.22583" lon="6.02068">
        <ele>412.6</ele>
        <time>2021-03-07T10:27:06Z</time>
      </trkpt>
      <trkpt lat="47.22576" lon="6.02065">
        <ele>411.8</ele>
        <time>2021-03-07T10:27:07Z</time>
      </trkpt>
      <trkpt lat="47.22569" lon="6.02062">
        <ele>410</ele>
        <time>2021-03-07T10:27:08Z</time>
      </trkpt>
      <trkpt lat="47.22563" lon="6.0206">
        <ele>409.2</ele>
        <time>2021-03-07T10:27:09Z</time>
      </trkpt>
      <trkpt lat="47.22558" lon="6.02058">
        <ele>407.6</ele>
        <time>2021-03-07T10:27:10Z</time>
      </trkpt>
      <trkpt lat="47.22554" lon="6.02057">
        <ele>406.6</ele>
        <time>2021-03-07T10:27:11Z</time>
      </trkpt>
      <trkpt lat="47.22551" lon="6.02056">
        <ele>405.2</ele>
        <time>2021-03-07T10:27:12Z</time>
      </trkpt>
      <trkpt lat="47.22549" lon="6.02054">
        <ele>403.6</ele>
        <time>2021-03-07T10:27:13Z</time>
      </trkpt>
      <trkpt lat="47.22549" lon="6.02052">
        <ele>403</ele>
        <time>2021-03-07T10:27:14Z</time>
      </trkpt>
      <trkpt lat="47.22548" lon="6.0205">
        <ele>401.4</ele>
        <time>2021-03-07T10:27:15Z</time>
      </trkpt>
      <trkpt lat="47.22548" lon="6.02047">
        <ele>400.8</ele>
        <time>2021-03-07T10:27:16Z</time>
      </trkpt>
      <trkpt lat="47.22546" lon="6.02046">
        <ele>400</ele>
        <time>2021-03-07T10:27:17Z</time>
      </trkpt>
      <trkpt lat="47.22543" lon="6.02045">
        <ele>399.8</ele>
        <time>2021-03-07T10:27:18Z</time>
      </trkpt>
      <trkpt lat="47.2254" lon="6.02046">
        <ele>399.2</ele>
        <time>2021-03-07T10:27:19Z</time>
      </trkpt>
      <trkpt lat="47.22537" lon="6.02047">
        <ele>399</ele>
        <time>2021-03-07T10:27:20Z</time>
      </trkpt>
      <trkpt lat="47.22533" lon="6.02047">
        <ele>398.6</ele>
        <time>2021-03-07T10:27:21Z</time>
      </trkpt>
      <trkpt lat="47.22526" lon="6.02045">
        <ele>397.8</ele>
        <time>2021-03-07T10:27:23Z</time>
      </trkpt>
      <trkpt lat="47.22522" lon="6.02044">
        <ele>397.2</ele>
        <time>2021-03-07T10:27:24Z</time>
      </trkpt>
      <trkpt lat="47.22519" lon="6.02044">
        <ele>397</ele>
        <time>2021-03-07T10:27:25Z</time>
      </trkpt>
      <trkpt lat="47.22516" lon="6.02043">
        <ele>396.4</ele>
        <time>2021-03-07T10:27:26Z</time>
      </trkpt>
      <trkpt lat="47.22513" lon="6.02041">
        <ele>396</ele>
        <time>2021-03-07T10:27:27Z</time>
      </trkpt>
      <trkpt lat="47.22511" lon="6.0204">
        <ele>395.2</ele>
        <time>2021-03-07T10:27:28Z</time>
      </trkpt>
      <trkpt lat="47.2251" lon="6.02039">
        <ele>395</ele>
        <time>2021-03-07T10:27:29Z</time>
      </trkpt>
      <trkpt lat="47.22509" lon="6.02038">
        <ele>394.4</ele>
        <time>2021-03-07T10:27:30Z</time>
      </trkpt>
      <trkpt lat="47.22507" lon="6.02036">
        <ele>394</ele>
        <time>2021-03-07T10:27:31Z</time>
      </trkpt>
      <trkpt lat="47.22503" lon="6.02032">
        <ele>393.2</ele>
        <time>2021-03-07T10:27:33Z</time>
      </trkpt>
      <trkpt lat="47.22503" lon="6.02029">
        <ele>392.8</ele>
        <time>2021-03-07T10:27:34Z</time>
      </trkpt>
      <trkpt lat="47.22501" lon="6.02026">
        <ele>392.4</ele>
        <time>2021-03-07T10:27:35Z</time>
      </trkpt>
      <trkpt lat="47.22498" lon="6.02017">
        <ele>391.8</ele>
        <time>2021-03-07T10:27:38Z</time>
      </trkpt>
      <trkpt lat="47.22497" lon="6.02013">
        <ele>391.4</ele>
        <time>2021-03-07T10:27:39Z</time>
      </trkpt>
      <trkpt lat="47.22495" lon="6.02009">
        <ele>391</ele>
        <time>2021-03-07T10:27:41Z</time>
      </trkpt>
      <trkpt lat="47.22495" lon="6.02008">
        <ele>390.4</ele>
        <time>2021-03-07T10:27:43Z</time>
      </trkpt>
      <trkpt lat="47.22492" lon="6.02002">
        <ele>389.6</ele>
        <time>2021-03-07T10:27:52Z</time>
      </trkpt>
      <trkpt lat="47.22491" lon="6.01994">
        <ele>389.6</ele>
        <time>2021-03-07T10:27:54Z</time>
      </trkpt>
      <trkpt lat="47.22491" lon="6.01989">
        <ele>389.4</ele>
        <time>2021-03-07T10:27:55Z</time>
      </trkpt>
      <trkpt lat="47.22489" lon="6.01983">
        <ele>389.4</ele>
        <time>2021-03-07T10:27:56Z</time>
      </trkpt>
      <trkpt lat="47.22483" lon="6.01963">
        <ele>389.2</ele>
        <time>2021-03-07T10:27:59Z</time>
      </trkpt>
      <trkpt lat="47.2248" lon="6.01957">
        <ele>389.2</ele>
        <time>2021-03-07T10:28:00Z</time>
      </trkpt>
      <trkpt lat="47.22472" lon="6.01936">
        <ele>388</ele>
        <time>2021-03-07T10:28:03Z</time>
      </trkpt>
      <trkpt lat="47.22467" lon="6.01919">
        <ele>387.4</ele>
        <time>2021-03-07T10:28:05Z</time>
      </trkpt>
      <trkpt lat="47.22466" lon="6.01911">
        <ele>386.8</ele>
        <time>2021-03-07T10:28:06Z</time>
      </trkpt>
      <trkpt lat="47.22466" lon="6.01903">
        <ele>386.6</ele>
        <time>2021-03-07T10:28:07Z</time>
      </trkpt>
      <trkpt lat="47.22467" lon="6.01894">
        <ele>385.8</ele>
        <time>2021-03-07T10:28:08Z</time>
      </trkpt>
      <trkpt lat="47.2247" lon="6.01887">
        <ele>385.6</ele>
        <time>2021-03-07T10:28:09Z</time>
      </trkpt>
      <trkpt lat="47.22475" lon="6.01879">
        <ele>384.8</ele>
        <time>2021-03-07T10:28:10Z</time>
      </trkpt>
      <trkpt lat="47.2248" lon="6.01872">
        <ele>384.4</ele>
        <time>2021-03-07T10:28:11Z</time>
      </trkpt>
      <trkpt lat="47.22485" lon="6.01865">
        <ele>383.6</ele>
        <time>2021-03-07T10:28:12Z</time>
      </trkpt>
      <trkpt lat="47.22491" lon="6.01858">
        <ele>383.4</ele>
        <time>2021-03-07T10:28:13Z</time>
      </trkpt>
      <trkpt lat="47.22503" lon="6.01843">
        <ele>382.2</ele>
        <time>2021-03-07T10:28:15Z</time>
      </trkpt>
      <trkpt lat="47.22509" lon="6.01834">
        <ele>381.8</ele>
        <time>2021-03-07T10:28:16Z</time>
      </trkpt>
      <trkpt lat="47.22515" lon="6.01825">
        <ele>380.8</ele>
        <time>2021-03-07T10:28:17Z</time>
      </trkpt>
      <trkpt lat="47.22529" lon="6.0181">
        <ele>379.6</ele>
        <time>2021-03-07T10:28:19Z</time>
      </trkpt>
      <trkpt lat="47.22536" lon="6.01802">
        <ele>379.2</ele>
        <time>2021-03-07T10:28:20Z</time>
      </trkpt>
      <trkpt lat="47.22542" lon="6.01794">
        <ele>378.6</ele>
        <time>2021-03-07T10:28:21Z</time>
      </trkpt>
      <trkpt lat="47.22546" lon="6.01785">
        <ele>378.4</ele>
        <time>2021-03-07T10:28:22Z</time>
      </trkpt>
      <trkpt lat="47.22548" lon="6.01773">
        <ele>377.2</ele>
        <time>2021-03-07T10:28:23Z</time>
      </trkpt>
      <trkpt lat="47.22549" lon="6.01762">
        <ele>376.8</ele>
        <time>2021-03-07T10:28:24Z</time>
      </trkpt>
      <trkpt lat="47.22548" lon="6.0175">
        <ele>375.6</ele>
        <time>2021-03-07T10:28:25Z</time>
      </trkpt>
      <trkpt lat="47.22548" lon="6.01742">
        <ele>374</ele>
        <time>2021-03-07T10:28:26Z</time>
      </trkpt>
      <trkpt lat="47.22547" lon="6.01734">
        <ele>373.4</ele>
        <time>2021-03-07T10:28:27Z</time>
      </trkpt>
      <trkpt lat="47.22546" lon="6.01725">
        <ele>372.2</ele>
        <time>2021-03-07T10:28:28Z</time>
      </trkpt>
      <trkpt lat="47.22545" lon="6.01716">
        <ele>371.6</ele>
        <time>2021-03-07T10:28:29Z</time>
      </trkpt>
      <trkpt lat="47.22543" lon="6.01707">
        <ele>370.8</ele>
        <time>2021-03-07T10:28:30Z</time>
      </trkpt>
      <trkpt lat="47.22541" lon="6.01697">
        <ele>370.2</ele>
        <time>2021-03-07T10:28:31Z</time>
      </trkpt>
      <trkpt lat="47.22538" lon="6.01687">
        <ele>369.2</ele>
        <time>2021-03-07T10:28:32Z</time>
      </trkpt>
      <trkpt lat="47.22535" lon="6.01678">
        <ele>368.8</ele>
        <time>2021-03-07T10:28:33Z</time>
      </trkpt>
      <trkpt lat="47.22532" lon="6.0167">
        <ele>367.8</ele>
        <time>2021-03-07T10:28:34Z</time>
      </trkpt>
      <trkpt lat="47.22528" lon="6.01662">
        <ele>367.4</ele>
        <time>2021-03-07T10:28:35Z</time>
      </trkpt>
      <trkpt lat="47.22525" lon="6.01654">
        <ele>366.6</ele>
        <time>2021-03-07T10:28:36Z</time>
      </trkpt>
      <trkpt lat="47.22518" lon="6.01641">
        <ele>365.6</ele>
        <time>2021-03-07T10:28:38Z</time>
      </trkpt>
      <trkpt lat="47.22515" lon="6.01636">
        <ele>364.4</ele>
        <time>2021-03-07T10:28:39Z</time>
      </trkpt>
      <trkpt lat="47.22513" lon="6.01633">
        <ele>364.2</ele>
        <time>2021-03-07T10:28:40Z</time>
      </trkpt>
      <trkpt lat="47.2251" lon="6.0163">
        <ele>363.6</ele>
        <time>2021-03-07T10:28:41Z</time>
      </trkpt>
      <trkpt lat="47.22506" lon="6.01627">
        <ele>363.4</ele>
        <time>2021-03-07T10:28:42Z</time>
      </trkpt>
      <trkpt lat="47.22503" lon="6.01626">
        <ele>363</ele>
        <time>2021-03-07T10:28:43Z</time>
      </trkpt>
      <trkpt lat="47.22499" lon="6.01623">
        <ele>362.8</ele>
        <time>2021-03-07T10:28:44Z</time>
      </trkpt>
      <trkpt lat="47.22494" lon="6.01619">
        <ele>362.2</ele>
        <time>2021-03-07T10:28:46Z</time>
      </trkpt>
      <trkpt lat="47.22494" lon="6.01618">
        <ele>362</ele>
        <time>2021-03-07T10:28:47Z</time>
      </trkpt>
      <trkpt lat="47.22494" lon="6.01618">
        <ele>361.2</ele>
        <time>2021-03-07T10:28:48Z</time>
      </trkpt>
      <trkpt lat="47.22494" lon="6.01618">
        <ele>360.2</ele>
        <time>2021-03-07T10:28:51Z</time>
      </trkpt>
      <trkpt lat="47.22494" lon="6.01618">
        <ele>359.2</ele>
        <time>2021-03-07T10:29:04Z</time>
      </trkpt>
      <trkpt lat="47.22494" lon="6.01618">
        <ele>359.2</ele>
        <time>2021-03-07T10:29:17Z</time>
      </trkpt>
      <trkpt lat="47.22493" lon="6.01618">
        <ele>359</ele>
        <time>2021-03-07T10:29:19Z</time>
      </trkpt>
      <trkpt lat="47.22489" lon="6.01613">
        <ele>358.8</ele>
        <time>2021-03-07T10:29:26Z</time>
      </trkpt>
      <trkpt lat="47.22477" lon="6.01595">
        <ele>358.8</ele>
        <time>2021-03-07T10:29:30Z</time>
      </trkpt>
      <trkpt lat="47.22473" lon="6.01593">
        <ele>358.6</ele>
        <time>2021-03-07T10:29:31Z</time>
      </trkpt>
      <trkpt lat="47.22469" lon="6.01593">
        <ele>358.4</ele>
        <time>2021-03-07T10:29:32Z</time>
      </trkpt>
      <trkpt lat="47.22465" lon="6.01595">
        <ele>358.2</ele>
        <time>2021-03-07T10:29:33Z</time>
      </trkpt>
      <trkpt lat="47.22461" lon="6.01601">
        <ele>357.6</ele>
        <time>2021-03-07T10:29:34Z</time>
      </trkpt>
      <trkpt lat="47.22455" lon="6.01615">
        <ele>356.6</ele>
        <time>2021-03-07T10:29:36Z</time>
      </trkpt>
      <trkpt lat="47.22451" lon="6.01621">
        <ele>356.2</ele>
        <time>2021-03-07T10:29:37Z</time>
      </trkpt>
      <trkpt lat="47.22448" lon="6.01626">
        <ele>355.4</ele>
        <time>2021-03-07T10:29:38Z</time>
      </trkpt>
      <trkpt lat="47.22444" lon="6.01629">
        <ele>354.4</ele>
        <time>2021-03-07T10:29:39Z</time>
      </trkpt>
      <trkpt lat="47.2244" lon="6.01629">
        <ele>354</ele>
        <time>2021-03-07T10:29:40Z</time>
      </trkpt>
      <trkpt lat="47.22435" lon="6.01628">
        <ele>353.2</ele>
        <time>2021-03-07T10:29:41Z</time>
      </trkpt>
      <trkpt lat="47.22423" lon="6.01623">
        <ele>351.6</ele>
        <time>2021-03-07T10:29:43Z</time>
      </trkpt>
      <trkpt lat="47.22417" lon="6.0162">
        <ele>351.2</ele>
        <time>2021-03-07T10:29:44Z</time>
      </trkpt>
      <trkpt lat="47.22411" lon="6.01617">
        <ele>350</ele>
        <time>2021-03-07T10:29:45Z</time>
      </trkpt>
      <trkpt lat="47.224" lon="6.01612">
        <ele>348.4</ele>
        <time>2021-03-07T10:29:47Z</time>
      </trkpt>
      <trkpt lat="47.22394" lon="6.01609">
        <ele>348</ele>
        <time>2021-03-07T10:29:48Z</time>
      </trkpt>
      <trkpt lat="47.22389" lon="6.01607">
        <ele>347.2</ele>
        <time>2021-03-07T10:29:49Z</time>
      </trkpt>
      <trkpt lat="47.22385" lon="6.01605">
        <ele>347</ele>
        <time>2021-03-07T10:29:50Z</time>
      </trkpt>
      <trkpt lat="47.22381" lon="6.01603">
        <ele>346.6</ele>
        <time>2021-03-07T10:29:51Z</time>
      </trkpt>
      <trkpt lat="47.22377" lon="6.01602">
        <ele>346</ele>
        <time>2021-03-07T10:29:52Z</time>
      </trkpt>
      <trkpt lat="47.22374" lon="6.01601">
        <ele>345.6</ele>
        <time>2021-03-07T10:29:53Z</time>
      </trkpt>
      <trkpt lat="47.2237" lon="6.01599">
        <ele>345</ele>
        <time>2021-03-07T10:29:54Z</time>
      </trkpt>
      <trkpt lat="47.22366" lon="6.01598">
        <ele>344.6</ele>
        <time>2021-03-07T10:29:55Z</time>
      </trkpt>
      <trkpt lat="47.22361" lon="6.01596">
        <ele>343.8</ele>
        <time>2021-03-07T10:29:56Z</time>
      </trkpt>
      <trkpt lat="47.22352" lon="6.0159">
        <ele>342.6</ele>
        <time>2021-03-07T10:29:58Z</time>
      </trkpt>
      <trkpt lat="47.22342" lon="6.01585">
        <ele>341.4</ele>
        <time>2021-03-07T10:30:00Z</time>
      </trkpt>
      <trkpt lat="47.22337" lon="6.01582">
        <ele>340.8</ele>
        <time>2021-03-07T10:30:01Z</time>
      </trkpt>
      <trkpt lat="47.22326" lon="6.01576">
        <ele>339</ele>
        <time>2021-03-07T10:30:03Z</time>
      </trkpt>
      <trkpt lat="47.22316" lon="6.0157">
        <ele>336.6</ele>
        <time>2021-03-07T10:30:05Z</time>
      </trkpt>
      <trkpt lat="47.22312" lon="6.01568">
        <ele>335.8</ele>
        <time>2021-03-07T10:30:06Z</time>
      </trkpt>
      <trkpt lat="47.22307" lon="6.01567">
        <ele>334</ele>
        <time>2021-03-07T10:30:07Z</time>
      </trkpt>
      <trkpt lat="47.22303" lon="6.01566">
        <ele>333.2</ele>
        <time>2021-03-07T10:30:08Z</time>
      </trkpt>
      <trkpt lat="47.22298" lon="6.01565">
        <ele>331.6</ele>
        <time>2021-03-07T10:30:09Z</time>
      </trkpt>
      <trkpt lat="47.22294" lon="6.01563">
        <ele>330.8</ele>
        <time>2021-03-07T10:30:10Z</time>
      </trkpt>
      <trkpt lat="47.22291" lon="6.01562">
        <ele>329</ele>
        <time>2021-03-07T10:30:11Z</time>
      </trkpt>
      <trkpt lat="47.22287" lon="6.01562">
        <ele>327.6</ele>
        <time>2021-03-07T10:30:12Z</time>
      </trkpt>
      <trkpt lat="47.22282" lon="6.01562">
        <ele>327.2</ele>
        <time>2021-03-07T10:30:13Z</time>
      </trkpt>
      <trkpt lat="47.22278" lon="6.01561">
        <ele>325.6</ele>
        <time>2021-03-07T10:30:14Z</time>
      </trkpt>
      <trkpt lat="47.22274" lon="6.0156">
        <ele>325</ele>
        <time>2021-03-07T10:30:15Z</time>
      </trkpt>
      <trkpt lat="47.22271" lon="6.0156">
        <ele>323.2</ele>
        <time>2021-03-07T10:30:16Z</time>
      </trkpt>
      <trkpt lat="47.22268" lon="6.0156">
        <ele>322.6</ele>
        <time>2021-03-07T10:30:17Z</time>
      </trkpt>
      <trkpt lat="47.22266" lon="6.01559">
        <ele>321.6</ele>
        <time>2021-03-07T10:30:18Z</time>
      </trkpt>
      <trkpt lat="47.22263" lon="6.01557">
        <ele>320.2</ele>
        <time>2021-03-07T10:30:19Z</time>
      </trkpt>
      <trkpt lat="47.22261" lon="6.01555">
        <ele>318.4</ele>
        <time>2021-03-07T10:30:20Z</time>
      </trkpt>
      <trkpt lat="47.22258" lon="6.01553">
        <ele>318</ele>
        <time>2021-03-07T10:30:21Z</time>
      </trkpt>
      <trkpt lat="47.22256" lon="6.01552">
        <ele>317</ele>
        <time>2021-03-07T10:30:22Z</time>
      </trkpt>
      <trkpt lat="47.22253" lon="6.01551">
        <ele>316.4</ele>
        <time>2021-03-07T10:30:23Z</time>
      </trkpt>
      <trkpt lat="47.2225" lon="6.01551">
        <ele>315.8</ele>
        <time>2021-03-07T10:30:24Z</time>
      </trkpt>
      <trkpt lat="47.22248" lon="6.01552">
        <ele>314.6</ele>
        <time>2021-03-07T10:30:25Z</time>
      </trkpt>
      <trkpt lat="47.22245" lon="6.01553">
        <ele>314</ele>
        <time>2021-03-07T10:30:26Z</time>
      </trkpt>
      <trkpt lat="47.22242" lon="6.01554">
        <ele>313.2</ele>
        <time>2021-03-07T10:30:27Z</time>
      </trkpt>
      <trkpt lat="47.22235" lon="6.01555">
        <ele>311.6</ele>
        <time>2021-03-07T10:30:29Z</time>
      </trkpt>
      <trkpt lat="47.22228" lon="6.01556">
        <ele>310</ele>
        <time>2021-03-07T10:30:31Z</time>
      </trkpt>
      <trkpt lat="47.22225" lon="6.01555">
        <ele>309.4</ele>
        <time>2021-03-07T10:30:32Z</time>
      </trkpt>
      <trkpt lat="47.22222" lon="6.01555">
        <ele>308.8</ele>
        <time>2021-03-07T10:30:33Z</time>
      </trkpt>
      <trkpt lat="47.22219" lon="6.01554">
        <ele>307.8</ele>
        <time>2021-03-07T10:30:34Z</time>
      </trkpt>
      <trkpt lat="47.22217" lon="6.01554">
        <ele>307.2</ele>
        <time>2021-03-07T10:30:35Z</time>
      </trkpt>
      <trkpt lat="47.22215" lon="6.01554">
        <ele>305.6</ele>
        <time>2021-03-07T10:30:36Z</time>
      </trkpt>
      <trkpt lat="47.22213" lon="6.01552">
        <ele>304.8</ele>
        <time>2021-03-07T10:30:37Z</time>
      </trkpt>
      <trkpt lat="47.22213" lon="6.0155">
        <ele>303.8</ele>
        <time>2021-03-07T10:30:38Z</time>
      </trkpt>
      <trkpt lat="47.22215" lon="6.01541">
        <ele>302.4</ele>
        <time>2021-03-07T10:30:40Z</time>
      </trkpt>
      <trkpt lat="47.22216" lon="6.01533">
        <ele>301.4</ele>
        <time>2021-03-07T10:30:42Z</time>
      </trkpt>
      <trkpt lat="47.22213" lon="6.01527">
        <ele>300.4</ele>
        <time>2021-03-07T10:30:44Z</time>
      </trkpt>
      <trkpt lat="47.2221" lon="6.01528">
        <ele>299.8</ele>
        <time>2021-03-07T10:30:45Z</time>
      </trkpt>
      <trkpt lat="47.22208" lon="6.01531">
        <ele>299.6</ele>
        <time>2021-03-07T10:30:46Z</time>
      </trkpt>
      <trkpt lat="47.22205" lon="6.01535">
        <ele>299</ele>
        <time>2021-03-07T10:30:47Z</time>
      </trkpt>
      <trkpt lat="47.22202" lon="6.01538">
        <ele>298.6</ele>
        <time>2021-03-07T10:30:48Z</time>
      </trkpt>
      <trkpt lat="47.22197" lon="6.01534">
        <ele>297.6</ele>
        <time>2021-03-07T10:30:50Z</time>
      </trkpt>
      <trkpt lat="47.22197" lon="6.0153">
        <ele>297.2</ele>
        <time>2021-03-07T10:30:51Z</time>
      </trkpt>
      <trkpt lat="47.22198" lon="6.01524">
        <ele>297</ele>
        <time>2021-03-07T10:30:52Z</time>
      </trkpt>
      <trkpt lat="47.22197" lon="6.0152">
        <ele>296</ele>
        <time>2021-03-07T10:30:53Z</time>
      </trkpt>
      <trkpt lat="47.22194" lon="6.01518">
        <ele>295.6</ele>
        <time>2021-03-07T10:30:54Z</time>
      </trkpt>
      <trkpt lat="47.22191" lon="6.01517">
        <ele>294.8</ele>
        <time>2021-03-07T10:30:55Z</time>
      </trkpt>
      <trkpt lat="47.22187" lon="6.0152">
        <ele>294</ele>
        <time>2021-03-07T10:30:56Z</time>
      </trkpt>
      <trkpt lat="47.22185" lon="6.01524">
        <ele>293.4</ele>
        <time>2021-03-07T10:30:57Z</time>
      </trkpt>
      <trkpt lat="47.22182" lon="6.01528">
        <ele>292.6</ele>
        <time>2021-03-07T10:30:58Z</time>
      </trkpt>
      <trkpt lat="47.22179" lon="6.01529">
        <ele>292.2</ele>
        <time>2021-03-07T10:30:59Z</time>
      </trkpt>
      <trkpt lat="47.22177" lon="6.01528">
        <ele>291.4</ele>
        <time>2021-03-07T10:31:00Z</time>
      </trkpt>
      <trkpt lat="47.22175" lon="6.01526">
        <ele>291</ele>
        <time>2021-03-07T10:31:01Z</time>
      </trkpt>
      <trkpt lat="47.22167" lon="6.01503">
        <ele>289</ele>
        <time>2021-03-07T10:31:04Z</time>
      </trkpt>
      <trkpt lat="47.22164" lon="6.01494">
        <ele>288.6</ele>
        <time>2021-03-07T10:31:05Z</time>
      </trkpt>
      <trkpt lat="47.22161" lon="6.01486">
        <ele>287.6</ele>
        <time>2021-03-07T10:31:06Z</time>
      </trkpt>
      <trkpt lat="47.22158" lon="6.01479">
        <ele>286.6</ele>
        <time>2021-03-07T10:31:07Z</time>
      </trkpt>
      <trkpt lat="47.22155" lon="6.01474">
        <ele>286.2</ele>
        <time>2021-03-07T10:31:08Z</time>
      </trkpt>
      <trkpt lat="47.22152" lon="6.0147">
        <ele>285.2</ele>
        <time>2021-03-07T10:31:09Z</time>
      </trkpt>
      <trkpt lat="47.2215" lon="6.01467">
        <ele>284.8</ele>
        <time>2021-03-07T10:31:10Z</time>
      </trkpt>
      <trkpt lat="47.22149" lon="6.01464">
        <ele>283.6</ele>
        <time>2021-03-07T10:31:11Z</time>
      </trkpt>
      <trkpt lat="47.22148" lon="6.01461">
        <ele>283</ele>
        <time>2021-03-07T10:31:12Z</time>
      </trkpt>
      <trkpt lat="47.22147" lon="6.0146">
        <ele>282</ele>
        <time>2021-03-07T10:31:13Z</time>
      </trkpt>
      <trkpt lat="47.22147" lon="6.0146">
        <ele>280.8</ele>
        <time>2021-03-07T10:31:15Z</time>
      </trkpt>
      <trkpt lat="47.22147" lon="6.0146">
        <ele>279.8</ele>
        <time>2021-03-07T10:31:17Z</time>
      </trkpt>
      <trkpt lat="47.22144" lon="6.01458">
        <ele>278.8</ele>
        <time>2021-03-07T10:31:22Z</time>
      </trkpt>
      <trkpt lat="47.22142" lon="6.01459">
        <ele>278.8</ele>
        <time>2021-03-07T10:31:23Z</time>
      </trkpt>
      <trkpt lat="47.2214" lon="6.0146">
        <ele>278.8</ele>
        <time>2021-03-07T10:31:24Z</time>
      </trkpt>
      <trkpt lat="47.22138" lon="6.01462">
        <ele>278.8</ele>
        <time>2021-03-07T10:31:25Z</time>
      </trkpt>
      <trkpt lat="47.22135" lon="6.01465">
        <ele>278.6</ele>
        <time>2021-03-07T10:31:26Z</time>
      </trkpt>
      <trkpt lat="47.22133" lon="6.01468">
        <ele>278.6</ele>
        <time>2021-03-07T10:31:27Z</time>
      </trkpt>
      <trkpt lat="47.22118" lon="6.01494">
        <ele>278</ele>
        <time>2021-03-07T10:31:32Z</time>
      </trkpt>
      <trkpt lat="47.22114" lon="6.015">
        <ele>277.4</ele>
        <time>2021-03-07T10:31:33Z</time>
      </trkpt>
      <trkpt lat="47.22103" lon="6.0152">
        <ele>276.6</ele>
        <time>2021-03-07T10:31:36Z</time>
      </trkpt>
      <trkpt lat="47.22099" lon="6.01524">
        <ele>276.2</ele>
        <time>2021-03-07T10:31:37Z</time>
      </trkpt>
      <trkpt lat="47.22097" lon="6.01527">
        <ele>275.8</ele>
        <time>2021-03-07T10:31:38Z</time>
      </trkpt>
      <trkpt lat="47.22095" lon="6.0153">
        <ele>275.4</ele>
        <time>2021-03-07T10:31:39Z</time>
      </trkpt>
      <trkpt lat="47.22094" lon="6.01531">
        <ele>274.6</ele>
        <time>2021-03-07T10:31:40Z</time>
      </trkpt>
      <trkpt lat="47.22094" lon="6.01532">
        <ele>273.4</ele>
        <time>2021-03-07T10:31:42Z</time>
      </trkpt>
      <trkpt lat="47.22093" lon="6.01534">
        <ele>273.2</ele>
        <time>2021-03-07T10:31:43Z</time>
      </trkpt>
      <trkpt lat="47.2209" lon="6.01542">
        <ele>272.2</ele>
        <time>2021-03-07T10:31:46Z</time>
      </trkpt>
      <trkpt lat="47.22086" lon="6.01548">
        <ele>271.6</ele>
        <time>2021-03-07T10:31:48Z</time>
      </trkpt>
      <trkpt lat="47.22079" lon="6.0156">
        <ele>271.2</ele>
        <time>2021-03-07T10:31:51Z</time>
      </trkpt>
      <trkpt lat="47.22077" lon="6.01563">
        <ele>271</ele>
        <time>2021-03-07T10:31:52Z</time>
      </trkpt>
      <trkpt lat="47.22071" lon="6.01573">
        <ele>270.6</ele>
        <time>2021-03-07T10:31:54Z</time>
      </trkpt>
      <trkpt lat="47.22068" lon="6.01577">
        <ele>270.4</ele>
        <time>2021-03-07T10:31:55Z</time>
      </trkpt>
      <trkpt lat="47.22066" lon="6.01581">
        <ele>270</ele>
        <time>2021-03-07T10:31:56Z</time>
      </trkpt>
      <trkpt lat="47.22057" lon="6.01593">
        <ele>269.2</ele>
        <time>2021-03-07T10:31:58Z</time>
      </trkpt>
      <trkpt lat="47.22052" lon="6.01598">
        <ele>268.8</ele>
        <time>2021-03-07T10:31:59Z</time>
      </trkpt>
      <trkpt lat="47.22036" lon="6.01614">
        <ele>267</ele>
        <time>2021-03-07T10:32:02Z</time>
      </trkpt>
      <trkpt lat="47.22031" lon="6.01619">
        <ele>266.6</ele>
        <time>2021-03-07T10:32:03Z</time>
      </trkpt>
      <trkpt lat="47.22014" lon="6.01633">
        <ele>265.6</ele>
        <time>2021-03-07T10:32:06Z</time>
      </trkpt>
      <trkpt lat="47.21993" lon="6.01651">
        <ele>264.6</ele>
        <time>2021-03-07T10:32:10Z</time>
      </trkpt>
      <trkpt lat="47.2199" lon="6.01654">
        <ele>264.4</ele>
        <time>2021-03-07T10:32:11Z</time>
      </trkpt>
      <trkpt lat="47.21984" lon="6.01658">
        <ele>264.4</ele>
        <time>2021-03-07T10:32:12Z</time>
      </trkpt>
      <trkpt lat="47.2198" lon="6.01661">
        <ele>264.2</ele>
        <time>2021-03-07T10:32:13Z</time>
      </trkpt>
      <trkpt lat="47.21976" lon="6.01663">
        <ele>264.2</ele>
        <time>2021-03-07T10:32:14Z</time>
      </trkpt>
      <trkpt lat="47.21973" lon="6.01663">
        <ele>264</ele>
        <time>2021-03-07T10:32:15Z</time>
      </trkpt>
      <trkpt lat="47.21971" lon="6.01664">
        <ele>264</ele>
        <time>2021-03-07T10:32:16Z</time>
      </trkpt>
      <trkpt lat="47.21969" lon="6.01665">
        <ele>263.6</ele>
        <time>2021-03-07T10:32:17Z</time>
      </trkpt>
      <trkpt lat="47.21967" lon="6.01667">
        <ele>263.6</ele>
        <time>2021-03-07T10:32:18Z</time>
      </trkpt>
      <trkpt lat="47.21965" lon="6.01669">
        <ele>263.4</ele>
        <time>2021-03-07T10:32:19Z</time>
      </trkpt>
      <trkpt lat="47.21962" lon="6.01672">
        <ele>263.2</ele>
        <time>2021-03-07T10:32:20Z</time>
      </trkpt>
      <trkpt lat="47.2196" lon="6.01676">
        <ele>263</ele>
        <time>2021-03-07T10:32:21Z</time>
      </trkpt>
      <trkpt lat="47.21951" lon="6.01689">
        <ele>262.6</ele>
        <time>2021-03-07T10:32:24Z</time>
      </trkpt>
      <trkpt lat="47.21949" lon="6.01693">
        <ele>262.8</ele>
        <time>2021-03-07T10:32:25Z</time>
      </trkpt>
      <trkpt lat="47.21945" lon="6.01702">
        <ele>262.6</ele>
        <time>2021-03-07T10:32:27Z</time>
      </trkpt>
      <trkpt lat="47.21929" lon="6.0172">
        <ele>262.2</ele>
        <time>2021-03-07T10:32:31Z</time>
      </trkpt>
      <trkpt lat="47.21925" lon="6.01723">
        <ele>262.2</ele>
        <time>2021-03-07T10:32:32Z</time>
      </trkpt>
      <trkpt lat="47.21922" lon="6.01728">
        <ele>262</ele>
        <time>2021-03-07T10:32:33Z</time>
      </trkpt>
      <trkpt lat="47.2192" lon="6.01734">
        <ele>261.8</ele>
        <time>2021-03-07T10:32:34Z</time>
      </trkpt>
      <trkpt lat="47.21919" lon="6.01739">
        <ele>261.2</ele>
        <time>2021-03-07T10:32:35Z</time>
      </trkpt>
      <trkpt lat="47.2192" lon="6.01744">
        <ele>260.8</ele>
        <time>2021-03-07T10:32:36Z</time>
      </trkpt>
      <trkpt lat="47.21921" lon="6.01751">
        <ele>260.4</ele>
        <time>2021-03-07T10:32:37Z</time>
      </trkpt>
      <trkpt lat="47.21922" lon="6.01756">
        <ele>260.2</ele>
        <time>2021-03-07T10:32:38Z</time>
      </trkpt>
      <trkpt lat="47.21923" lon="6.0176">
        <ele>260</ele>
        <time>2021-03-07T10:32:39Z</time>
      </trkpt>
      <trkpt lat="47.21924" lon="6.01765">
        <ele>260</ele>
        <time>2021-03-07T10:32:40Z</time>
      </trkpt>
      <trkpt lat="47.21925" lon="6.01768">
        <ele>260</ele>
        <time>2021-03-07T10:32:41Z</time>
      </trkpt>
      <trkpt lat="47.21926" lon="6.01773">
        <ele>260</ele>
        <time>2021-03-07T10:32:42Z</time>
      </trkpt>
      <trkpt lat="47.21927" lon="6.01777">
        <ele>260</ele>
        <time>2021-03-07T10:32:43Z</time>
      </trkpt>
      <trkpt lat="47.21927" lon="6.0178">
        <ele>260.4</ele>
        <time>2021-03-07T10:32:44Z</time>
      </trkpt>
      <trkpt lat="47.21928" lon="6.01784">
        <ele>260.4</ele>
        <time>2021-03-07T10:32:45Z</time>
      </trkpt>
      <trkpt lat="47.21928" lon="6.01788">
        <ele>260.6</ele>
        <time>2021-03-07T10:32:46Z</time>
      </trkpt>
      <trkpt lat="47.21928" lon="6.01793">
        <ele>260.8</ele>
        <time>2021-03-07T10:32:47Z</time>
      </trkpt>
      <trkpt lat="47.21928" lon="6.01799">
        <ele>261</ele>
        <time>2021-03-07T10:32:48Z</time>
      </trkpt>
      <trkpt lat="47.21927" lon="6.01818">
        <ele>261</ele>
        <time>2021-03-07T10:32:51Z</time>
      </trkpt>
      <trkpt lat="47.21927" lon="6.01825">
        <ele>261</ele>
        <time>2021-03-07T10:32:52Z</time>
      </trkpt>
      <trkpt lat="47.21926" lon="6.01846">
        <ele>260.6</ele>
        <time>2021-03-07T10:32:55Z</time>
      </trkpt>
      <trkpt lat="47.21925" lon="6.01866">
        <ele>260.4</ele>
        <time>2021-03-07T10:32:57Z</time>
      </trkpt>
      <trkpt lat="47.21925" lon="6.01874">
        <ele>260.2</ele>
        <time>2021-03-07T10:32:58Z</time>
      </trkpt>
      <trkpt lat="47.21924" lon="6.01883">
        <ele>260.2</ele>
        <time>2021-03-07T10:32:59Z</time>
      </trkpt>
      <trkpt lat="47.21922" lon="6.0191">
        <ele>260</ele>
        <time>2021-03-07T10:33:02Z</time>
      </trkpt>
      <trkpt lat="47.21921" lon="6.01926">
        <ele>259.4</ele>
        <time>2021-03-07T10:33:04Z</time>
      </trkpt>
      <trkpt lat="47.21921" lon="6.01954">
        <ele>258.4</ele>
        <time>2021-03-07T10:33:07Z</time>
      </trkpt>
      <trkpt lat="47.2192" lon="6.01993">
        <ele>258</ele>
        <time>2021-03-07T10:33:11Z</time>
      </trkpt>
      <trkpt lat="47.21923" lon="6.02024">
        <ele>257.2</ele>
        <time>2021-03-07T10:33:14Z</time>
      </trkpt>
      <trkpt lat="47.21927" lon="6.02044">
        <ele>256.4</ele>
        <time>2021-03-07T10:33:16Z</time>
      </trkpt>
      <trkpt lat="47.21929" lon="6.02053">
        <ele>256.2</ele>
        <time>2021-03-07T10:33:17Z</time>
      </trkpt>
      <trkpt lat="47.21935" lon="6.02078">
        <ele>255.8</ele>
        <time>2021-03-07T10:33:20Z</time>
      </trkpt>
      <trkpt lat="47.21937" lon="6.02086">
        <ele>255.6</ele>
        <time>2021-03-07T10:33:21Z</time>
      </trkpt>
      <trkpt lat="47.21939" lon="6.02094">
        <ele>255.6</ele>
        <time>2021-03-07T10:33:22Z</time>
      </trkpt>
      <trkpt lat="47.21942" lon="6.02102">
        <ele>255.2</ele>
        <time>2021-03-07T10:33:23Z</time>
      </trkpt>
      <trkpt lat="47.21944" lon="6.02108">
        <ele>255.2</ele>
        <time>2021-03-07T10:33:24Z</time>
      </trkpt>
      <trkpt lat="47.21947" lon="6.02114">
        <ele>255.2</ele>
        <time>2021-03-07T10:33:25Z</time>
      </trkpt>
      <trkpt lat="47.2195" lon="6.0212">
        <ele>254.8</ele>
        <time>2021-03-07T10:33:26Z</time>
      </trkpt>
      <trkpt lat="47.21953" lon="6.02126">
        <ele>254.8</ele>
        <time>2021-03-07T10:33:27Z</time>
      </trkpt>
      <trkpt lat="47.21955" lon="6.02132">
        <ele>254.6</ele>
        <time>2021-03-07T10:33:28Z</time>
      </trkpt>
      <trkpt lat="47.21958" lon="6.02138">
        <ele>254.6</ele>
        <time>2021-03-07T10:33:29Z</time>
      </trkpt>
      <trkpt lat="47.21961" lon="6.02143">
        <ele>254.6</ele>
        <time>2021-03-07T10:33:30Z</time>
      </trkpt>
      <trkpt lat="47.21964" lon="6.02149">
        <ele>254.6</ele>
        <time>2021-03-07T10:33:31Z</time>
      </trkpt>
      <trkpt lat="47.21966" lon="6.02154">
        <ele>254.6</ele>
        <time>2021-03-07T10:33:32Z</time>
      </trkpt>
      <trkpt lat="47.21969" lon="6.02159">
        <ele>254.6</ele>
        <time>2021-03-07T10:33:33Z</time>
      </trkpt>
      <trkpt lat="47.21972" lon="6.02164">
        <ele>254.6</ele>
        <time>2021-03-07T10:33:34Z</time>
      </trkpt>
      <trkpt lat="47.21975" lon="6.0217">
        <ele>254.6</ele>
        <time>2021-03-07T10:33:35Z</time>
      </trkpt>
      <trkpt lat="47.22003" lon="6.02213">
        <ele>254.8</ele>
        <time>2021-03-07T10:33:43Z</time>
      </trkpt>
      <trkpt lat="47.22006" lon="6.02219">
        <ele>254.8</ele>
        <time>2021-03-07T10:33:44Z</time>
      </trkpt>
      <trkpt lat="47.22022" lon="6.0225">
        <ele>255</ele>
        <time>2021-03-07T10:33:49Z</time>
      </trkpt>
      <trkpt lat="47.22037" lon="6.02289">
        <ele>255.2</ele>
        <time>2021-03-07T10:33:54Z</time>
      </trkpt>
      <trkpt lat="47.22066" lon="6.02359">
        <ele>255.2</ele>
        <time>2021-03-07T10:34:03Z</time>
      </trkpt>
      <trkpt lat="47.22076" lon="6.02383">
        <ele>255</ele>
        <time>2021-03-07T10:34:06Z</time>
      </trkpt>
      <trkpt lat="47.22079" lon="6.0239">
        <ele>255</ele>
        <time>2021-03-07T10:34:07Z</time>
      </trkpt>
      <trkpt lat="47.22087" lon="6.02415">
        <ele>255</ele>
        <time>2021-03-07T10:34:10Z</time>
      </trkpt>
      <trkpt lat="47.22093" lon="6.02432">
        <ele>255</ele>
        <time>2021-03-07T10:34:12Z</time>
      </trkpt>
      <trkpt lat="47.22095" lon="6.02439">
        <ele>255</ele>
        <time>2021-03-07T10:34:13Z</time>
      </trkpt>
      <trkpt lat="47.22098" lon="6.02448">
        <ele>255</ele>
        <time>2021-03-07T10:34:14Z</time>
      </trkpt>
      <trkpt lat="47.22103" lon="6.02464">
        <ele>254.8</ele>
        <time>2021-03-07T10:34:16Z</time>
      </trkpt>
      <trkpt lat="47.22113" lon="6.02496">
        <ele>254.8</ele>
        <time>2021-03-07T10:34:20Z</time>
      </trkpt>
      <trkpt lat="47.22136" lon="6.02559">
        <ele>254.8</ele>
        <time>2021-03-07T10:34:28Z</time>
      </trkpt>
      <trkpt lat="47.22139" lon="6.02566">
        <ele>254.8</ele>
        <time>2021-03-07T10:34:29Z</time>
      </trkpt>
      <trkpt lat="47.22145" lon="6.02581">
        <ele>254.8</ele>
        <time>2021-03-07T10:34:31Z</time>
      </trkpt>
      <trkpt lat="47.22148" lon="6.0259">
        <ele>254.6</ele>
        <time>2021-03-07T10:34:32Z</time>
      </trkpt>
      <trkpt lat="47.22151" lon="6.02596">
        <ele>254.6</ele>
        <time>2021-03-07T10:34:33Z</time>
      </trkpt>
      <trkpt lat="47.22154" lon="6.02603">
        <ele>254.6</ele>
        <time>2021-03-07T10:34:34Z</time>
      </trkpt>
      <trkpt lat="47.22157" lon="6.02611">
        <ele>254.6</ele>
        <time>2021-03-07T10:34:35Z</time>
      </trkpt>
      <trkpt lat="47.2216" lon="6.02619">
        <ele>254.8</ele>
        <time>2021-03-07T10:34:36Z</time>
      </trkpt>
      <trkpt lat="47.22162" lon="6.02626">
        <ele>254.8</ele>
        <time>2021-03-07T10:34:37Z</time>
      </trkpt>
      <trkpt lat="47.22166" lon="6.02635">
        <ele>254.8</ele>
        <time>2021-03-07T10:34:38Z</time>
      </trkpt>
      <trkpt lat="47.22168" lon="6.02641">
        <ele>254.8</ele>
        <time>2021-03-07T10:34:39Z</time>
      </trkpt>
      <trkpt lat="47.22174" lon="6.02654">
        <ele>254.8</ele>
        <time>2021-03-07T10:34:41Z</time>
      </trkpt>
      <trkpt lat="47.22177" lon="6.0266">
        <ele>254.8</ele>
        <time>2021-03-07T10:34:42Z</time>
      </trkpt>
      <trkpt lat="47.2218" lon="6.02667">
        <ele>254.8</ele>
        <time>2021-03-07T10:34:43Z</time>
      </trkpt>
      <trkpt lat="47.22184" lon="6.02674">
        <ele>254.8</ele>
        <time>2021-03-07T10:34:44Z</time>
      </trkpt>
      <trkpt lat="47.22196" lon="6.02697">
        <ele>255</ele>
        <time>2021-03-07T10:34:47Z</time>
      </trkpt>
      <trkpt lat="47.222" lon="6.02705">
        <ele>255</ele>
        <time>2021-03-07T10:34:48Z</time>
      </trkpt>
      <trkpt lat="47.22231" lon="6.0276">
        <ele>254.6</ele>
        <time>2021-03-07T10:34:56Z</time>
      </trkpt>
      <trkpt lat="47.22235" lon="6.02765">
        <ele>254.6</ele>
        <time>2021-03-07T10:34:57Z</time>
      </trkpt>
      <trkpt lat="47.22243" lon="6.02777">
        <ele>254.6</ele>
        <time>2021-03-07T10:34:59Z</time>
      </trkpt>
      <trkpt lat="47.22248" lon="6.02782">
        <ele>254.6</ele>
        <time>2021-03-07T10:35:00Z</time>
      </trkpt>
      <trkpt lat="47.22252" lon="6.02788">
        <ele>254.6</ele>
        <time>2021-03-07T10:35:01Z</time>
      </trkpt>
      <trkpt lat="47.22257" lon="6.02794">
        <ele>254.6</ele>
        <time>2021-03-07T10:35:02Z</time>
      </trkpt>
      <trkpt lat="47.22262" lon="6.02799">
        <ele>254.8</ele>
        <time>2021-03-07T10:35:03Z</time>
      </trkpt>
      <trkpt lat="47.22281" lon="6.02819">
        <ele>254.6</ele>
        <time>2021-03-07T10:35:07Z</time>
      </trkpt>
      <trkpt lat="47.22287" lon="6.02823">
        <ele>254.6</ele>
        <time>2021-03-07T10:35:08Z</time>
      </trkpt>
      <trkpt lat="47.22293" lon="6.02829">
        <ele>254.8</ele>
        <time>2021-03-07T10:35:09Z</time>
      </trkpt>
      <trkpt lat="47.22316" lon="6.02847">
        <ele>255</ele>
        <time>2021-03-07T10:35:13Z</time>
      </trkpt>
      <trkpt lat="47.22331" lon="6.02861">
        <ele>255</ele>
        <time>2021-03-07T10:35:16Z</time>
      </trkpt>
      <trkpt lat="47.22346" lon="6.02878">
        <ele>255</ele>
        <time>2021-03-07T10:35:19Z</time>
      </trkpt>
      <trkpt lat="47.22377" lon="6.02914">
        <ele>254.8</ele>
        <time>2021-03-07T10:35:26Z</time>
      </trkpt>
      <trkpt lat="47.22381" lon="6.02921">
        <ele>254.8</ele>
        <time>2021-03-07T10:35:27Z</time>
      </trkpt>
      <trkpt lat="47.22401" lon="6.02966">
        <ele>254.8</ele>
        <time>2021-03-07T10:35:33Z</time>
      </trkpt>
      <trkpt lat="47.22421" lon="6.03007">
        <ele>255</ele>
        <time>2021-03-07T10:35:39Z</time>
      </trkpt>
      <trkpt lat="47.22425" lon="6.03013">
        <ele>255</ele>
        <time>2021-03-07T10:35:40Z</time>
      </trkpt>
      <trkpt lat="47.22429" lon="6.03018">
        <ele>255</ele>
        <time>2021-03-07T10:35:41Z</time>
      </trkpt>
      <trkpt lat="47.22433" lon="6.03022">
        <ele>255</ele>
        <time>2021-03-07T10:35:42Z</time>
      </trkpt>
      <trkpt lat="47.22438" lon="6.03027">
        <ele>255</ele>
        <time>2021-03-07T10:35:43Z</time>
      </trkpt>
      <trkpt lat="47.22444" lon="6.03032">
        <ele>254.8</ele>
        <time>2021-03-07T10:35:44Z</time>
      </trkpt>
      <trkpt lat="47.22453" lon="6.03039">
        <ele>254.8</ele>
        <time>2021-03-07T10:35:46Z</time>
      </trkpt>
      <trkpt lat="47.22491" lon="6.03063">
        <ele>254.6</ele>
        <time>2021-03-07T10:35:53Z</time>
      </trkpt>
      <trkpt lat="47.22506" lon="6.03074">
        <ele>254.6</ele>
        <time>2021-03-07T10:35:56Z</time>
      </trkpt>
      <trkpt lat="47.22521" lon="6.03084">
        <ele>254.6</ele>
        <time>2021-03-07T10:35:59Z</time>
      </trkpt>
      <trkpt lat="47.22526" lon="6.03088">
        <ele>254.6</ele>
        <time>2021-03-07T10:36:00Z</time>
      </trkpt>
      <trkpt lat="47.22531" lon="6.03091">
        <ele>254.6</ele>
        <time>2021-03-07T10:36:01Z</time>
      </trkpt>
      <trkpt lat="47.22536" lon="6.03096">
        <ele>254.6</ele>
        <time>2021-03-07T10:36:02Z</time>
      </trkpt>
      <trkpt lat="47.22541" lon="6.031">
        <ele>254.6</ele>
        <time>2021-03-07T10:36:03Z</time>
      </trkpt>
      <trkpt lat="47.22546" lon="6.03104">
        <ele>254.6</ele>
        <time>2021-03-07T10:36:04Z</time>
      </trkpt>
      <trkpt lat="47.22551" lon="6.03108">
        <ele>254.8</ele>
        <time>2021-03-07T10:36:05Z</time>
      </trkpt>
      <trkpt lat="47.2256" lon="6.03115">
        <ele>254.8</ele>
        <time>2021-03-07T10:36:07Z</time>
      </trkpt>
      <trkpt lat="47.22564" lon="6.03119">
        <ele>255</ele>
        <time>2021-03-07T10:36:08Z</time>
      </trkpt>
      <trkpt lat="47.22568" lon="6.03122">
        <ele>255</ele>
        <time>2021-03-07T10:36:09Z</time>
      </trkpt>
      <trkpt lat="47.22572" lon="6.03125">
        <ele>255</ele>
        <time>2021-03-07T10:36:10Z</time>
      </trkpt>
      <trkpt lat="47.22576" lon="6.03127">
        <ele>255</ele>
        <time>2021-03-07T10:36:11Z</time>
      </trkpt>
      <trkpt lat="47.2258" lon="6.03129">
        <ele>255</ele>
        <time>2021-03-07T10:36:12Z</time>
      </trkpt>
      <trkpt lat="47.22584" lon="6.03132">
        <ele>255.2</ele>
        <time>2021-03-07T10:36:13Z</time>
      </trkpt>
      <trkpt lat="47.22593" lon="6.03136">
        <ele>255.2</ele>
        <time>2021-03-07T10:36:15Z</time>
      </trkpt>
      <trkpt lat="47.22597" lon="6.03138">
        <ele>255.2</ele>
        <time>2021-03-07T10:36:16Z</time>
      </trkpt>
      <trkpt lat="47.22606" lon="6.03141">
        <ele>255.2</ele>
        <time>2021-03-07T10:36:18Z</time>
      </trkpt>
      <trkpt lat="47.2261" lon="6.03142">
        <ele>255.2</ele>
        <time>2021-03-07T10:36:19Z</time>
      </trkpt>
      <trkpt lat="47.22614" lon="6.03143">
        <ele>255.2</ele>
        <time>2021-03-07T10:36:20Z</time>
      </trkpt>
      <trkpt lat="47.22636" lon="6.03144">
        <ele>255.2</ele>
        <time>2021-03-07T10:36:25Z</time>
      </trkpt>
      <trkpt lat="47.22657" lon="6.0314">
        <ele>255.4</ele>
        <time>2021-03-07T10:36:30Z</time>
      </trkpt>
      <trkpt lat="47.2266" lon="6.03139">
        <ele>255.4</ele>
        <time>2021-03-07T10:36:31Z</time>
      </trkpt>
      <trkpt lat="47.22663" lon="6.03138">
        <ele>255.6</ele>
        <time>2021-03-07T10:36:32Z</time>
      </trkpt>
      <trkpt lat="47.22666" lon="6.03137">
        <ele>255.8</ele>
        <time>2021-03-07T10:36:33Z</time>
      </trkpt>
      <trkpt lat="47.22669" lon="6.03135">
        <ele>256</ele>
        <time>2021-03-07T10:36:34Z</time>
      </trkpt>
      <trkpt lat="47.22672" lon="6.03134">
        <ele>256.4</ele>
        <time>2021-03-07T10:36:35Z</time>
      </trkpt>
      <trkpt lat="47.22674" lon="6.03134">
        <ele>256.6</ele>
        <time>2021-03-07T10:36:36Z</time>
      </trkpt>
      <trkpt lat="47.22676" lon="6.03133">
        <ele>257</ele>
        <time>2021-03-07T10:36:37Z</time>
      </trkpt>
      <trkpt lat="47.22678" lon="6.03133">
        <ele>257.2</ele>
        <time>2021-03-07T10:36:38Z</time>
      </trkpt>
      <trkpt lat="47.22681" lon="6.03132">
        <ele>257.6</ele>
        <time>2021-03-07T10:36:39Z</time>
      </trkpt>
      <trkpt lat="47.22683" lon="6.03132">
        <ele>257.6</ele>
        <time>2021-03-07T10:36:40Z</time>
      </trkpt>
      <trkpt lat="47.2269" lon="6.0313">
        <ele>258.4</ele>
        <time>2021-03-07T10:36:43Z</time>
      </trkpt>
      <trkpt lat="47.22692" lon="6.03132">
        <ele>258.6</ele>
        <time>2021-03-07T10:36:44Z</time>
      </trkpt>
      <trkpt lat="47.22694" lon="6.03135">
        <ele>258.8</ele>
        <time>2021-03-07T10:36:45Z</time>
      </trkpt>
      <trkpt lat="47.22695" lon="6.03137">
        <ele>259</ele>
        <time>2021-03-07T10:36:46Z</time>
      </trkpt>
      <trkpt lat="47.22696" lon="6.03141">
        <ele>259.2</ele>
        <time>2021-03-07T10:36:47Z</time>
      </trkpt>
      <trkpt lat="47.22697" lon="6.03144">
        <ele>259.2</ele>
        <time>2021-03-07T10:36:48Z</time>
      </trkpt>
      <trkpt lat="47.22698" lon="6.03148">
        <ele>259.2</ele>
        <time>2021-03-07T10:36:49Z</time>
      </trkpt>
      <trkpt lat="47.227" lon="6.03153">
        <ele>259.4</ele>
        <time>2021-03-07T10:36:50Z</time>
      </trkpt>
      <trkpt lat="47.227" lon="6.03157">
        <ele>259.4</ele>
        <time>2021-03-07T10:36:51Z</time>
      </trkpt>
      <trkpt lat="47.22701" lon="6.03161">
        <ele>259.4</ele>
        <time>2021-03-07T10:36:52Z</time>
      </trkpt>
      <trkpt lat="47.22702" lon="6.03166">
        <ele>259.6</ele>
        <time>2021-03-07T10:36:53Z</time>
      </trkpt>
      <trkpt lat="47.22703" lon="6.03172">
        <ele>259.6</ele>
        <time>2021-03-07T10:36:54Z</time>
      </trkpt>
      <trkpt lat="47.22704" lon="6.03177">
        <ele>259.6</ele>
        <time>2021-03-07T10:36:55Z</time>
      </trkpt>
      <trkpt lat="47.22705" lon="6.03182">
        <ele>259.8</ele>
        <time>2021-03-07T10:36:56Z</time>
      </trkpt>
      <trkpt lat="47.22706" lon="6.03188">
        <ele>259.8</ele>
        <time>2021-03-07T10:36:57Z</time>
      </trkpt>
      <trkpt lat="47.22707" lon="6.03192">
        <ele>259.8</ele>
        <time>2021-03-07T10:36:58Z</time>
      </trkpt>
      <trkpt lat="47.22708" lon="6.03199">
        <ele>259.8</ele>
        <time>2021-03-07T10:36:59Z</time>
      </trkpt>
      <trkpt lat="47.22709" lon="6.03204">
        <ele>259.8</ele>
        <time>2021-03-07T10:37:00Z</time>
      </trkpt>
      <trkpt lat="47.2271" lon="6.03209">
        <ele>259.8</ele>
        <time>2021-03-07T10:37:01Z</time>
      </trkpt>
      <trkpt lat="47.22711" lon="6.03212">
        <ele>259.8</ele>
        <time>2021-03-07T10:37:02Z</time>
      </trkpt>
      <trkpt lat="47.22712" lon="6.03218">
        <ele>259.8</ele>
        <time>2021-03-07T10:37:03Z</time>
      </trkpt>
      <trkpt lat="47.22712" lon="6.03221">
        <ele>259.8</ele>
        <time>2021-03-07T10:37:04Z</time>
      </trkpt>
      <trkpt lat="47.22713" lon="6.03227">
        <ele>259.6</ele>
        <time>2021-03-07T10:37:05Z</time>
      </trkpt>
      <trkpt lat="47.22714" lon="6.03231">
        <ele>259.6</ele>
        <time>2021-03-07T10:37:06Z</time>
      </trkpt>
      <trkpt lat="47.22716" lon="6.03234">
        <ele>259.6</ele>
        <time>2021-03-07T10:37:07Z</time>
      </trkpt>
      <trkpt lat="47.22718" lon="6.03235">
        <ele>259.4</ele>
        <time>2021-03-07T10:37:08Z</time>
      </trkpt>
      <trkpt lat="47.22731" lon="6.03235">
        <ele>259</ele>
        <time>2021-03-07T10:37:11Z</time>
      </trkpt>
      <trkpt lat="47.22736" lon="6.03233">
        <ele>259</ele>
        <time>2021-03-07T10:37:12Z</time>
      </trkpt>
      <trkpt lat="47.2276" lon="6.03222">
        <ele>258.6</ele>
        <time>2021-03-07T10:37:17Z</time>
      </trkpt>
      <trkpt lat="47.22765" lon="6.03219">
        <ele>258.2</ele>
        <time>2021-03-07T10:37:18Z</time>
      </trkpt>
      <trkpt lat="47.22795" lon="6.03199">
        <ele>257.4</ele>
        <time>2021-03-07T10:37:24Z</time>
      </trkpt>
      <trkpt lat="47.22799" lon="6.03195">
        <ele>257.2</ele>
        <time>2021-03-07T10:37:25Z</time>
      </trkpt>
      <trkpt lat="47.22803" lon="6.03191">
        <ele>257.2</ele>
        <time>2021-03-07T10:37:26Z</time>
      </trkpt>
      <trkpt lat="47.22827" lon="6.03163">
        <ele>256.8</ele>
        <time>2021-03-07T10:37:32Z</time>
      </trkpt>
      <trkpt lat="47.2283" lon="6.03158">
        <ele>256.8</ele>
        <time>2021-03-07T10:37:33Z</time>
      </trkpt>
      <trkpt lat="47.22838" lon="6.03141">
        <ele>256.8</ele>
        <time>2021-03-07T10:37:36Z</time>
      </trkpt>
      <trkpt lat="47.2284" lon="6.03137">
        <ele>256.8</ele>
        <time>2021-03-07T10:37:37Z</time>
      </trkpt>
      <trkpt lat="47.22843" lon="6.03132">
        <ele>256.6</ele>
        <time>2021-03-07T10:37:38Z</time>
      </trkpt>
      <trkpt lat="47.22846" lon="6.03127">
        <ele>256.6</ele>
        <time>2021-03-07T10:37:39Z</time>
      </trkpt>
      <trkpt lat="47.22849" lon="6.03122">
        <ele>256.6</ele>
        <time>2021-03-07T10:37:40Z</time>
      </trkpt>
      <trkpt lat="47.22852" lon="6.03118">
        <ele>256.6</ele>
        <time>2021-03-07T10:37:41Z</time>
      </trkpt>
      <trkpt lat="47.22857" lon="6.0311">
        <ele>256.6</ele>
        <time>2021-03-07T10:37:43Z</time>
      </trkpt>
      <trkpt lat="47.22859" lon="6.03107">
        <ele>256.6</ele>
        <time>2021-03-07T10:37:44Z</time>
      </trkpt>
      <trkpt lat="47.22862" lon="6.03103">
        <ele>256.6</ele>
        <time>2021-03-07T10:37:45Z</time>
      </trkpt>
      <trkpt lat="47.22864" lon="6.031">
        <ele>256.6</ele>
        <time>2021-03-07T10:37:46Z</time>
      </trkpt>
      <trkpt lat="47.22866" lon="6.03099">
        <ele>256.6</ele>
        <time>2021-03-07T10:37:47Z</time>
      </trkpt>
      <trkpt lat="47.22868" lon="6.03097">
        <ele>256.6</ele>
        <time>2021-03-07T10:37:48Z</time>
      </trkpt>
      <trkpt lat="47.22877" lon="6.0308">
        <ele>256.4</ele>
        <time>2021-03-07T10:37:52Z</time>
      </trkpt>
      <trkpt lat="47.22895" lon="6.0306">
        <ele>256.4</ele>
        <time>2021-03-07T10:37:58Z</time>
      </trkpt>
      <trkpt lat="47.2291" lon="6.0305">
        <ele>256.4</ele>
        <time>2021-03-07T10:38:02Z</time>
      </trkpt>
      <trkpt lat="47.22913" lon="6.03048">
        <ele>256.4</ele>
        <time>2021-03-07T10:38:03Z</time>
      </trkpt>
      <trkpt lat="47.22921" lon="6.03043">
        <ele>256.6</ele>
        <time>2021-03-07T10:38:05Z</time>
      </trkpt>
      <trkpt lat="47.22935" lon="6.0304">
        <ele>257.2</ele>
        <time>2021-03-07T10:38:09Z</time>
      </trkpt>
      <trkpt lat="47.2294" lon="6.03041">
        <ele>257.2</ele>
        <time>2021-03-07T10:38:10Z</time>
      </trkpt>
      <trkpt lat="47.22967" lon="6.03044">
        <ele>257.4</ele>
        <time>2021-03-07T10:38:17Z</time>
      </trkpt>
      <trkpt lat="47.22971" lon="6.03046">
        <ele>257.4</ele>
        <time>2021-03-07T10:38:18Z</time>
      </trkpt>
      <trkpt lat="47.22972" lon="6.03049">
        <ele>257.4</ele>
        <time>2021-03-07T10:38:19Z</time>
      </trkpt>
      <trkpt lat="47.22971" lon="6.03053">
        <ele>257.2</ele>
        <time>2021-03-07T10:38:20Z</time>
      </trkpt>
      <trkpt lat="47.22969" lon="6.03055">
        <ele>257.2</ele>
        <time>2021-03-07T10:38:21Z</time>
      </trkpt>
      <trkpt lat="47.22968" lon="6.03058">
        <ele>257.2</ele>
        <time>2021-03-07T10:38:22Z</time>
      </trkpt>
      <trkpt lat="47.22966" lon="6.0306">
        <ele>257.2</ele>
        <time>2021-03-07T10:38:23Z</time>
      </trkpt>
      <trkpt lat="47.22965" lon="6.03062">
        <ele>257.2</ele>
        <time>2021-03-07T10:38:24Z</time>
      </trkpt>
      <trkpt lat="47.22965" lon="6.03064">
        <ele>257.2</ele>
        <time>2021-03-07T10:38:25Z</time>
      </trkpt>
      <trkpt lat="47.22966" lon="6.03065">
        <ele>257.2</ele>
        <time>2021-03-07T10:38:26Z</time>
      </trkpt>
      <trkpt lat="47.22967" lon="6.03063">
        <ele>257.4</ele>
        <time>2021-03-07T10:38:27Z</time>
      </trkpt>
      <trkpt lat="47.22969" lon="6.0306">
        <ele>257.6</ele>
        <time>2021-03-07T10:38:28Z</time>
      </trkpt>
      <trkpt lat="47.22977" lon="6.03048">
        <ele>258.2</ele>
        <time>2021-03-07T10:38:33Z</time>
      </trkpt>
      <trkpt lat="47.22979" lon="6.03046">
        <ele>258.6</ele>
        <time>2021-03-07T10:38:34Z</time>
      </trkpt>
      <trkpt lat="47.22984" lon="6.03033">
        <ele>259.4</ele>
        <time>2021-03-07T10:38:37Z</time>
      </trkpt>
      <trkpt lat="47.22986" lon="6.03029">
        <ele>259.6</ele>
        <time>2021-03-07T10:38:38Z</time>
      </trkpt>
      <trkpt lat="47.22987" lon="6.03024">
        <ele>259.4</ele>
        <time>2021-03-07T10:38:39Z</time>
      </trkpt>
      <trkpt lat="47.22988" lon="6.0301">
        <ele>259.8</ele>
        <time>2021-03-07T10:38:41Z</time>
      </trkpt>
      <trkpt lat="47.22988" lon="6.03004">
        <ele>259.8</ele>
        <time>2021-03-07T10:38:42Z</time>
      </trkpt>
      <trkpt lat="47.2299" lon="6.02997">
        <ele>259.8</ele>
        <time>2021-03-07T10:38:43Z</time>
      </trkpt>
      <trkpt lat="47.22998" lon="6.02968">
        <ele>259.4</ele>
        <time>2021-03-07T10:38:46Z</time>
      </trkpt>
      <trkpt lat="47.23009" lon="6.0293">
        <ele>258.6</ele>
        <time>2021-03-07T10:38:50Z</time>
      </trkpt>
      <trkpt lat="47.23013" lon="6.0292">
        <ele>258.2</ele>
        <time>2021-03-07T10:38:51Z</time>
      </trkpt>
      <trkpt lat="47.23016" lon="6.02912">
        <ele>257.4</ele>
        <time>2021-03-07T10:38:52Z</time>
      </trkpt>
      <trkpt lat="47.23018" lon="6.02905">
        <ele>257</ele>
        <time>2021-03-07T10:38:53Z</time>
      </trkpt>
      <trkpt lat="47.2302" lon="6.02898">
        <ele>256.8</ele>
        <time>2021-03-07T10:38:54Z</time>
      </trkpt>
      <trkpt lat="47.23022" lon="6.0289">
        <ele>256.6</ele>
        <time>2021-03-07T10:38:55Z</time>
      </trkpt>
      <trkpt lat="47.23025" lon="6.02881">
        <ele>256.6</ele>
        <time>2021-03-07T10:38:56Z</time>
      </trkpt>
      <trkpt lat="47.23028" lon="6.02867">
        <ele>256.4</ele>
        <time>2021-03-07T10:38:58Z</time>
      </trkpt>
      <trkpt lat="47.2303" lon="6.02859">
        <ele>256.4</ele>
        <time>2021-03-07T10:38:59Z</time>
      </trkpt>
      <trkpt lat="47.23031" lon="6.02852">
        <ele>256.4</ele>
        <time>2021-03-07T10:39:00Z</time>
      </trkpt>
      <trkpt lat="47.23034" lon="6.02844">
        <ele>256.4</ele>
        <time>2021-03-07T10:39:01Z</time>
      </trkpt>
      <trkpt lat="47.23035" lon="6.02839">
        <ele>256.4</ele>
        <time>2021-03-07T10:39:02Z</time>
      </trkpt>
      <trkpt lat="47.23037" lon="6.02833">
        <ele>256.6</ele>
        <time>2021-03-07T10:39:03Z</time>
      </trkpt>
      <trkpt lat="47.23039" lon="6.02827">
        <ele>256.6</ele>
        <time>2021-03-07T10:39:04Z</time>
      </trkpt>
      <trkpt lat="47.23041" lon="6.02822">
        <ele>257</ele>
        <time>2021-03-07T10:39:05Z</time>
      </trkpt>
      <trkpt lat="47.23042" lon="6.02816">
        <ele>257</ele>
        <time>2021-03-07T10:39:06Z</time>
      </trkpt>
      <trkpt lat="47.23044" lon="6.02811">
        <ele>257.2</ele>
        <time>2021-03-07T10:39:07Z</time>
      </trkpt>
      <trkpt lat="47.23046" lon="6.02805">
        <ele>257.2</ele>
        <time>2021-03-07T10:39:08Z</time>
      </trkpt>
      <trkpt lat="47.23047" lon="6.02793">
        <ele>257.2</ele>
        <time>2021-03-07T10:39:10Z</time>
      </trkpt>
      <trkpt lat="47.23049" lon="6.02779">
        <ele>257</ele>
        <time>2021-03-07T10:39:12Z</time>
      </trkpt>
      <trkpt lat="47.23052" lon="6.02768">
        <ele>256.8</ele>
        <time>2021-03-07T10:39:14Z</time>
      </trkpt>
      <trkpt lat="47.23054" lon="6.02762">
        <ele>256.6</ele>
        <time>2021-03-07T10:39:15Z</time>
      </trkpt>
      <trkpt lat="47.23056" lon="6.02756">
        <ele>256.4</ele>
        <time>2021-03-07T10:39:16Z</time>
      </trkpt>
      <trkpt lat="47.23058" lon="6.02752">
        <ele>256</ele>
        <time>2021-03-07T10:39:17Z</time>
      </trkpt>
      <trkpt lat="47.23061" lon="6.02747">
        <ele>256</ele>
        <time>2021-03-07T10:39:18Z</time>
      </trkpt>
      <trkpt lat="47.23062" lon="6.02742">
        <ele>255.8</ele>
        <time>2021-03-07T10:39:19Z</time>
      </trkpt>
      <trkpt lat="47.23063" lon="6.02735">
        <ele>255.8</ele>
        <time>2021-03-07T10:39:20Z</time>
      </trkpt>
      <trkpt lat="47.23066" lon="6.02721">
        <ele>255.6</ele>
        <time>2021-03-07T10:39:22Z</time>
      </trkpt>
      <trkpt lat="47.23068" lon="6.02709">
        <ele>255.6</ele>
        <time>2021-03-07T10:39:24Z</time>
      </trkpt>
      <trkpt lat="47.2307" lon="6.02689">
        <ele>255.6</ele>
        <time>2021-03-07T10:39:27Z</time>
      </trkpt>
      <trkpt lat="47.23071" lon="6.02676">
        <ele>255.6</ele>
        <time>2021-03-07T10:39:29Z</time>
      </trkpt>
      <trkpt lat="47.23072" lon="6.02662">
        <ele>255.4</ele>
        <time>2021-03-07T10:39:31Z</time>
      </trkpt>
      <trkpt lat="47.23075" lon="6.02618">
        <ele>255.2</ele>
        <time>2021-03-07T10:39:37Z</time>
      </trkpt>
      <trkpt lat="47.23076" lon="6.02612">
        <ele>255.2</ele>
        <time>2021-03-07T10:39:38Z</time>
      </trkpt>
      <trkpt lat="47.23076" lon="6.02607">
        <ele>255.2</ele>
        <time>2021-03-07T10:39:39Z</time>
      </trkpt>
      <trkpt lat="47.23077" lon="6.02601">
        <ele>255.2</ele>
        <time>2021-03-07T10:39:40Z</time>
      </trkpt>
      <trkpt lat="47.23076" lon="6.02595">
        <ele>255.2</ele>
        <time>2021-03-07T10:39:41Z</time>
      </trkpt>
      <trkpt lat="47.23076" lon="6.02589">
        <ele>255.2</ele>
        <time>2021-03-07T10:39:42Z</time>
      </trkpt>
      <trkpt lat="47.23076" lon="6.02583">
        <ele>255.2</ele>
        <time>2021-03-07T10:39:43Z</time>
      </trkpt>
      <trkpt lat="47.23076" lon="6.02578">
        <ele>255.2</ele>
        <time>2021-03-07T10:39:44Z</time>
      </trkpt>
      <trkpt lat="47.23077" lon="6.02572">
        <ele>255.2</ele>
        <time>2021-03-07T10:39:45Z</time>
      </trkpt>
      <trkpt lat="47.23078" lon="6.02543">
        <ele>255.4</ele>
        <time>2021-03-07T10:39:49Z</time>
      </trkpt>
      <trkpt lat="47.23078" lon="6.02528">
        <ele>255.4</ele>
        <time>2021-03-07T10:39:51Z</time>
      </trkpt>
      <trkpt lat="47.23077" lon="6.02482">
        <ele>255.4</ele>
        <time>2021-03-07T10:39:57Z</time>
      </trkpt>
      <trkpt lat="47.23075" lon="6.02468">
        <ele>255.4</ele>
        <time>2021-03-07T10:39:59Z</time>
      </trkpt>
      <trkpt lat="47.23075" lon="6.02443">
        <ele>255.6</ele>
        <time>2021-03-07T10:40:02Z</time>
      </trkpt>
      <trkpt lat="47.23077" lon="6.02423">
        <ele>255.8</ele>
        <time>2021-03-07T10:40:05Z</time>
      </trkpt>
      <trkpt lat="47.23077" lon="6.024">
        <ele>256</ele>
        <time>2021-03-07T10:40:08Z</time>
      </trkpt>
      <trkpt lat="47.23077" lon="6.02394">
        <ele>256</ele>
        <time>2021-03-07T10:40:09Z</time>
      </trkpt>
      <trkpt lat="47.23077" lon="6.02387">
        <ele>256</ele>
        <time>2021-03-07T10:40:10Z</time>
      </trkpt>
      <trkpt lat="47.23077" lon="6.0238">
        <ele>256</ele>
        <time>2021-03-07T10:40:11Z</time>
      </trkpt>
      <trkpt lat="47.23078" lon="6.02366">
        <ele>256</ele>
        <time>2021-03-07T10:40:13Z</time>
      </trkpt>
      <trkpt lat="47.2308" lon="6.02359">
        <ele>256.2</ele>
        <time>2021-03-07T10:40:14Z</time>
      </trkpt>
      <trkpt lat="47.23084" lon="6.02347">
        <ele>256.2</ele>
        <time>2021-03-07T10:40:16Z</time>
      </trkpt>
      <trkpt lat="47.23085" lon="6.02341">
        <ele>256.2</ele>
        <time>2021-03-07T10:40:17Z</time>
      </trkpt>
      <trkpt lat="47.23084" lon="6.02336">
        <ele>256.4</ele>
        <time>2021-03-07T10:40:18Z</time>
      </trkpt>
      <trkpt lat="47.23082" lon="6.02332">
        <ele>256.4</ele>
        <time>2021-03-07T10:40:19Z</time>
      </trkpt>
      <trkpt lat="47.2308" lon="6.02329">
        <ele>256.4</ele>
        <time>2021-03-07T10:40:20Z</time>
      </trkpt>
      <trkpt lat="47.23078" lon="6.02326">
        <ele>256.4</ele>
        <time>2021-03-07T10:40:21Z</time>
      </trkpt>
      <trkpt lat="47.23077" lon="6.0232">
        <ele>256.8</ele>
        <time>2021-03-07T10:40:22Z</time>
      </trkpt>
      <trkpt lat="47.23077" lon="6.02314">
        <ele>256.8</ele>
        <time>2021-03-07T10:40:23Z</time>
      </trkpt>
      <trkpt lat="47.23082" lon="6.02302">
        <ele>256.8</ele>
        <time>2021-03-07T10:40:25Z</time>
      </trkpt>
      <trkpt lat="47.23085" lon="6.02296">
        <ele>256.8</ele>
        <time>2021-03-07T10:40:26Z</time>
      </trkpt>
      <trkpt lat="47.23089" lon="6.0229">
        <ele>256.8</ele>
        <time>2021-03-07T10:40:27Z</time>
      </trkpt>
      <trkpt lat="47.23092" lon="6.02286">
        <ele>256.8</ele>
        <time>2021-03-07T10:40:28Z</time>
      </trkpt>
      <trkpt lat="47.23103" lon="6.02275">
        <ele>256.4</ele>
        <time>2021-03-07T10:40:31Z</time>
      </trkpt>
      <trkpt lat="47.23108" lon="6.02273">
        <ele>256.4</ele>
        <time>2021-03-07T10:40:32Z</time>
      </trkpt>
      <trkpt lat="47.23112" lon="6.02273">
        <ele>256.4</ele>
        <time>2021-03-07T10:40:33Z</time>
      </trkpt>
      <trkpt lat="47.23116" lon="6.02273">
        <ele>256.2</ele>
        <time>2021-03-07T10:40:34Z</time>
      </trkpt>
      <trkpt lat="47.2312" lon="6.02273">
        <ele>256</ele>
        <time>2021-03-07T10:40:35Z</time>
      </trkpt>
      <trkpt lat="47.23124" lon="6.02273">
        <ele>256</ele>
        <time>2021-03-07T10:40:36Z</time>
      </trkpt>
      <trkpt lat="47.23127" lon="6.02273">
        <ele>255.8</ele>
        <time>2021-03-07T10:40:37Z</time>
      </trkpt>
      <trkpt lat="47.2313" lon="6.02273">
        <ele>256</ele>
        <time>2021-03-07T10:40:38Z</time>
      </trkpt>
      <trkpt lat="47.23133" lon="6.02272">
        <ele>255.8</ele>
        <time>2021-03-07T10:40:39Z</time>
      </trkpt>
      <trkpt lat="47.23135" lon="6.02271">
        <ele>255.8</ele>
        <time>2021-03-07T10:40:40Z</time>
      </trkpt>
      <trkpt lat="47.23137" lon="6.02268">
        <ele>255.6</ele>
        <time>2021-03-07T10:40:41Z</time>
      </trkpt>
      <trkpt lat="47.23137" lon="6.02263">
        <ele>255.6</ele>
        <time>2021-03-07T10:40:42Z</time>
      </trkpt>
      <trkpt lat="47.23136" lon="6.02258">
        <ele>255.6</ele>
        <time>2021-03-07T10:40:43Z</time>
      </trkpt>
      <trkpt lat="47.23134" lon="6.02248">
        <ele>255.6</ele>
        <time>2021-03-07T10:40:45Z</time>
      </trkpt>
      <trkpt lat="47.23133" lon="6.02242">
        <ele>255.6</ele>
        <time>2021-03-07T10:40:46Z</time>
      </trkpt>
      <trkpt lat="47.23131" lon="6.02222">
        <ele>255.6</ele>
        <time>2021-03-07T10:40:49Z</time>
      </trkpt>
      <trkpt lat="47.23128" lon="6.02196">
        <ele>255.6</ele>
        <time>2021-03-07T10:40:53Z</time>
      </trkpt>
      <trkpt lat="47.23126" lon="6.02189">
        <ele>255.6</ele>
        <time>2021-03-07T10:40:54Z</time>
      </trkpt>
      <trkpt lat="47.23123" lon="6.02175">
        <ele>255.6</ele>
        <time>2021-03-07T10:40:56Z</time>
      </trkpt>
      <trkpt lat="47.23116" lon="6.02137">
        <ele>256</ele>
        <time>2021-03-07T10:41:02Z</time>
      </trkpt>
      <trkpt lat="47.23115" lon="6.02131">
        <ele>256.2</ele>
        <time>2021-03-07T10:41:03Z</time>
      </trkpt>
      <trkpt lat="47.23115" lon="6.02125">
        <ele>256.2</ele>
        <time>2021-03-07T10:41:04Z</time>
      </trkpt>
      <trkpt lat="47.23115" lon="6.02119">
        <ele>256.4</ele>
        <time>2021-03-07T10:41:05Z</time>
      </trkpt>
      <trkpt lat="47.23115" lon="6.02114">
        <ele>256.6</ele>
        <time>2021-03-07T10:41:06Z</time>
      </trkpt>
      <trkpt lat="47.23114" lon="6.02109">
        <ele>256.6</ele>
        <time>2021-03-07T10:41:07Z</time>
      </trkpt>
      <trkpt lat="47.23114" lon="6.02104">
        <ele>256.8</ele>
        <time>2021-03-07T10:41:08Z</time>
      </trkpt>
      <trkpt lat="47.23114" lon="6.021">
        <ele>257</ele>
        <time>2021-03-07T10:41:09Z</time>
      </trkpt>
      <trkpt lat="47.23114" lon="6.02097">
        <ele>257.4</ele>
        <time>2021-03-07T10:41:10Z</time>
      </trkpt>
      <trkpt lat="47.23114" lon="6.02093">
        <ele>257.4</ele>
        <time>2021-03-07T10:41:11Z</time>
      </trkpt>
      <trkpt lat="47.23114" lon="6.0209">
        <ele>257.6</ele>
        <time>2021-03-07T10:41:12Z</time>
      </trkpt>
      <trkpt lat="47.23113" lon="6.02086">
        <ele>257.6</ele>
        <time>2021-03-07T10:41:13Z</time>
      </trkpt>
      <trkpt lat="47.23112" lon="6.02082">
        <ele>257.6</ele>
        <time>2021-03-07T10:41:14Z</time>
      </trkpt>
      <trkpt lat="47.23109" lon="6.02043">
        <ele>257.8</ele>
        <time>2021-03-07T10:41:21Z</time>
      </trkpt>
      <trkpt lat="47.23109" lon="6.01998">
        <ele>257.6</ele>
        <time>2021-03-07T10:41:28Z</time>
      </trkpt>
      <trkpt lat="47.23109" lon="6.01991">
        <ele>257.6</ele>
        <time>2021-03-07T10:41:29Z</time>
      </trkpt>
      <trkpt lat="47.23109" lon="6.01977">
        <ele>257.6</ele>
        <time>2021-03-07T10:41:31Z</time>
      </trkpt>
      <trkpt lat="47.2311" lon="6.01971">
        <ele>257.4</ele>
        <time>2021-03-07T10:41:32Z</time>
      </trkpt>
      <trkpt lat="47.23111" lon="6.01966">
        <ele>257.4</ele>
        <time>2021-03-07T10:41:33Z</time>
      </trkpt>
      <trkpt lat="47.23112" lon="6.01962">
        <ele>257.2</ele>
        <time>2021-03-07T10:41:34Z</time>
      </trkpt>
      <trkpt lat="47.23111" lon="6.01959">
        <ele>257.2</ele>
        <time>2021-03-07T10:41:35Z</time>
      </trkpt>
      <trkpt lat="47.23109" lon="6.01955">
        <ele>257.2</ele>
        <time>2021-03-07T10:41:36Z</time>
      </trkpt>
      <trkpt lat="47.23106" lon="6.01952">
        <ele>257.2</ele>
        <time>2021-03-07T10:41:37Z</time>
      </trkpt>
      <trkpt lat="47.23103" lon="6.0195">
        <ele>257.2</ele>
        <time>2021-03-07T10:41:38Z</time>
      </trkpt>
      <trkpt lat="47.23099" lon="6.01948">
        <ele>257.2</ele>
        <time>2021-03-07T10:41:39Z</time>
      </trkpt>
      <trkpt lat="47.23096" lon="6.01945">
        <ele>257.2</ele>
        <time>2021-03-07T10:41:40Z</time>
      </trkpt>
      <trkpt lat="47.23093" lon="6.0194">
        <ele>257.4</ele>
        <time>2021-03-07T10:41:41Z</time>
      </trkpt>
      <trkpt lat="47.23091" lon="6.01935">
        <ele>257.4</ele>
        <time>2021-03-07T10:41:42Z</time>
      </trkpt>
      <trkpt lat="47.2309" lon="6.0193">
        <ele>257.2</ele>
        <time>2021-03-07T10:41:43Z</time>
      </trkpt>
      <trkpt lat="47.23089" lon="6.01924">
        <ele>257.2</ele>
        <time>2021-03-07T10:41:44Z</time>
      </trkpt>
      <trkpt lat="47.23088" lon="6.01918">
        <ele>257.2</ele>
        <time>2021-03-07T10:41:45Z</time>
      </trkpt>
      <trkpt lat="47.23087" lon="6.01911">
        <ele>257.2</ele>
        <time>2021-03-07T10:41:46Z</time>
      </trkpt>
      <trkpt lat="47.23086" lon="6.01905">
        <ele>257.4</ele>
        <time>2021-03-07T10:41:47Z</time>
      </trkpt>
      <trkpt lat="47.23085" lon="6.01879">
        <ele>257.4</ele>
        <time>2021-03-07T10:41:51Z</time>
      </trkpt>
      <trkpt lat="47.23086" lon="6.01874">
        <ele>257.4</ele>
        <time>2021-03-07T10:41:52Z</time>
      </trkpt>
      <trkpt lat="47.2309" lon="6.01864">
        <ele>257.4</ele>
        <time>2021-03-07T10:41:54Z</time>
      </trkpt>
      <trkpt lat="47.23091" lon="6.01858">
        <ele>257.4</ele>
        <time>2021-03-07T10:41:55Z</time>
      </trkpt>
      <trkpt lat="47.23091" lon="6.01853">
        <ele>257.4</ele>
        <time>2021-03-07T10:41:56Z</time>
      </trkpt>
      <trkpt lat="47.23092" lon="6.01847">
        <ele>257.4</ele>
        <time>2021-03-07T10:41:57Z</time>
      </trkpt>
      <trkpt lat="47.23092" lon="6.01841">
        <ele>257.4</ele>
        <time>2021-03-07T10:41:58Z</time>
      </trkpt>
      <trkpt lat="47.23094" lon="6.01824">
        <ele>257.6</ele>
        <time>2021-03-07T10:42:01Z</time>
      </trkpt>
      <trkpt lat="47.23099" lon="6.01815">
        <ele>257.6</ele>
        <time>2021-03-07T10:42:03Z</time>
      </trkpt>
      <trkpt lat="47.23102" lon="6.0181">
        <ele>257.6</ele>
        <time>2021-03-07T10:42:04Z</time>
      </trkpt>
      <trkpt lat="47.23105" lon="6.01804">
        <ele>257.6</ele>
        <time>2021-03-07T10:42:05Z</time>
      </trkpt>
      <trkpt lat="47.2312" lon="6.01782">
        <ele>257.6</ele>
        <time>2021-03-07T10:42:10Z</time>
      </trkpt>
      <trkpt lat="47.23123" lon="6.0178">
        <ele>257.6</ele>
        <time>2021-03-07T10:42:11Z</time>
      </trkpt>
      <trkpt lat="47.23126" lon="6.01778">
        <ele>257.6</ele>
        <time>2021-03-07T10:42:12Z</time>
      </trkpt>
      <trkpt lat="47.23129" lon="6.01776">
        <ele>257.6</ele>
        <time>2021-03-07T10:42:13Z</time>
      </trkpt>
      <trkpt lat="47.23132" lon="6.01773">
        <ele>257.6</ele>
        <time>2021-03-07T10:42:14Z</time>
      </trkpt>
      <trkpt lat="47.23136" lon="6.0177">
        <ele>257.6</ele>
        <time>2021-03-07T10:42:15Z</time>
      </trkpt>
      <trkpt lat="47.23158" lon="6.01749">
        <ele>257.6</ele>
        <time>2021-03-07T10:42:21Z</time>
      </trkpt>
      <trkpt lat="47.23165" lon="6.01744">
        <ele>257.6</ele>
        <time>2021-03-07T10:42:23Z</time>
      </trkpt>
      <trkpt lat="47.23168" lon="6.01743">
        <ele>257.6</ele>
        <time>2021-03-07T10:42:24Z</time>
      </trkpt>
      <trkpt lat="47.23171" lon="6.01742">
        <ele>257.6</ele>
        <time>2021-03-07T10:42:25Z</time>
      </trkpt>
      <trkpt lat="47.23174" lon="6.0174">
        <ele>257.6</ele>
        <time>2021-03-07T10:42:26Z</time>
      </trkpt>
      <trkpt lat="47.23177" lon="6.01739">
        <ele>257.6</ele>
        <time>2021-03-07T10:42:27Z</time>
      </trkpt>
      <trkpt lat="47.2318" lon="6.01737">
        <ele>257.6</ele>
        <time>2021-03-07T10:42:28Z</time>
      </trkpt>
      <trkpt lat="47.23183" lon="6.01737">
        <ele>257.6</ele>
        <time>2021-03-07T10:42:29Z</time>
      </trkpt>
      <trkpt lat="47.23198" lon="6.01733">
        <ele>257.6</ele>
        <time>2021-03-07T10:42:33Z</time>
      </trkpt>
      <trkpt lat="47.23222" lon="6.01725">
        <ele>258</ele>
        <time>2021-03-07T10:42:39Z</time>
      </trkpt>
      <trkpt lat="47.23231" lon="6.01721">
        <ele>258.2</ele>
        <time>2021-03-07T10:42:41Z</time>
      </trkpt>
      <trkpt lat="47.2324" lon="6.01717">
        <ele>258.2</ele>
        <time>2021-03-07T10:42:43Z</time>
      </trkpt>
      <trkpt lat="47.23248" lon="6.01721">
        <ele>258.4</ele>
        <time>2021-03-07T10:42:45Z</time>
      </trkpt>
      <trkpt lat="47.23252" lon="6.01723">
        <ele>258.4</ele>
        <time>2021-03-07T10:42:46Z</time>
      </trkpt>
      <trkpt lat="47.23256" lon="6.01726">
        <ele>258.6</ele>
        <time>2021-03-07T10:42:47Z</time>
      </trkpt>
      <trkpt lat="47.2326" lon="6.01728">
        <ele>258.6</ele>
        <time>2021-03-07T10:42:48Z</time>
      </trkpt>
      <trkpt lat="47.23263" lon="6.01729">
        <ele>258.8</ele>
        <time>2021-03-07T10:42:49Z</time>
      </trkpt>
      <trkpt lat="47.23267" lon="6.0173">
        <ele>258.8</ele>
        <time>2021-03-07T10:42:50Z</time>
      </trkpt>
      <trkpt lat="47.23271" lon="6.0173">
        <ele>259.2</ele>
        <time>2021-03-07T10:42:51Z</time>
      </trkpt>
      <trkpt lat="47.23276" lon="6.0173">
        <ele>259.2</ele>
        <time>2021-03-07T10:42:52Z</time>
      </trkpt>
      <trkpt lat="47.23304" lon="6.01729">
        <ele>260</ele>
        <time>2021-03-07T10:42:58Z</time>
      </trkpt>
      <trkpt lat="47.23324" lon="6.01726">
        <ele>260.2</ele>
        <time>2021-03-07T10:43:02Z</time>
      </trkpt>
      <trkpt lat="47.23329" lon="6.01725">
        <ele>260.2</ele>
        <time>2021-03-07T10:43:03Z</time>
      </trkpt>
      <trkpt lat="47.2334" lon="6.01724">
        <ele>260.4</ele>
        <time>2021-03-07T10:43:05Z</time>
      </trkpt>
      <trkpt lat="47.23361" lon="6.01722">
        <ele>260.4</ele>
        <time>2021-03-07T10:43:09Z</time>
      </trkpt>
      <trkpt lat="47.23386" lon="6.0172">
        <ele>260</ele>
        <time>2021-03-07T10:43:14Z</time>
      </trkpt>
      <trkpt lat="47.23397" lon="6.0172">
        <ele>260</ele>
        <time>2021-03-07T10:43:16Z</time>
      </trkpt>
      <trkpt lat="47.23401" lon="6.01716">
        <ele>260.2</ele>
        <time>2021-03-07T10:43:17Z</time>
      </trkpt>
      <trkpt lat="47.23401" lon="6.01716">
        <ele>260.2</ele>
        <time>2021-03-07T10:43:18Z</time>
      </trkpt>
      <trkpt lat="47.23401" lon="6.01713">
        <ele>260.4</ele>
        <time>2021-03-07T10:43:19Z</time>
      </trkpt>
      <trkpt lat="47.234" lon="6.01709">
        <ele>260.4</ele>
        <time>2021-03-07T10:43:20Z</time>
      </trkpt>
      <trkpt lat="47.23398" lon="6.01704">
        <ele>260.4</ele>
        <time>2021-03-07T10:43:21Z</time>
      </trkpt>
      <trkpt lat="47.234" lon="6.01691">
        <ele>260.6</ele>
        <time>2021-03-07T10:43:22Z</time>
      </trkpt>
      <trkpt lat="47.234" lon="6.01691">
        <ele>260.6</ele>
        <time>2021-03-07T10:43:23Z</time>
      </trkpt>
      <trkpt lat="47.23402" lon="6.01683">
        <ele>260.2</ele>
        <time>2021-03-07T10:43:24Z</time>
      </trkpt>
      <trkpt lat="47.23412" lon="6.01674">
        <ele>260.2</ele>
        <time>2021-03-07T10:43:26Z</time>
      </trkpt>
      <trkpt lat="47.23417" lon="6.01672">
        <ele>260.2</ele>
        <time>2021-03-07T10:43:27Z</time>
      </trkpt>
      <trkpt lat="47.2344" lon="6.01672">
        <ele>258.8</ele>
        <time>2021-03-07T10:43:31Z</time>
      </trkpt>
      <trkpt lat="47.23451" lon="6.01672">
        <ele>258</ele>
        <time>2021-03-07T10:43:33Z</time>
      </trkpt>
      <trkpt lat="47.23462" lon="6.01671">
        <ele>257.4</ele>
        <time>2021-03-07T10:43:35Z</time>
      </trkpt>
      <trkpt lat="47.23467" lon="6.01673">
        <ele>257.4</ele>
        <time>2021-03-07T10:43:36Z</time>
      </trkpt>
      <trkpt lat="47.23472" lon="6.01677">
        <ele>257.2</ele>
        <time>2021-03-07T10:43:37Z</time>
      </trkpt>
      <trkpt lat="47.23477" lon="6.01681">
        <ele>257</ele>
        <time>2021-03-07T10:43:38Z</time>
      </trkpt>
      <trkpt lat="47.23482" lon="6.01685">
        <ele>257</ele>
        <time>2021-03-07T10:43:39Z</time>
      </trkpt>
      <trkpt lat="47.23487" lon="6.0169">
        <ele>256.8</ele>
        <time>2021-03-07T10:43:40Z</time>
      </trkpt>
      <trkpt lat="47.23491" lon="6.01694">
        <ele>256.8</ele>
        <time>2021-03-07T10:43:41Z</time>
      </trkpt>
      <trkpt lat="47.23496" lon="6.01697">
        <ele>256.8</ele>
        <time>2021-03-07T10:43:42Z</time>
      </trkpt>
      <trkpt lat="47.23509" lon="6.01703">
        <ele>256.8</ele>
        <time>2021-03-07T10:43:45Z</time>
      </trkpt>
      <trkpt lat="47.23514" lon="6.01705">
        <ele>256.6</ele>
        <time>2021-03-07T10:43:46Z</time>
      </trkpt>
      <trkpt lat="47.2352" lon="6.01707">
        <ele>256.6</ele>
        <time>2021-03-07T10:43:48Z</time>
      </trkpt>
      <trkpt lat="47.23524" lon="6.01706">
        <ele>256.6</ele>
        <time>2021-03-07T10:43:49Z</time>
      </trkpt>
      <trkpt lat="47.23529" lon="6.01706">
        <ele>256.6</ele>
        <time>2021-03-07T10:43:50Z</time>
      </trkpt>
      <trkpt lat="47.23539" lon="6.01707">
        <ele>256.6</ele>
        <time>2021-03-07T10:43:52Z</time>
      </trkpt>
      <trkpt lat="47.23545" lon="6.01708">
        <ele>256.4</ele>
        <time>2021-03-07T10:43:53Z</time>
      </trkpt>
      <trkpt lat="47.2355" lon="6.0171">
        <ele>256.4</ele>
        <time>2021-03-07T10:43:54Z</time>
      </trkpt>
      <trkpt lat="47.23566" lon="6.01714">
        <ele>256</ele>
        <time>2021-03-07T10:43:57Z</time>
      </trkpt>
      <trkpt lat="47.23571" lon="6.01716">
        <ele>256</ele>
        <time>2021-03-07T10:43:58Z</time>
      </trkpt>
      <trkpt lat="47.23575" lon="6.01719">
        <ele>256.2</ele>
        <time>2021-03-07T10:43:59Z</time>
      </trkpt>
      <trkpt lat="47.23579" lon="6.01721">
        <ele>256.2</ele>
        <time>2021-03-07T10:44:00Z</time>
      </trkpt>
      <trkpt lat="47.23584" lon="6.01724">
        <ele>256.4</ele>
        <time>2021-03-07T10:44:01Z</time>
      </trkpt>
      <trkpt lat="47.23606" lon="6.01732">
        <ele>256.6</ele>
        <time>2021-03-07T10:44:05Z</time>
      </trkpt>
      <trkpt lat="47.23653" lon="6.01748">
        <ele>256.2</ele>
        <time>2021-03-07T10:44:13Z</time>
      </trkpt>
      <trkpt lat="47.23675" lon="6.01758">
        <ele>256</ele>
        <time>2021-03-07T10:44:17Z</time>
      </trkpt>
      <trkpt lat="47.23685" lon="6.01764">
        <ele>256.2</ele>
        <time>2021-03-07T10:44:19Z</time>
      </trkpt>
      <trkpt lat="47.23695" lon="6.01773">
        <ele>256.6</ele>
        <time>2021-03-07T10:44:21Z</time>
      </trkpt>
      <trkpt lat="47.23704" lon="6.01783">
        <ele>256.8</ele>
        <time>2021-03-07T10:44:23Z</time>
      </trkpt>
      <trkpt lat="47.23708" lon="6.01788">
        <ele>256.6</ele>
        <time>2021-03-07T10:44:24Z</time>
      </trkpt>
      <trkpt lat="47.23713" lon="6.01792">
        <ele>256.6</ele>
        <time>2021-03-07T10:44:25Z</time>
      </trkpt>
      <trkpt lat="47.23718" lon="6.01796">
        <ele>256.4</ele>
        <time>2021-03-07T10:44:26Z</time>
      </trkpt>
      <trkpt lat="47.23728" lon="6.01805">
        <ele>256.2</ele>
        <time>2021-03-07T10:44:28Z</time>
      </trkpt>
      <trkpt lat="47.23733" lon="6.01809">
        <ele>256.2</ele>
        <time>2021-03-07T10:44:29Z</time>
      </trkpt>
      <trkpt lat="47.23737" lon="6.01814">
        <ele>256.4</ele>
        <time>2021-03-07T10:44:30Z</time>
      </trkpt>
      <trkpt lat="47.23756" lon="6.01831">
        <ele>256.2</ele>
        <time>2021-03-07T10:44:34Z</time>
      </trkpt>
      <trkpt lat="47.2379" lon="6.01875">
        <ele>256.6</ele>
        <time>2021-03-07T10:44:42Z</time>
      </trkpt>
      <trkpt lat="47.23801" lon="6.0189">
        <ele>256.6</ele>
        <time>2021-03-07T10:44:45Z</time>
      </trkpt>
      <trkpt lat="47.23813" lon="6.01904">
        <ele>256.8</ele>
        <time>2021-03-07T10:44:48Z</time>
      </trkpt>
      <trkpt lat="47.23816" lon="6.01909">
        <ele>256.8</ele>
        <time>2021-03-07T10:44:49Z</time>
      </trkpt>
      <trkpt lat="47.23819" lon="6.01914">
        <ele>256.8</ele>
        <time>2021-03-07T10:44:50Z</time>
      </trkpt>
      <trkpt lat="47.23827" lon="6.01923">
        <ele>256.6</ele>
        <time>2021-03-07T10:44:52Z</time>
      </trkpt>
      <trkpt lat="47.23834" lon="6.01931">
        <ele>256.6</ele>
        <time>2021-03-07T10:44:53Z</time>
      </trkpt>
      <trkpt lat="47.23834" lon="6.01931">
        <ele>256.8</ele>
        <time>2021-03-07T10:44:54Z</time>
      </trkpt>
      <trkpt lat="47.23838" lon="6.01935">
        <ele>256.8</ele>
        <time>2021-03-07T10:44:55Z</time>
      </trkpt>
      <trkpt lat="47.23841" lon="6.0194">
        <ele>256.8</ele>
        <time>2021-03-07T10:44:56Z</time>
      </trkpt>
      <trkpt lat="47.23869" lon="6.0197">
        <ele>256.6</ele>
        <time>2021-03-07T10:45:02Z</time>
      </trkpt>
      <trkpt lat="47.23872" lon="6.01973">
        <ele>256.6</ele>
        <time>2021-03-07T10:45:03Z</time>
      </trkpt>
      <trkpt lat="47.23875" lon="6.01976">
        <ele>256.6</ele>
        <time>2021-03-07T10:45:04Z</time>
      </trkpt>
      <trkpt lat="47.23877" lon="6.01978">
        <ele>256.6</ele>
        <time>2021-03-07T10:45:05Z</time>
      </trkpt>
      <trkpt lat="47.23878" lon="6.01979">
        <ele>256.6</ele>
        <time>2021-03-07T10:45:06Z</time>
      </trkpt>
      <trkpt lat="47.2388" lon="6.01982">
        <ele>256.6</ele>
        <time>2021-03-07T10:45:07Z</time>
      </trkpt>
      <trkpt lat="47.2388" lon="6.01982">
        <ele>256.6</ele>
        <time>2021-03-07T10:45:08Z</time>
      </trkpt>
      <trkpt lat="47.23894" lon="6.02">
        <ele>256.6</ele>
        <time>2021-03-07T10:45:12Z</time>
      </trkpt>
      <trkpt lat="47.23913" lon="6.02023">
        <ele>256.4</ele>
        <time>2021-03-07T10:45:18Z</time>
      </trkpt>
      <trkpt lat="47.23916" lon="6.02027">
        <ele>256.4</ele>
        <time>2021-03-07T10:45:19Z</time>
      </trkpt>
      <trkpt lat="47.23926" lon="6.02038">
        <ele>256.6</ele>
        <time>2021-03-07T10:45:22Z</time>
      </trkpt>
      <trkpt lat="47.23941" lon="6.02055">
        <ele>256.8</ele>
        <time>2021-03-07T10:45:27Z</time>
      </trkpt>
      <trkpt lat="47.23944" lon="6.02059">
        <ele>257</ele>
        <time>2021-03-07T10:45:28Z</time>
      </trkpt>
      <trkpt lat="47.23947" lon="6.02064">
        <ele>257</ele>
        <time>2021-03-07T10:45:29Z</time>
      </trkpt>
      <trkpt lat="47.2395" lon="6.02068">
        <ele>257</ele>
        <time>2021-03-07T10:45:30Z</time>
      </trkpt>
      <trkpt lat="47.23953" lon="6.02071">
        <ele>257</ele>
        <time>2021-03-07T10:45:31Z</time>
      </trkpt>
      <trkpt lat="47.23956" lon="6.02074">
        <ele>257</ele>
        <time>2021-03-07T10:45:32Z</time>
      </trkpt>
      <trkpt lat="47.2396" lon="6.0208">
        <ele>256.8</ele>
        <time>2021-03-07T10:45:34Z</time>
      </trkpt>
      <trkpt lat="47.23962" lon="6.02082">
        <ele>256.8</ele>
        <time>2021-03-07T10:45:35Z</time>
      </trkpt>
      <trkpt lat="47.23964" lon="6.02085">
        <ele>256.8</ele>
        <time>2021-03-07T10:45:36Z</time>
      </trkpt>
      <trkpt lat="47.23964" lon="6.02085">
        <ele>256.8</ele>
        <time>2021-03-07T10:45:37Z</time>
      </trkpt>
      <trkpt lat="47.2398" lon="6.02106">
        <ele>256.6</ele>
        <time>2021-03-07T10:45:41Z</time>
      </trkpt>
      <trkpt lat="47.24006" lon="6.02137">
        <ele>257</ele>
        <time>2021-03-07T10:45:49Z</time>
      </trkpt>
      <trkpt lat="47.24013" lon="6.02145">
        <ele>257.4</ele>
        <time>2021-03-07T10:45:51Z</time>
      </trkpt>
      <trkpt lat="47.24026" lon="6.02164">
        <ele>257.4</ele>
        <time>2021-03-07T10:45:56Z</time>
      </trkpt>
      <trkpt lat="47.24026" lon="6.02164">
        <ele>257.4</ele>
        <time>2021-03-07T10:45:57Z</time>
      </trkpt>
      <trkpt lat="47.24029" lon="6.0217">
        <ele>257.4</ele>
        <time>2021-03-07T10:45:58Z</time>
      </trkpt>
      <trkpt lat="47.24031" lon="6.02172">
        <ele>257.2</ele>
        <time>2021-03-07T10:45:59Z</time>
      </trkpt>
      <trkpt lat="47.24031" lon="6.02174">
        <ele>257.4</ele>
        <time>2021-03-07T10:46:00Z</time>
      </trkpt>
      <trkpt lat="47.24031" lon="6.02176">
        <ele>257.4</ele>
        <time>2021-03-07T10:46:01Z</time>
      </trkpt>
      <trkpt lat="47.24031" lon="6.02176">
        <ele>257.4</ele>
        <time>2021-03-07T10:46:02Z</time>
      </trkpt>
      <trkpt lat="47.24011" lon="6.02207">
        <ele>258.8</ele>
        <time>2021-03-07T10:46:11Z</time>
      </trkpt>
      <trkpt lat="47.24003" lon="6.0221">
        <ele>259.2</ele>
        <time>2021-03-07T10:46:14Z</time>
      </trkpt>
      <trkpt lat="47.23999" lon="6.02202">
        <ele>259.6</ele>
        <time>2021-03-07T10:46:17Z</time>
      </trkpt>
      <trkpt lat="47.23998" lon="6.02199">
        <ele>259.8</ele>
        <time>2021-03-07T10:46:18Z</time>
      </trkpt>
      <trkpt lat="47.23997" lon="6.02196">
        <ele>260</ele>
        <time>2021-03-07T10:46:19Z</time>
      </trkpt>
      <trkpt lat="47.23996" lon="6.02193">
        <ele>260</ele>
        <time>2021-03-07T10:46:20Z</time>
      </trkpt>
      <trkpt lat="47.23996" lon="6.02193">
        <ele>260.2</ele>
        <time>2021-03-07T10:46:21Z</time>
      </trkpt>
      <trkpt lat="47.23993" lon="6.02188">
        <ele>260.2</ele>
        <time>2021-03-07T10:46:22Z</time>
      </trkpt>
      <trkpt lat="47.23991" lon="6.02185">
        <ele>260.2</ele>
        <time>2021-03-07T10:46:23Z</time>
      </trkpt>
      <trkpt lat="47.23989" lon="6.02182">
        <ele>260.4</ele>
        <time>2021-03-07T10:46:24Z</time>
      </trkpt>
      <trkpt lat="47.23987" lon="6.02178">
        <ele>260.4</ele>
        <time>2021-03-07T10:46:25Z</time>
      </trkpt>
      <trkpt lat="47.23987" lon="6.02178">
        <ele>260.4</ele>
        <time>2021-03-07T10:46:26Z</time>
      </trkpt>
      <trkpt lat="47.23983" lon="6.0217">
        <ele>260.4</ele>
        <time>2021-03-07T10:46:27Z</time>
      </trkpt>
      <trkpt lat="47.23981" lon="6.02166">
        <ele>260.4</ele>
        <time>2021-03-07T10:46:28Z</time>
      </trkpt>
      <trkpt lat="47.2398" lon="6.02161">
        <ele>260.2</ele>
        <time>2021-03-07T10:46:29Z</time>
      </trkpt>
      <trkpt lat="47.23979" lon="6.02157">
        <ele>260.2</ele>
        <time>2021-03-07T10:46:30Z</time>
      </trkpt>
      <trkpt lat="47.23977" lon="6.02153">
        <ele>260.2</ele>
        <time>2021-03-07T10:46:31Z</time>
      </trkpt>
      <trkpt lat="47.23976" lon="6.02149">
        <ele>260.2</ele>
        <time>2021-03-07T10:46:32Z</time>
      </trkpt>
      <trkpt lat="47.23974" lon="6.02145">
        <ele>260.2</ele>
        <time>2021-03-07T10:46:33Z</time>
      </trkpt>
      <trkpt lat="47.23972" lon="6.02142">
        <ele>260.2</ele>
        <time>2021-03-07T10:46:34Z</time>
      </trkpt>
      <trkpt lat="47.23969" lon="6.02139">
        <ele>260.2</ele>
        <time>2021-03-07T10:46:35Z</time>
      </trkpt>
      <trkpt lat="47.23962" lon="6.02129">
        <ele>260.4</ele>
        <time>2021-03-07T10:46:38Z</time>
      </trkpt>
      <trkpt lat="47.23957" lon="6.0212">
        <ele>260.4</ele>
        <time>2021-03-07T10:46:41Z</time>
      </trkpt>
      <trkpt lat="47.23958" lon="6.02116">
        <ele>260.4</ele>
        <time>2021-03-07T10:46:42Z</time>
      </trkpt>
      <trkpt lat="47.23958" lon="6.02113">
        <ele>260.8</ele>
        <time>2021-03-07T10:46:43Z</time>
      </trkpt>
      <trkpt lat="47.2396" lon="6.02109">
        <ele>260.6</ele>
        <time>2021-03-07T10:46:44Z</time>
      </trkpt>
      <trkpt lat="47.23961" lon="6.02107">
        <ele>260.8</ele>
        <time>2021-03-07T10:46:45Z</time>
      </trkpt>
      <trkpt lat="47.23962" lon="6.02104">
        <ele>261</ele>
        <time>2021-03-07T10:46:46Z</time>
      </trkpt>
      <trkpt lat="47.23963" lon="6.021">
        <ele>261</ele>
        <time>2021-03-07T10:46:47Z</time>
      </trkpt>
      <trkpt lat="47.23965" lon="6.02096">
        <ele>261</ele>
        <time>2021-03-07T10:46:48Z</time>
      </trkpt>
      <trkpt lat="47.23966" lon="6.02093">
        <ele>261.2</ele>
        <time>2021-03-07T10:46:49Z</time>
      </trkpt>
      <trkpt lat="47.23972" lon="6.02082">
        <ele>261.8</ele>
        <time>2021-03-07T10:46:52Z</time>
      </trkpt>
      <trkpt lat="47.23976" lon="6.02075">
        <ele>262</ele>
        <time>2021-03-07T10:46:54Z</time>
      </trkpt>
      <trkpt lat="47.23985" lon="6.02054">
        <ele>262.6</ele>
        <time>2021-03-07T10:47:00Z</time>
      </trkpt>
      <trkpt lat="47.2399" lon="6.02036">
        <ele>262.6</ele>
        <time>2021-03-07T10:47:02Z</time>
      </trkpt>
      <trkpt lat="47.23993" lon="6.02026">
        <ele>262.6</ele>
        <time>2021-03-07T10:47:04Z</time>
      </trkpt>
      <trkpt lat="47.24007" lon="6.01997">
        <ele>262.4</ele>
        <time>2021-03-07T10:47:11Z</time>
      </trkpt>
      <trkpt lat="47.2401" lon="6.01994">
        <ele>262.4</ele>
        <time>2021-03-07T10:47:12Z</time>
      </trkpt>
      <trkpt lat="47.24011" lon="6.01994">
        <ele>262.4</ele>
        <time>2021-03-07T10:47:13Z</time>
      </trkpt>
      <trkpt lat="47.24013" lon="6.01995">
        <ele>262.2</ele>
        <time>2021-03-07T10:47:14Z</time>
      </trkpt>
      <trkpt lat="47.24014" lon="6.01996">
        <ele>262.2</ele>
        <time>2021-03-07T10:47:15Z</time>
      </trkpt>
      <trkpt lat="47.24014" lon="6.01996">
        <ele>262</ele>
        <time>2021-03-07T10:47:16Z</time>
      </trkpt>
      <trkpt lat="47.24015" lon="6.01999">
        <ele>262</ele>
        <time>2021-03-07T10:47:17Z</time>
      </trkpt>
      <trkpt lat="47.24015" lon="6.02">
        <ele>261.8</ele>
        <time>2021-03-07T10:47:18Z</time>
      </trkpt>
      <trkpt lat="47.2402" lon="6.02004">
        <ele>261.6</ele>
        <time>2021-03-07T10:47:20Z</time>
      </trkpt>
      <trkpt lat="47.24023" lon="6.02005">
        <ele>261.6</ele>
        <time>2021-03-07T10:47:21Z</time>
      </trkpt>
      <trkpt lat="47.24025" lon="6.02008">
        <ele>261.6</ele>
        <time>2021-03-07T10:47:22Z</time>
      </trkpt>
      <trkpt lat="47.24034" lon="6.02014">
        <ele>261.6</ele>
        <time>2021-03-07T10:47:25Z</time>
      </trkpt>
      <trkpt lat="47.24044" lon="6.02017">
        <ele>261.8</ele>
        <time>2021-03-07T10:47:28Z</time>
      </trkpt>
      <trkpt lat="47.24051" lon="6.0202">
        <ele>261.8</ele>
        <time>2021-03-07T10:47:30Z</time>
      </trkpt>
      <trkpt lat="47.24056" lon="6.02025">
        <ele>261.8</ele>
        <time>2021-03-07T10:47:32Z</time>
      </trkpt>
      <trkpt lat="47.24059" lon="6.02027">
        <ele>262</ele>
        <time>2021-03-07T10:47:33Z</time>
      </trkpt>
      <trkpt lat="47.24066" lon="6.02027">
        <ele>262</ele>
        <time>2021-03-07T10:47:35Z</time>
      </trkpt>
      <trkpt lat="47.24069" lon="6.02028">
        <ele>262.2</ele>
        <time>2021-03-07T10:47:36Z</time>
      </trkpt>
      <trkpt lat="47.24072" lon="6.02028">
        <ele>262.2</ele>
        <time>2021-03-07T10:47:37Z</time>
      </trkpt>
      <trkpt lat="47.24084" lon="6.02029">
        <ele>262.6</ele>
        <time>2021-03-07T10:47:40Z</time>
      </trkpt>
      <trkpt lat="47.24094" lon="6.02032">
        <ele>262.6</ele>
        <time>2021-03-07T10:47:43Z</time>
      </trkpt>
      <trkpt lat="47.24097" lon="6.02034">
        <ele>262.6</ele>
        <time>2021-03-07T10:47:44Z</time>
      </trkpt>
      <trkpt lat="47.241" lon="6.02035">
        <ele>262.8</ele>
        <time>2021-03-07T10:47:45Z</time>
      </trkpt>
      <trkpt lat="47.24103" lon="6.02035">
        <ele>262.8</ele>
        <time>2021-03-07T10:47:46Z</time>
      </trkpt>
      <trkpt lat="47.24111" lon="6.02037">
        <ele>263.2</ele>
        <time>2021-03-07T10:47:49Z</time>
      </trkpt>
      <trkpt lat="47.24117" lon="6.02039">
        <ele>263.6</ele>
        <time>2021-03-07T10:47:51Z</time>
      </trkpt>
      <trkpt lat="47.2412" lon="6.02041">
        <ele>263.6</ele>
        <time>2021-03-07T10:47:52Z</time>
      </trkpt>
      <trkpt lat="47.24126" lon="6.02042">
        <ele>263.6</ele>
        <time>2021-03-07T10:47:54Z</time>
      </trkpt>
      <trkpt lat="47.24132" lon="6.02043">
        <ele>263.8</ele>
        <time>2021-03-07T10:47:56Z</time>
      </trkpt>
      <trkpt lat="47.24135" lon="6.02044">
        <ele>264</ele>
        <time>2021-03-07T10:47:57Z</time>
      </trkpt>
      <trkpt lat="47.24148" lon="6.02044">
        <ele>264.2</ele>
        <time>2021-03-07T10:48:01Z</time>
      </trkpt>
      <trkpt lat="47.24169" lon="6.0205">
        <ele>265</ele>
        <time>2021-03-07T10:48:07Z</time>
      </trkpt>
      <trkpt lat="47.24173" lon="6.02051">
        <ele>265</ele>
        <time>2021-03-07T10:48:08Z</time>
      </trkpt>
      <trkpt lat="47.24193" lon="6.0206">
        <ele>265.6</ele>
        <time>2021-03-07T10:48:13Z</time>
      </trkpt>
      <trkpt lat="47.24203" lon="6.02065">
        <ele>265.8</ele>
        <time>2021-03-07T10:48:16Z</time>
      </trkpt>
      <trkpt lat="47.24206" lon="6.02068">
        <ele>265.8</ele>
        <time>2021-03-07T10:48:17Z</time>
      </trkpt>
      <trkpt lat="47.24206" lon="6.02068">
        <ele>265.8</ele>
        <time>2021-03-07T10:48:18Z</time>
      </trkpt>
      <trkpt lat="47.24213" lon="6.02072">
        <ele>266</ele>
        <time>2021-03-07T10:48:19Z</time>
      </trkpt>
      <trkpt lat="47.24224" lon="6.02077">
        <ele>266.4</ele>
        <time>2021-03-07T10:48:22Z</time>
      </trkpt>
      <trkpt lat="47.24227" lon="6.02079">
        <ele>266.4</ele>
        <time>2021-03-07T10:48:23Z</time>
      </trkpt>
      <trkpt lat="47.2423" lon="6.02081">
        <ele>266.6</ele>
        <time>2021-03-07T10:48:24Z</time>
      </trkpt>
      <trkpt lat="47.24232" lon="6.02084">
        <ele>266.6</ele>
        <time>2021-03-07T10:48:25Z</time>
      </trkpt>
      <trkpt lat="47.24235" lon="6.02085">
        <ele>266.8</ele>
        <time>2021-03-07T10:48:26Z</time>
      </trkpt>
      <trkpt lat="47.2424" lon="6.02087">
        <ele>267</ele>
        <time>2021-03-07T10:48:27Z</time>
      </trkpt>
      <trkpt lat="47.24244" lon="6.02089">
        <ele>267</ele>
        <time>2021-03-07T10:48:28Z</time>
      </trkpt>
      <trkpt lat="47.24248" lon="6.0209">
        <ele>267.2</ele>
        <time>2021-03-07T10:48:29Z</time>
      </trkpt>
      <trkpt lat="47.24251" lon="6.02092">
        <ele>267.4</ele>
        <time>2021-03-07T10:48:30Z</time>
      </trkpt>
      <trkpt lat="47.24253" lon="6.02096">
        <ele>267.4</ele>
        <time>2021-03-07T10:48:31Z</time>
      </trkpt>
      <trkpt lat="47.24254" lon="6.021">
        <ele>267.4</ele>
        <time>2021-03-07T10:48:32Z</time>
      </trkpt>
      <trkpt lat="47.24255" lon="6.02104">
        <ele>267.6</ele>
        <time>2021-03-07T10:48:33Z</time>
      </trkpt>
      <trkpt lat="47.24256" lon="6.02107">
        <ele>267.8</ele>
        <time>2021-03-07T10:48:34Z</time>
      </trkpt>
      <trkpt lat="47.24258" lon="6.02111">
        <ele>268</ele>
        <time>2021-03-07T10:48:35Z</time>
      </trkpt>
      <trkpt lat="47.2426" lon="6.02112">
        <ele>268.2</ele>
        <time>2021-03-07T10:48:36Z</time>
      </trkpt>
      <trkpt lat="47.24262" lon="6.02113">
        <ele>268.2</ele>
        <time>2021-03-07T10:48:37Z</time>
      </trkpt>
      <trkpt lat="47.24261" lon="6.02115">
        <ele>268.2</ele>
        <time>2021-03-07T10:48:38Z</time>
      </trkpt>
      <trkpt lat="47.24263" lon="6.02117">
        <ele>268.4</ele>
        <time>2021-03-07T10:48:39Z</time>
      </trkpt>
      <trkpt lat="47.24265" lon="6.02118">
        <ele>268.6</ele>
        <time>2021-03-07T10:48:40Z</time>
      </trkpt>
      <trkpt lat="47.24268" lon="6.0212">
        <ele>268.6</ele>
        <time>2021-03-07T10:48:41Z</time>
      </trkpt>
      <trkpt lat="47.2427" lon="6.02124">
        <ele>268.8</ele>
        <time>2021-03-07T10:48:42Z</time>
      </trkpt>
      <trkpt lat="47.24278" lon="6.02122">
        <ele>269</ele>
        <time>2021-03-07T10:48:43Z</time>
      </trkpt>
      <trkpt lat="47.24282" lon="6.02124">
        <ele>269.2</ele>
        <time>2021-03-07T10:48:44Z</time>
      </trkpt>
      <trkpt lat="47.24286" lon="6.02123">
        <ele>269.2</ele>
        <time>2021-03-07T10:48:45Z</time>
      </trkpt>
      <trkpt lat="47.24289" lon="6.02127">
        <ele>269.4</ele>
        <time>2021-03-07T10:48:46Z</time>
      </trkpt>
      <trkpt lat="47.24293" lon="6.02129">
        <ele>269.6</ele>
        <time>2021-03-07T10:48:47Z</time>
      </trkpt>
      <trkpt lat="47.24296" lon="6.02131">
        <ele>269.8</ele>
        <time>2021-03-07T10:48:48Z</time>
      </trkpt>
      <trkpt lat="47.24298" lon="6.02134">
        <ele>269.8</ele>
        <time>2021-03-07T10:48:49Z</time>
      </trkpt>
      <trkpt lat="47.24301" lon="6.02137">
        <ele>270</ele>
        <time>2021-03-07T10:48:50Z</time>
      </trkpt>
      <trkpt lat="47.24303" lon="6.02139">
        <ele>270</ele>
        <time>2021-03-07T10:48:51Z</time>
      </trkpt>
      <trkpt lat="47.24306" lon="6.02142">
        <ele>270.2</ele>
        <time>2021-03-07T10:48:52Z</time>
      </trkpt>
      <trkpt lat="47.24309" lon="6.02144">
        <ele>270.6</ele>
        <time>2021-03-07T10:48:53Z</time>
      </trkpt>
      <trkpt lat="47.24312" lon="6.02147">
        <ele>270.6</ele>
        <time>2021-03-07T10:48:54Z</time>
      </trkpt>
      <trkpt lat="47.24315" lon="6.0215">
        <ele>270.8</ele>
        <time>2021-03-07T10:48:55Z</time>
      </trkpt>
      <trkpt lat="47.24316" lon="6.02152">
        <ele>271</ele>
        <time>2021-03-07T10:48:56Z</time>
      </trkpt>
      <trkpt lat="47.24318" lon="6.02156">
        <ele>271</ele>
        <time>2021-03-07T10:48:57Z</time>
      </trkpt>
      <trkpt lat="47.2432" lon="6.02159">
        <ele>271.2</ele>
        <time>2021-03-07T10:48:58Z</time>
      </trkpt>
      <trkpt lat="47.24321" lon="6.02162">
        <ele>271.4</ele>
        <time>2021-03-07T10:48:59Z</time>
      </trkpt>
      <trkpt lat="47.24324" lon="6.02164">
        <ele>271.4</ele>
        <time>2021-03-07T10:49:00Z</time>
      </trkpt>
      <trkpt lat="47.24327" lon="6.02165">
        <ele>271.6</ele>
        <time>2021-03-07T10:49:01Z</time>
      </trkpt>
      <trkpt lat="47.24329" lon="6.02167">
        <ele>271.8</ele>
        <time>2021-03-07T10:49:02Z</time>
      </trkpt>
      <trkpt lat="47.24331" lon="6.02169">
        <ele>272</ele>
        <time>2021-03-07T10:49:03Z</time>
      </trkpt>
      <trkpt lat="47.24334" lon="6.0217">
        <ele>272</ele>
        <time>2021-03-07T10:49:04Z</time>
      </trkpt>
      <trkpt lat="47.24336" lon="6.0217">
        <ele>272.2</ele>
        <time>2021-03-07T10:49:05Z</time>
      </trkpt>
      <trkpt lat="47.24338" lon="6.0217">
        <ele>272.4</ele>
        <time>2021-03-07T10:49:06Z</time>
      </trkpt>
      <trkpt lat="47.2434" lon="6.02172">
        <ele>272.6</ele>
        <time>2021-03-07T10:49:07Z</time>
      </trkpt>
      <trkpt lat="47.24342" lon="6.02174">
        <ele>272.8</ele>
        <time>2021-03-07T10:49:08Z</time>
      </trkpt>
      <trkpt lat="47.24344" lon="6.02177">
        <ele>272.8</ele>
        <time>2021-03-07T10:49:09Z</time>
      </trkpt>
      <trkpt lat="47.24346" lon="6.0218">
        <ele>273.2</ele>
        <time>2021-03-07T10:49:10Z</time>
      </trkpt>
      <trkpt lat="47.24348" lon="6.02183">
        <ele>273.2</ele>
        <time>2021-03-07T10:49:11Z</time>
      </trkpt>
      <trkpt lat="47.2435" lon="6.02185">
        <ele>273.4</ele>
        <time>2021-03-07T10:49:12Z</time>
      </trkpt>
      <trkpt lat="47.24352" lon="6.02188">
        <ele>273.6</ele>
        <time>2021-03-07T10:49:13Z</time>
      </trkpt>
      <trkpt lat="47.24354" lon="6.0219">
        <ele>273.8</ele>
        <time>2021-03-07T10:49:14Z</time>
      </trkpt>
      <trkpt lat="47.24355" lon="6.02195">
        <ele>273.8</ele>
        <time>2021-03-07T10:49:15Z</time>
      </trkpt>
      <trkpt lat="47.24356" lon="6.02199">
        <ele>274</ele>
        <time>2021-03-07T10:49:16Z</time>
      </trkpt>
      <trkpt lat="47.24357" lon="6.02201">
        <ele>274.2</ele>
        <time>2021-03-07T10:49:17Z</time>
      </trkpt>
      <trkpt lat="47.24357" lon="6.02202">
        <ele>274.4</ele>
        <time>2021-03-07T10:49:18Z</time>
      </trkpt>
      <trkpt lat="47.24357" lon="6.02202">
        <ele>274.8</ele>
        <time>2021-03-07T10:49:19Z</time>
      </trkpt>
      <trkpt lat="47.24357" lon="6.02202">
        <ele>275.2</ele>
        <time>2021-03-07T10:49:23Z</time>
      </trkpt>
      <trkpt lat="47.24357" lon="6.02205">
        <ele>275.2</ele>
        <time>2021-03-07T10:49:28Z</time>
      </trkpt>
      <trkpt lat="47.24358" lon="6.02205">
        <ele>275.4</ele>
        <time>2021-03-07T10:49:29Z</time>
      </trkpt>
      <trkpt lat="47.24359" lon="6.02206">
        <ele>275.4</ele>
        <time>2021-03-07T10:49:30Z</time>
      </trkpt>
      <trkpt lat="47.2436" lon="6.02207">
        <ele>275.4</ele>
        <time>2021-03-07T10:49:31Z</time>
      </trkpt>
      <trkpt lat="47.24361" lon="6.02209">
        <ele>275.4</ele>
        <time>2021-03-07T10:49:32Z</time>
      </trkpt>
      <trkpt lat="47.24362" lon="6.02209">
        <ele>275.4</ele>
        <time>2021-03-07T10:49:33Z</time>
      </trkpt>
      <trkpt lat="47.24364" lon="6.02211">
        <ele>275.4</ele>
        <time>2021-03-07T10:49:34Z</time>
      </trkpt>
      <trkpt lat="47.24365" lon="6.02213">
        <ele>275.4</ele>
        <time>2021-03-07T10:49:35Z</time>
      </trkpt>
      <trkpt lat="47.24366" lon="6.02216">
        <ele>275.4</ele>
        <time>2021-03-07T10:49:36Z</time>
      </trkpt>
      <trkpt lat="47.24366" lon="6.0222">
        <ele>275.6</ele>
        <time>2021-03-07T10:49:37Z</time>
      </trkpt>
      <trkpt lat="47.24369" lon="6.02227">
        <ele>275.8</ele>
        <time>2021-03-07T10:49:39Z</time>
      </trkpt>
      <trkpt lat="47.24371" lon="6.0223">
        <ele>275.8</ele>
        <time>2021-03-07T10:49:40Z</time>
      </trkpt>
      <trkpt lat="47.24373" lon="6.02238">
        <ele>276</ele>
        <time>2021-03-07T10:49:42Z</time>
      </trkpt>
      <trkpt lat="47.24373" lon="6.02242">
        <ele>276.2</ele>
        <time>2021-03-07T10:49:43Z</time>
      </trkpt>
      <trkpt lat="47.24374" lon="6.02245">
        <ele>276.2</ele>
        <time>2021-03-07T10:49:44Z</time>
      </trkpt>
      <trkpt lat="47.24374" lon="6.0225">
        <ele>276.6</ele>
        <time>2021-03-07T10:49:45Z</time>
      </trkpt>
      <trkpt lat="47.24375" lon="6.02252">
        <ele>276.6</ele>
        <time>2021-03-07T10:49:46Z</time>
      </trkpt>
      <trkpt lat="47.24376" lon="6.02257">
        <ele>276.8</ele>
        <time>2021-03-07T10:49:48Z</time>
      </trkpt>
      <trkpt lat="47.2438" lon="6.0227">
        <ele>278</ele>
        <time>2021-03-07T10:49:52Z</time>
      </trkpt>
      <trkpt lat="47.24381" lon="6.02272">
        <ele>278.2</ele>
        <time>2021-03-07T10:49:53Z</time>
      </trkpt>
      <trkpt lat="47.24382" lon="6.02275">
        <ele>278.4</ele>
        <time>2021-03-07T10:49:54Z</time>
      </trkpt>
      <trkpt lat="47.24384" lon="6.02278">
        <ele>278.6</ele>
        <time>2021-03-07T10:49:55Z</time>
      </trkpt>
      <trkpt lat="47.24385" lon="6.0228">
        <ele>278.6</ele>
        <time>2021-03-07T10:49:56Z</time>
      </trkpt>
      <trkpt lat="47.24386" lon="6.02283">
        <ele>278.8</ele>
        <time>2021-03-07T10:49:57Z</time>
      </trkpt>
      <trkpt lat="47.24387" lon="6.02285">
        <ele>279</ele>
        <time>2021-03-07T10:49:58Z</time>
      </trkpt>
      <trkpt lat="47.24388" lon="6.02288">
        <ele>279</ele>
        <time>2021-03-07T10:49:59Z</time>
      </trkpt>
      <trkpt lat="47.24389" lon="6.02291">
        <ele>279.4</ele>
        <time>2021-03-07T10:50:00Z</time>
      </trkpt>
      <trkpt lat="47.2439" lon="6.02293">
        <ele>279.4</ele>
        <time>2021-03-07T10:50:01Z</time>
      </trkpt>
      <trkpt lat="47.24392" lon="6.02296">
        <ele>279.4</ele>
        <time>2021-03-07T10:50:02Z</time>
      </trkpt>
      <trkpt lat="47.24393" lon="6.02298">
        <ele>279.6</ele>
        <time>2021-03-07T10:50:03Z</time>
      </trkpt>
      <trkpt lat="47.24394" lon="6.02301">
        <ele>279.8</ele>
        <time>2021-03-07T10:50:04Z</time>
      </trkpt>
      <trkpt lat="47.24396" lon="6.02304">
        <ele>280</ele>
        <time>2021-03-07T10:50:05Z</time>
      </trkpt>
      <trkpt lat="47.24397" lon="6.02306">
        <ele>280.2</ele>
        <time>2021-03-07T10:50:06Z</time>
      </trkpt>
      <trkpt lat="47.24398" lon="6.02308">
        <ele>280.2</ele>
        <time>2021-03-07T10:50:07Z</time>
      </trkpt>
      <trkpt lat="47.24398" lon="6.02308">
        <ele>280.2</ele>
        <time>2021-03-07T10:50:08Z</time>
      </trkpt>
      <trkpt lat="47.24401" lon="6.02314">
        <ele>280.4</ele>
        <time>2021-03-07T10:50:09Z</time>
      </trkpt>
      <trkpt lat="47.24403" lon="6.02316">
        <ele>280.4</ele>
        <time>2021-03-07T10:50:10Z</time>
      </trkpt>
      <trkpt lat="47.24405" lon="6.02318">
        <ele>280.6</ele>
        <time>2021-03-07T10:50:11Z</time>
      </trkpt>
      <trkpt lat="47.24407" lon="6.02319">
        <ele>280.8</ele>
        <time>2021-03-07T10:50:12Z</time>
      </trkpt>
      <trkpt lat="47.24408" lon="6.02319">
        <ele>281</ele>
        <time>2021-03-07T10:50:13Z</time>
      </trkpt>
      <trkpt lat="47.2441" lon="6.02319">
        <ele>281.2</ele>
        <time>2021-03-07T10:50:14Z</time>
      </trkpt>
      <trkpt lat="47.24412" lon="6.02319">
        <ele>281.4</ele>
        <time>2021-03-07T10:50:15Z</time>
      </trkpt>
      <trkpt lat="47.24414" lon="6.02318">
        <ele>281.6</ele>
        <time>2021-03-07T10:50:16Z</time>
      </trkpt>
      <trkpt lat="47.24416" lon="6.02318">
        <ele>281.6</ele>
        <time>2021-03-07T10:50:17Z</time>
      </trkpt>
      <trkpt lat="47.24418" lon="6.02318">
        <ele>281.8</ele>
        <time>2021-03-07T10:50:18Z</time>
      </trkpt>
      <trkpt lat="47.2442" lon="6.02318">
        <ele>281.8</ele>
        <time>2021-03-07T10:50:19Z</time>
      </trkpt>
      <trkpt lat="47.24423" lon="6.02317">
        <ele>282</ele>
        <time>2021-03-07T10:50:20Z</time>
      </trkpt>
      <trkpt lat="47.24425" lon="6.02317">
        <ele>282</ele>
        <time>2021-03-07T10:50:21Z</time>
      </trkpt>
      <trkpt lat="47.24427" lon="6.02317">
        <ele>282.2</ele>
        <time>2021-03-07T10:50:22Z</time>
      </trkpt>
      <trkpt lat="47.24429" lon="6.02316">
        <ele>282.4</ele>
        <time>2021-03-07T10:50:23Z</time>
      </trkpt>
      <trkpt lat="47.24431" lon="6.02316">
        <ele>282.6</ele>
        <time>2021-03-07T10:50:24Z</time>
      </trkpt>
      <trkpt lat="47.24431" lon="6.02316">
        <ele>282.8</ele>
        <time>2021-03-07T10:50:25Z</time>
      </trkpt>
      <trkpt lat="47.24435" lon="6.02315">
        <ele>283</ele>
        <time>2021-03-07T10:50:26Z</time>
      </trkpt>
      <trkpt lat="47.24437" lon="6.02315">
        <ele>283</ele>
        <time>2021-03-07T10:50:27Z</time>
      </trkpt>
      <trkpt lat="47.24438" lon="6.02314">
        <ele>283.2</ele>
        <time>2021-03-07T10:50:28Z</time>
      </trkpt>
      <trkpt lat="47.2444" lon="6.02313">
        <ele>283.2</ele>
        <time>2021-03-07T10:50:29Z</time>
      </trkpt>
      <trkpt lat="47.24442" lon="6.02312">
        <ele>283.4</ele>
        <time>2021-03-07T10:50:30Z</time>
      </trkpt>
      <trkpt lat="47.24444" lon="6.0231">
        <ele>283.8</ele>
        <time>2021-03-07T10:50:31Z</time>
      </trkpt>
      <trkpt lat="47.24446" lon="6.02309">
        <ele>283.8</ele>
        <time>2021-03-07T10:50:32Z</time>
      </trkpt>
      <trkpt lat="47.24448" lon="6.02308">
        <ele>284.4</ele>
        <time>2021-03-07T10:50:33Z</time>
      </trkpt>
      <trkpt lat="47.24449" lon="6.02305">
        <ele>284.4</ele>
        <time>2021-03-07T10:50:34Z</time>
      </trkpt>
      <trkpt lat="47.24451" lon="6.02302">
        <ele>284.8</ele>
        <time>2021-03-07T10:50:35Z</time>
      </trkpt>
      <trkpt lat="47.24452" lon="6.02299">
        <ele>284.8</ele>
        <time>2021-03-07T10:50:36Z</time>
      </trkpt>
      <trkpt lat="47.24453" lon="6.02297">
        <ele>285</ele>
        <time>2021-03-07T10:50:37Z</time>
      </trkpt>
      <trkpt lat="47.24454" lon="6.02295">
        <ele>285.2</ele>
        <time>2021-03-07T10:50:38Z</time>
      </trkpt>
      <trkpt lat="47.24454" lon="6.02293">
        <ele>285.2</ele>
        <time>2021-03-07T10:50:39Z</time>
      </trkpt>
      <trkpt lat="47.24455" lon="6.0229">
        <ele>285.2</ele>
        <time>2021-03-07T10:50:40Z</time>
      </trkpt>
      <trkpt lat="47.24455" lon="6.02286">
        <ele>285.4</ele>
        <time>2021-03-07T10:50:41Z</time>
      </trkpt>
      <trkpt lat="47.24455" lon="6.02283">
        <ele>285.4</ele>
        <time>2021-03-07T10:50:42Z</time>
      </trkpt>
      <trkpt lat="47.24455" lon="6.0228">
        <ele>285.4</ele>
        <time>2021-03-07T10:50:43Z</time>
      </trkpt>
      <trkpt lat="47.24454" lon="6.02277">
        <ele>285.4</ele>
        <time>2021-03-07T10:50:44Z</time>
      </trkpt>
      <trkpt lat="47.24453" lon="6.02274">
        <ele>285.4</ele>
        <time>2021-03-07T10:50:45Z</time>
      </trkpt>
      <trkpt lat="47.24453" lon="6.02271">
        <ele>285.4</ele>
        <time>2021-03-07T10:50:46Z</time>
      </trkpt>
      <trkpt lat="47.24451" lon="6.02268">
        <ele>285.4</ele>
        <time>2021-03-07T10:50:47Z</time>
      </trkpt>
      <trkpt lat="47.24451" lon="6.02265">
        <ele>285.4</ele>
        <time>2021-03-07T10:50:48Z</time>
      </trkpt>
      <trkpt lat="47.2445" lon="6.02262">
        <ele>285.4</ele>
        <time>2021-03-07T10:50:49Z</time>
      </trkpt>
      <trkpt lat="47.24449" lon="6.02259">
        <ele>285.4</ele>
        <time>2021-03-07T10:50:50Z</time>
      </trkpt>
      <trkpt lat="47.24448" lon="6.02257">
        <ele>285.2</ele>
        <time>2021-03-07T10:50:51Z</time>
      </trkpt>
      <trkpt lat="47.24448" lon="6.02255">
        <ele>285.2</ele>
        <time>2021-03-07T10:50:52Z</time>
      </trkpt>
      <trkpt lat="47.24447" lon="6.02253">
        <ele>285.2</ele>
        <time>2021-03-07T10:50:53Z</time>
      </trkpt>
      <trkpt lat="47.24447" lon="6.0225">
        <ele>285.2</ele>
        <time>2021-03-07T10:50:54Z</time>
      </trkpt>
      <trkpt lat="47.24446" lon="6.02247">
        <ele>285.2</ele>
        <time>2021-03-07T10:50:55Z</time>
      </trkpt>
      <trkpt lat="47.24445" lon="6.02244">
        <ele>285.2</ele>
        <time>2021-03-07T10:50:56Z</time>
      </trkpt>
      <trkpt lat="47.24446" lon="6.02233">
        <ele>285</ele>
        <time>2021-03-07T10:50:59Z</time>
      </trkpt>
      <trkpt lat="47.24451" lon="6.02227">
        <ele>285</ele>
        <time>2021-03-07T10:51:02Z</time>
      </trkpt>
      <trkpt lat="47.24452" lon="6.02225">
        <ele>285</ele>
        <time>2021-03-07T10:51:03Z</time>
      </trkpt>
      <trkpt lat="47.24453" lon="6.02224">
        <ele>285</ele>
        <time>2021-03-07T10:51:04Z</time>
      </trkpt>
      <trkpt lat="47.24457" lon="6.0222">
        <ele>285</ele>
        <time>2021-03-07T10:51:07Z</time>
      </trkpt>
      <trkpt lat="47.24458" lon="6.02218">
        <ele>285.2</ele>
        <time>2021-03-07T10:51:08Z</time>
      </trkpt>
      <trkpt lat="47.24458" lon="6.02218">
        <ele>285.2</ele>
        <time>2021-03-07T10:51:09Z</time>
      </trkpt>
      <trkpt lat="47.24459" lon="6.02216">
        <ele>285.2</ele>
        <time>2021-03-07T10:51:10Z</time>
      </trkpt>
      <trkpt lat="47.24461" lon="6.02214">
        <ele>285.2</ele>
        <time>2021-03-07T10:51:11Z</time>
      </trkpt>
      <trkpt lat="47.24463" lon="6.02213">
        <ele>285.2</ele>
        <time>2021-03-07T10:51:12Z</time>
      </trkpt>
      <trkpt lat="47.24465" lon="6.02212">
        <ele>285.2</ele>
        <time>2021-03-07T10:51:13Z</time>
      </trkpt>
      <trkpt lat="47.24465" lon="6.02212">
        <ele>285.4</ele>
        <time>2021-03-07T10:51:14Z</time>
      </trkpt>
      <trkpt lat="47.24468" lon="6.0221">
        <ele>285.4</ele>
        <time>2021-03-07T10:51:15Z</time>
      </trkpt>
      <trkpt lat="47.2447" lon="6.02208">
        <ele>285.4</ele>
        <time>2021-03-07T10:51:16Z</time>
      </trkpt>
      <trkpt lat="47.24479" lon="6.02202">
        <ele>285.4</ele>
        <time>2021-03-07T10:51:20Z</time>
      </trkpt>
      <trkpt lat="47.24492" lon="6.02193">
        <ele>285.6</ele>
        <time>2021-03-07T10:51:25Z</time>
      </trkpt>
      <trkpt lat="47.24497" lon="6.02187">
        <ele>285.6</ele>
        <time>2021-03-07T10:51:27Z</time>
      </trkpt>
      <trkpt lat="47.24498" lon="6.02185">
        <ele>285.8</ele>
        <time>2021-03-07T10:51:28Z</time>
      </trkpt>
      <trkpt lat="47.245" lon="6.02183">
        <ele>285.8</ele>
        <time>2021-03-07T10:51:29Z</time>
      </trkpt>
      <trkpt lat="47.24503" lon="6.02181">
        <ele>285.8</ele>
        <time>2021-03-07T10:51:31Z</time>
      </trkpt>
      <trkpt lat="47.24509" lon="6.02183">
        <ele>286.4</ele>
        <time>2021-03-07T10:51:34Z</time>
      </trkpt>
      <trkpt lat="47.24512" lon="6.02184">
        <ele>286.4</ele>
        <time>2021-03-07T10:51:35Z</time>
      </trkpt>
      <trkpt lat="47.24512" lon="6.02184">
        <ele>286.8</ele>
        <time>2021-03-07T10:51:36Z</time>
      </trkpt>
      <trkpt lat="47.24517" lon="6.02185">
        <ele>287.4</ele>
        <time>2021-03-07T10:51:37Z</time>
      </trkpt>
      <trkpt lat="47.24519" lon="6.02185">
        <ele>287.4</ele>
        <time>2021-03-07T10:51:38Z</time>
      </trkpt>
      <trkpt lat="47.24531" lon="6.02193">
        <ele>288</ele>
        <time>2021-03-07T10:51:43Z</time>
      </trkpt>
      <trkpt lat="47.24535" lon="6.02197">
        <ele>288</ele>
        <time>2021-03-07T10:51:45Z</time>
      </trkpt>
      <trkpt lat="47.24538" lon="6.02198">
        <ele>288.2</ele>
        <time>2021-03-07T10:51:46Z</time>
      </trkpt>
      <trkpt lat="47.24541" lon="6.02199">
        <ele>288.2</ele>
        <time>2021-03-07T10:51:47Z</time>
      </trkpt>
      <trkpt lat="47.24544" lon="6.02201">
        <ele>288.2</ele>
        <time>2021-03-07T10:51:48Z</time>
      </trkpt>
      <trkpt lat="47.24546" lon="6.02202">
        <ele>288.4</ele>
        <time>2021-03-07T10:51:49Z</time>
      </trkpt>
      <trkpt lat="47.24548" lon="6.02203">
        <ele>288.4</ele>
        <time>2021-03-07T10:51:50Z</time>
      </trkpt>
      <trkpt lat="47.24551" lon="6.02205">
        <ele>288.4</ele>
        <time>2021-03-07T10:51:51Z</time>
      </trkpt>
      <trkpt lat="47.24555" lon="6.02206">
        <ele>288.4</ele>
        <time>2021-03-07T10:51:52Z</time>
      </trkpt>
      <trkpt lat="47.24557" lon="6.02207">
        <ele>288.6</ele>
        <time>2021-03-07T10:51:53Z</time>
      </trkpt>
      <trkpt lat="47.2456" lon="6.02209">
        <ele>288.6</ele>
        <time>2021-03-07T10:51:54Z</time>
      </trkpt>
      <trkpt lat="47.24562" lon="6.0221">
        <ele>288.6</ele>
        <time>2021-03-07T10:51:55Z</time>
      </trkpt>
      <trkpt lat="47.24576" lon="6.02217">
        <ele>289</ele>
        <time>2021-03-07T10:52:00Z</time>
      </trkpt>
      <trkpt lat="47.24589" lon="6.02223">
        <ele>289.6</ele>
        <time>2021-03-07T10:52:04Z</time>
      </trkpt>
      <trkpt lat="47.246" lon="6.02228">
        <ele>290</ele>
        <time>2021-03-07T10:52:08Z</time>
      </trkpt>
      <trkpt lat="47.24607" lon="6.02233">
        <ele>290.2</ele>
        <time>2021-03-07T10:52:11Z</time>
      </trkpt>
      <trkpt lat="47.24612" lon="6.02241">
        <ele>290.6</ele>
        <time>2021-03-07T10:52:13Z</time>
      </trkpt>
      <trkpt lat="47.24613" lon="6.02245">
        <ele>290.8</ele>
        <time>2021-03-07T10:52:14Z</time>
      </trkpt>
      <trkpt lat="47.24615" lon="6.02249">
        <ele>290.8</ele>
        <time>2021-03-07T10:52:15Z</time>
      </trkpt>
      <trkpt lat="47.24618" lon="6.02257">
        <ele>291</ele>
        <time>2021-03-07T10:52:17Z</time>
      </trkpt>
      <trkpt lat="47.24619" lon="6.02263">
        <ele>291</ele>
        <time>2021-03-07T10:52:18Z</time>
      </trkpt>
      <trkpt lat="47.2462" lon="6.02267">
        <ele>291</ele>
        <time>2021-03-07T10:52:19Z</time>
      </trkpt>
      <trkpt lat="47.2462" lon="6.0227">
        <ele>291.2</ele>
        <time>2021-03-07T10:52:20Z</time>
      </trkpt>
      <trkpt lat="47.24618" lon="6.02274">
        <ele>291.2</ele>
        <time>2021-03-07T10:52:21Z</time>
      </trkpt>
      <trkpt lat="47.24617" lon="6.02279">
        <ele>291.2</ele>
        <time>2021-03-07T10:52:22Z</time>
      </trkpt>
      <trkpt lat="47.24613" lon="6.02286">
        <ele>291.2</ele>
        <time>2021-03-07T10:52:24Z</time>
      </trkpt>
      <trkpt lat="47.24612" lon="6.02289">
        <ele>291.2</ele>
        <time>2021-03-07T10:52:25Z</time>
      </trkpt>
      <trkpt lat="47.2461" lon="6.02292">
        <ele>291.2</ele>
        <time>2021-03-07T10:52:26Z</time>
      </trkpt>
      <trkpt lat="47.24609" lon="6.02296">
        <ele>291.2</ele>
        <time>2021-03-07T10:52:27Z</time>
      </trkpt>
      <trkpt lat="47.24607" lon="6.023">
        <ele>291.2</ele>
        <time>2021-03-07T10:52:28Z</time>
      </trkpt>
      <trkpt lat="47.24606" lon="6.02304">
        <ele>291.2</ele>
        <time>2021-03-07T10:52:29Z</time>
      </trkpt>
      <trkpt lat="47.24604" lon="6.02309">
        <ele>291.2</ele>
        <time>2021-03-07T10:52:30Z</time>
      </trkpt>
      <trkpt lat="47.24603" lon="6.02312">
        <ele>291.2</ele>
        <time>2021-03-07T10:52:31Z</time>
      </trkpt>
      <trkpt lat="47.24603" lon="6.02315">
        <ele>291.2</ele>
        <time>2021-03-07T10:52:32Z</time>
      </trkpt>
      <trkpt lat="47.24602" lon="6.02317">
        <ele>291.2</ele>
        <time>2021-03-07T10:52:33Z</time>
      </trkpt>
      <trkpt lat="47.24602" lon="6.02319">
        <ele>291</ele>
        <time>2021-03-07T10:52:34Z</time>
      </trkpt>
      <trkpt lat="47.24602" lon="6.02319">
        <ele>291</ele>
        <time>2021-03-07T10:52:35Z</time>
      </trkpt>
      <trkpt lat="47.24602" lon="6.0232">
        <ele>290.8</ele>
        <time>2021-03-07T10:52:36Z</time>
      </trkpt>
      <trkpt lat="47.24602" lon="6.02321">
        <ele>290.8</ele>
        <time>2021-03-07T10:52:37Z</time>
      </trkpt>
      <trkpt lat="47.24602" lon="6.02321">
        <ele>290.4</ele>
        <time>2021-03-07T10:52:40Z</time>
      </trkpt>
      <trkpt lat="47.24604" lon="6.02328">
        <ele>290.2</ele>
        <time>2021-03-07T10:52:44Z</time>
      </trkpt>
      <trkpt lat="47.24604" lon="6.02328">
        <ele>290.2</ele>
        <time>2021-03-07T10:52:45Z</time>
      </trkpt>
      <trkpt lat="47.24608" lon="6.02331">
        <ele>290.2</ele>
        <time>2021-03-07T10:52:46Z</time>
      </trkpt>
      <trkpt lat="47.2461" lon="6.02332">
        <ele>290</ele>
        <time>2021-03-07T10:52:47Z</time>
      </trkpt>
      <trkpt lat="47.24613" lon="6.02333">
        <ele>290</ele>
        <time>2021-03-07T10:52:48Z</time>
      </trkpt>
      <trkpt lat="47.24615" lon="6.02334">
        <ele>290</ele>
        <time>2021-03-07T10:52:49Z</time>
      </trkpt>
      <trkpt lat="47.24618" lon="6.02336">
        <ele>290</ele>
        <time>2021-03-07T10:52:50Z</time>
      </trkpt>
      <trkpt lat="47.2462" lon="6.02339">
        <ele>290</ele>
        <time>2021-03-07T10:52:51Z</time>
      </trkpt>
      <trkpt lat="47.24622" lon="6.02343">
        <ele>290</ele>
        <time>2021-03-07T10:52:52Z</time>
      </trkpt>
      <trkpt lat="47.24625" lon="6.02347">
        <ele>290</ele>
        <time>2021-03-07T10:52:53Z</time>
      </trkpt>
      <trkpt lat="47.24628" lon="6.0235">
        <ele>290</ele>
        <time>2021-03-07T10:52:54Z</time>
      </trkpt>
      <trkpt lat="47.24631" lon="6.02354">
        <ele>290</ele>
        <time>2021-03-07T10:52:55Z</time>
      </trkpt>
      <trkpt lat="47.24631" lon="6.02354">
        <ele>290</ele>
        <time>2021-03-07T10:52:56Z</time>
      </trkpt>
      <trkpt lat="47.24647" lon="6.02376">
        <ele>290.4</ele>
        <time>2021-03-07T10:53:00Z</time>
      </trkpt>
      <trkpt lat="47.2465" lon="6.02384">
        <ele>290.4</ele>
        <time>2021-03-07T10:53:01Z</time>
      </trkpt>
      <trkpt lat="47.24655" lon="6.02396">
        <ele>290.6</ele>
        <time>2021-03-07T10:53:03Z</time>
      </trkpt>
      <trkpt lat="47.24659" lon="6.02402">
        <ele>290.8</ele>
        <time>2021-03-07T10:53:04Z</time>
      </trkpt>
      <trkpt lat="47.24661" lon="6.02406">
        <ele>290.8</ele>
        <time>2021-03-07T10:53:05Z</time>
      </trkpt>
      <trkpt lat="47.24664" lon="6.0241">
        <ele>290.8</ele>
        <time>2021-03-07T10:53:06Z</time>
      </trkpt>
      <trkpt lat="47.24668" lon="6.02412">
        <ele>290.8</ele>
        <time>2021-03-07T10:53:07Z</time>
      </trkpt>
      <trkpt lat="47.2467" lon="6.02422">
        <ele>290.8</ele>
        <time>2021-03-07T10:53:08Z</time>
      </trkpt>
      <trkpt lat="47.24672" lon="6.02426">
        <ele>290.8</ele>
        <time>2021-03-07T10:53:09Z</time>
      </trkpt>
      <trkpt lat="47.24675" lon="6.02429">
        <ele>290.8</ele>
        <time>2021-03-07T10:53:10Z</time>
      </trkpt>
      <trkpt lat="47.24684" lon="6.0244">
        <ele>290.8</ele>
        <time>2021-03-07T10:53:13Z</time>
      </trkpt>
      <trkpt lat="47.24684" lon="6.0244">
        <ele>290.6</ele>
        <time>2021-03-07T10:53:14Z</time>
      </trkpt>
      <trkpt lat="47.24688" lon="6.02449">
        <ele>290.6</ele>
        <time>2021-03-07T10:53:15Z</time>
      </trkpt>
      <trkpt lat="47.2469" lon="6.02453">
        <ele>290.6</ele>
        <time>2021-03-07T10:53:16Z</time>
      </trkpt>
      <trkpt lat="47.24693" lon="6.02457">
        <ele>290.6</ele>
        <time>2021-03-07T10:53:17Z</time>
      </trkpt>
      <trkpt lat="47.24696" lon="6.02462">
        <ele>290.4</ele>
        <time>2021-03-07T10:53:18Z</time>
      </trkpt>
      <trkpt lat="47.24699" lon="6.02467">
        <ele>290.4</ele>
        <time>2021-03-07T10:53:19Z</time>
      </trkpt>
      <trkpt lat="47.247" lon="6.0247">
        <ele>290.2</ele>
        <time>2021-03-07T10:53:20Z</time>
      </trkpt>
      <trkpt lat="47.24703" lon="6.02474">
        <ele>290.2</ele>
        <time>2021-03-07T10:53:21Z</time>
      </trkpt>
      <trkpt lat="47.24706" lon="6.02477">
        <ele>290</ele>
        <time>2021-03-07T10:53:22Z</time>
      </trkpt>
      <trkpt lat="47.24709" lon="6.02481">
        <ele>290</ele>
        <time>2021-03-07T10:53:23Z</time>
      </trkpt>
      <trkpt lat="47.24708" lon="6.02485">
        <ele>289.8</ele>
        <time>2021-03-07T10:53:24Z</time>
      </trkpt>
      <trkpt lat="47.24707" lon="6.02489">
        <ele>289.8</ele>
        <time>2021-03-07T10:53:25Z</time>
      </trkpt>
      <trkpt lat="47.24705" lon="6.02494">
        <ele>289.6</ele>
        <time>2021-03-07T10:53:26Z</time>
      </trkpt>
      <trkpt lat="47.24702" lon="6.02497">
        <ele>289.6</ele>
        <time>2021-03-07T10:53:27Z</time>
      </trkpt>
      <trkpt lat="47.24696" lon="6.02502">
        <ele>289.2</ele>
        <time>2021-03-07T10:53:29Z</time>
      </trkpt>
      <trkpt lat="47.24694" lon="6.02504">
        <ele>289.2</ele>
        <time>2021-03-07T10:53:30Z</time>
      </trkpt>
      <trkpt lat="47.24692" lon="6.02506">
        <ele>288.8</ele>
        <time>2021-03-07T10:53:31Z</time>
      </trkpt>
      <trkpt lat="47.2469" lon="6.02507">
        <ele>288.8</ele>
        <time>2021-03-07T10:53:32Z</time>
      </trkpt>
      <trkpt lat="47.24688" lon="6.02509">
        <ele>288.4</ele>
        <time>2021-03-07T10:53:33Z</time>
      </trkpt>
      <trkpt lat="47.24688" lon="6.0251">
        <ele>288.4</ele>
        <time>2021-03-07T10:53:34Z</time>
      </trkpt>
      <trkpt lat="47.24688" lon="6.0251">
        <ele>288</ele>
        <time>2021-03-07T10:53:35Z</time>
      </trkpt>
      <trkpt lat="47.24688" lon="6.0251">
        <ele>288</ele>
        <time>2021-03-07T10:53:36Z</time>
      </trkpt>
      <trkpt lat="47.24688" lon="6.0251">
        <ele>287.8</ele>
        <time>2021-03-07T10:53:37Z</time>
      </trkpt>
      <trkpt lat="47.24688" lon="6.0251">
        <ele>287.2</ele>
        <time>2021-03-07T10:53:46Z</time>
      </trkpt>
      <trkpt lat="47.24688" lon="6.0251">
        <ele>287.4</ele>
        <time>2021-03-07T10:54:02Z</time>
      </trkpt>
    </trkseg>
  </trk>
</gpx>